<?xml version='1.0' encoding='UTF-8'?><gpx version="1.1" creator="JPX - https://github.com/jenetics/jpx" xmlns="http://www.topografix.com/GPX/1/1"><trk><trkseg><trkpt lat="42.46197151554107" lon="14.17807686142767"><ele>31.0</ele><time>2026-05-03T09:42:11.999Z</time></trkpt><trkpt lat="42.46188093968342" lon="14.17799763702978"><ele>31.0</ele><time>2026-05-03T09:42:13.999Z</time></trkpt><trkpt lat="42.46179155310715" lon="14.177905160215934"><ele>31.0</ele><time>2026-05-03T09:42:15.999Z</time></trkpt><trkpt lat="42.461721970225994" lon="14.177776007211973"><ele>31.0</ele><time>2026-05-03T09:42:17.999Z</time></trkpt><trkpt lat="42.4616718597707" lon="14.17763184190947"><ele>31.000000000000004</ele><time>2026-05-03T09:42:19.998Z</time></trkpt><trkpt lat="42.46160207407398" lon="14.17749939292852"><ele>31.0</ele><time>2026-05-03T09:42:21.999Z</time></trkpt><trkpt lat="42.46154650519484" lon="14.177409269557591"><ele>31.0</ele><time>2026-05-03T09:42:23.999Z</time></trkpt><trkpt lat="42.461520344615785" lon="14.177330758753612"><ele>31.0</ele><time>2026-05-03T09:42:24.999Z</time></trkpt><trkpt lat="42.461464896542275" lon="14.177258983700616"><ele>31.000000000000004</ele><time>2026-05-03T09:42:25.999Z</time></trkpt><trkpt lat="42.46142917391352" lon="14.177165853442073"><ele>31.0</ele><time>2026-05-03T09:42:26.999Z</time></trkpt><trkpt lat="42.46137957290413" lon="14.17706377482482"><ele>30.666666666666668</ele><time>2026-05-03T09:42:27.999Z</time></trkpt><trkpt lat="42.461329830379775" lon="14.176966256922492"><ele>30.333333333333336</ele><time>2026-05-03T09:42:28.999Z</time></trkpt><trkpt lat="42.461280942837924" lon="14.176873514212048"><ele>30.0</ele><time>2026-05-03T09:42:29.999Z</time></trkpt><trkpt lat="42.46123255803086" lon="14.176778641029886"><ele>29.666666666666664</ele><time>2026-05-03T09:42:30.999Z</time></trkpt><trkpt lat="42.4611913508282" lon="14.176685340596862"><ele>29.333333333333332</ele><time>2026-05-03T09:42:31.999Z</time></trkpt><trkpt lat="42.46114650909784" lon="14.176606707272404"><ele>29.0</ele><time>2026-05-03T09:42:32.999Z</time></trkpt><trkpt lat="42.461100629487525" lon="14.17653668771606"><ele>30.85714285714286</ele><time>2026-05-03T09:42:33.999Z</time></trkpt><trkpt lat="42.4610569602883" lon="14.176473623568747"><ele>32.714285714285715</ele><time>2026-05-03T09:42:34.999Z</time></trkpt><trkpt lat="42.461020365385565" lon="14.176395413280034"><ele>34.57142857142857</ele><time>2026-05-03T09:42:35.999Z</time></trkpt><trkpt lat="42.460962273694285" lon="14.176343136959215"><ele>36.42857142857143</ele><time>2026-05-03T09:42:36.999Z</time></trkpt><trkpt lat="42.46092235321503" lon="14.176264700708101"><ele>38.285714285714285</ele><time>2026-05-03T09:42:37.999Z</time></trkpt><trkpt lat="42.46086156000888" lon="14.17621469145812"><ele>40.142857142857146</ele><time>2026-05-03T09:42:38.999Z</time></trkpt><trkpt lat="42.4608168561085" lon="14.176149809938622"><ele>42.0</ele><time>2026-05-03T09:42:39.999Z</time></trkpt><trkpt lat="42.460779291325224" lon="14.17607086845546"><ele>42.0</ele><time>2026-05-03T09:42:40.999Z</time></trkpt><trkpt lat="42.46072026956996" lon="14.17598318496053"><ele>42.0</ele><time>2026-05-03T09:42:42.999Z</time></trkpt><trkpt lat="42.460655119274264" lon="14.175890857840466"><ele>42.0</ele><time>2026-05-03T09:42:46.999Z</time></trkpt><trkpt lat="42.460588932904535" lon="14.17577098364238"><ele>42.0</ele><time>2026-05-03T09:42:48.999Z</time></trkpt><trkpt lat="42.46052307679789" lon="14.175652892352831"><ele>42.0</ele><time>2026-05-03T09:42:50.999Z</time></trkpt><trkpt lat="42.46047335634843" lon="14.175592606397954"><ele>44.0</ele><time>2026-05-03T09:42:51.999Z</time></trkpt><trkpt lat="42.46043910192301" lon="14.175518351681497"><ele>46.0</ele><time>2026-05-03T09:42:52.999Z</time></trkpt><trkpt lat="42.460397475907115" lon="14.17544293219696"><ele>48.0</ele><time>2026-05-03T09:42:53.999Z</time></trkpt><trkpt lat="42.46037312532977" lon="14.175358087873455"><ele>50.0</ele><time>2026-05-03T09:42:54.999Z</time></trkpt><trkpt lat="42.46032984381444" lon="14.175284466230616"><ele>52.0</ele><time>2026-05-03T09:42:55.999Z</time></trkpt><trkpt lat="42.46028794132233" lon="14.175220000792283"><ele>54.0</ele><time>2026-05-03T09:42:56.999Z</time></trkpt><trkpt lat="42.46024615856838" lon="14.175151035367247"><ele>56.0</ele><time>2026-05-03T09:42:57.999Z</time></trkpt><trkpt lat="42.46020641165465" lon="14.175083472282582"><ele>56.00000000000001</ele><time>2026-05-03T09:42:58.999Z</time></trkpt><trkpt lat="42.46015973889593" lon="14.175024088467318"><ele>56.0</ele><time>2026-05-03T09:42:59.999Z</time></trkpt><trkpt lat="42.46012896235604" lon="14.174948417752312"><ele>56.0</ele><time>2026-05-03T09:43:00.999Z</time></trkpt><trkpt lat="42.460067548646045" lon="14.174832795957176"><ele>56.0</ele><time>2026-05-03T09:43:02.999Z</time></trkpt><trkpt lat="42.460012283361266" lon="14.174724094122844"><ele>56.00000000000001</ele><time>2026-05-03T09:43:04.999Z</time></trkpt><trkpt lat="42.4599591437715" lon="14.174649298381265"><ele>56.0</ele><time>2026-05-03T09:43:06.999Z</time></trkpt><trkpt lat="42.45988746795968" lon="14.174578888524996"><ele>56.0</ele><time>2026-05-03T09:43:09.999Z</time></trkpt><trkpt lat="42.45981721274929" lon="14.174522693278945"><ele>55.99999999999999</ele><time>2026-05-03T09:43:11.999Z</time></trkpt><trkpt lat="42.459772648406044" lon="14.17440575422423"><ele>55.99999999999999</ele><time>2026-05-03T09:43:13.999Z</time></trkpt><trkpt lat="42.45977151888486" lon="14.174248435878862"><ele>56.0</ele><time>2026-05-03T09:43:15.999Z</time></trkpt><trkpt lat="42.45979115332913" lon="14.174081550668014"><ele>56.0</ele><time>2026-05-03T09:43:17.999Z</time></trkpt><trkpt lat="42.4598022596607" lon="14.173994897244363"><ele>56.16666666666667</ele><time>2026-05-03T09:43:18.999Z</time></trkpt><trkpt lat="42.45980947320101" lon="14.173904837286692"><ele>56.333333333333336</ele><time>2026-05-03T09:43:19.999Z</time></trkpt><trkpt lat="42.4598109977633" lon="14.173814277548727"><ele>56.5</ele><time>2026-05-03T09:43:20.999Z</time></trkpt><trkpt lat="42.459812286989745" lon="14.173723989976375"><ele>56.66666666666667</ele><time>2026-05-03T09:43:21.999Z</time></trkpt><trkpt lat="42.459810359178235" lon="14.17363424367123"><ele>56.833333333333336</ele><time>2026-05-03T09:43:22.999Z</time></trkpt><trkpt lat="42.45976736852575" lon="14.173494794424986"><ele>57.0</ele><time>2026-05-03T09:43:24.999Z</time></trkpt><trkpt lat="42.45970126065651" lon="14.173368402247707"><ele>57.5</ele><time>2026-05-03T09:43:26.999Z</time></trkpt><trkpt lat="42.4595996840021" lon="14.173278995572257"><ele>58.0</ele><time>2026-05-03T09:43:28.999Z</time></trkpt><trkpt lat="42.45949845666601" lon="14.17318044970696"><ele>58.5</ele><time>2026-05-03T09:43:30.999Z</time></trkpt><trkpt lat="42.459447142094945" lon="14.173126107526555"><ele>59.0</ele><time>2026-05-03T09:43:31.999Z</time></trkpt><trkpt lat="42.459396979526964" lon="14.173069411529719"><ele>59.5</ele><time>2026-05-03T09:43:32.999Z</time></trkpt><trkpt lat="42.459350778274576" lon="14.173007328389804"><ele>60.0</ele><time>2026-05-03T09:43:33.999Z</time></trkpt><trkpt lat="42.45930642038151" lon="14.172938416409819"><ele>61.0</ele><time>2026-05-03T09:43:34.999Z</time></trkpt><trkpt lat="42.45926315107814" lon="14.172865074582335"><ele>62.0</ele><time>2026-05-03T09:43:35.999Z</time></trkpt><trkpt lat="42.45921961840092" lon="14.17279070239102"><ele>63.0</ele><time>2026-05-03T09:43:36.999Z</time></trkpt><trkpt lat="42.45915799201574" lon="14.172731790145223"><ele>64.0</ele><time>2026-05-03T09:43:37.999Z</time></trkpt><trkpt lat="42.4591071709478" lon="14.172658666532636"><ele>65.0</ele><time>2026-05-03T09:43:38.999Z</time></trkpt><trkpt lat="42.45907469765334" lon="14.172573466441449"><ele>66.0</ele><time>2026-05-03T09:43:39.999Z</time></trkpt><trkpt lat="42.4590307973216" lon="14.172501061765876"><ele>67.0</ele><time>2026-05-03T09:43:40.999Z</time></trkpt><trkpt lat="42.45898889373023" lon="14.172424793899117"><ele>68.28571428571429</ele><time>2026-05-03T09:43:41.999Z</time></trkpt><trkpt lat="42.458939513456535" lon="14.172355025847716"><ele>69.57142857142857</ele><time>2026-05-03T09:43:42.999Z</time></trkpt><trkpt lat="42.45890669235273" lon="14.172273144207463"><ele>70.85714285714286</ele><time>2026-05-03T09:43:43.999Z</time></trkpt><trkpt lat="42.45889671410616" lon="14.172178337670504"><ele>72.14285714285714</ele><time>2026-05-03T09:43:44.999Z</time></trkpt><trkpt lat="42.45887148681773" lon="14.17208428986572"><ele>73.42857142857143</ele><time>2026-05-03T09:43:45.999Z</time></trkpt><trkpt lat="42.45883801259173" lon="14.171991761531517"><ele>74.71428571428571</ele><time>2026-05-03T09:43:46.999Z</time></trkpt><trkpt lat="42.45882515664517" lon="14.171894835308803"><ele>76.0</ele><time>2026-05-03T09:43:47.999Z</time></trkpt><trkpt lat="42.45881069858968" lon="14.17179861614987"><ele>76.0</ele><time>2026-05-03T09:43:48.999Z</time></trkpt><trkpt lat="42.458793885636254" lon="14.17168024606212"><ele>76.0</ele><time>2026-05-03T09:43:49.999Z</time></trkpt><trkpt lat="42.458773789201096" lon="14.171582984753881"><ele>76.0</ele><time>2026-05-03T09:43:50.999Z</time></trkpt><trkpt lat="42.458756396568724" lon="14.17146338389797"><ele>76.0</ele><time>2026-05-03T09:43:51.999Z</time></trkpt><trkpt lat="42.458728258589275" lon="14.171362306494142"><ele>76.0</ele><time>2026-05-03T09:43:52.999Z</time></trkpt><trkpt lat="42.45869904061941" lon="14.171259529555075"><ele>76.0</ele><time>2026-05-03T09:43:53.999Z</time></trkpt><trkpt lat="42.45866747267435" lon="14.171144676564689"><ele>76.66666666666666</ele><time>2026-05-03T09:43:54.999Z</time></trkpt><trkpt lat="42.45863849098274" lon="14.171029606639575"><ele>77.33333333333333</ele><time>2026-05-03T09:43:55.999Z</time></trkpt><trkpt lat="42.45861563074824" lon="14.17091285951409"><ele>78.0</ele><time>2026-05-03T09:43:56.999Z</time></trkpt><trkpt lat="42.458585394244764" lon="14.170798716780427"><ele>78.66666666666667</ele><time>2026-05-03T09:43:57.999Z</time></trkpt><trkpt lat="42.45855120289812" lon="14.170686048104349"><ele>79.33333333333334</ele><time>2026-05-03T09:43:58.999Z</time></trkpt><trkpt lat="42.458511092275764" lon="14.170577016736791"><ele>80.0</ele><time>2026-05-03T09:43:59.999Z</time></trkpt><trkpt lat="42.458475198345525" lon="14.170473333069674"><ele>82.16666666666667</ele><time>2026-05-03T09:44:00.999Z</time></trkpt><trkpt lat="42.458428351719796" lon="14.170372600079471"><ele>84.33333333333334</ele><time>2026-05-03T09:44:01.999Z</time></trkpt><trkpt lat="42.45838431308797" lon="14.170270293853235"><ele>86.5</ele><time>2026-05-03T09:44:02.999Z</time></trkpt><trkpt lat="42.458341848545146" lon="14.17016546509829"><ele>88.66666666666667</ele><time>2026-05-03T09:44:03.999Z</time></trkpt><trkpt lat="42.45829585123528" lon="14.170062461061699"><ele>90.83333333333333</ele><time>2026-05-03T09:44:04.999Z</time></trkpt><trkpt lat="42.45824747545365" lon="14.169957796437464"><ele>93.0</ele><time>2026-05-03T09:44:05.999Z</time></trkpt><trkpt lat="42.45819950972489" lon="14.169851787018874"><ele>94.4</ele><time>2026-05-03T09:44:06.999Z</time></trkpt><trkpt lat="42.458152379285394" lon="14.169736092425953"><ele>95.80000000000001</ele><time>2026-05-03T09:44:07.999Z</time></trkpt><trkpt lat="42.458103772224945" lon="14.169624233154158"><ele>97.2</ele><time>2026-05-03T09:44:08.999Z</time></trkpt><trkpt lat="42.458076379350146" lon="14.169517177561557"><ele>98.6</ele><time>2026-05-03T09:44:09.999Z</time></trkpt><trkpt lat="42.458061453262786" lon="14.16940060297534"><ele>100.0</ele><time>2026-05-03T09:44:10.999Z</time></trkpt><trkpt lat="42.45805110298362" lon="14.169269850167414"><ele>100.00000000000001</ele><time>2026-05-03T09:44:11.999Z</time></trkpt><trkpt lat="42.45804035530913" lon="14.16913657478371"><ele>100.0</ele><time>2026-05-03T09:44:12.999Z</time></trkpt><trkpt lat="42.458027927019295" lon="14.16899746909507"><ele>100.0</ele><time>2026-05-03T09:44:13.999Z</time></trkpt><trkpt lat="42.45801664412625" lon="14.168871692268445"><ele>100.0</ele><time>2026-05-03T09:44:14.999Z</time></trkpt><trkpt lat="42.45801009502687" lon="14.16876992860972"><ele>100.00000000000001</ele><time>2026-05-03T09:44:15.999Z</time></trkpt><trkpt lat="42.45800810210565" lon="14.168682165307834"><ele>100.0</ele><time>2026-05-03T09:44:16.999Z</time></trkpt><trkpt lat="42.45802030210862" lon="14.16856128619745"><ele>106.0</ele><time>2026-05-03T09:44:19.999Z</time></trkpt></trkseg><trkseg><trkpt lat="42.45799426224869" lon="14.168473471866923"><ele>106.00000000000001</ele><time>2026-05-03T09:56:10.999Z</time></trkpt><trkpt lat="42.45799001343541" lon="14.168382670596847"><ele>106.0</ele><time>2026-05-03T09:56:11.999Z</time></trkpt><trkpt lat="42.45799007654764" lon="14.168291239128296"><ele>106.0</ele><time>2026-05-03T09:56:12.999Z</time></trkpt><trkpt lat="42.45799073738272" lon="14.168188065420809"><ele>106.0</ele><time>2026-05-03T09:56:13.999Z</time></trkpt><trkpt lat="42.457996920966124" lon="14.168075441967074"><ele>106.00000000000001</ele><time>2026-05-03T09:56:14.999Z</time></trkpt><trkpt lat="42.45800516695541" lon="14.16794998862256"><ele>106.0</ele><time>2026-05-03T09:56:15.999Z</time></trkpt><trkpt lat="42.458011486061345" lon="14.167828783162678"><ele>107.19999999999999</ele><time>2026-05-03T09:56:16.999Z</time></trkpt><trkpt lat="42.458019775165006" lon="14.16769797897876"><ele>108.39999999999999</ele><time>2026-05-03T09:56:17.999Z</time></trkpt><trkpt lat="42.45802487890146" lon="14.167565180402658"><ele>109.6</ele><time>2026-05-03T09:56:18.999Z</time></trkpt><trkpt lat="42.45803368828909" lon="14.167432027372891"><ele>110.8</ele><time>2026-05-03T09:56:19.999Z</time></trkpt><trkpt lat="42.45804492895924" lon="14.167303703075671"><ele>112.0</ele><time>2026-05-03T09:56:20.999Z</time></trkpt><trkpt lat="42.458055900768485" lon="14.167170240758875"><ele>112.39999999999999</ele><time>2026-05-03T09:56:21.999Z</time></trkpt><trkpt lat="42.458062927384525" lon="14.167040779161432"><ele>112.79999999999998</ele><time>2026-05-03T09:56:22.999Z</time></trkpt><trkpt lat="42.45806059580259" lon="14.166907009311855"><ele>113.2</ele><time>2026-05-03T09:56:23.999Z</time></trkpt><trkpt lat="42.458046226975945" lon="14.16677047745309"><ele>113.6</ele><time>2026-05-03T09:56:24.999Z</time></trkpt><trkpt lat="42.45802952403262" lon="14.166626124669921"><ele>114.0</ele><time>2026-05-03T09:56:25.999Z</time></trkpt><trkpt lat="42.45801597509329" lon="14.16647380719866"><ele>114.0</ele><time>2026-05-03T09:56:26.999Z</time></trkpt><trkpt lat="42.45799957439101" lon="14.166323425821686"><ele>114.0</ele><time>2026-05-03T09:56:27.999Z</time></trkpt><trkpt lat="42.457985509218474" lon="14.166181513547656"><ele>114.0</ele><time>2026-05-03T09:56:28.999Z</time></trkpt><trkpt lat="42.45797507983249" lon="14.166051722454904"><ele>114.0</ele><time>2026-05-03T09:56:29.999Z</time></trkpt><trkpt lat="42.457976182727236" lon="14.165930723924781"><ele>114.0</ele><time>2026-05-03T09:56:30.999Z</time></trkpt><trkpt lat="42.4579874246204" lon="14.165799878556768"><ele>114.4</ele><time>2026-05-03T09:56:31.999Z</time></trkpt><trkpt lat="42.458004098238355" lon="14.165661217718732"><ele>114.80000000000001</ele><time>2026-05-03T09:56:32.999Z</time></trkpt><trkpt lat="42.45803141883832" lon="14.165514528125714"><ele>115.19999999999999</ele><time>2026-05-03T09:56:33.999Z</time></trkpt><trkpt lat="42.45806183530541" lon="14.165365762892458"><ele>115.6</ele><time>2026-05-03T09:56:34.999Z</time></trkpt><trkpt lat="42.45809251837761" lon="14.165211324493537"><ele>116.0</ele><time>2026-05-03T09:56:35.999Z</time></trkpt><trkpt lat="42.458120908270814" lon="14.165055516647831"><ele>116.0</ele><time>2026-05-03T09:56:36.999Z</time></trkpt><trkpt lat="42.458151269774895" lon="14.164898276547135"><ele>116.0</ele><time>2026-05-03T09:56:37.999Z</time></trkpt><trkpt lat="42.458182004611594" lon="14.164743034979935"><ele>116.0</ele><time>2026-05-03T09:56:38.999Z</time></trkpt><trkpt lat="42.45823417774838" lon="14.164597918262901"><ele>116.0</ele><time>2026-05-03T09:56:39.999Z</time></trkpt><trkpt lat="42.45827366486494" lon="14.164445534869307"><ele>116.5</ele><time>2026-05-03T09:56:40.999Z</time></trkpt><trkpt lat="42.45829777411342" lon="14.164288385037697"><ele>117.0</ele><time>2026-05-03T09:56:41.999Z</time></trkpt><trkpt lat="42.458335501377924" lon="14.1641406948095"><ele>117.5</ele><time>2026-05-03T09:56:42.999Z</time></trkpt><trkpt lat="42.45837567624765" lon="14.163995391388116"><ele>118.0</ele><time>2026-05-03T09:56:43.999Z</time></trkpt><trkpt lat="42.45841084670986" lon="14.163843624945743"><ele>118.25</ele><time>2026-05-03T09:56:44.999Z</time></trkpt><trkpt lat="42.45844272966217" lon="14.163686489974996"><ele>118.5</ele><time>2026-05-03T09:56:45.999Z</time></trkpt><trkpt lat="42.45847420917809" lon="14.163538169259429"><ele>118.75</ele><time>2026-05-03T09:56:46.999Z</time></trkpt><trkpt lat="42.45851337183687" lon="14.163399551093407"><ele>119.0</ele><time>2026-05-03T09:56:47.999Z</time></trkpt><trkpt lat="42.45856716870235" lon="14.163264063760195"><ele>119.5</ele><time>2026-05-03T09:56:48.999Z</time></trkpt><trkpt lat="42.45862876987443" lon="14.16311953346047"><ele>120.0</ele><time>2026-05-03T09:56:49.999Z</time></trkpt><trkpt lat="42.458696692648815" lon="14.16297150472724"><ele>120.5</ele><time>2026-05-03T09:56:50.999Z</time></trkpt><trkpt lat="42.45876722086284" lon="14.162824731445646"><ele>121.0</ele><time>2026-05-03T09:56:51.999Z</time></trkpt><trkpt lat="42.45883959746906" lon="14.162679802288725"><ele>121.0</ele><time>2026-05-03T09:56:52.999Z</time></trkpt><trkpt lat="42.458917023307016" lon="14.162536516193335"><ele>121.0</ele><time>2026-05-03T09:56:53.999Z</time></trkpt><trkpt lat="42.45899471354356" lon="14.162397956535298"><ele>121.0</ele><time>2026-05-03T09:56:54.999Z</time></trkpt><trkpt lat="42.45907658444321" lon="14.162264008617193"><ele>121.0</ele><time>2026-05-03T09:56:55.999Z</time></trkpt><trkpt lat="42.45915924421543" lon="14.162130741238535"><ele>121.0</ele><time>2026-05-03T09:56:56.999Z</time></trkpt><trkpt lat="42.45922909835267" lon="14.161987485315908"><ele>121.0</ele><time>2026-05-03T09:56:57.999Z</time></trkpt><trkpt lat="42.45928595595819" lon="14.161842546857764"><ele>121.0</ele><time>2026-05-03T09:56:58.999Z</time></trkpt><trkpt lat="42.459332566847664" lon="14.161696487932677"><ele>121.0</ele><time>2026-05-03T09:56:59.999Z</time></trkpt><trkpt lat="42.45937644738078" lon="14.161555042007366"><ele>120.0</ele><time>2026-05-03T09:57:00.999Z</time></trkpt><trkpt lat="42.459411138531564" lon="14.161408224324456"><ele>119.0</ele><time>2026-05-03T09:57:01.999Z</time></trkpt><trkpt lat="42.4594464611106" lon="14.161259207711266"><ele>118.0</ele><time>2026-05-03T09:57:03Z</time></trkpt><trkpt lat="42.459471563035166" lon="14.161102450490771"><ele>117.0</ele><time>2026-05-03T09:57:04Z</time></trkpt><trkpt lat="42.459509975992646" lon="14.160963114488442"><ele>117.0</ele><time>2026-05-03T09:57:05Z</time></trkpt><trkpt lat="42.45952936025833" lon="14.160838008464081"><ele>116.99999999999999</ele><time>2026-05-03T09:57:06Z</time></trkpt><trkpt lat="42.45953495747764" lon="14.160713782141531"><ele>116.99999999999999</ele><time>2026-05-03T09:57:07Z</time></trkpt><trkpt lat="42.459554860098855" lon="14.160582101668922"><ele>117.0</ele><time>2026-05-03T09:57:08Z</time></trkpt><trkpt lat="42.459593477981656" lon="14.160446479998656"><ele>117.0</ele><time>2026-05-03T09:57:09Z</time></trkpt><trkpt lat="42.4596071734139" lon="14.160308221583486"><ele>117.0</ele><time>2026-05-03T09:57:10Z</time></trkpt><trkpt lat="42.45963826799247" lon="14.160175801152919"><ele>116.99999999999999</ele><time>2026-05-03T09:57:11Z</time></trkpt><trkpt lat="42.45967222482973" lon="14.160051561155848"><ele>116.99999999999999</ele><time>2026-05-03T09:57:12Z</time></trkpt><trkpt lat="42.45970888418072" lon="14.15993530907323"><ele>117.0</ele><time>2026-05-03T09:57:13Z</time></trkpt><trkpt lat="42.45973735342551" lon="14.159833737916726"><ele>117.0</ele><time>2026-05-03T09:57:14Z</time></trkpt><trkpt lat="42.45977108420384" lon="14.15972183552773"><ele>117.0</ele><time>2026-05-03T09:57:16Z</time></trkpt><trkpt lat="42.45979792337974" lon="14.159580074168636"><ele>117.0</ele><time>2026-05-03T09:57:18Z</time></trkpt><trkpt lat="42.45981496997687" lon="14.159489493904834"><ele>117.0</ele><time>2026-05-03T09:57:19Z</time></trkpt><trkpt lat="42.45984094545068" lon="14.159398201394932"><ele>117.0</ele><time>2026-05-03T09:57:20Z</time></trkpt><trkpt lat="42.459859042404396" lon="14.15930497656575"><ele>117.0</ele><time>2026-05-03T09:57:21Z</time></trkpt><trkpt lat="42.45987734540781" lon="14.15922178916262"><ele>117.0</ele><time>2026-05-03T09:57:22Z</time></trkpt><trkpt lat="42.459894701122465" lon="14.159135917878"><ele>117.0</ele><time>2026-05-03T09:57:23Z</time></trkpt><trkpt lat="42.45990904079248" lon="14.159048093955088"><ele>117.0</ele><time>2026-05-03T09:57:24Z</time></trkpt><trkpt lat="42.459927214503395" lon="14.158945517910144"><ele>117.0</ele><time>2026-05-03T09:57:25Z</time></trkpt><trkpt lat="42.45993574743164" lon="14.158840774814815"><ele>117.0</ele><time>2026-05-03T09:57:26Z</time></trkpt><trkpt lat="42.45995890566582" lon="14.15873080019056"><ele>117.0</ele><time>2026-05-03T09:57:27Z</time></trkpt><trkpt lat="42.45996618219062" lon="14.15860761906102"><ele>117.0</ele><time>2026-05-03T09:57:28Z</time></trkpt><trkpt lat="42.45997238324698" lon="14.158488309830679"><ele>116.83333333333333</ele><time>2026-05-03T09:57:29Z</time></trkpt><trkpt lat="42.45997715716546" lon="14.158370751992777"><ele>116.66666666666666</ele><time>2026-05-03T09:57:30Z</time></trkpt><trkpt lat="42.45997065551579" lon="14.158252833505726"><ele>116.5</ele><time>2026-05-03T09:57:31Z</time></trkpt><trkpt lat="42.45997260153965" lon="14.158137071786738"><ele>116.33333333333333</ele><time>2026-05-03T09:57:32Z</time></trkpt><trkpt lat="42.45996506085501" lon="14.158015495896198"><ele>116.16666666666666</ele><time>2026-05-03T09:57:33Z</time></trkpt><trkpt lat="42.45997260455981" lon="14.157890522891792"><ele>116.0</ele><time>2026-05-03T09:57:34Z</time></trkpt><trkpt lat="42.459944444676616" lon="14.157770566382816"><ele>116.33333333333333</ele><time>2026-05-03T09:57:35Z</time></trkpt><trkpt lat="42.45992977037636" lon="14.157648631217523"><ele>116.66666666666666</ele><time>2026-05-03T09:57:36Z</time></trkpt><trkpt lat="42.45991209032154" lon="14.157527247552894"><ele>117.0</ele><time>2026-05-03T09:57:37Z</time></trkpt><trkpt lat="42.4598860411193" lon="14.15741025932826"><ele>117.33333333333334</ele><time>2026-05-03T09:57:38Z</time></trkpt><trkpt lat="42.459860291794755" lon="14.157309528538194"><ele>117.66666666666667</ele><time>2026-05-03T09:57:39Z</time></trkpt><trkpt lat="42.45981699552309" lon="14.157219850605316"><ele>118.0</ele><time>2026-05-03T09:57:40Z</time></trkpt><trkpt lat="42.459767099715826" lon="14.157120985012552"><ele>118.80000000000001</ele><time>2026-05-03T09:57:41Z</time></trkpt><trkpt lat="42.45968798424963" lon="14.157056978748255"><ele>119.60000000000001</ele><time>2026-05-03T09:57:42Z</time></trkpt><trkpt lat="42.45959651978852" lon="14.157023073241776"><ele>120.39999999999999</ele><time>2026-05-03T09:57:43Z</time></trkpt><trkpt lat="42.459517619178186" lon="14.15699677305188"><ele>121.19999999999999</ele><time>2026-05-03T09:57:44Z</time></trkpt><trkpt lat="42.45941321080762" lon="14.15699568201269"><ele>122.0</ele><time>2026-05-03T09:57:46Z</time></trkpt><trkpt lat="42.4593329709548" lon="14.156975234488026"><ele>121.99999999999999</ele><time>2026-05-03T09:57:49Z</time></trkpt><trkpt lat="42.4594067249644" lon="14.156832255748752"><ele>122.0</ele><time>2026-05-03T09:57:54Z</time></trkpt><trkpt lat="42.45946644927889" lon="14.156781726761755"><ele>122.0</ele><time>2026-05-03T09:57:57Z</time></trkpt><trkpt lat="42.45940765298718" lon="14.156829692374137"><ele>122.0</ele><time>2026-05-03T09:58:04.999Z</time></trkpt><trkpt lat="42.459337480963114" lon="14.156902598896107"><ele>121.99999999999999</ele><time>2026-05-03T09:58:06.999Z</time></trkpt><trkpt lat="42.45930080339506" lon="14.156991374060386"><ele>122.0</ele><time>2026-05-03T09:58:10.999Z</time></trkpt><trkpt lat="42.459135048302066" lon="14.156929125899348"><ele>122.0</ele><time>2026-05-03T09:58:47.999Z</time></trkpt><trkpt lat="42.45908615005865" lon="14.15675950888059"><ele>121.99999999999999</ele><time>2026-05-03T09:58:48.999Z</time></trkpt><trkpt lat="42.45905572278035" lon="14.156625643608892"><ele>121.99999999999999</ele><time>2026-05-03T09:58:50.999Z</time></trkpt><trkpt lat="42.459027605408075" lon="14.156531543721272"><ele>122.0</ele><time>2026-05-03T09:58:51.999Z</time></trkpt><trkpt lat="42.459000787343555" lon="14.156427553944768"><ele>122.0</ele><time>2026-05-03T09:58:52.999Z</time></trkpt><trkpt lat="42.45897734886744" lon="14.156332241562776"><ele>122.33333333333333</ele><time>2026-05-03T09:58:53.999Z</time></trkpt><trkpt lat="42.4589352782461" lon="14.156247460258152"><ele>122.66666666666666</ele><time>2026-05-03T09:58:54.999Z</time></trkpt><trkpt lat="42.45891056299643" lon="14.15615789403752"><ele>123.0</ele><time>2026-05-03T09:58:55.999Z</time></trkpt><trkpt lat="42.45887011372216" lon="14.156078084681294"><ele>123.33333333333334</ele><time>2026-05-03T09:58:56.999Z</time></trkpt><trkpt lat="42.45883479396253" lon="14.155955057548672"><ele>123.66666666666667</ele><time>2026-05-03T09:58:58.999Z</time></trkpt><trkpt lat="42.45880180838095" lon="14.15587944141838"><ele>124.0</ele><time>2026-05-03T09:59:01.999Z</time></trkpt><trkpt lat="42.458919104701934" lon="14.155910717351253"><ele>124.0</ele><time>2026-05-03T09:59:07.999Z</time></trkpt><trkpt lat="42.45898888060241" lon="14.155821406498802"><ele>124.0</ele><time>2026-05-03T09:59:09Z</time></trkpt><trkpt lat="42.459003696500595" lon="14.156489904799304"><ele>123.6</ele><time>2026-05-03T09:59:12Z</time></trkpt><trkpt lat="42.45903914492483" lon="14.156647830097572"><ele>123.2</ele><time>2026-05-03T09:59:13Z</time></trkpt><trkpt lat="42.459093468291684" lon="14.156788164475952"><ele>122.79999999999998</ele><time>2026-05-03T09:59:14Z</time></trkpt><trkpt lat="42.459152433403816" lon="14.156886710185729"><ele>122.39999999999999</ele><time>2026-05-03T09:59:15Z</time></trkpt><trkpt lat="42.4591965535519" lon="14.156951271397036"><ele>122.0</ele><time>2026-05-03T09:59:16Z</time></trkpt><trkpt lat="42.45926345449696" lon="14.15706240338672"><ele>122.0</ele><time>2026-05-03T09:59:18Z</time></trkpt><trkpt lat="42.45919616183294" lon="14.157214123459148"><ele>122.0</ele><time>2026-05-03T09:59:20Z</time></trkpt><trkpt lat="42.459131844821364" lon="14.157283775862433"><ele>122.0</ele><time>2026-05-03T09:59:21Z</time></trkpt><trkpt lat="42.45901755874359" lon="14.15736902852974"><ele>122.0</ele><time>2026-05-03T09:59:22Z</time></trkpt><trkpt lat="42.45889907350456" lon="14.157479272412003"><ele>121.0</ele><time>2026-05-03T09:59:23Z</time></trkpt><trkpt lat="42.458786577048684" lon="14.15757237023509"><ele>119.99999999999999</ele><time>2026-05-03T09:59:24Z</time></trkpt><trkpt lat="42.45869764863541" lon="14.157665623515138"><ele>118.99999999999999</ele><time>2026-05-03T09:59:25Z</time></trkpt><trkpt lat="42.45862844189095" lon="14.15776441338594"><ele>118.0</ele><time>2026-05-03T09:59:26Z</time></trkpt><trkpt lat="42.45857256264711" lon="14.157879245634417"><ele>117.0</ele><time>2026-05-03T09:59:27Z</time></trkpt><trkpt lat="42.458528811684815" lon="14.158002432496643"><ele>116.0</ele><time>2026-05-03T09:59:28Z</time></trkpt><trkpt lat="42.45848180802939" lon="14.158114297383555"><ele>114.99999999999999</ele><time>2026-05-03T09:59:29Z</time></trkpt><trkpt lat="42.45843543681452" lon="14.158198696420039"><ele>113.99999999999999</ele><time>2026-05-03T09:59:30Z</time></trkpt><trkpt lat="42.45835652124486" lon="14.158270175817487"><ele>113.0</ele><time>2026-05-03T09:59:32Z</time></trkpt><trkpt lat="42.45831230454725" lon="14.158087400260552"><ele>112.0</ele><time>2026-05-03T09:59:36Z</time></trkpt><trkpt lat="42.4583184503269" lon="14.157969745442525"><ele>112.0</ele><time>2026-05-03T09:59:37Z</time></trkpt><trkpt lat="42.4583088981896" lon="14.157854331622566"><ele>111.99999999999999</ele><time>2026-05-03T09:59:38Z</time></trkpt><trkpt lat="42.45831490597298" lon="14.157733368596306"><ele>111.99999999999999</ele><time>2026-05-03T09:59:39Z</time></trkpt><trkpt lat="42.45833539091453" lon="14.157588544382227"><ele>112.0</ele><time>2026-05-03T09:59:40Z</time></trkpt><trkpt lat="42.45836086549256" lon="14.157432172188201"><ele>112.0</ele><time>2026-05-03T09:59:41Z</time></trkpt><trkpt lat="42.4583890498407" lon="14.15726386576541"><ele>110.75</ele><time>2026-05-03T09:59:42Z</time></trkpt><trkpt lat="42.45841705181013" lon="14.157093326660053"><ele>109.5</ele><time>2026-05-03T09:59:43Z</time></trkpt><trkpt lat="42.45845158353867" lon="14.156907934085599"><ele>108.25</ele><time>2026-05-03T09:59:43.999Z</time></trkpt><trkpt lat="42.4584801856236" lon="14.15671959321678"><ele>107.0</ele><time>2026-05-03T09:59:44.999Z</time></trkpt><trkpt lat="42.45850337138197" lon="14.156530578151504"><ele>107.0</ele><time>2026-05-03T09:59:45.999Z</time></trkpt><trkpt lat="42.45852088793185" lon="14.15634574786249"><ele>107.0</ele><time>2026-05-03T09:59:46.999Z</time></trkpt><trkpt lat="42.45852902647522" lon="14.156155435682349"><ele>107.0</ele><time>2026-05-03T09:59:47.999Z</time></trkpt><trkpt lat="42.45851013896594" lon="14.155960211233388"><ele>107.0</ele><time>2026-05-03T09:59:48.999Z</time></trkpt><trkpt lat="42.45848045116501" lon="14.15576420823421"><ele>107.5</ele><time>2026-05-03T09:59:49.999Z</time></trkpt><trkpt lat="42.458438631082956" lon="14.155574533699378"><ele>108.0</ele><time>2026-05-03T09:59:50.999Z</time></trkpt><trkpt lat="42.45840036340909" lon="14.155390856527731"><ele>108.5</ele><time>2026-05-03T09:59:51.999Z</time></trkpt><trkpt lat="42.45837907809127" lon="14.155224253386557"><ele>109.0</ele><time>2026-05-03T09:59:52.999Z</time></trkpt><trkpt lat="42.458378696081375" lon="14.155060706492497"><ele>109.0</ele><time>2026-05-03T09:59:53.999Z</time></trkpt><trkpt lat="42.45839844134425" lon="14.15490721825341"><ele>109.0</ele><time>2026-05-03T09:59:54.999Z</time></trkpt><trkpt lat="42.458425957019294" lon="14.154763983375105"><ele>109.0</ele><time>2026-05-03T09:59:55.999Z</time></trkpt><trkpt lat="42.45845134109631" lon="14.154627087302709"><ele>109.0</ele><time>2026-05-03T09:59:56.999Z</time></trkpt><trkpt lat="42.45846635454903" lon="14.154499449927984"><ele>109.0</ele><time>2026-05-03T09:59:57.999Z</time></trkpt><trkpt lat="42.45845906081958" lon="14.15437599406709"><ele>109.80000000000001</ele><time>2026-05-03T09:59:58.999Z</time></trkpt><trkpt lat="42.45845428006825" lon="14.154256160539468"><ele>110.60000000000001</ele><time>2026-05-03T09:59:59.999Z</time></trkpt><trkpt lat="42.45840599823299" lon="14.1541536094178"><ele>111.4</ele><time>2026-05-03T10:00:00.999Z</time></trkpt><trkpt lat="42.45836353774115" lon="14.154037543428663"><ele>112.2</ele><time>2026-05-03T10:00:01.999Z</time></trkpt><trkpt lat="42.4583033910723" lon="14.153919682225002"><ele>113.0</ele><time>2026-05-03T10:00:02.999Z</time></trkpt><trkpt lat="42.458218769681274" lon="14.153815048035076"><ele>113.0</ele><time>2026-05-03T10:00:03.999Z</time></trkpt><trkpt lat="42.45812750423471" lon="14.153711006097147"><ele>113.0</ele><time>2026-05-03T10:00:04.999Z</time></trkpt><trkpt lat="42.45803655422279" lon="14.153603046042827"><ele>113.0</ele><time>2026-05-03T10:00:05.999Z</time></trkpt><trkpt lat="42.45794709822247" lon="14.153500573204825"><ele>113.0</ele><time>2026-05-03T10:00:06.999Z</time></trkpt><trkpt lat="42.457872757686346" lon="14.153395453735792"><ele>113.0</ele><time>2026-05-03T10:00:07.999Z</time></trkpt><trkpt lat="42.45781826749702" lon="14.153281546438345"><ele>113.00000000000001</ele><time>2026-05-03T10:00:08.999Z</time></trkpt><trkpt lat="42.457782326987335" lon="14.153161494208291"><ele>113.00000000000001</ele><time>2026-05-03T10:00:09.999Z</time></trkpt><trkpt lat="42.457778326783455" lon="14.15303670341541"><ele>113.0</ele><time>2026-05-03T10:00:10.999Z</time></trkpt><trkpt lat="42.4577602062719" lon="14.15290349565003"><ele>113.0</ele><time>2026-05-03T10:00:11.999Z</time></trkpt><trkpt lat="42.45777776085721" lon="14.15275318849612"><ele>111.75</ele><time>2026-05-03T10:00:12.999Z</time></trkpt><trkpt lat="42.45778937806806" lon="14.152581436911554"><ele>110.5</ele><time>2026-05-03T10:00:13.999Z</time></trkpt><trkpt lat="42.457784629662086" lon="14.152404817535071"><ele>109.25</ele><time>2026-05-03T10:00:14.999Z</time></trkpt><trkpt lat="42.45776921227582" lon="14.152225792789862"><ele>108.0</ele><time>2026-05-03T10:00:15.999Z</time></trkpt><trkpt lat="42.45773896450469" lon="14.15204840255559"><ele>108.0</ele><time>2026-05-03T10:00:16.999Z</time></trkpt><trkpt lat="42.45769436276397" lon="14.151875798724733"><ele>108.0</ele><time>2026-05-03T10:00:17.999Z</time></trkpt><trkpt lat="42.45764925841622" lon="14.151708536978964"><ele>108.0</ele><time>2026-05-03T10:00:18.999Z</time></trkpt><trkpt lat="42.457601099606045" lon="14.151546836645164"><ele>108.0</ele><time>2026-05-03T10:00:19.999Z</time></trkpt><trkpt lat="42.45755982942423" lon="14.151388425481365"><ele>110.0</ele><time>2026-05-03T10:00:20.999Z</time></trkpt><trkpt lat="42.457527921376794" lon="14.151235793801446"><ele>112.00000000000001</ele><time>2026-05-03T10:00:21.999Z</time></trkpt><trkpt lat="42.45751268610408" lon="14.151110702207944"><ele>114.00000000000001</ele><time>2026-05-03T10:00:22.999Z</time></trkpt><trkpt lat="42.45750366707901" lon="14.151024547322566"><ele>116.0</ele><time>2026-05-03T10:00:23.999Z</time></trkpt><trkpt lat="42.457536325831086" lon="14.150937985942182"><ele>118.0</ele><time>2026-05-03T10:00:25.999Z</time></trkpt><trkpt lat="42.457654607198656" lon="14.150954581886596"><ele>118.0</ele><time>2026-05-03T10:00:27.999Z</time></trkpt><trkpt lat="42.45773775158655" lon="14.150988169055664"><ele>118.0</ele><time>2026-05-03T10:00:28.999Z</time></trkpt><trkpt lat="42.45784245296008" lon="14.151016741302477"><ele>118.0</ele><time>2026-05-03T10:00:29.999Z</time></trkpt><trkpt lat="42.45797137499837" lon="14.151035310610258"><ele>118.0</ele><time>2026-05-03T10:00:30.999Z</time></trkpt><trkpt lat="42.45811426003641" lon="14.151058656027626"><ele>121.25</ele><time>2026-05-03T10:00:31.999Z</time></trkpt><trkpt lat="42.45822838553835" lon="14.151071079946425"><ele>124.5</ele><time>2026-05-03T10:00:32.999Z</time></trkpt><trkpt lat="42.45834092139817" lon="14.151080596370631"><ele>127.75</ele><time>2026-05-03T10:00:33.999Z</time></trkpt><trkpt lat="42.4584592914154" lon="14.151088058514123"><ele>131.0</ele><time>2026-05-03T10:00:34.999Z</time></trkpt><trkpt lat="42.45858031343164" lon="14.151093597192336"><ele>131.0</ele><time>2026-05-03T10:00:35.999Z</time></trkpt><trkpt lat="42.45869661821256" lon="14.15109905713867"><ele>131.0</ele><time>2026-05-03T10:00:36.999Z</time></trkpt><trkpt lat="42.45880445662791" lon="14.151103701257155"><ele>131.0</ele><time>2026-05-03T10:00:37.999Z</time></trkpt><trkpt lat="42.458903861229" lon="14.151113040912215"><ele>131.0</ele><time>2026-05-03T10:00:38.999Z</time></trkpt><trkpt lat="42.45899560202867" lon="14.151122233228566"><ele>131.0</ele><time>2026-05-03T10:00:39.999Z</time></trkpt><trkpt lat="42.45907345304727" lon="14.151123244874935"><ele>131.83333333333331</ele><time>2026-05-03T10:00:40.999Z</time></trkpt><trkpt lat="42.4591563009571" lon="14.151109463296041"><ele>132.66666666666666</ele><time>2026-05-03T10:00:41.999Z</time></trkpt><trkpt lat="42.459233901760705" lon="14.151073364633175"><ele>133.5</ele><time>2026-05-03T10:00:42.999Z</time></trkpt><trkpt lat="42.45930159038327" lon="14.151008162228385"><ele>134.33333333333334</ele><time>2026-05-03T10:00:43.999Z</time></trkpt><trkpt lat="42.45935959322483" lon="14.150921208806233"><ele>135.16666666666669</ele><time>2026-05-03T10:00:44.999Z</time></trkpt><trkpt lat="42.45940867467665" lon="14.150795169306384"><ele>136.0</ele><time>2026-05-03T10:00:45.999Z</time></trkpt><trkpt lat="42.45946045350045" lon="14.15066112523587"><ele>136.5</ele><time>2026-05-03T10:00:46.999Z</time></trkpt><trkpt lat="42.45951779970183" lon="14.150521670243695"><ele>137.0</ele><time>2026-05-03T10:00:47.999Z</time></trkpt><trkpt lat="42.45958105011216" lon="14.150368032370723"><ele>137.5</ele><time>2026-05-03T10:00:48.999Z</time></trkpt><trkpt lat="42.459644079392014" lon="14.150211990722198"><ele>138.0</ele><time>2026-05-03T10:00:49.999Z</time></trkpt><trkpt lat="42.45970904896985" lon="14.150053145865437"><ele>138.0</ele><time>2026-05-03T10:00:50.999Z</time></trkpt><trkpt lat="42.45977667562733" lon="14.149896457335094"><ele>138.0</ele><time>2026-05-03T10:00:51.999Z</time></trkpt><trkpt lat="42.45984202425762" lon="14.149745570663995"><ele>138.0</ele><time>2026-05-03T10:00:52.999Z</time></trkpt><trkpt lat="42.45990667928232" lon="14.149602153251811"><ele>138.0</ele><time>2026-05-03T10:00:53.999Z</time></trkpt><trkpt lat="42.45996642105251" lon="14.149469606314304"><ele>140.4</ele><time>2026-05-03T10:00:54.999Z</time></trkpt><trkpt lat="42.46002120123184" lon="14.14934134596521"><ele>142.8</ele><time>2026-05-03T10:00:55.999Z</time></trkpt><trkpt lat="42.46007386315142" lon="14.149223109004726"><ele>145.2</ele><time>2026-05-03T10:00:56.999Z</time></trkpt><trkpt lat="42.46011807434102" lon="14.14911471859865"><ele>147.6</ele><time>2026-05-03T10:00:57.999Z</time></trkpt><trkpt lat="42.46015405897357" lon="14.149018128377955"><ele>150.0</ele><time>2026-05-03T10:00:58.999Z</time></trkpt><trkpt lat="42.46019388309395" lon="14.148913338744975"><ele>150.6</ele><time>2026-05-03T10:00:59.999Z</time></trkpt><trkpt lat="42.460243910592396" lon="14.148799461105746"><ele>151.2</ele><time>2026-05-03T10:01:00.999Z</time></trkpt><trkpt lat="42.460297121378225" lon="14.148669643781023"><ele>151.8</ele><time>2026-05-03T10:01:01.999Z</time></trkpt><trkpt lat="42.460353120825424" lon="14.148529756517458"><ele>152.4</ele><time>2026-05-03T10:01:02.999Z</time></trkpt><trkpt lat="42.460408548707896" lon="14.14838060089036"><ele>153.0</ele><time>2026-05-03T10:01:03.999Z</time></trkpt><trkpt lat="42.46046473566807" lon="14.148236146364708"><ele>150.4</ele><time>2026-05-03T10:01:04.999Z</time></trkpt><trkpt lat="42.46051818689622" lon="14.148099759512291"><ele>147.8</ele><time>2026-05-03T10:01:05.999Z</time></trkpt><trkpt lat="42.460570259793634" lon="14.147964743582822"><ele>145.2</ele><time>2026-05-03T10:01:06.999Z</time></trkpt><trkpt lat="42.46062561515354" lon="14.147831478356716"><ele>142.6</ele><time>2026-05-03T10:01:07.999Z</time></trkpt><trkpt lat="42.46068213444606" lon="14.14770322474306"><ele>140.0</ele><time>2026-05-03T10:01:08.999Z</time></trkpt><trkpt lat="42.46073549432422" lon="14.147582457088836"><ele>140.0</ele><time>2026-05-03T10:01:09.999Z</time></trkpt><trkpt lat="42.46077447702232" lon="14.14747056695994"><ele>140.0</ele><time>2026-05-03T10:01:10.999Z</time></trkpt><trkpt lat="42.460798654393315" lon="14.147370130807271"><ele>140.0</ele><time>2026-05-03T10:01:11.999Z</time></trkpt><trkpt lat="42.460811545067735" lon="14.147268078437442"><ele>140.0</ele><time>2026-05-03T10:01:12.999Z</time></trkpt><trkpt lat="42.46081280665076" lon="14.147153422230947"><ele>140.0</ele><time>2026-05-03T10:01:13.999Z</time></trkpt><trkpt lat="42.46081542729995" lon="14.147022634873345"><ele>140.0</ele><time>2026-05-03T10:01:14.999Z</time></trkpt><trkpt lat="42.460808452070545" lon="14.146883315138796"><ele>140.8</ele><time>2026-05-03T10:01:15.999Z</time></trkpt><trkpt lat="42.460802613311664" lon="14.146739907181855"><ele>141.6</ele><time>2026-05-03T10:01:16.999Z</time></trkpt><trkpt lat="42.46079991675296" lon="14.1466033712214"><ele>142.4</ele><time>2026-05-03T10:01:17.999Z</time></trkpt><trkpt lat="42.460795293679" lon="14.146470118840215"><ele>143.2</ele><time>2026-05-03T10:01:18.999Z</time></trkpt><trkpt lat="42.46079934399779" lon="14.146334864132992"><ele>144.0</ele><time>2026-05-03T10:01:19.999Z</time></trkpt><trkpt lat="42.46079771358314" lon="14.146188304147723"><ele>144.0</ele><time>2026-05-03T10:01:20.999Z</time></trkpt><trkpt lat="42.460796519022416" lon="14.146042079591203"><ele>144.0</ele><time>2026-05-03T10:01:21.999Z</time></trkpt><trkpt lat="42.46079537186744" lon="14.145890908905765"><ele>144.0</ele><time>2026-05-03T10:01:22.999Z</time></trkpt><trkpt lat="42.46078508992419" lon="14.145734086076668"><ele>144.0</ele><time>2026-05-03T10:01:23.999Z</time></trkpt><trkpt lat="42.46076203614101" lon="14.145566570376575"><ele>144.4</ele><time>2026-05-03T10:01:25Z</time></trkpt><trkpt lat="42.4607650144633" lon="14.145402735496692"><ele>144.8</ele><time>2026-05-03T10:01:26Z</time></trkpt><trkpt lat="42.46075056304123" lon="14.145263853312363"><ele>145.2</ele><time>2026-05-03T10:01:27Z</time></trkpt><trkpt lat="42.460757596664216" lon="14.145138365308277"><ele>145.6</ele><time>2026-05-03T10:01:28Z</time></trkpt><trkpt lat="42.4607689485057" lon="14.145028882766683"><ele>146.0</ele><time>2026-05-03T10:01:29Z</time></trkpt><trkpt lat="42.46077893792116" lon="14.144929966663506"><ele>145.57142857142856</ele><time>2026-05-03T10:01:30Z</time></trkpt><trkpt lat="42.460785563258206" lon="14.1448343921678"><ele>145.14285714285714</ele><time>2026-05-03T10:01:31Z</time></trkpt><trkpt lat="42.46078338609778" lon="14.144743072498283"><ele>144.71428571428572</ele><time>2026-05-03T10:01:32Z</time></trkpt><trkpt lat="42.46077649095804" lon="14.14464683583519"><ele>144.28571428571428</ele><time>2026-05-03T10:01:33Z</time></trkpt><trkpt lat="42.46077321678669" lon="14.1445497075178"><ele>143.85714285714286</ele><time>2026-05-03T10:01:34Z</time></trkpt><trkpt lat="42.46078417919881" lon="14.144461414646214"><ele>143.42857142857142</ele><time>2026-05-03T10:01:35Z</time></trkpt><trkpt lat="42.4607774320362" lon="14.144335824025232"><ele>143.0</ele><time>2026-05-03T10:01:37Z</time></trkpt><trkpt lat="42.46077234153729" lon="14.144244487979343"><ele>143.0</ele><time>2026-05-03T10:01:42Z</time></trkpt><trkpt lat="42.46062039383788" lon="14.144202666270573"><ele>143.0</ele><time>2026-05-03T10:01:45Z</time></trkpt><trkpt lat="42.46054711010626" lon="14.144189942503312"><ele>143.0</ele><time>2026-05-03T10:01:45.999Z</time></trkpt><trkpt lat="42.46047375245646" lon="14.144190209340987"><ele>143.0</ele><time>2026-05-03T10:01:46.999Z</time></trkpt><trkpt lat="42.460395702198866" lon="14.144189146730852"><ele>143.0</ele><time>2026-05-03T10:01:47.999Z</time></trkpt><trkpt lat="42.460315148405876" lon="14.144186643115447"><ele>143.16666666666666</ele><time>2026-05-03T10:01:48.999Z</time></trkpt><trkpt lat="42.46024157782231" lon="14.144183566194203"><ele>143.33333333333331</ele><time>2026-05-03T10:01:49.999Z</time></trkpt><trkpt lat="42.46016940323995" lon="14.144179894583948"><ele>143.5</ele><time>2026-05-03T10:01:50.999Z</time></trkpt><trkpt lat="42.46008671232441" lon="14.144172675549466"><ele>143.66666666666666</ele><time>2026-05-03T10:01:51.999Z</time></trkpt><trkpt lat="42.46000719114993" lon="14.144162749410611"><ele>143.83333333333334</ele><time>2026-05-03T10:01:52.999Z</time></trkpt><trkpt lat="42.45992799144264" lon="14.144147491328072"><ele>144.0</ele><time>2026-05-03T10:01:53.999Z</time></trkpt><trkpt lat="42.45985171612445" lon="14.1441287823188"><ele>144.0</ele><time>2026-05-03T10:01:54.999Z</time></trkpt><trkpt lat="42.45977902180332" lon="14.14410551796784"><ele>144.0</ele><time>2026-05-03T10:01:55.999Z</time></trkpt><trkpt lat="42.459710924282334" lon="14.144074479457238"><ele>144.0</ele><time>2026-05-03T10:01:56.999Z</time></trkpt><trkpt lat="42.45964363515368" lon="14.144031236161528"><ele>144.0</ele><time>2026-05-03T10:01:57.999Z</time></trkpt><trkpt lat="42.459573377594154" lon="14.143975294315526"><ele>144.0</ele><time>2026-05-03T10:01:58.999Z</time></trkpt><trkpt lat="42.4595086335827" lon="14.143916990584852"><ele>144.0</ele><time>2026-05-03T10:01:59.999Z</time></trkpt><trkpt lat="42.45944208628975" lon="14.143853398596958"><ele>142.66666666666666</ele><time>2026-05-03T10:02:00.999Z</time></trkpt><trkpt lat="42.45937481429952" lon="14.143791632792924"><ele>141.33333333333334</ele><time>2026-05-03T10:02:01.999Z</time></trkpt><trkpt lat="42.45930285221684" lon="14.143729987034854"><ele>140.0</ele><time>2026-05-03T10:02:02.999Z</time></trkpt><trkpt lat="42.45923101862826" lon="14.143669511125205"><ele>138.66666666666669</ele><time>2026-05-03T10:02:03.999Z</time></trkpt><trkpt lat="42.459149557797254" lon="14.143630589175492"><ele>137.33333333333334</ele><time>2026-05-03T10:02:04.999Z</time></trkpt><trkpt lat="42.45907344835622" lon="14.143583918091906"><ele>136.0</ele><time>2026-05-03T10:02:05.999Z</time></trkpt><trkpt lat="42.45899988719734" lon="14.143546073738108"><ele>136.0</ele><time>2026-05-03T10:02:06.999Z</time></trkpt><trkpt lat="42.45889967144394" lon="14.143505295571474"><ele>136.0</ele><time>2026-05-03T10:02:08.999Z</time></trkpt><trkpt lat="42.45881147989237" lon="14.143484155815683"><ele>136.0</ele><time>2026-05-03T10:02:10.999Z</time></trkpt><trkpt lat="42.458736304708225" lon="14.143479307079662"><ele>136.0</ele><time>2026-05-03T10:02:12.999Z</time></trkpt><trkpt lat="42.458647833642054" lon="14.143487517678206"><ele>136.0</ele><time>2026-05-03T10:02:16.999Z</time></trkpt><trkpt lat="42.45854789776201" lon="14.14352247704392"><ele>137.33333333333334</ele><time>2026-05-03T10:02:18.999Z</time></trkpt><trkpt lat="42.45847888779526" lon="14.143537589620925"><ele>138.66666666666669</ele><time>2026-05-03T10:02:19.999Z</time></trkpt><trkpt lat="42.45836233984646" lon="14.143562821218346"><ele>140.0</ele><time>2026-05-03T10:02:21.999Z</time></trkpt><trkpt lat="42.4582957932943" lon="14.143586476474423"><ele>141.33333333333334</ele><time>2026-05-03T10:02:22.999Z</time></trkpt><trkpt lat="42.45822749239244" lon="14.143611369428521"><ele>142.66666666666666</ele><time>2026-05-03T10:02:23.999Z</time></trkpt><trkpt lat="42.45815265979213" lon="14.143641282805813"><ele>144.0</ele><time>2026-05-03T10:02:24.999Z</time></trkpt><trkpt lat="42.4580699070394" lon="14.143671808175233"><ele>144.0</ele><time>2026-05-03T10:02:25.999Z</time></trkpt><trkpt lat="42.45798589152441" lon="14.143698158151668"><ele>144.0</ele><time>2026-05-03T10:02:26.999Z</time></trkpt><trkpt lat="42.457897005395544" lon="14.143702877463115"><ele>144.0</ele><time>2026-05-03T10:02:27.999Z</time></trkpt><trkpt lat="42.45773673606814" lon="14.143767202768986"><ele>144.0</ele><time>2026-05-03T10:02:29.999Z</time></trkpt><trkpt lat="42.45765755000996" lon="14.143783634293422"><ele>144.0</ele><time>2026-05-03T10:02:30.999Z</time></trkpt><trkpt lat="42.45755988289004" lon="14.14378492756162"><ele>145.2</ele><time>2026-05-03T10:02:32.999Z</time></trkpt><trkpt lat="42.4575152308394" lon="14.143694421099744"><ele>146.4</ele><time>2026-05-03T10:02:34.999Z</time></trkpt><trkpt lat="42.457462379221354" lon="14.143528304065612"><ele>147.6</ele><time>2026-05-03T10:02:36.999Z</time></trkpt><trkpt lat="42.45742686824967" lon="14.143431102321157"><ele>148.8</ele><time>2026-05-03T10:02:37.999Z</time></trkpt><trkpt lat="42.4573847452834" lon="14.143326267325778"><ele>150.0</ele><time>2026-05-03T10:02:38.999Z</time></trkpt><trkpt lat="42.45733823900469" lon="14.143215187841161"><ele>150.8</ele><time>2026-05-03T10:02:39.999Z</time></trkpt><trkpt lat="42.45729053675683" lon="14.14309740672266"><ele>151.6</ele><time>2026-05-03T10:02:40.999Z</time></trkpt><trkpt lat="42.45724122548593" lon="14.142982585301569"><ele>152.4</ele><time>2026-05-03T10:02:41.999Z</time></trkpt><trkpt lat="42.45718852064986" lon="14.14285919103174"><ele>153.2</ele><time>2026-05-03T10:02:42.999Z</time></trkpt><trkpt lat="42.457136042407924" lon="14.14272741057068"><ele>154.0</ele><time>2026-05-03T10:02:43.999Z</time></trkpt><trkpt lat="42.45708095059218" lon="14.142595955123516"><ele>156.5</ele><time>2026-05-03T10:02:44.999Z</time></trkpt><trkpt lat="42.45702263653939" lon="14.142457061729553"><ele>159.0</ele><time>2026-05-03T10:02:45.999Z</time></trkpt><trkpt lat="42.45696006559147" lon="14.1423173068614"><ele>161.5</ele><time>2026-05-03T10:02:46.999Z</time></trkpt><trkpt lat="42.45686861565477" lon="14.142212664550595"><ele>164.0</ele><time>2026-05-03T10:02:47.999Z</time></trkpt><trkpt lat="42.45678393250415" lon="14.142099090405376"><ele>165.6</ele><time>2026-05-03T10:02:48.999Z</time></trkpt><trkpt lat="42.45669785904667" lon="14.142035543925369"><ele>167.2</ele><time>2026-05-03T10:02:49.999Z</time></trkpt><trkpt lat="42.45662187441929" lon="14.141932400966326"><ele>168.79999999999998</ele><time>2026-05-03T10:02:50.999Z</time></trkpt><trkpt lat="42.456552503254976" lon="14.141828688511074"><ele>170.39999999999998</ele><time>2026-05-03T10:02:51.999Z</time></trkpt><trkpt lat="42.456481124069455" lon="14.141730705751279"><ele>172.0</ele><time>2026-05-03T10:02:52.999Z</time></trkpt><trkpt lat="42.45641561612766" lon="14.141635138982558"><ele>172.2</ele><time>2026-05-03T10:02:53.999Z</time></trkpt><trkpt lat="42.45634987920565" lon="14.141543180449945"><ele>172.39999999999998</ele><time>2026-05-03T10:02:54.999Z</time></trkpt><trkpt lat="42.45628923378844" lon="14.14144709929495"><ele>172.60000000000002</ele><time>2026-05-03T10:02:55.999Z</time></trkpt><trkpt lat="42.45622944113387" lon="14.141347607534556"><ele>172.8</ele><time>2026-05-03T10:02:56.999Z</time></trkpt><trkpt lat="42.45618156311402" lon="14.141242223974983"><ele>173.0</ele><time>2026-05-03T10:02:57.999Z</time></trkpt><trkpt lat="42.45613300020878" lon="14.141125708064244"><ele>174.8</ele><time>2026-05-03T10:02:58.999Z</time></trkpt><trkpt lat="42.45609128417347" lon="14.141007998747662"><ele>176.60000000000002</ele><time>2026-05-03T10:02:59.999Z</time></trkpt><trkpt lat="42.45606098104342" lon="14.140886334397527"><ele>178.39999999999998</ele><time>2026-05-03T10:03:00.999Z</time></trkpt><trkpt lat="42.45603212921875" lon="14.140760360222075"><ele>180.2</ele><time>2026-05-03T10:03:01.999Z</time></trkpt><trkpt lat="42.455993233839905" lon="14.14063753763191"><ele>182.0</ele><time>2026-05-03T10:03:02.999Z</time></trkpt><trkpt lat="42.455948982307305" lon="14.140515639539144"><ele>184.0</ele><time>2026-05-03T10:03:03.999Z</time></trkpt><trkpt lat="42.45590528128279" lon="14.140408784651086"><ele>186.0</ele><time>2026-05-03T10:03:04.999Z</time></trkpt><trkpt lat="42.45587241968788" lon="14.140331955128755"><ele>188.0</ele><time>2026-05-03T10:03:05.999Z</time></trkpt><trkpt lat="42.455816171366614" lon="14.140262853737093"><ele>190.0</ele><time>2026-05-03T10:03:07.999Z</time></trkpt><trkpt lat="42.45575207615198" lon="14.14017802890276"><ele>192.00000000000003</ele><time>2026-05-03T10:03:10.999Z</time></trkpt><trkpt lat="42.4556678521546" lon="14.140075736675538"><ele>194.0</ele><time>2026-05-03T10:03:12.999Z</time></trkpt><trkpt lat="42.45558010658045" lon="14.139964764412102"><ele>193.33333333333334</ele><time>2026-05-03T10:03:14.999Z</time></trkpt><trkpt lat="42.455484559169" lon="14.139842542819553"><ele>192.66666666666669</ele><time>2026-05-03T10:03:16.999Z</time></trkpt><trkpt lat="42.455432744701284" lon="14.139778212434639"><ele>192.0</ele><time>2026-05-03T10:03:17.999Z</time></trkpt><trkpt lat="42.45537986610744" lon="14.139713952956406"><ele>191.33333333333334</ele><time>2026-05-03T10:03:18.999Z</time></trkpt><trkpt lat="42.45532690049839" lon="14.139650789991897"><ele>190.66666666666669</ele><time>2026-05-03T10:03:19.999Z</time></trkpt><trkpt lat="42.455275454877984" lon="14.139586047006771"><ele>190.0</ele><time>2026-05-03T10:03:20.999Z</time></trkpt><trkpt lat="42.455230449752094" lon="14.139520703293398"><ele>188.5</ele><time>2026-05-03T10:03:21.999Z</time></trkpt><trkpt lat="42.45518803389378" lon="14.139454070485954"><ele>187.0</ele><time>2026-05-03T10:03:22.999Z</time></trkpt><trkpt lat="42.45514006007054" lon="14.139390267972388"><ele>185.5</ele><time>2026-05-03T10:03:23.999Z</time></trkpt><trkpt lat="42.45509788633005" lon="14.139326438779134"><ele>184.0</ele><time>2026-05-03T10:03:24.999Z</time></trkpt><trkpt lat="42.455025526560185" lon="14.139226212546696"><ele>182.5</ele><time>2026-05-03T10:03:27Z</time></trkpt><trkpt lat="42.45496173598613" lon="14.139173931085715"><ele>181.0</ele><time>2026-05-03T10:03:30Z</time></trkpt><trkpt lat="42.45488507898771" lon="14.139271376534676"><ele>181.0</ele><time>2026-05-03T10:03:33Z</time></trkpt><trkpt lat="42.45488991186306" lon="14.139370674175728"><ele>181.0</ele><time>2026-05-03T10:03:34Z</time></trkpt><trkpt lat="42.45491749950644" lon="14.139494643791807"><ele>181.0</ele><time>2026-05-03T10:03:35Z</time></trkpt><trkpt lat="42.454968432677134" lon="14.139607757401457"><ele>181.0</ele><time>2026-05-03T10:03:36Z</time></trkpt><trkpt lat="42.45502908825361" lon="14.139727162079144"><ele>181.0</ele><time>2026-05-03T10:03:37Z</time></trkpt><trkpt lat="42.45508993849594" lon="14.139848148978219"><ele>181.20000000000002</ele><time>2026-05-03T10:03:38Z</time></trkpt><trkpt lat="42.4551382233668" lon="14.139962014721768"><ele>181.4</ele><time>2026-05-03T10:03:39Z</time></trkpt><trkpt lat="42.45518544933627" lon="14.140075677410266"><ele>181.6</ele><time>2026-05-03T10:03:40Z</time></trkpt><trkpt lat="42.4552389755113" lon="14.140188186435926"><ele>181.8</ele><time>2026-05-03T10:03:41Z</time></trkpt><trkpt lat="42.4552894608654" lon="14.14030092135471"><ele>182.0</ele><time>2026-05-03T10:03:42Z</time></trkpt><trkpt lat="42.45533927896334" lon="14.140411249682515"><ele>182.0</ele><time>2026-05-03T10:03:43Z</time></trkpt><trkpt lat="42.45538328674983" lon="14.140518224873482"><ele>182.0</ele><time>2026-05-03T10:03:44Z</time></trkpt><trkpt lat="42.45541663915815" lon="14.140605403622425"><ele>182.0</ele><time>2026-05-03T10:03:45Z</time></trkpt><trkpt lat="42.4554577249122" lon="14.140724659717925"><ele>182.0</ele><time>2026-05-03T10:03:47Z</time></trkpt><trkpt lat="42.45549732463879" lon="14.140872238264649"><ele>182.0</ele><time>2026-05-03T10:03:49Z</time></trkpt><trkpt lat="42.45552252088406" lon="14.140969468584672"><ele>182.0</ele><time>2026-05-03T10:03:50Z</time></trkpt><trkpt lat="42.455548053729345" lon="14.141082364733329"><ele>182.0</ele><time>2026-05-03T10:03:51Z</time></trkpt><trkpt lat="42.45557516913038" lon="14.141194525405973"><ele>182.0</ele><time>2026-05-03T10:03:52Z</time></trkpt><trkpt lat="42.45560474974111" lon="14.141300184123399"><ele>182.0</ele><time>2026-05-03T10:03:53Z</time></trkpt><trkpt lat="42.4556410829285" lon="14.14139969794255"><ele>182.0</ele><time>2026-05-03T10:03:54Z</time></trkpt><trkpt lat="42.455682896464936" lon="14.141495598915249"><ele>182.0</ele><time>2026-05-03T10:03:55Z</time></trkpt><trkpt lat="42.4557268209956" lon="14.141593781006991"><ele>180.83333333333331</ele><time>2026-05-03T10:03:56Z</time></trkpt><trkpt lat="42.45577285179817" lon="14.14168349813092"><ele>179.66666666666666</ele><time>2026-05-03T10:03:57Z</time></trkpt><trkpt lat="42.45582760281922" lon="14.141758241941048"><ele>178.5</ele><time>2026-05-03T10:03:58Z</time></trkpt><trkpt lat="42.45588350365849" lon="14.141828087383391"><ele>177.33333333333334</ele><time>2026-05-03T10:03:59Z</time></trkpt><trkpt lat="42.455929393481455" lon="14.141908085404495"><ele>176.16666666666669</ele><time>2026-05-03T10:03:59.999Z</time></trkpt><trkpt lat="42.45596992818694" lon="14.14199166748102"><ele>175.0</ele><time>2026-05-03T10:04:00.999Z</time></trkpt><trkpt lat="42.45600420259913" lon="14.142069578302191"><ele>175.0</ele><time>2026-05-03T10:04:01.999Z</time></trkpt><trkpt lat="42.4560653927433" lon="14.142197370315502"><ele>175.0</ele><time>2026-05-03T10:04:03.999Z</time></trkpt><trkpt lat="42.45610372846072" lon="14.142283024403698"><ele>175.0</ele><time>2026-05-03T10:04:05.999Z</time></trkpt><trkpt lat="42.456174541740886" lon="14.14231420339181"><ele>175.0</ele><time>2026-05-03T10:04:06.999Z</time></trkpt><trkpt lat="42.45624317799797" lon="14.14229302816821"><ele>175.0</ele><time>2026-05-03T10:04:07.999Z</time></trkpt><trkpt lat="42.456316523301346" lon="14.142271632946047"><ele>175.0</ele><time>2026-05-03T10:04:08.999Z</time></trkpt><trkpt lat="42.45639492489261" lon="14.142247762102656"><ele>174.4</ele><time>2026-05-03T10:04:09.999Z</time></trkpt><trkpt lat="42.45648421768994" lon="14.142222992187097"><ele>173.8</ele><time>2026-05-03T10:04:10.999Z</time></trkpt><trkpt lat="42.456572420028834" lon="14.14219747685334"><ele>173.2</ele><time>2026-05-03T10:04:11.999Z</time></trkpt><trkpt lat="42.45664087608227" lon="14.142154677536078"><ele>172.6</ele><time>2026-05-03T10:04:12.999Z</time></trkpt><trkpt lat="42.45671526539922" lon="14.142088731277877"><ele>172.0</ele><time>2026-05-03T10:04:14.999Z</time></trkpt><trkpt lat="42.45680919926154" lon="14.14222546766723"><ele>172.0</ele><time>2026-05-03T10:04:15.999Z</time></trkpt><trkpt lat="42.456859718528705" lon="14.142298284971268"><ele>172.0</ele><time>2026-05-03T10:04:16.999Z</time></trkpt><trkpt lat="42.45691860266211" lon="14.142376958604805"><ele>172.0</ele><time>2026-05-03T10:04:17.999Z</time></trkpt><trkpt lat="42.45697904410371" lon="14.142470495931907"><ele>172.0</ele><time>2026-05-03T10:04:18.999Z</time></trkpt><trkpt lat="42.45703997526131" lon="14.142571093602864"><ele>172.0</ele><time>2026-05-03T10:04:19.999Z</time></trkpt><trkpt lat="42.457092078922365" lon="14.142685058562824"><ele>172.0</ele><time>2026-05-03T10:04:20.999Z</time></trkpt><trkpt lat="42.457146995244436" lon="14.14280475536841"><ele>168.4</ele><time>2026-05-03T10:04:21.999Z</time></trkpt><trkpt lat="42.45719935736246" lon="14.142928936133258"><ele>164.79999999999998</ele><time>2026-05-03T10:04:22.999Z</time></trkpt><trkpt lat="42.45725104448853" lon="14.143052837588929"><ele>161.2</ele><time>2026-05-03T10:04:23.999Z</time></trkpt><trkpt lat="42.457300686779945" lon="14.143181875305276"><ele>157.6</ele><time>2026-05-03T10:04:24.999Z</time></trkpt><trkpt lat="42.45734789954616" lon="14.14329690480878"><ele>154.0</ele><time>2026-05-03T10:04:25.999Z</time></trkpt><trkpt lat="42.45739365007834" lon="14.143401510898489"><ele>153.33333333333334</ele><time>2026-05-03T10:04:26.999Z</time></trkpt><trkpt lat="42.457430493886164" lon="14.143494580739622"><ele>152.66666666666669</ele><time>2026-05-03T10:04:27.999Z</time></trkpt><trkpt lat="42.457459702393784" lon="14.14357138044551"><ele>152.0</ele><time>2026-05-03T10:04:28.999Z</time></trkpt><trkpt lat="42.4574787271321" lon="14.143692600257928"><ele>151.33333333333334</ele><time>2026-05-03T10:04:30.999Z</time></trkpt><trkpt lat="42.45750971007788" lon="14.143794565931145"><ele>150.66666666666666</ele><time>2026-05-03T10:04:33.999Z</time></trkpt><trkpt lat="42.457615738543424" lon="14.143814506656497"><ele>150.0</ele><time>2026-05-03T10:04:35.999Z</time></trkpt><trkpt lat="42.45769733229415" lon="14.143790204245706"><ele>150.0</ele><time>2026-05-03T10:04:36.999Z</time></trkpt><trkpt lat="42.45778243270871" lon="14.143769295625942"><ele>150.0</ele><time>2026-05-03T10:04:37.999Z</time></trkpt><trkpt lat="42.457859336534895" lon="14.143747473468354"><ele>150.0</ele><time>2026-05-03T10:04:38.999Z</time></trkpt><trkpt lat="42.45793688962949" lon="14.143723786002408"><ele>150.0</ele><time>2026-05-03T10:04:39.999Z</time></trkpt><trkpt lat="42.458014416207064" lon="14.143705128621852"><ele>150.0</ele><time>2026-05-03T10:04:40.999Z</time></trkpt><trkpt lat="42.458095356608325" lon="14.143683619706357"><ele>150.0</ele><time>2026-05-03T10:04:41.999Z</time></trkpt><trkpt lat="42.45817363957451" lon="14.143658546292531"><ele>149.0</ele><time>2026-05-03T10:04:42.999Z</time></trkpt><trkpt lat="42.45824296526993" lon="14.143633474851296"><ele>148.0</ele><time>2026-05-03T10:04:43.999Z</time></trkpt><trkpt lat="42.45831107627955" lon="14.14361028469619"><ele>147.0</ele><time>2026-05-03T10:04:44.999Z</time></trkpt><trkpt lat="42.45837832207901" lon="14.14358881659179"><ele>146.0</ele><time>2026-05-03T10:04:45.999Z</time></trkpt><trkpt lat="42.458498761138564" lon="14.143558418703147"><ele>145.0</ele><time>2026-05-03T10:04:47.999Z</time></trkpt><trkpt lat="42.458611314741496" lon="14.143533401005206"><ele>144.0</ele><time>2026-05-03T10:04:49.999Z</time></trkpt><trkpt lat="42.458707539012124" lon="14.143533533141794"><ele>144.0</ele><time>2026-05-03T10:04:51.999Z</time></trkpt><trkpt lat="42.45872868520989" lon="14.143396473604664"><ele>144.0</ele><time>2026-05-03T10:04:53.999Z</time></trkpt><trkpt lat="42.458691046053005" lon="14.143310988456763"><ele>144.0</ele><time>2026-05-03T10:04:55.999Z</time></trkpt><trkpt lat="42.45863926614496" lon="14.143228512861448"><ele>144.0</ele><time>2026-05-03T10:04:57.999Z</time></trkpt><trkpt lat="42.4585921091941" lon="14.14314382809174"><ele>144.0</ele><time>2026-05-03T10:04:59.999Z</time></trkpt><trkpt lat="42.45854193953815" lon="14.143065106151326"><ele>144.0</ele><time>2026-05-03T10:05:01.999Z</time></trkpt><trkpt lat="42.45849699998678" lon="14.142984492014634"><ele>144.0</ele><time>2026-05-03T10:05:03.999Z</time></trkpt><trkpt lat="42.45852111249436" lon="14.143068808035089"><ele>144.0</ele><time>2026-05-03T10:05:27.999Z</time></trkpt><trkpt lat="42.458607293602974" lon="14.143180948591027"><ele>144.0</ele><time>2026-05-03T10:05:28.999Z</time></trkpt><trkpt lat="42.4586720522049" lon="14.143275908756454"><ele>144.0</ele><time>2026-05-03T10:05:29.999Z</time></trkpt><trkpt lat="42.458708444863255" lon="14.143347666127035"><ele>144.0</ele><time>2026-05-03T10:05:30.999Z</time></trkpt><trkpt lat="42.45873387099939" lon="14.143450723111036"><ele>144.0</ele><time>2026-05-03T10:05:32.999Z</time></trkpt><trkpt lat="42.45865456979964" lon="14.143541490733332"><ele>144.0</ele><time>2026-05-03T10:05:35.999Z</time></trkpt><trkpt lat="42.45858141933966" lon="14.143541669066924"><ele>144.0</ele><time>2026-05-03T10:05:36.999Z</time></trkpt><trkpt lat="42.45850620802708" lon="14.14353973675962"><ele>144.0</ele><time>2026-05-03T10:05:37.999Z</time></trkpt><trkpt lat="42.45843131667577" lon="14.143551856243706"><ele>144.0</ele><time>2026-05-03T10:05:39Z</time></trkpt><trkpt lat="42.45836063068924" lon="14.143579918699338"><ele>144.0</ele><time>2026-05-03T10:05:40Z</time></trkpt><trkpt lat="42.45827522025162" lon="14.143579257988275"><ele>144.0</ele><time>2026-05-03T10:05:41Z</time></trkpt><trkpt lat="42.45819109967993" lon="14.143608777961179"><ele>144.0</ele><time>2026-05-03T10:05:42Z</time></trkpt><trkpt lat="42.45810537953523" lon="14.1436388592816"><ele>144.0</ele><time>2026-05-03T10:05:43Z</time></trkpt><trkpt lat="42.458026166934104" lon="14.14366469894624"><ele>144.0</ele><time>2026-05-03T10:05:44Z</time></trkpt><trkpt lat="42.457957402477405" lon="14.143685662411595"><ele>144.0</ele><time>2026-05-03T10:05:45Z</time></trkpt><trkpt lat="42.45784497862047" lon="14.143731598217713"><ele>144.0</ele><time>2026-05-03T10:05:47Z</time></trkpt><trkpt lat="42.457740424212915" lon="14.143744321853077"><ele>145.0</ele><time>2026-05-03T10:05:49Z</time></trkpt><trkpt lat="42.45766346982284" lon="14.143763126718632"><ele>146.0</ele><time>2026-05-03T10:05:51Z</time></trkpt><trkpt lat="42.45758960805124" lon="14.1437809561055"><ele>147.0</ele><time>2026-05-03T10:05:54Z</time></trkpt><trkpt lat="42.45751852050427" lon="14.143746577007613"><ele>148.0</ele><time>2026-05-03T10:05:57Z</time></trkpt><trkpt lat="42.45749403058667" lon="14.14357931082602"><ele>149.0</ele><time>2026-05-03T10:05:59Z</time></trkpt><trkpt lat="42.45745923796347" lon="14.14346811514267"><ele>150.0</ele><time>2026-05-03T10:06:00Z</time></trkpt><trkpt lat="42.45740568087242" lon="14.143340444478419"><ele>151.0</ele><time>2026-05-03T10:06:01Z</time></trkpt><trkpt lat="42.45734705551025" lon="14.14320484553125"><ele>152.0</ele><time>2026-05-03T10:06:02Z</time></trkpt><trkpt lat="42.45727459585084" lon="14.143081534705026"><ele>153.0</ele><time>2026-05-03T10:06:03Z</time></trkpt><trkpt lat="42.457219818436414" lon="14.14293681257068"><ele>154.0</ele><time>2026-05-03T10:06:04Z</time></trkpt><trkpt lat="42.457169159982165" lon="14.142810813397226"><ele>154.0</ele><time>2026-05-03T10:06:05Z</time></trkpt><trkpt lat="42.45712854068383" lon="14.142707304096954"><ele>154.0</ele><time>2026-05-03T10:06:06Z</time></trkpt><trkpt lat="42.4570900561742" lon="14.14262484330808"><ele>154.0</ele><time>2026-05-03T10:06:07Z</time></trkpt><trkpt lat="42.45704882031742" lon="14.142529916691991"><ele>154.0</ele><time>2026-05-03T10:06:08Z</time></trkpt><trkpt lat="42.45700632102153" lon="14.142422886561777"><ele>154.0</ele><time>2026-05-03T10:06:09Z</time></trkpt><trkpt lat="42.45695996014661" lon="14.142313181293865"><ele>154.0</ele><time>2026-05-03T10:06:10Z</time></trkpt><trkpt lat="42.45686468285077" lon="14.142249112203983"><ele>157.0</ele><time>2026-05-03T10:06:11Z</time></trkpt><trkpt lat="42.45679731915242" lon="14.142166141929646"><ele>160.0</ele><time>2026-05-03T10:06:11.999Z</time></trkpt><trkpt lat="42.45673260049718" lon="14.14209190927649"><ele>163.0</ele><time>2026-05-03T10:06:12.999Z</time></trkpt><trkpt lat="42.4566831067215" lon="14.14199641869204"><ele>166.0</ele><time>2026-05-03T10:06:13.999Z</time></trkpt><trkpt lat="42.45661019893138" lon="14.141927722651463"><ele>169.0</ele><time>2026-05-03T10:06:14.999Z</time></trkpt><trkpt lat="42.456549521912365" lon="14.141834329202423"><ele>172.0</ele><time>2026-05-03T10:06:15.999Z</time></trkpt><trkpt lat="42.4564884333058" lon="14.141741721023894"><ele>172.0</ele><time>2026-05-03T10:06:16.999Z</time></trkpt><trkpt lat="42.45641972763452" lon="14.141658845094668"><ele>172.0</ele><time>2026-05-03T10:06:17.999Z</time></trkpt><trkpt lat="42.456359701720345" lon="14.141576612655811"><ele>172.0</ele><time>2026-05-03T10:06:18.999Z</time></trkpt><trkpt lat="42.45629676889377" lon="14.14147118377966"><ele>172.0</ele><time>2026-05-03T10:06:19.999Z</time></trkpt><trkpt lat="42.456242611269616" lon="14.141356702308961"><ele>172.0</ele><time>2026-05-03T10:06:20.999Z</time></trkpt><trkpt lat="42.456188778036534" lon="14.141237595191708"><ele>174.0</ele><time>2026-05-03T10:06:21.999Z</time></trkpt><trkpt lat="42.45613535771363" lon="14.141114949979144"><ele>176.0</ele><time>2026-05-03T10:06:22.999Z</time></trkpt><trkpt lat="42.456088636202786" lon="14.140984751904814"><ele>178.0</ele><time>2026-05-03T10:06:23.999Z</time></trkpt><trkpt lat="42.45605313028339" lon="14.140851178693907"><ele>180.0</ele><time>2026-05-03T10:06:24.999Z</time></trkpt><trkpt lat="42.456022509916856" lon="14.140730086354965"><ele>182.0</ele><time>2026-05-03T10:06:25.999Z</time></trkpt><trkpt lat="42.45598631982185" lon="14.140612810584733"><ele>184.39999999999998</ele><time>2026-05-03T10:06:26.999Z</time></trkpt><trkpt lat="42.45594550464726" lon="14.140501259780073"><ele>186.79999999999998</ele><time>2026-05-03T10:06:27.999Z</time></trkpt><trkpt lat="42.455903617024774" lon="14.140398306260648"><ele>189.2</ele><time>2026-05-03T10:06:28.999Z</time></trkpt><trkpt lat="42.45584146632479" lon="14.140291861526352"><ele>191.6</ele><time>2026-05-03T10:06:30.999Z</time></trkpt><trkpt lat="42.45576566997384" lon="14.140190893935953"><ele>194.0</ele><time>2026-05-03T10:06:32.999Z</time></trkpt><trkpt lat="42.45571158226269" lon="14.140120577926277"><ele>194.0</ele><time>2026-05-03T10:06:33.999Z</time></trkpt><trkpt lat="42.455648703291246" lon="14.140045977714555"><ele>194.0</ele><time>2026-05-03T10:06:34.999Z</time></trkpt><trkpt lat="42.45557948862137" lon="14.139960603532744"><ele>194.0</ele><time>2026-05-03T10:06:35.999Z</time></trkpt><trkpt lat="42.455507891521414" lon="14.139870623248047"><ele>194.0</ele><time>2026-05-03T10:06:36.999Z</time></trkpt><trkpt lat="42.455441700291054" lon="14.13978215503999"><ele>194.0</ele><time>2026-05-03T10:06:37.999Z</time></trkpt><trkpt lat="42.45537410171756" lon="14.139696881485259"><ele>191.83333333333334</ele><time>2026-05-03T10:06:38.999Z</time></trkpt><trkpt lat="42.45530680712683" lon="14.13961865154184"><ele>189.66666666666669</ele><time>2026-05-03T10:06:39.999Z</time></trkpt><trkpt lat="42.45524572758374" lon="14.139541286486555"><ele>187.5</ele><time>2026-05-03T10:06:40.999Z</time></trkpt><trkpt lat="42.45519712131029" lon="14.139464888385975"><ele>185.33333333333334</ele><time>2026-05-03T10:06:41.999Z</time></trkpt><trkpt lat="42.45514744296927" lon="14.139394178172429"><ele>183.16666666666669</ele><time>2026-05-03T10:06:42.999Z</time></trkpt><trkpt lat="42.4551017912044" lon="14.13932243162568"><ele>181.0</ele><time>2026-05-03T10:06:43.999Z</time></trkpt><trkpt lat="42.455030018046955" lon="14.139221424327294"><ele>181.0</ele><time>2026-05-03T10:06:45.999Z</time></trkpt><trkpt lat="42.454975463359624" lon="14.139171951040916"><ele>181.0</ele><time>2026-05-03T10:06:49.999Z</time></trkpt><trkpt lat="42.45489672156322" lon="14.139379119336745"><ele>181.0</ele><time>2026-05-03T10:06:59.999Z</time></trkpt><trkpt lat="42.45491309877086" lon="14.139472176977575"><ele>181.0</ele><time>2026-05-03T10:07:00.999Z</time></trkpt><trkpt lat="42.45495542074574" lon="14.139582037903784"><ele>181.0</ele><time>2026-05-03T10:07:01.999Z</time></trkpt><trkpt lat="42.45500585495731" lon="14.139686464358798"><ele>181.0</ele><time>2026-05-03T10:07:02.999Z</time></trkpt><trkpt lat="42.455051655817" lon="14.13980946386687"><ele>181.0</ele><time>2026-05-03T10:07:03.999Z</time></trkpt><trkpt lat="42.4551098505026" lon="14.139909423783486"><ele>181.0</ele><time>2026-05-03T10:07:04.999Z</time></trkpt><trkpt lat="42.45516582959491" lon="14.140031364683669"><ele>181.0</ele><time>2026-05-03T10:07:05.999Z</time></trkpt><trkpt lat="42.45522796928528" lon="14.14016026489831"><ele>181.0</ele><time>2026-05-03T10:07:06.999Z</time></trkpt><trkpt lat="42.4552804898928" lon="14.140275172602719"><ele>181.16666666666669</ele><time>2026-05-03T10:07:07.999Z</time></trkpt><trkpt lat="42.45532365668884" lon="14.140375227968832"><ele>181.33333333333334</ele><time>2026-05-03T10:07:08.999Z</time></trkpt><trkpt lat="42.45536904698534" lon="14.140480180951931"><ele>181.5</ele><time>2026-05-03T10:07:09.999Z</time></trkpt><trkpt lat="42.455406307192874" lon="14.140586909955465"><ele>181.66666666666666</ele><time>2026-05-03T10:07:10.999Z</time></trkpt><trkpt lat="42.45544012189688" lon="14.140687265522153"><ele>181.83333333333331</ele><time>2026-05-03T10:07:11.999Z</time></trkpt><trkpt lat="42.455472580829756" lon="14.140783920229321"><ele>182.0</ele><time>2026-05-03T10:07:12.999Z</time></trkpt><trkpt lat="42.45550358940114" lon="14.14088502710673"><ele>182.0</ele><time>2026-05-03T10:07:13.999Z</time></trkpt><trkpt lat="42.4555322390791" lon="14.140987254757983"><ele>182.0</ele><time>2026-05-03T10:07:14.999Z</time></trkpt><trkpt lat="42.45554963320101" lon="14.141118561601077"><ele>182.0</ele><time>2026-05-03T10:07:16.999Z</time></trkpt><trkpt lat="42.45542213014541" lon="14.141119665739858"><ele>182.0</ele><time>2026-05-03T10:07:20.999Z</time></trkpt><trkpt lat="42.45534897667352" lon="14.141128294883126"><ele>182.0</ele><time>2026-05-03T10:07:21.999Z</time></trkpt><trkpt lat="42.455295521850736" lon="14.141180770233682"><ele>182.0</ele><time>2026-05-03T10:07:22.999Z</time></trkpt><trkpt lat="42.455220029969794" lon="14.141191993818437"><ele>180.0</ele><time>2026-05-03T10:07:24.999Z</time></trkpt><trkpt lat="42.45514934475753" lon="14.141079626402616"><ele>178.0</ele><time>2026-05-03T10:07:26.999Z</time></trkpt><trkpt lat="42.455125805978135" lon="14.140994943049089"><ele>176.0</ele><time>2026-05-03T10:07:27.999Z</time></trkpt><trkpt lat="42.45506229724926" lon="14.140890150562461"><ele>174.0</ele><time>2026-05-03T10:07:29.999Z</time></trkpt><trkpt lat="42.454958233523584" lon="14.140792831833128"><ele>172.0</ele><time>2026-05-03T10:07:31.999Z</time></trkpt><trkpt lat="42.4548795455658" lon="14.140759854665646"><ele>172.0</ele><time>2026-05-03T10:07:33Z</time></trkpt><trkpt lat="42.454809898074025" lon="14.140723490627515"><ele>172.0</ele><time>2026-05-03T10:07:34Z</time></trkpt><trkpt lat="42.454736675451855" lon="14.1406792141397"><ele>172.0</ele><time>2026-05-03T10:07:35Z</time></trkpt><trkpt lat="42.454656382020175" lon="14.140617805339597"><ele>172.0</ele><time>2026-05-03T10:07:36Z</time></trkpt><trkpt lat="42.45457773196178" lon="14.140560977986842"><ele>172.0</ele><time>2026-05-03T10:07:37Z</time></trkpt><trkpt lat="42.45450869847037" lon="14.14052544970711"><ele>172.0</ele><time>2026-05-03T10:07:38Z</time></trkpt><trkpt lat="42.45440864627698" lon="14.140548383878441"><ele>172.0</ele><time>2026-05-03T10:07:40Z</time></trkpt><trkpt lat="42.45434270518598" lon="14.140401344402711"><ele>172.0</ele><time>2026-05-03T10:07:42Z</time></trkpt><trkpt lat="42.45433479001046" lon="14.140289846790779"><ele>172.0</ele><time>2026-05-03T10:07:43Z</time></trkpt><trkpt lat="42.4543323774838" lon="14.140127992178282"><ele>172.0</ele><time>2026-05-03T10:07:44Z</time></trkpt><trkpt lat="42.45432985876073" lon="14.139974462901709"><ele>172.0</ele><time>2026-05-03T10:07:45Z</time></trkpt><trkpt lat="42.45433130206548" lon="14.139829903006508"><ele>172.33333333333334</ele><time>2026-05-03T10:07:46Z</time></trkpt><trkpt lat="42.45433762139785" lon="14.139691465814026"><ele>172.66666666666669</ele><time>2026-05-03T10:07:47Z</time></trkpt><trkpt lat="42.4543490864915" lon="14.139552351273968"><ele>173.0</ele><time>2026-05-03T10:07:48Z</time></trkpt><trkpt lat="42.454361249685455" lon="14.139432516827124"><ele>173.33333333333334</ele><time>2026-05-03T10:07:49Z</time></trkpt><trkpt lat="42.454383385740584" lon="14.139330944189252"><ele>173.66666666666666</ele><time>2026-05-03T10:07:50Z</time></trkpt><trkpt lat="42.454413152561564" lon="14.139237895759674"><ele>174.0</ele><time>2026-05-03T10:07:51Z</time></trkpt><trkpt lat="42.4544457624272" lon="14.139153962875268"><ele>174.0</ele><time>2026-05-03T10:07:52Z</time></trkpt><trkpt lat="42.45447906621329" lon="14.139077911325852"><ele>174.0</ele><time>2026-05-03T10:07:53Z</time></trkpt><trkpt lat="42.45452970768216" lon="14.138937605709232"><ele>174.0</ele><time>2026-05-03T10:07:55Z</time></trkpt><trkpt lat="42.45454286925515" lon="14.13883744776371"><ele>174.0</ele><time>2026-05-03T10:07:57Z</time></trkpt><trkpt lat="42.45456355115804" lon="14.138755340815989"><ele>174.0</ele><time>2026-05-03T10:07:59Z</time></trkpt><trkpt lat="42.45462231712244" lon="14.138664893993948"><ele>174.0</ele><time>2026-05-03T10:08:01Z</time></trkpt><trkpt lat="42.45468968523834" lon="14.138541473805411"><ele>173.83333333333334</ele><time>2026-05-03T10:08:03Z</time></trkpt><trkpt lat="42.45473052962699" lon="14.13847555076896"><ele>173.66666666666666</ele><time>2026-05-03T10:08:04Z</time></trkpt><trkpt lat="42.45477596863654" lon="14.138402663501138"><ele>173.5</ele><time>2026-05-03T10:08:05Z</time></trkpt><trkpt lat="42.454815560421764" lon="14.138335762988033"><ele>173.33333333333331</ele><time>2026-05-03T10:08:06Z</time></trkpt><trkpt lat="42.45489761672793" lon="14.13819479401378"><ele>173.16666666666666</ele><time>2026-05-03T10:08:08Z</time></trkpt><trkpt lat="42.454944344315166" lon="14.138107081932642"><ele>173.0</ele><time>2026-05-03T10:08:09Z</time></trkpt><trkpt lat="42.454990024647046" lon="14.138009633335537"><ele>173.0</ele><time>2026-05-03T10:08:10Z</time></trkpt><trkpt lat="42.455026421801264" lon="14.137897961374838"><ele>173.0</ele><time>2026-05-03T10:08:11Z</time></trkpt><trkpt lat="42.45504457357578" lon="14.137771988517555"><ele>173.0</ele><time>2026-05-03T10:08:12Z</time></trkpt><trkpt lat="42.45505259812319" lon="14.13763491114085"><ele>173.0</ele><time>2026-05-03T10:08:13Z</time></trkpt><trkpt lat="42.455047448564635" lon="14.137494506376775"><ele>173.0</ele><time>2026-05-03T10:08:14Z</time></trkpt><trkpt lat="42.455042622646275" lon="14.137350058999928"><ele>173.0</ele><time>2026-05-03T10:08:15Z</time></trkpt><trkpt lat="42.455041961310314" lon="14.137204619309585"><ele>173.0</ele><time>2026-05-03T10:08:16Z</time></trkpt><trkpt lat="42.45504036973497" lon="14.137067473121075"><ele>173.0</ele><time>2026-05-03T10:08:17Z</time></trkpt><trkpt lat="42.45503583396128" lon="14.136931319941533"><ele>173.0</ele><time>2026-05-03T10:08:18Z</time></trkpt><trkpt lat="42.45502772601115" lon="14.13680295713021"><ele>173.0</ele><time>2026-05-03T10:08:19Z</time></trkpt><trkpt lat="42.45502399594469" lon="14.136690347814206"><ele>173.0</ele><time>2026-05-03T10:08:20Z</time></trkpt><trkpt lat="42.45502591143118" lon="14.136592197066216"><ele>173.0</ele><time>2026-05-03T10:08:21Z</time></trkpt><trkpt lat="42.455044967643325" lon="14.136507783713972"><ele>173.0</ele><time>2026-05-03T10:08:22Z</time></trkpt><trkpt lat="42.45513916692698" lon="14.136402546064971"><ele>173.0</ele><time>2026-05-03T10:08:24Z</time></trkpt><trkpt lat="42.455222961275844" lon="14.136384328524661"><ele>173.0</ele><time>2026-05-03T10:08:25Z</time></trkpt><trkpt lat="42.45530199196758" lon="14.136363372566413"><ele>173.0</ele><time>2026-05-03T10:08:26Z</time></trkpt><trkpt lat="42.45537773926118" lon="14.136331273690816"><ele>174.16666666666666</ele><time>2026-05-03T10:08:27Z</time></trkpt><trkpt lat="42.455442772565405" lon="14.136297963023543"><ele>175.33333333333331</ele><time>2026-05-03T10:08:28Z</time></trkpt><trkpt lat="42.45550532648979" lon="14.136259680187484"><ele>176.5</ele><time>2026-05-03T10:08:30Z</time></trkpt><trkpt lat="42.455583854520626" lon="14.136206100172709"><ele>177.66666666666666</ele><time>2026-05-03T10:08:32Z</time></trkpt><trkpt lat="42.45568259957318" lon="14.136134686691271"><ele>178.83333333333334</ele><time>2026-05-03T10:08:34Z</time></trkpt><trkpt lat="42.45575203476482" lon="14.13609304402017"><ele>180.0</ele><time>2026-05-03T10:08:35Z</time></trkpt><trkpt lat="42.45582214446279" lon="14.136049962826965"><ele>180.0</ele><time>2026-05-03T10:08:36Z</time></trkpt><trkpt lat="42.45588612404594" lon="14.136008607523454"><ele>180.0</ele><time>2026-05-03T10:08:37Z</time></trkpt><trkpt lat="42.45594228744273" lon="14.13595323529678"><ele>180.0</ele><time>2026-05-03T10:08:37.999Z</time></trkpt><trkpt lat="42.456001356832665" lon="14.135904185320321"><ele>180.0</ele><time>2026-05-03T10:08:38.999Z</time></trkpt><trkpt lat="42.45603485016735" lon="14.135811606885515"><ele>180.0</ele><time>2026-05-03T10:08:39.999Z</time></trkpt><trkpt lat="42.45609746103426" lon="14.135682990502746"><ele>180.0</ele><time>2026-05-03T10:08:41.999Z</time></trkpt><trkpt lat="42.45615092179691" lon="14.135566666142322"><ele>182.33333333333334</ele><time>2026-05-03T10:08:43.999Z</time></trkpt><trkpt lat="42.45618879602593" lon="14.135465669542072"><ele>184.66666666666669</ele><time>2026-05-03T10:08:45.999Z</time></trkpt><trkpt lat="42.45622634162585" lon="14.135338715240733"><ele>187.0</ele><time>2026-05-03T10:08:47.999Z</time></trkpt><trkpt lat="42.45625662051372" lon="14.135249641399762"><ele>189.33333333333334</ele><time>2026-05-03T10:08:48.999Z</time></trkpt><trkpt lat="42.45628515300477" lon="14.135150589744972"><ele>191.66666666666669</ele><time>2026-05-03T10:08:49.999Z</time></trkpt><trkpt lat="42.456331379817925" lon="14.135049283466808"><ele>194.0</ele><time>2026-05-03T10:08:50.999Z</time></trkpt><trkpt lat="42.456367290409226" lon="14.134932237002417"><ele>188.79999999999998</ele><time>2026-05-03T10:08:51.999Z</time></trkpt><trkpt lat="42.45640610526121" lon="14.134805724464671"><ele>183.6</ele><time>2026-05-03T10:08:52.999Z</time></trkpt><trkpt lat="42.456431953660825" lon="14.134665605691717"><ele>178.4</ele><time>2026-05-03T10:08:53.999Z</time></trkpt><trkpt lat="42.45647867551356" lon="14.134530813814184"><ele>173.2</ele><time>2026-05-03T10:08:54.999Z</time></trkpt><trkpt lat="42.456527616755025" lon="14.134384662523086"><ele>168.0</ele><time>2026-05-03T10:08:55.999Z</time></trkpt><trkpt lat="42.45657476762946" lon="14.134233999506383"><ele>168.0</ele><time>2026-05-03T10:08:56.999Z</time></trkpt><trkpt lat="42.45661979596384" lon="14.134083741710196"><ele>168.0</ele><time>2026-05-03T10:08:57.999Z</time></trkpt><trkpt lat="42.45666035750647" lon="14.133935239179742"><ele>168.0</ele><time>2026-05-03T10:08:58.999Z</time></trkpt><trkpt lat="42.45669246532797" lon="14.133784573646144"><ele>168.0</ele><time>2026-05-03T10:08:59.999Z</time></trkpt><trkpt lat="42.456736645815354" lon="14.133640337025032"><ele>168.0</ele><time>2026-05-03T10:09:00.999Z</time></trkpt><trkpt lat="42.45676273571343" lon="14.133495274563384"><ele>168.0</ele><time>2026-05-03T10:09:01.999Z</time></trkpt><trkpt lat="42.456783893090396" lon="14.133356523071276"><ele>168.0</ele><time>2026-05-03T10:09:02.999Z</time></trkpt><trkpt lat="42.4568021868668" lon="14.13322053371225"><ele>168.0</ele><time>2026-05-03T10:09:03.999Z</time></trkpt><trkpt lat="42.45681887897369" lon="14.133088142432502"><ele>168.0</ele><time>2026-05-03T10:09:04.999Z</time></trkpt><trkpt lat="42.45683341149051" lon="14.132957125873386"><ele>167.60000000000002</ele><time>2026-05-03T10:09:05.999Z</time></trkpt><trkpt lat="42.456833921943655" lon="14.13282522262958"><ele>167.20000000000002</ele><time>2026-05-03T10:09:06.999Z</time></trkpt><trkpt lat="42.4568572186095" lon="14.132696936107704"><ele>166.8</ele><time>2026-05-03T10:09:07.999Z</time></trkpt><trkpt lat="42.45688742014667" lon="14.13256726246323"><ele>166.4</ele><time>2026-05-03T10:09:08.999Z</time></trkpt><trkpt lat="42.45692727435177" lon="14.132433668408321"><ele>166.0</ele><time>2026-05-03T10:09:09.999Z</time></trkpt><trkpt lat="42.45697303905135" lon="14.132302673295737"><ele>166.0</ele><time>2026-05-03T10:09:10.999Z</time></trkpt><trkpt lat="42.45702173746781" lon="14.132169584695493"><ele>166.0</ele><time>2026-05-03T10:09:11.999Z</time></trkpt><trkpt lat="42.45707411907269" lon="14.132037223450336"><ele>166.0</ele><time>2026-05-03T10:09:12.999Z</time></trkpt><trkpt lat="42.457130861924334" lon="14.131902481245175"><ele>166.0</ele><time>2026-05-03T10:09:13.999Z</time></trkpt><trkpt lat="42.45718665501679" lon="14.131765698507744"><ele>164.5</ele><time>2026-05-03T10:09:14.999Z</time></trkpt><trkpt lat="42.457243967205144" lon="14.131628536421696"><ele>163.0</ele><time>2026-05-03T10:09:15.999Z</time></trkpt><trkpt lat="42.45730429023801" lon="14.131488825651218"><ele>161.5</ele><time>2026-05-03T10:09:16.999Z</time></trkpt><trkpt lat="42.45736122768562" lon="14.13135027390336"><ele>160.0</ele><time>2026-05-03T10:09:17.999Z</time></trkpt><trkpt lat="42.45741834982869" lon="14.131215853714007"><ele>160.0</ele><time>2026-05-03T10:09:18.999Z</time></trkpt><trkpt lat="42.45747293553278" lon="14.131086347561466"><ele>160.0</ele><time>2026-05-03T10:09:19.999Z</time></trkpt><trkpt lat="42.457542323598624" lon="14.130976384816975"><ele>160.0</ele><time>2026-05-03T10:09:20.999Z</time></trkpt><trkpt lat="42.45758571885954" lon="14.130843671693889"><ele>160.0</ele><time>2026-05-03T10:09:21.999Z</time></trkpt><trkpt lat="42.45765110709457" lon="14.130734197084095"><ele>160.0</ele><time>2026-05-03T10:09:22.999Z</time></trkpt><trkpt lat="42.4577262018597" lon="14.130631549549523"><ele>160.2</ele><time>2026-05-03T10:09:23.999Z</time></trkpt><trkpt lat="42.45780534016619" lon="14.130535446597225"><ele>160.4</ele><time>2026-05-03T10:09:24.999Z</time></trkpt><trkpt lat="42.45789025110265" lon="14.130446450146662"><ele>160.60000000000002</ele><time>2026-05-03T10:09:25.999Z</time></trkpt><trkpt lat="42.457974289791906" lon="14.130362046174266"><ele>160.8</ele><time>2026-05-03T10:09:26.999Z</time></trkpt><trkpt lat="42.458057848993285" lon="14.130278001981084"><ele>161.0</ele><time>2026-05-03T10:09:27.999Z</time></trkpt><trkpt lat="42.458139157471905" lon="14.130192817796578"><ele>160.8</ele><time>2026-05-03T10:09:28.999Z</time></trkpt><trkpt lat="42.458215501065496" lon="14.130101532056402"><ele>160.60000000000002</ele><time>2026-05-03T10:09:29.999Z</time></trkpt><trkpt lat="42.45829060064462" lon="14.130002346915083"><ele>160.4</ele><time>2026-05-03T10:09:30.999Z</time></trkpt><trkpt lat="42.45836418055657" lon="14.129900603562593"><ele>160.2</ele><time>2026-05-03T10:09:31.999Z</time></trkpt><trkpt lat="42.458431016749806" lon="14.129792904825115"><ele>160.0</ele><time>2026-05-03T10:09:32.999Z</time></trkpt><trkpt lat="42.45848906407448" lon="14.129683497011314"><ele>160.0</ele><time>2026-05-03T10:09:33.999Z</time></trkpt><trkpt lat="42.45854005345067" lon="14.129570390907922"><ele>160.0</ele><time>2026-05-03T10:09:34.999Z</time></trkpt><trkpt lat="42.458584094028794" lon="14.1294520635634"><ele>160.0</ele><time>2026-05-03T10:09:35.999Z</time></trkpt><trkpt lat="42.45863904252087" lon="14.129338462950834"><ele>160.0</ele><time>2026-05-03T10:09:36.999Z</time></trkpt><trkpt lat="42.45866335780641" lon="14.12920175958246"><ele>160.0</ele><time>2026-05-03T10:09:38Z</time></trkpt><trkpt lat="42.458692101423516" lon="14.129071192668025"><ele>159.16666666666669</ele><time>2026-05-03T10:09:39Z</time></trkpt><trkpt lat="42.45871057639357" lon="14.128949038965732"><ele>158.33333333333334</ele><time>2026-05-03T10:09:40Z</time></trkpt><trkpt lat="42.458720899516095" lon="14.128825525015195"><ele>157.5</ele><time>2026-05-03T10:09:41Z</time></trkpt><trkpt lat="42.458718114425146" lon="14.12871153275837"><ele>156.66666666666666</ele><time>2026-05-03T10:09:42Z</time></trkpt><trkpt lat="42.45870350960728" lon="14.128613535681833"><ele>155.83333333333331</ele><time>2026-05-03T10:09:43Z</time></trkpt><trkpt lat="42.45868823513278" lon="14.128511026280025"><ele>155.0</ele><time>2026-05-03T10:09:44Z</time></trkpt><trkpt lat="42.4586685193659" lon="14.128401432710774"><ele>155.0</ele><time>2026-05-03T10:09:45Z</time></trkpt><trkpt lat="42.458638945467825" lon="14.128275075598117"><ele>155.0</ele><time>2026-05-03T10:09:46Z</time></trkpt><trkpt lat="42.45859726319451" lon="14.128136509264706"><ele>155.0</ele><time>2026-05-03T10:09:47Z</time></trkpt><trkpt lat="42.45854229300648" lon="14.127991366531313"><ele>155.0</ele><time>2026-05-03T10:09:48Z</time></trkpt><trkpt lat="42.45849054627054" lon="14.12782615509724"><ele>157.0</ele><time>2026-05-03T10:09:49Z</time></trkpt><trkpt lat="42.4584276530946" lon="14.12765880945874"><ele>159.0</ele><time>2026-05-03T10:09:50Z</time></trkpt><trkpt lat="42.45834830126089" lon="14.127500528822583"><ele>161.0</ele><time>2026-05-03T10:09:51Z</time></trkpt><trkpt lat="42.45828047888846" lon="14.127347498638512"><ele>163.0</ele><time>2026-05-03T10:09:52Z</time></trkpt><trkpt lat="42.45818709225707" lon="14.127219712853316"><ele>161.25</ele><time>2026-05-03T10:09:53Z</time></trkpt><trkpt lat="42.45808311282264" lon="14.12711107262532"><ele>159.5</ele><time>2026-05-03T10:09:54Z</time></trkpt><trkpt lat="42.45796887589985" lon="14.127014459384396"><ele>157.75</ele><time>2026-05-03T10:09:55Z</time></trkpt><trkpt lat="42.45788648811032" lon="14.126868524539947"><ele>156.0</ele><time>2026-05-03T10:09:56Z</time></trkpt><trkpt lat="42.457803957803286" lon="14.126714667401801"><ele>158.75</ele><time>2026-05-03T10:09:57Z</time></trkpt><trkpt lat="42.45772216067086" lon="14.126551619376288"><ele>161.5</ele><time>2026-05-03T10:09:58Z</time></trkpt><trkpt lat="42.457638067895495" lon="14.126390169813888"><ele>164.25</ele><time>2026-05-03T10:09:59Z</time></trkpt><trkpt lat="42.45754574538835" lon="14.126236530972573"><ele>167.0</ele><time>2026-05-03T10:10:00Z</time></trkpt><trkpt lat="42.457467001820994" lon="14.126072810913582"><ele>167.0</ele><time>2026-05-03T10:10:01Z</time></trkpt><trkpt lat="42.457397289453105" lon="14.125918699834077"><ele>167.0</ele><time>2026-05-03T10:10:02Z</time></trkpt><trkpt lat="42.45734188515334" lon="14.125766516760278"><ele>167.0</ele><time>2026-05-03T10:10:03Z</time></trkpt><trkpt lat="42.457300827861154" lon="14.125612466343345"><ele>167.0</ele><time>2026-05-03T10:10:04Z</time></trkpt><trkpt lat="42.45726854719182" lon="14.125456427138058"><ele>167.8</ele><time>2026-05-03T10:10:05Z</time></trkpt><trkpt lat="42.45724068450571" lon="14.125299708005857"><ele>168.6</ele><time>2026-05-03T10:10:06Z</time></trkpt><trkpt lat="42.457226145923066" lon="14.125154563319375"><ele>169.4</ele><time>2026-05-03T10:10:07Z</time></trkpt><trkpt lat="42.45722027520618" lon="14.125023972727082"><ele>170.20000000000002</ele><time>2026-05-03T10:10:08Z</time></trkpt><trkpt lat="42.4572255009492" lon="14.124910549812666"><ele>171.0</ele><time>2026-05-03T10:10:09Z</time></trkpt><trkpt lat="42.45723247907892" lon="14.124805726792932"><ele>171.0</ele><time>2026-05-03T10:10:10Z</time></trkpt><trkpt lat="42.45723990605214" lon="14.124707809134662"><ele>171.0</ele><time>2026-05-03T10:10:11Z</time></trkpt><trkpt lat="42.45724950213609" lon="14.124607893344695"><ele>171.0</ele><time>2026-05-03T10:10:12Z</time></trkpt><trkpt lat="42.45726281909157" lon="14.124496968923111"><ele>171.0</ele><time>2026-05-03T10:10:13Z</time></trkpt><trkpt lat="42.45728199539941" lon="14.124372466378313"><ele>171.0</ele><time>2026-05-03T10:10:14Z</time></trkpt><trkpt lat="42.45730978048326" lon="14.124249096359659"><ele>171.0</ele><time>2026-05-03T10:10:15Z</time></trkpt><trkpt lat="42.45734162423576" lon="14.124119857522551"><ele>169.60000000000002</ele><time>2026-05-03T10:10:16Z</time></trkpt><trkpt lat="42.45737597846541" lon="14.1239848216915"><ele>168.2</ele><time>2026-05-03T10:10:17Z</time></trkpt><trkpt lat="42.45741671636353" lon="14.123849962394463"><ele>166.8</ele><time>2026-05-03T10:10:18Z</time></trkpt><trkpt lat="42.45745849203018" lon="14.123715974795966"><ele>165.39999999999998</ele><time>2026-05-03T10:10:19Z</time></trkpt><trkpt lat="42.457497444990636" lon="14.123576061227258"><ele>164.0</ele><time>2026-05-03T10:10:20Z</time></trkpt><trkpt lat="42.457543215286464" lon="14.12343081198997"><ele>164.0</ele><time>2026-05-03T10:10:21Z</time></trkpt><trkpt lat="42.457586391419476" lon="14.123282733661668"><ele>164.0</ele><time>2026-05-03T10:10:22Z</time></trkpt><trkpt lat="42.45762708901147" lon="14.123128878625446"><ele>164.0</ele><time>2026-05-03T10:10:23Z</time></trkpt><trkpt lat="42.45766951040546" lon="14.122974500573012"><ele>164.0</ele><time>2026-05-03T10:10:24Z</time></trkpt><trkpt lat="42.45771543329885" lon="14.12282007135639"><ele>163.6</ele><time>2026-05-03T10:10:25Z</time></trkpt><trkpt lat="42.457764562395376" lon="14.12267626905593"><ele>163.2</ele><time>2026-05-03T10:10:26Z</time></trkpt><trkpt lat="42.45781124339929" lon="14.122541626533723"><ele>162.79999999999998</ele><time>2026-05-03T10:10:27Z</time></trkpt><trkpt lat="42.45785536936948" lon="14.122414696882656"><ele>162.39999999999998</ele><time>2026-05-03T10:10:28Z</time></trkpt><trkpt lat="42.457901905290335" lon="14.122295821205546"><ele>162.0</ele><time>2026-05-03T10:10:29Z</time></trkpt><trkpt lat="42.45795327451038" lon="14.12218908568413"><ele>161.6</ele><time>2026-05-03T10:10:30Z</time></trkpt><trkpt lat="42.458011553590495" lon="14.122083383301291"><ele>161.2</ele><time>2026-05-03T10:10:31Z</time></trkpt><trkpt lat="42.45807976911204" lon="14.121973779471697"><ele>160.8</ele><time>2026-05-03T10:10:32Z</time></trkpt><trkpt lat="42.458155447382644" lon="14.121866605524852"><ele>160.4</ele><time>2026-05-03T10:10:33Z</time></trkpt><trkpt lat="42.45823908237886" lon="14.121762573765189"><ele>160.0</ele><time>2026-05-03T10:10:34Z</time></trkpt><trkpt lat="42.45833212581814" lon="14.121660248022824"><ele>160.25</ele><time>2026-05-03T10:10:35Z</time></trkpt><trkpt lat="42.45842830977742" lon="14.121558899682192"><ele>160.5</ele><time>2026-05-03T10:10:36Z</time></trkpt><trkpt lat="42.45852855068752" lon="14.121453066806595"><ele>160.75</ele><time>2026-05-03T10:10:37Z</time></trkpt><trkpt lat="42.45863112404715" lon="14.121345210011855"><ele>161.0</ele><time>2026-05-03T10:10:38Z</time></trkpt><trkpt lat="42.45873161640124" lon="14.121237507846397"><ele>160.75</ele><time>2026-05-03T10:10:39Z</time></trkpt><trkpt lat="42.45882880072192" lon="14.121135003650796"><ele>160.5</ele><time>2026-05-03T10:10:40Z</time></trkpt><trkpt lat="42.45892699093407" lon="14.121035053216096"><ele>160.25</ele><time>2026-05-03T10:10:41Z</time></trkpt><trkpt lat="42.45902527799669" lon="14.120934106334612"><ele>160.0</ele><time>2026-05-03T10:10:42Z</time></trkpt><trkpt lat="42.45912015100387" lon="14.120832514882125"><ele>159.75</ele><time>2026-05-03T10:10:43Z</time></trkpt><trkpt lat="42.45921338484088" lon="14.120725351418873"><ele>159.5</ele><time>2026-05-03T10:10:44Z</time></trkpt><trkpt lat="42.459306447970725" lon="14.120621401438102"><ele>159.25</ele><time>2026-05-03T10:10:45Z</time></trkpt><trkpt lat="42.45940403549506" lon="14.120520758488652"><ele>159.0</ele><time>2026-05-03T10:10:46Z</time></trkpt><trkpt lat="42.459498790134845" lon="14.120425592584908"><ele>159.0</ele><time>2026-05-03T10:10:47Z</time></trkpt><trkpt lat="42.45958808755286" lon="14.120337342358225"><ele>159.0</ele><time>2026-05-03T10:10:48Z</time></trkpt><trkpt lat="42.45967397931039" lon="14.120252232170602"><ele>159.0</ele><time>2026-05-03T10:10:49Z</time></trkpt><trkpt lat="42.45975610885498" lon="14.12017432383422"><ele>159.0</ele><time>2026-05-03T10:10:50Z</time></trkpt><trkpt lat="42.4598377260217" lon="14.120112742269734"><ele>159.0</ele><time>2026-05-03T10:10:51Z</time></trkpt><trkpt lat="42.4599237087177" lon="14.120076356257815"><ele>159.16666666666666</ele><time>2026-05-03T10:10:52Z</time></trkpt><trkpt lat="42.460006939857024" lon="14.120053122449749"><ele>159.33333333333334</ele><time>2026-05-03T10:10:53Z</time></trkpt><trkpt lat="42.46008052688256" lon="14.120022480172496"><ele>159.5</ele><time>2026-05-03T10:10:54Z</time></trkpt><trkpt lat="42.460131969993256" lon="14.119971294238562"><ele>159.66666666666669</ele><time>2026-05-03T10:10:55Z</time></trkpt><trkpt lat="42.46017102048142" lon="14.119836865648644"><ele>159.83333333333334</ele><time>2026-05-03T10:10:57Z</time></trkpt><trkpt lat="42.46010335387426" lon="14.119742884754903"><ele>160.0</ele><time>2026-05-03T10:10:58Z</time></trkpt><trkpt lat="42.4600490312492" lon="14.119695291654436"><ele>160.0</ele><time>2026-05-03T10:10:59Z</time></trkpt><trkpt lat="42.45992035150076" lon="14.119734265028182"><ele>160.0</ele><time>2026-05-03T10:11:01Z</time></trkpt><trkpt lat="42.459872018620416" lon="14.11982310688312"><ele>160.0</ele><time>2026-05-03T10:11:02Z</time></trkpt><trkpt lat="42.45983256499895" lon="14.119948839739815"><ele>160.0</ele><time>2026-05-03T10:11:03Z</time></trkpt><trkpt lat="42.459831081330826" lon="14.120079440002483"><ele>160.0</ele><time>2026-05-03T10:11:04Z</time></trkpt><trkpt lat="42.45971393487611" lon="14.120185596647"><ele>159.75</ele><time>2026-05-03T10:11:05Z</time></trkpt><trkpt lat="42.45961607345033" lon="14.120271616481547"><ele>159.5</ele><time>2026-05-03T10:11:06Z</time></trkpt><trkpt lat="42.45951114910519" lon="14.120397554856286"><ele>159.25</ele><time>2026-05-03T10:11:07Z</time></trkpt><trkpt lat="42.45940088609318" lon="14.120493558955554"><ele>159.0</ele><time>2026-05-03T10:11:08Z</time></trkpt><trkpt lat="42.45930693063244" lon="14.12058553909546"><ele>159.0</ele><time>2026-05-03T10:11:09Z</time></trkpt><trkpt lat="42.45922293222743" lon="14.120674650259122"><ele>159.0</ele><time>2026-05-03T10:11:10Z</time></trkpt><trkpt lat="42.45914771098542" lon="14.120749875716328"><ele>159.0</ele><time>2026-05-03T10:11:10.999Z</time></trkpt><trkpt lat="42.45908121990975" lon="14.120822146560934"><ele>159.0</ele><time>2026-05-03T10:11:11.999Z</time></trkpt><trkpt lat="42.459026348263194" lon="14.120886371922609"><ele>159.0</ele><time>2026-05-03T10:11:12.999Z</time></trkpt><trkpt lat="42.458974778931825" lon="14.120938904393123"><ele>159.0</ele><time>2026-05-03T10:11:13.999Z</time></trkpt><trkpt lat="42.45888409048515" lon="14.12104182611858"><ele>159.16666666666666</ele><time>2026-05-03T10:11:15.999Z</time></trkpt><trkpt lat="42.45881764440846" lon="14.121048599401055"><ele>159.33333333333334</ele><time>2026-05-03T10:11:17.999Z</time></trkpt><trkpt lat="42.45881239949555" lon="14.120952309294902"><ele>159.5</ele><time>2026-05-03T10:11:18.999Z</time></trkpt><trkpt lat="42.4587355649954" lon="14.12092175800488"><ele>159.66666666666669</ele><time>2026-05-03T10:11:19.999Z</time></trkpt><trkpt lat="42.45867148054488" lon="14.120832927398684"><ele>159.83333333333334</ele><time>2026-05-03T10:11:20.999Z</time></trkpt><trkpt lat="42.4586068964958" lon="14.120766737361192"><ele>160.0</ele><time>2026-05-03T10:11:21.999Z</time></trkpt><trkpt lat="42.4585523895666" lon="14.120711460554544"><ele>158.85714285714286</ele><time>2026-05-03T10:11:22.999Z</time></trkpt><trkpt lat="42.45851464474598" lon="14.120628010167103"><ele>157.71428571428572</ele><time>2026-05-03T10:11:23.999Z</time></trkpt><trkpt lat="42.458465774705246" lon="14.120571968739645"><ele>156.57142857142856</ele><time>2026-05-03T10:11:24.999Z</time></trkpt><trkpt lat="42.45837458951122" lon="14.120475018791634"><ele>155.42857142857144</ele><time>2026-05-03T10:11:26.999Z</time></trkpt><trkpt lat="42.458321788851435" lon="14.120421743996046"><ele>154.2857142857143</ele><time>2026-05-03T10:11:27.999Z</time></trkpt><trkpt lat="42.458271254117264" lon="14.120370754922188"><ele>153.14285714285714</ele><time>2026-05-03T10:11:28.999Z</time></trkpt><trkpt lat="42.45821149535537" lon="14.120337558022271"><ele>152.0</ele><time>2026-05-03T10:11:29.999Z</time></trkpt><trkpt lat="42.45816225273145" lon="14.120284386187896"><ele>152.0</ele><time>2026-05-03T10:11:30.999Z</time></trkpt><trkpt lat="42.45807543708015" lon="14.120193170061967"><ele>152.0</ele><time>2026-05-03T10:11:32.999Z</time></trkpt><trkpt lat="42.45800798723876" lon="14.12012549698054"><ele>152.0</ele><time>2026-05-03T10:11:34.999Z</time></trkpt><trkpt lat="42.457956923579836" lon="14.12003758854929"><ele>152.0</ele><time>2026-05-03T10:11:36.999Z</time></trkpt><trkpt lat="42.45790790885237" lon="14.1199301428545"><ele>152.0</ele><time>2026-05-03T10:11:38.999Z</time></trkpt><trkpt lat="42.45784156808271" lon="14.119848328967514"><ele>148.66666666666666</ele><time>2026-05-03T10:11:40.999Z</time></trkpt><trkpt lat="42.457781830153564" lon="14.119761589202275"><ele>145.33333333333331</ele><time>2026-05-03T10:11:42.999Z</time></trkpt><trkpt lat="42.45772582937206" lon="14.119668971769038"><ele>142.0</ele><time>2026-05-03T10:11:45Z</time></trkpt><trkpt lat="42.45768219260408" lon="14.119599813115189"><ele>138.66666666666666</ele><time>2026-05-03T10:11:47Z</time></trkpt><trkpt lat="42.45762764190114" lon="14.119538991374164"><ele>135.33333333333334</ele><time>2026-05-03T10:11:55Z</time></trkpt><trkpt lat="42.457572111602694" lon="14.119472347520917"><ele>132.0</ele><time>2026-05-03T10:11:57Z</time></trkpt><trkpt lat="42.45752318606599" lon="14.119407002054885"><ele>132.0</ele><time>2026-05-03T10:11:59Z</time></trkpt><trkpt lat="42.45746639584138" lon="14.119339113172028"><ele>132.0</ele><time>2026-05-03T10:12:01Z</time></trkpt><trkpt lat="42.45740312490216" lon="14.119290760410392"><ele>132.0</ele><time>2026-05-03T10:12:03Z</time></trkpt><trkpt lat="42.457323639009594" lon="14.119267306659786"><ele>132.0</ele><time>2026-05-03T10:12:06Z</time></trkpt><trkpt lat="42.457239048298916" lon="14.119263066352085"><ele>132.0</ele><time>2026-05-03T10:12:08Z</time></trkpt><trkpt lat="42.4571701258479" lon="14.119257788480532"><ele>132.0</ele><time>2026-05-03T10:12:10Z</time></trkpt><trkpt lat="42.45709352183096" lon="14.119254518856419"><ele>130.4</ele><time>2026-05-03T10:12:12Z</time></trkpt><trkpt lat="42.457012406975196" lon="14.119251964566464"><ele>128.79999999999998</ele><time>2026-05-03T10:12:14Z</time></trkpt><trkpt lat="42.4569314696988" lon="14.119256313186172"><ele>127.2</ele><time>2026-05-03T10:12:16Z</time></trkpt><trkpt lat="42.45684163273463" lon="14.119271349067438"><ele>125.6</ele><time>2026-05-03T10:12:18Z</time></trkpt><trkpt lat="42.45673344250698" lon="14.11928887506843"><ele>124.0</ele><time>2026-05-03T10:12:20Z</time></trkpt><trkpt lat="42.45662818532849" lon="14.119325274146615"><ele>124.0</ele><time>2026-05-03T10:12:22Z</time></trkpt><trkpt lat="42.456551426431155" lon="14.119335195101822"><ele>124.0</ele><time>2026-05-03T10:12:24Z</time></trkpt><trkpt lat="42.45646979847992" lon="14.119318090702727"><ele>124.0</ele><time>2026-05-03T10:12:26Z</time></trkpt><trkpt lat="42.45637159317226" lon="14.119317259186426"><ele>124.0</ele><time>2026-05-03T10:12:28Z</time></trkpt><trkpt lat="42.4562618533555" lon="14.119330137411255"><ele>124.0</ele><time>2026-05-03T10:12:30Z</time></trkpt><trkpt lat="42.45614954017727" lon="14.119345461490154"><ele>123.16666666666667</ele><time>2026-05-03T10:12:32Z</time></trkpt><trkpt lat="42.45607326869484" lon="14.119329807492482"><ele>122.33333333333334</ele><time>2026-05-03T10:12:35Z</time></trkpt><trkpt lat="42.45599238587287" lon="14.119321514530425"><ele>121.5</ele><time>2026-05-03T10:12:37Z</time></trkpt><trkpt lat="42.4559063697413" lon="14.119294051816537"><ele>120.66666666666666</ele><time>2026-05-03T10:13:02.999Z</time></trkpt><trkpt lat="42.45584377285042" lon="14.119261814487741"><ele>119.83333333333333</ele><time>2026-05-03T10:13:04.999Z</time></trkpt><trkpt lat="42.455757927130456" lon="14.119225186787391"><ele>119.0</ele><time>2026-05-03T10:13:09.999Z</time></trkpt><trkpt lat="42.45568853994126" lon="14.119207065499245"><ele>118.99999999999999</ele><time>2026-05-03T10:13:12.999Z</time></trkpt><trkpt lat="42.45562540354753" lon="14.119197364787627"><ele>119.0</ele><time>2026-05-03T10:13:14.999Z</time></trkpt><trkpt lat="42.455547116132486" lon="14.119219003261732"><ele>119.0</ele><time>2026-05-03T10:13:17.999Z</time></trkpt><trkpt lat="42.455457327992164" lon="14.119217646856345"><ele>119.0</ele><time>2026-05-03T10:13:21.999Z</time></trkpt><trkpt lat="42.455384515770554" lon="14.119205127869677"><ele>118.99999999999999</ele><time>2026-05-03T10:13:31.999Z</time></trkpt><trkpt lat="42.45549739753877" lon="14.119217132496592"><ele>119.0</ele><time>2026-05-03T10:15:06Z</time></trkpt><trkpt lat="42.455565578227905" lon="14.119212088153226"><ele>118.99999999999999</ele><time>2026-05-03T10:15:08Z</time></trkpt><trkpt lat="42.45563420042962" lon="14.119196978229978"><ele>119.0</ele><time>2026-05-03T10:15:11Z</time></trkpt><trkpt lat="42.4557033763856" lon="14.11920869415244"><ele>119.0</ele><time>2026-05-03T10:15:13Z</time></trkpt><trkpt lat="42.45576984340098" lon="14.119229250601459"><ele>119.0</ele><time>2026-05-03T10:15:14Z</time></trkpt><trkpt lat="42.455898597764346" lon="14.11928550505176"><ele>118.99999999999999</ele><time>2026-05-03T10:15:16Z</time></trkpt><trkpt lat="42.45596393640433" lon="14.119313748591296"><ele>119.0</ele><time>2026-05-03T10:15:17Z</time></trkpt><trkpt lat="42.45602477218932" lon="14.119339802248629"><ele>118.99999999999999</ele><time>2026-05-03T10:15:18Z</time></trkpt><trkpt lat="42.45609651490071" lon="14.119329424802363"><ele>119.0</ele><time>2026-05-03T10:15:20Z</time></trkpt><trkpt lat="42.456161341797106" lon="14.119337283019453"><ele>119.0</ele><time>2026-05-03T10:15:23Z</time></trkpt><trkpt lat="42.45626560303379" lon="14.119326871195245"><ele>119.0</ele><time>2026-05-03T10:15:25Z</time></trkpt><trkpt lat="42.456349362090116" lon="14.119315402040693"><ele>118.99999999999999</ele><time>2026-05-03T10:15:28Z</time></trkpt><trkpt lat="42.456443207504606" lon="14.119312240035796"><ele>119.0</ele><time>2026-05-03T10:15:30Z</time></trkpt><trkpt lat="42.45651606307557" lon="14.119319963089604"><ele>120.0</ele><time>2026-05-03T10:15:32Z</time></trkpt><trkpt lat="42.456603812432085" lon="14.119328695642139"><ele>121.0</ele><time>2026-05-03T10:15:34Z</time></trkpt><trkpt lat="42.456733726115495" lon="14.119287853892923"><ele>122.0</ele><time>2026-05-03T10:15:36Z</time></trkpt><trkpt lat="42.456818161346426" lon="14.119261609411394"><ele>123.0</ele><time>2026-05-03T10:15:37Z</time></trkpt><trkpt lat="42.45691505160577" lon="14.11924791123574"><ele>124.0</ele><time>2026-05-03T10:15:37.999Z</time></trkpt><trkpt lat="42.45704326669608" lon="14.119241225905336"><ele>125.6</ele><time>2026-05-03T10:15:38.999Z</time></trkpt><trkpt lat="42.45717004236776" lon="14.119242944980105"><ele>127.2</ele><time>2026-05-03T10:15:39.999Z</time></trkpt><trkpt lat="42.457276572323465" lon="14.119250453090439"><ele>128.79999999999998</ele><time>2026-05-03T10:15:40.999Z</time></trkpt><trkpt lat="42.45736495595243" lon="14.119263502507287"><ele>130.4</ele><time>2026-05-03T10:15:41.999Z</time></trkpt><trkpt lat="42.45746258309731" lon="14.119316120052318"><ele>132.0</ele><time>2026-05-03T10:15:43.999Z</time></trkpt><trkpt lat="42.45756436345571" lon="14.119447698214966"><ele>132.0</ele><time>2026-05-03T10:15:45.999Z</time></trkpt><trkpt lat="42.45761043985032" lon="14.119513964924279"><ele>132.0</ele><time>2026-05-03T10:15:46.999Z</time></trkpt><trkpt lat="42.457669250343045" lon="14.119596824278576"><ele>132.0</ele><time>2026-05-03T10:15:47.999Z</time></trkpt><trkpt lat="42.45774336722058" lon="14.119696578646328"><ele>132.0</ele><time>2026-05-03T10:15:48.999Z</time></trkpt><trkpt lat="42.457814275381985" lon="14.119798115849258"><ele>132.0</ele><time>2026-05-03T10:15:49.999Z</time></trkpt><trkpt lat="42.45787997166862" lon="14.119896761840254"><ele>134.0</ele><time>2026-05-03T10:15:50.999Z</time></trkpt><trkpt lat="42.45794678706194" lon="14.11999808894768"><ele>136.0</ele><time>2026-05-03T10:15:51.999Z</time></trkpt><trkpt lat="42.458008294288355" lon="14.120093506127668"><ele>138.0</ele><time>2026-05-03T10:15:52.999Z</time></trkpt><trkpt lat="42.458065827443164" lon="14.120183760990477"><ele>140.0</ele><time>2026-05-03T10:15:54Z</time></trkpt><trkpt lat="42.45812807108042" lon="14.120255385889493"><ele>142.0</ele><time>2026-05-03T10:15:55Z</time></trkpt><trkpt lat="42.45819905460476" lon="14.120324377979365"><ele>144.0</ele><time>2026-05-03T10:15:56Z</time></trkpt><trkpt lat="42.45826238225505" lon="14.120417952177126"><ele>146.0</ele><time>2026-05-03T10:15:57Z</time></trkpt><trkpt lat="42.45834661730653" lon="14.120477024748395"><ele>148.0</ele><time>2026-05-03T10:15:58Z</time></trkpt><trkpt lat="42.45842032385144" lon="14.120558194209456"><ele>150.0</ele><time>2026-05-03T10:15:59Z</time></trkpt><trkpt lat="42.45849521262977" lon="14.120644274519982"><ele>152.0</ele><time>2026-05-03T10:16:00Z</time></trkpt><trkpt lat="42.458561861124004" lon="14.120731568904045"><ele>153.14285714285714</ele><time>2026-05-03T10:16:01Z</time></trkpt><trkpt lat="42.45861320943795" lon="14.120793606259273"><ele>154.2857142857143</ele><time>2026-05-03T10:16:02Z</time></trkpt><trkpt lat="42.458679414346044" lon="14.120858797287482"><ele>155.42857142857144</ele><time>2026-05-03T10:16:03Z</time></trkpt><trkpt lat="42.458738239614185" lon="14.120918400766959"><ele>156.57142857142856</ele><time>2026-05-03T10:16:04Z</time></trkpt><trkpt lat="42.458786065101776" lon="14.120974576029544"><ele>157.71428571428572</ele><time>2026-05-03T10:16:05Z</time></trkpt><trkpt lat="42.458838306860684" lon="14.12104159465863"><ele>158.85714285714286</ele><time>2026-05-03T10:16:07Z</time></trkpt><trkpt lat="42.45888375455827" lon="14.121106890801714"><ele>160.0</ele><time>2026-05-03T10:16:10Z</time></trkpt><trkpt lat="42.45896972969004" lon="14.121005228486045"><ele>160.0</ele><time>2026-05-03T10:16:11Z</time></trkpt><trkpt lat="42.45901616935751" lon="14.120947241039644"><ele>160.0</ele><time>2026-05-03T10:16:12Z</time></trkpt><trkpt lat="42.4590936159955" lon="14.120855990651606"><ele>160.0</ele><time>2026-05-03T10:16:13Z</time></trkpt><trkpt lat="42.459233592012026" lon="14.120697280766525"><ele>160.0</ele><time>2026-05-03T10:16:14Z</time></trkpt><trkpt lat="42.4593720342192" lon="14.120555816794718"><ele>160.0</ele><time>2026-05-03T10:16:15Z</time></trkpt><trkpt lat="42.459494451957376" lon="14.12043178320883"><ele>160.0</ele><time>2026-05-03T10:16:16Z</time></trkpt><trkpt lat="42.459607204024195" lon="14.120314839334327"><ele>160.0</ele><time>2026-05-03T10:16:17Z</time></trkpt><trkpt lat="42.45970777952085" lon="14.120217281388902"><ele>160.0</ele><time>2026-05-03T10:16:18Z</time></trkpt><trkpt lat="42.45979284506494" lon="14.120145250508868"><ele>160.0</ele><time>2026-05-03T10:16:19Z</time></trkpt><trkpt lat="42.459855817272" lon="14.12010054051396"><ele>160.0</ele><time>2026-05-03T10:16:20Z</time></trkpt><trkpt lat="42.45991797715781" lon="14.120077915980792"><ele>160.0</ele><time>2026-05-03T10:16:23Z</time></trkpt><trkpt lat="42.4599876362019" lon="14.12006773256139"><ele>160.0</ele><time>2026-05-03T10:16:25Z</time></trkpt><trkpt lat="42.46005427010075" lon="14.120043473922854"><ele>160.0</ele><time>2026-05-03T10:16:26Z</time></trkpt><trkpt lat="42.460113467616374" lon="14.119992589623566"><ele>160.0</ele><time>2026-05-03T10:16:27Z</time></trkpt><trkpt lat="42.4601523427917" lon="14.119919754772292"><ele>160.0</ele><time>2026-05-03T10:16:28Z</time></trkpt><trkpt lat="42.46017057731296" lon="14.119828657874455"><ele>160.0</ele><time>2026-05-03T10:16:29Z</time></trkpt><trkpt lat="42.46017017484371" lon="14.11970312268774"><ele>160.0</ele><time>2026-05-03T10:16:30Z</time></trkpt><trkpt lat="42.460185016776144" lon="14.119569126887445"><ele>160.0</ele><time>2026-05-03T10:16:31Z</time></trkpt><trkpt lat="42.46022930883099" lon="14.119429345394753"><ele>160.0</ele><time>2026-05-03T10:16:32Z</time></trkpt><trkpt lat="42.460307149732444" lon="14.119237648971477"><ele>160.25</ele><time>2026-05-03T10:16:33Z</time></trkpt><trkpt lat="42.46038346379444" lon="14.119062567941736"><ele>160.5</ele><time>2026-05-03T10:16:34Z</time></trkpt><trkpt lat="42.460431315226224" lon="14.118890778969002"><ele>160.75</ele><time>2026-05-03T10:16:35Z</time></trkpt><trkpt lat="42.46048230868478" lon="14.118721780280145"><ele>161.0</ele><time>2026-05-03T10:16:36Z</time></trkpt><trkpt lat="42.46051320957865" lon="14.11854841173622"><ele>161.0</ele><time>2026-05-03T10:16:37Z</time></trkpt><trkpt lat="42.46052378366254" lon="14.118375256650202"><ele>161.0</ele><time>2026-05-03T10:16:38Z</time></trkpt><trkpt lat="42.46051211563011" lon="14.118206919431698"><ele>161.0</ele><time>2026-05-03T10:16:39Z</time></trkpt><trkpt lat="42.460477130668686" lon="14.118054411624849"><ele>161.0</ele><time>2026-05-03T10:16:40Z</time></trkpt><trkpt lat="42.46042338139801" lon="14.117928495120731"><ele>160.8</ele><time>2026-05-03T10:16:41Z</time></trkpt><trkpt lat="42.46034610494163" lon="14.117825088448042"><ele>160.60000000000002</ele><time>2026-05-03T10:16:42Z</time></trkpt><trkpt lat="42.46025430055528" lon="14.1177453457624"><ele>160.4</ele><time>2026-05-03T10:16:43Z</time></trkpt><trkpt lat="42.46015644061773" lon="14.117674325107622"><ele>160.2</ele><time>2026-05-03T10:16:44Z</time></trkpt><trkpt lat="42.46005356178225" lon="14.117606126759174"><ele>160.0</ele><time>2026-05-03T10:16:45Z</time></trkpt><trkpt lat="42.45995014610417" lon="14.117523533131823"><ele>163.0</ele><time>2026-05-03T10:16:46Z</time></trkpt><trkpt lat="42.45951987970816" lon="14.117159765134387"><ele>163.0</ele><time>2026-05-03T10:16:50Z</time></trkpt><trkpt lat="42.45940946482869" lon="14.117065887447943"><ele>163.0</ele><time>2026-05-03T10:16:51Z</time></trkpt><trkpt lat="42.45929952124952" lon="14.116973121167092"><ele>163.0</ele><time>2026-05-03T10:16:52Z</time></trkpt><trkpt lat="42.459191187214394" lon="14.116880016405071"><ele>163.0</ele><time>2026-05-03T10:16:53Z</time></trkpt><trkpt lat="42.459086318460955" lon="14.116789191797462"><ele>163.0</ele><time>2026-05-03T10:16:54Z</time></trkpt><trkpt lat="42.45899573883085" lon="14.116709087939451"><ele>163.0</ele><time>2026-05-03T10:16:55Z</time></trkpt><trkpt lat="42.4589124178635" lon="14.116637439347118"><ele>163.0</ele><time>2026-05-03T10:16:56Z</time></trkpt><trkpt lat="42.45883212517244" lon="14.116560458610838"><ele>163.0</ele><time>2026-05-03T10:16:57Z</time></trkpt><trkpt lat="42.458749455799826" lon="14.116466308000586"><ele>163.0</ele><time>2026-05-03T10:16:58Z</time></trkpt><trkpt lat="42.458659797131766" lon="14.116362781923462"><ele>164.0</ele><time>2026-05-03T10:16:59Z</time></trkpt><trkpt lat="42.45856266299778" lon="14.11625485854223"><ele>165.0</ele><time>2026-05-03T10:17:00Z</time></trkpt><trkpt lat="42.45845801489743" lon="14.116139526220262"><ele>166.0</ele><time>2026-05-03T10:17:01Z</time></trkpt><trkpt lat="42.45834978801074" lon="14.116021415857556"><ele>167.0</ele><time>2026-05-03T10:17:02Z</time></trkpt><trkpt lat="42.45825113811698" lon="14.115878461734145"><ele>167.0</ele><time>2026-05-03T10:17:03Z</time></trkpt><trkpt lat="42.458127661717924" lon="14.1157712658003"><ele>167.0</ele><time>2026-05-03T10:17:04Z</time></trkpt><trkpt lat="42.45801116113973" lon="14.115646683342076"><ele>167.0</ele><time>2026-05-03T10:17:05Z</time></trkpt><trkpt lat="42.45791521789684" lon="14.115529962849191"><ele>167.0</ele><time>2026-05-03T10:17:06Z</time></trkpt><trkpt lat="42.45784579318443" lon="14.115410250152328"><ele>167.0</ele><time>2026-05-03T10:17:07Z</time></trkpt><trkpt lat="42.45779857835117" lon="14.115272954607121"><ele>167.0</ele><time>2026-05-03T10:17:08Z</time></trkpt><trkpt lat="42.457810012415806" lon="14.115125310896605"><ele>167.0</ele><time>2026-05-03T10:17:09Z</time></trkpt><trkpt lat="42.45783700883292" lon="14.114983186213637"><ele>167.0</ele><time>2026-05-03T10:17:10Z</time></trkpt><trkpt lat="42.45788277967979" lon="14.114798687482285"><ele>167.33333333333331</ele><time>2026-05-03T10:17:11Z</time></trkpt><trkpt lat="42.45792159851378" lon="14.114584184361208"><ele>167.66666666666666</ele><time>2026-05-03T10:17:12Z</time></trkpt><trkpt lat="42.457948470338636" lon="14.114378528008725"><ele>168.0</ele><time>2026-05-03T10:17:13Z</time></trkpt><trkpt lat="42.457947966374405" lon="14.114188406954066"><ele>170.4</ele><time>2026-05-03T10:17:14Z</time></trkpt><trkpt lat="42.457934524208234" lon="14.114016146262312"><ele>172.8</ele><time>2026-05-03T10:17:15Z</time></trkpt><trkpt lat="42.45792400833458" lon="14.113874352379408"><ele>175.2</ele><time>2026-05-03T10:17:16Z</time></trkpt><trkpt lat="42.45791769251853" lon="14.113761406636113"><ele>177.6</ele><time>2026-05-03T10:17:17Z</time></trkpt><trkpt lat="42.45794356994482" lon="14.11365213645286"><ele>180.0</ele><time>2026-05-03T10:17:19Z</time></trkpt><trkpt lat="42.45779814479422" lon="14.113557040578224"><ele>180.0</ele><time>2026-05-03T10:17:21Z</time></trkpt><trkpt lat="42.457928825349384" lon="14.113654572309889"><ele>180.0</ele><time>2026-05-03T10:17:35Z</time></trkpt><trkpt lat="42.45770459982528" lon="14.11348879272861"><ele>180.0</ele><time>2026-05-03T10:20:51Z</time></trkpt><trkpt lat="42.45763994397685" lon="14.113435953209821"><ele>180.0</ele><time>2026-05-03T10:20:52Z</time></trkpt><trkpt lat="42.457574487730795" lon="14.113378847169814"><ele>180.0</ele><time>2026-05-03T10:20:53Z</time></trkpt><trkpt lat="42.457506944465514" lon="14.11331670246132"><ele>180.0</ele><time>2026-05-03T10:20:54Z</time></trkpt><trkpt lat="42.45743363627671" lon="14.113252165957702"><ele>180.0</ele><time>2026-05-03T10:20:55Z</time></trkpt><trkpt lat="42.45735617005762" lon="14.113188971381161"><ele>180.0</ele><time>2026-05-03T10:20:56Z</time></trkpt><trkpt lat="42.45726912166928" lon="14.113121125797406"><ele>180.0</ele><time>2026-05-03T10:20:57Z</time></trkpt><trkpt lat="42.457178775244" lon="14.113049266501658"><ele>179.0</ele><time>2026-05-03T10:20:58Z</time></trkpt><trkpt lat="42.45708742135044" lon="14.112979298942589"><ele>178.0</ele><time>2026-05-03T10:20:59Z</time></trkpt><trkpt lat="42.45699333820637" lon="14.112917558530805"><ele>177.0</ele><time>2026-05-03T10:21:00Z</time></trkpt><trkpt lat="42.45689442844375" lon="14.112858117785324"><ele>176.0</ele><time>2026-05-03T10:21:01Z</time></trkpt><trkpt lat="42.456795921163405" lon="14.112796195433349"><ele>175.0</ele><time>2026-05-03T10:21:02Z</time></trkpt><trkpt lat="42.456707419260574" lon="14.112728440470613"><ele>175.0</ele><time>2026-05-03T10:21:03Z</time></trkpt><trkpt lat="42.45662084840063" lon="14.112661188625278"><ele>175.0</ele><time>2026-05-03T10:21:04Z</time></trkpt><trkpt lat="42.4565229697102" lon="14.112678481550459"><ele>175.0</ele><time>2026-05-03T10:21:05Z</time></trkpt><trkpt lat="42.45644531601098" lon="14.11266404078096"><ele>175.0</ele><time>2026-05-03T10:21:06Z</time></trkpt><trkpt lat="42.45637268875048" lon="14.112656583867338"><ele>175.0</ele><time>2026-05-03T10:21:07Z</time></trkpt><trkpt lat="42.45629815084852" lon="14.112645559883987"><ele>175.0</ele><time>2026-05-03T10:21:08Z</time></trkpt><trkpt lat="42.456230964089855" lon="14.112632241176792"><ele>174.6</ele><time>2026-05-03T10:21:09Z</time></trkpt><trkpt lat="42.4561629444636" lon="14.112615607849119"><ele>174.2</ele><time>2026-05-03T10:21:10Z</time></trkpt><trkpt lat="42.4560459019196" lon="14.112592025994143"><ele>173.8</ele><time>2026-05-03T10:21:12Z</time></trkpt><trkpt lat="42.45592414130883" lon="14.11257251529322"><ele>173.4</ele><time>2026-05-03T10:21:14Z</time></trkpt><trkpt lat="42.45581093443451" lon="14.11255134403345"><ele>173.0</ele><time>2026-05-03T10:21:16Z</time></trkpt><trkpt lat="42.455710565733625" lon="14.11253778129869"><ele>173.0</ele><time>2026-05-03T10:21:17Z</time></trkpt><trkpt lat="42.45554595761448" lon="14.112515118372404"><ele>173.0</ele><time>2026-05-03T10:21:18Z</time></trkpt><trkpt lat="42.45539224694922" lon="14.112501507135018"><ele>173.0</ele><time>2026-05-03T10:21:18.999Z</time></trkpt><trkpt lat="42.45526574555774" lon="14.112535786803225"><ele>173.0</ele><time>2026-05-03T10:21:19.999Z</time></trkpt><trkpt lat="42.455158514684996" lon="14.112586761505538"><ele>172.8</ele><time>2026-05-03T10:21:20.999Z</time></trkpt><trkpt lat="42.45506061339587" lon="14.112626111068858"><ele>172.60000000000002</ele><time>2026-05-03T10:21:21.999Z</time></trkpt><trkpt lat="42.454955629086825" lon="14.112671164529933"><ele>172.39999999999998</ele><time>2026-05-03T10:21:22.999Z</time></trkpt><trkpt lat="42.45486597416236" lon="14.112703146222408"><ele>172.2</ele><time>2026-05-03T10:21:23.999Z</time></trkpt><trkpt lat="42.45494394350612" lon="14.11279068587168"><ele>172.0</ele><time>2026-05-03T10:21:30.999Z</time></trkpt><trkpt lat="42.45499279050581" lon="14.112695511607747"><ele>172.0</ele><time>2026-05-03T10:21:32.999Z</time></trkpt><trkpt lat="42.45508257152648" lon="14.112657500204362"><ele>172.0</ele><time>2026-05-03T10:21:34.999Z</time></trkpt><trkpt lat="42.455149124191514" lon="14.112634285350405"><ele>172.0</ele><time>2026-05-03T10:21:35.999Z</time></trkpt><trkpt lat="42.455230829903655" lon="14.11260355440747"><ele>172.0</ele><time>2026-05-03T10:21:36.999Z</time></trkpt><trkpt lat="42.45532032204982" lon="14.11256944489251"><ele>172.0</ele><time>2026-05-03T10:21:37.999Z</time></trkpt><trkpt lat="42.455416431446466" lon="14.11255704254299"><ele>172.0</ele><time>2026-05-03T10:21:38.999Z</time></trkpt><trkpt lat="42.45553023572733" lon="14.112558523863717"><ele>172.33333333333334</ele><time>2026-05-03T10:21:39.999Z</time></trkpt><trkpt lat="42.455668786193435" lon="14.112567856821325"><ele>172.66666666666666</ele><time>2026-05-03T10:21:40.999Z</time></trkpt><trkpt lat="42.45581673970638" lon="14.112584637903836"><ele>173.0</ele><time>2026-05-03T10:21:41.999Z</time></trkpt><trkpt lat="42.45599937299107" lon="14.112616874848626"><ele>173.0</ele><time>2026-05-03T10:21:42.999Z</time></trkpt><trkpt lat="42.456187937123765" lon="14.112646227677958"><ele>173.0</ele><time>2026-05-03T10:21:43.999Z</time></trkpt><trkpt lat="42.45634101645139" lon="14.11267427178899"><ele>173.0</ele><time>2026-05-03T10:21:44.999Z</time></trkpt><trkpt lat="42.45646768524393" lon="14.11269780422035"><ele>173.33333333333331</ele><time>2026-05-03T10:21:45.999Z</time></trkpt><trkpt lat="42.4565618732783" lon="14.112721349602642"><ele>173.66666666666666</ele><time>2026-05-03T10:21:46.999Z</time></trkpt><trkpt lat="42.4566272922339" lon="14.112743599696431"><ele>174.0</ele><time>2026-05-03T10:21:47.999Z</time></trkpt><trkpt lat="42.45670782004189" lon="14.112787805025482"><ele>174.33333333333334</ele><time>2026-05-03T10:21:49.999Z</time></trkpt><trkpt lat="42.45676744670441" lon="14.112671237292753"><ele>174.66666666666669</ele><time>2026-05-03T10:21:50.999Z</time></trkpt><trkpt lat="42.456809212856065" lon="14.112598965620096"><ele>175.0</ele><time>2026-05-03T10:21:51.999Z</time></trkpt><trkpt lat="42.45685329763174" lon="14.11251464277338"><ele>175.0</ele><time>2026-05-03T10:21:52.999Z</time></trkpt><trkpt lat="42.45691821347914" lon="14.112440913328925"><ele>175.0</ele><time>2026-05-03T10:21:53.999Z</time></trkpt><trkpt lat="42.45699543770463" lon="14.112374175681058"><ele>175.0</ele><time>2026-05-03T10:21:54.999Z</time></trkpt><trkpt lat="42.45707137414495" lon="14.112301376391388"><ele>175.0</ele><time>2026-05-03T10:21:55.999Z</time></trkpt><trkpt lat="42.45714117835242" lon="14.112231826795924"><ele>175.0</ele><time>2026-05-03T10:21:56.999Z</time></trkpt><trkpt lat="42.4572091657235" lon="14.112167294174274"><ele>175.0</ele><time>2026-05-03T10:21:57.999Z</time></trkpt><trkpt lat="42.4572674435417" lon="14.112102566449227"><ele>175.0</ele><time>2026-05-03T10:21:58.999Z</time></trkpt><trkpt lat="42.45731093406534" lon="14.112022974986472"><ele>175.0</ele><time>2026-05-03T10:21:59.999Z</time></trkpt><trkpt lat="42.45732775964134" lon="14.111919068273998"><ele>175.0</ele><time>2026-05-03T10:22:00.999Z</time></trkpt><trkpt lat="42.45732027594291" lon="14.111805300863177"><ele>175.0</ele><time>2026-05-03T10:22:01.999Z</time></trkpt><trkpt lat="42.457278097906794" lon="14.111694664826857"><ele>175.0</ele><time>2026-05-03T10:22:02.999Z</time></trkpt><trkpt lat="42.457229758308976" lon="14.111580153043345"><ele>175.0</ele><time>2026-05-03T10:22:03.999Z</time></trkpt><trkpt lat="42.45717213019524" lon="14.111478196856574"><ele>174.0</ele><time>2026-05-03T10:22:04.999Z</time></trkpt><trkpt lat="42.45711292914138" lon="14.111376950492263"><ele>173.0</ele><time>2026-05-03T10:22:05.999Z</time></trkpt><trkpt lat="42.45705306502109" lon="14.111278149104384"><ele>172.0</ele><time>2026-05-03T10:22:06.999Z</time></trkpt><trkpt lat="42.456994192815195" lon="14.111178143563732"><ele>171.0</ele><time>2026-05-03T10:22:07.999Z</time></trkpt><trkpt lat="42.45693760622237" lon="14.111081947979553"><ele>170.0</ele><time>2026-05-03T10:22:08.999Z</time></trkpt><trkpt lat="42.45688192985759" lon="14.110992196451853"><ele>170.0</ele><time>2026-05-03T10:22:10Z</time></trkpt><trkpt lat="42.45682643179045" lon="14.110906810726014"><ele>170.0</ele><time>2026-05-03T10:22:11Z</time></trkpt><trkpt lat="42.45676490227009" lon="14.110819179857064"><ele>170.0</ele><time>2026-05-03T10:22:12Z</time></trkpt><trkpt lat="42.45668408324705" lon="14.110746477392981"><ele>170.0</ele><time>2026-05-03T10:22:13Z</time></trkpt><trkpt lat="42.45660508009637" lon="14.110658659351978"><ele>170.0</ele><time>2026-05-03T10:22:14Z</time></trkpt><trkpt lat="42.45652210262934" lon="14.11057425140052"><ele>168.4</ele><time>2026-05-03T10:22:15Z</time></trkpt><trkpt lat="42.45643305197289" lon="14.110498665336344"><ele>166.8</ele><time>2026-05-03T10:22:16Z</time></trkpt><trkpt lat="42.45635489273988" lon="14.110408067918787"><ele>165.2</ele><time>2026-05-03T10:22:17Z</time></trkpt><trkpt lat="42.45627532305893" lon="14.110342904498674"><ele>163.6</ele><time>2026-05-03T10:22:18Z</time></trkpt><trkpt lat="42.45619992374415" lon="14.110283880610451"><ele>162.0</ele><time>2026-05-03T10:22:19Z</time></trkpt><trkpt lat="42.45613049002622" lon="14.110229570591141"><ele>161.83333333333334</ele><time>2026-05-03T10:22:20Z</time></trkpt><trkpt lat="42.45605676527623" lon="14.110194992811332"><ele>161.66666666666666</ele><time>2026-05-03T10:22:21Z</time></trkpt><trkpt lat="42.45599154276934" lon="14.110138375951278"><ele>161.5</ele><time>2026-05-03T10:22:21.999Z</time></trkpt><trkpt lat="42.45591768705457" lon="14.110076300587508"><ele>161.33333333333331</ele><time>2026-05-03T10:22:22.999Z</time></trkpt><trkpt lat="42.45584715049713" lon="14.11001672664907"><ele>161.16666666666666</ele><time>2026-05-03T10:22:23.999Z</time></trkpt><trkpt lat="42.45577492654396" lon="14.109953216720957"><ele>161.0</ele><time>2026-05-03T10:22:24.999Z</time></trkpt><trkpt lat="42.45562940938048" lon="14.109830914038415"><ele>161.0</ele><time>2026-05-03T10:22:26.999Z</time></trkpt><trkpt lat="42.45555718737655" lon="14.109773288043849"><ele>161.0</ele><time>2026-05-03T10:22:27.999Z</time></trkpt><trkpt lat="42.45548554665001" lon="14.109718465212847"><ele>161.0</ele><time>2026-05-03T10:22:28.999Z</time></trkpt><trkpt lat="42.45541561222912" lon="14.109648268164168"><ele>161.0</ele><time>2026-05-03T10:22:29.999Z</time></trkpt><trkpt lat="42.45533527192924" lon="14.109598391880281"><ele>161.0</ele><time>2026-05-03T10:22:30.999Z</time></trkpt><trkpt lat="42.45525004086229" lon="14.109548950473076"><ele>161.0</ele><time>2026-05-03T10:22:31.999Z</time></trkpt><trkpt lat="42.455160481322864" lon="14.109497222541744"><ele>161.0</ele><time>2026-05-03T10:22:32.999Z</time></trkpt><trkpt lat="42.45506209252918" lon="14.109460588341665"><ele>161.0</ele><time>2026-05-03T10:22:33.999Z</time></trkpt><trkpt lat="42.454977239836424" lon="14.109389541566777"><ele>161.0</ele><time>2026-05-03T10:22:34.999Z</time></trkpt><trkpt lat="42.45489598121411" lon="14.10931173920523"><ele>161.0</ele><time>2026-05-03T10:22:35.999Z</time></trkpt><trkpt lat="42.4548327550209" lon="14.109204992175163"><ele>161.0</ele><time>2026-05-03T10:22:36.999Z</time></trkpt><trkpt lat="42.454754062527854" lon="14.109128672246326"><ele>160.33333333333331</ele><time>2026-05-03T10:22:37.999Z</time></trkpt><trkpt lat="42.454697086501916" lon="14.109021539341805"><ele>159.66666666666666</ele><time>2026-05-03T10:22:38.999Z</time></trkpt><trkpt lat="42.45462640265404" lon="14.108955001896673"><ele>159.0</ele><time>2026-05-03T10:22:39.999Z</time></trkpt><trkpt lat="42.45456958082527" lon="14.108879108464317"><ele>158.33333333333334</ele><time>2026-05-03T10:22:40.999Z</time></trkpt><trkpt lat="42.454521640052434" lon="14.108795578403837"><ele>157.66666666666669</ele><time>2026-05-03T10:22:41.999Z</time></trkpt><trkpt lat="42.45446176746749" lon="14.108736636848322"><ele>157.0</ele><time>2026-05-03T10:22:43Z</time></trkpt><trkpt lat="42.45439533470914" lon="14.108704904573926"><ele>157.0</ele><time>2026-05-03T10:22:44Z</time></trkpt><trkpt lat="42.4543380965237" lon="14.108653215920981"><ele>157.0</ele><time>2026-05-03T10:22:45Z</time></trkpt><trkpt lat="42.45426680437486" lon="14.108600709151926"><ele>157.0</ele><time>2026-05-03T10:22:46Z</time></trkpt><trkpt lat="42.45419424707351" lon="14.108518558063292"><ele>157.0</ele><time>2026-05-03T10:22:47Z</time></trkpt><trkpt lat="42.454099577334425" lon="14.108444613625736"><ele>157.0</ele><time>2026-05-03T10:22:48Z</time></trkpt><trkpt lat="42.45399541866044" lon="14.108393094164652"><ele>157.0</ele><time>2026-05-03T10:22:49Z</time></trkpt><trkpt lat="42.453904131014546" lon="14.10832807612825"><ele>157.0</ele><time>2026-05-03T10:22:50Z</time></trkpt><trkpt lat="42.453821964507746" lon="14.108252774395103"><ele>157.0</ele><time>2026-05-03T10:22:51Z</time></trkpt><trkpt lat="42.45373647789493" lon="14.108195374392205"><ele>157.0</ele><time>2026-05-03T10:22:52Z</time></trkpt><trkpt lat="42.45365271137592" lon="14.10813837168776"><ele>157.0</ele><time>2026-05-03T10:22:53Z</time></trkpt><trkpt lat="42.45357111494046" lon="14.10808284588775"><ele>155.2</ele><time>2026-05-03T10:22:54Z</time></trkpt><trkpt lat="42.453482256692865" lon="14.108035936564699"><ele>153.39999999999998</ele><time>2026-05-03T10:22:55Z</time></trkpt><trkpt lat="42.45340675396175" lon="14.107944117233462"><ele>151.60000000000002</ele><time>2026-05-03T10:22:56Z</time></trkpt><trkpt lat="42.453327814802165" lon="14.107861177663848"><ele>149.8</ele><time>2026-05-03T10:22:57Z</time></trkpt><trkpt lat="42.453249462838166" lon="14.107775773724748"><ele>148.0</ele><time>2026-05-03T10:22:58Z</time></trkpt><trkpt lat="42.453171589045475" lon="14.107687964642656"><ele>148.0</ele><time>2026-05-03T10:22:59Z</time></trkpt><trkpt lat="42.45309635622299" lon="14.107601625307638"><ele>148.0</ele><time>2026-05-03T10:23:00Z</time></trkpt><trkpt lat="42.45301348163793" lon="14.107533445459564"><ele>148.0</ele><time>2026-05-03T10:23:01Z</time></trkpt><trkpt lat="42.452945700822816" lon="14.107449049303057"><ele>148.0</ele><time>2026-05-03T10:23:02Z</time></trkpt><trkpt lat="42.45288443048078" lon="14.107346687475792"><ele>148.0</ele><time>2026-05-03T10:23:03Z</time></trkpt><trkpt lat="42.45281676907764" lon="14.107256940983364"><ele>148.20000000000002</ele><time>2026-05-03T10:23:04Z</time></trkpt><trkpt lat="42.452748257667885" lon="14.107162483451928"><ele>148.4</ele><time>2026-05-03T10:23:05Z</time></trkpt><trkpt lat="42.45268058472058" lon="14.10706404421484"><ele>148.60000000000002</ele><time>2026-05-03T10:23:06Z</time></trkpt><trkpt lat="42.45261618752298" lon="14.106966516880062"><ele>148.8</ele><time>2026-05-03T10:23:07Z</time></trkpt><trkpt lat="42.452552192825664" lon="14.106867398614774"><ele>149.0</ele><time>2026-05-03T10:23:08Z</time></trkpt><trkpt lat="42.45248280055202" lon="14.106759920177529"><ele>149.0</ele><time>2026-05-03T10:23:09Z</time></trkpt><trkpt lat="42.45241522213171" lon="14.106655250992697"><ele>149.0</ele><time>2026-05-03T10:23:10Z</time></trkpt><trkpt lat="42.452347911739565" lon="14.106552889025568"><ele>149.0</ele><time>2026-05-03T10:23:11Z</time></trkpt><trkpt lat="42.452283592064404" lon="14.106456382893374"><ele>149.0</ele><time>2026-05-03T10:23:12Z</time></trkpt><trkpt lat="42.45221895254653" lon="14.106360337791862"><ele>149.0</ele><time>2026-05-03T10:23:13Z</time></trkpt><trkpt lat="42.45215481420754" lon="14.106265382625713"><ele>146.8</ele><time>2026-05-03T10:23:14Z</time></trkpt><trkpt lat="42.452092030661056" lon="14.106172751228218"><ele>144.60000000000002</ele><time>2026-05-03T10:23:15Z</time></trkpt><trkpt lat="42.45202634479868" lon="14.106075876442967"><ele>142.4</ele><time>2026-05-03T10:23:16Z</time></trkpt><trkpt lat="42.45195016352829" lon="14.105994164459855"><ele>140.20000000000002</ele><time>2026-05-03T10:23:17Z</time></trkpt><trkpt lat="42.45189388286282" lon="14.105892698984281"><ele>138.0</ele><time>2026-05-03T10:23:18Z</time></trkpt><trkpt lat="42.45182913060448" lon="14.105807296959187"><ele>136.8</ele><time>2026-05-03T10:23:19Z</time></trkpt><trkpt lat="42.45177163888078" lon="14.105732252090219"><ele>135.60000000000002</ele><time>2026-05-03T10:23:20Z</time></trkpt><trkpt lat="42.451723205815775" lon="14.105673410297648"><ele>134.39999999999998</ele><time>2026-05-03T10:23:20.999Z</time></trkpt><trkpt lat="42.45165781619096" lon="14.105560794134023"><ele>133.2</ele><time>2026-05-03T10:23:22.999Z</time></trkpt><trkpt lat="42.45166378194111" lon="14.105438377681551"><ele>132.0</ele><time>2026-05-03T10:23:24.999Z</time></trkpt><trkpt lat="42.45175813361298" lon="14.105308595025331"><ele>132.0</ele><time>2026-05-03T10:23:26.999Z</time></trkpt><trkpt lat="42.45182244700447" lon="14.105215544268862"><ele>132.0</ele><time>2026-05-03T10:23:27.999Z</time></trkpt><trkpt lat="42.45187399135829" lon="14.105105354926538"><ele>132.0</ele><time>2026-05-03T10:23:28.999Z</time></trkpt><trkpt lat="42.45192838260447" lon="14.105019166273225"><ele>132.0</ele><time>2026-05-03T10:23:29.999Z</time></trkpt><trkpt lat="42.45196946236396" lon="14.104920841408529"><ele>132.0</ele><time>2026-05-03T10:23:30.999Z</time></trkpt><trkpt lat="42.451992784932926" lon="14.10480455725796"><ele>132.0</ele><time>2026-05-03T10:23:31.999Z</time></trkpt><trkpt lat="42.452005620079824" lon="14.104684416767196"><ele>129.75</ele><time>2026-05-03T10:23:32.999Z</time></trkpt><trkpt lat="42.45199885906764" lon="14.104530017637044"><ele>127.5</ele><time>2026-05-03T10:23:33.999Z</time></trkpt><trkpt lat="42.45199015298532" lon="14.104353811920276"><ele>125.25</ele><time>2026-05-03T10:23:34.999Z</time></trkpt><trkpt lat="42.451936244164614" lon="14.104183915303558"><ele>123.0</ele><time>2026-05-03T10:23:35.999Z</time></trkpt><trkpt lat="42.451910476166624" lon="14.104003520351464"><ele>122.75</ele><time>2026-05-03T10:23:36.999Z</time></trkpt><trkpt lat="42.45186835034325" lon="14.1038402726367"><ele>122.5</ele><time>2026-05-03T10:23:37.999Z</time></trkpt><trkpt lat="42.45182291763872" lon="14.103689843060538"><ele>122.25</ele><time>2026-05-03T10:23:38.999Z</time></trkpt><trkpt lat="42.45174840061546" lon="14.103563890952683"><ele>122.0</ele><time>2026-05-03T10:23:39.999Z</time></trkpt><trkpt lat="42.45168392402099" lon="14.103440377278874"><ele>122.0</ele><time>2026-05-03T10:23:40.999Z</time></trkpt><trkpt lat="42.45161103888602" lon="14.103325314849208"><ele>121.99999999999999</ele><time>2026-05-03T10:23:41.999Z</time></trkpt><trkpt lat="42.451562329683135" lon="14.103195818514083"><ele>121.99999999999999</ele><time>2026-05-03T10:23:42.999Z</time></trkpt><trkpt lat="42.45150885156519" lon="14.10309057732448"><ele>122.0</ele><time>2026-05-03T10:23:43.999Z</time></trkpt><trkpt lat="42.451456739029275" lon="14.102992124684482"><ele>122.0</ele><time>2026-05-03T10:23:44.999Z</time></trkpt><trkpt lat="42.4514098287946" lon="14.102907263157961"><ele>121.66666666666666</ele><time>2026-05-03T10:23:45.999Z</time></trkpt><trkpt lat="42.451330868127314" lon="14.102864967981443"><ele>121.33333333333333</ele><time>2026-05-03T10:23:46.999Z</time></trkpt><trkpt lat="42.4512563672029" lon="14.102825291673263"><ele>121.0</ele><time>2026-05-03T10:23:47.999Z</time></trkpt><trkpt lat="42.451166724356106" lon="14.102769299465585"><ele>120.66666666666666</ele><time>2026-05-03T10:23:49.999Z</time></trkpt><trkpt lat="42.45110307827775" lon="14.10272917817335"><ele>120.33333333333333</ele><time>2026-05-03T10:23:53.999Z</time></trkpt><trkpt lat="42.451033640958244" lon="14.102700940312085"><ele>120.0</ele><time>2026-05-03T10:23:55.999Z</time></trkpt><trkpt lat="42.45096601890265" lon="14.102755871426746"><ele>119.16666666666667</ele><time>2026-05-03T10:23:56.999Z</time></trkpt><trkpt lat="42.45089294410602" lon="14.1027740394721"><ele>118.33333333333334</ele><time>2026-05-03T10:23:57.999Z</time></trkpt><trkpt lat="42.45081335983216" lon="14.102789311526195"><ele>117.5</ele><time>2026-05-03T10:23:58.999Z</time></trkpt><trkpt lat="42.45072377510728" lon="14.102807995263293"><ele>116.66666666666667</ele><time>2026-05-03T10:23:59.999Z</time></trkpt><trkpt lat="42.45062786423692" lon="14.10282922840486"><ele>115.83333333333334</ele><time>2026-05-03T10:24:00.999Z</time></trkpt><trkpt lat="42.4505239974541" lon="14.102851215920902"><ele>115.0</ele><time>2026-05-03T10:24:01.999Z</time></trkpt><trkpt lat="42.450417933393226" lon="14.102870406821573"><ele>115.0</ele><time>2026-05-03T10:24:02.999Z</time></trkpt><trkpt lat="42.4503120942914" lon="14.102891622136935"><ele>115.0</ele><time>2026-05-03T10:24:03.999Z</time></trkpt><trkpt lat="42.4502131879624" lon="14.102910401120148"><ele>115.0</ele><time>2026-05-03T10:24:04.999Z</time></trkpt><trkpt lat="42.45012238056361" lon="14.102922574525968"><ele>115.0</ele><time>2026-05-03T10:24:05.999Z</time></trkpt><trkpt lat="42.4500413802689" lon="14.102934690501298"><ele>115.0</ele><time>2026-05-03T10:24:06.999Z</time></trkpt><trkpt lat="42.449971579306165" lon="14.102942823777273"><ele>115.0</ele><time>2026-05-03T10:24:07.999Z</time></trkpt><trkpt lat="42.449860236208586" lon="14.102951218447455"><ele>115.0</ele><time>2026-05-03T10:24:09.999Z</time></trkpt><trkpt lat="42.449747233835396" lon="14.102973944521665"><ele>115.0</ele><time>2026-05-03T10:24:11.999Z</time></trkpt><trkpt lat="42.44963605297146" lon="14.10301583003592"><ele>115.0</ele><time>2026-05-03T10:24:13.999Z</time></trkpt><trkpt lat="42.44951963008826" lon="14.103025747076748"><ele>113.16666666666667</ele><time>2026-05-03T10:24:15.999Z</time></trkpt><trkpt lat="42.44940140128613" lon="14.103047662909306"><ele>111.33333333333334</ele><time>2026-05-03T10:24:17.999Z</time></trkpt><trkpt lat="42.44927691070422" lon="14.103067892709841"><ele>109.5</ele><time>2026-05-03T10:24:19.999Z</time></trkpt><trkpt lat="42.44921398171755" lon="14.103075675663078"><ele>107.66666666666666</ele><time>2026-05-03T10:24:20.999Z</time></trkpt><trkpt lat="42.449148409362856" lon="14.103081034302242"><ele>105.83333333333333</ele><time>2026-05-03T10:24:21.999Z</time></trkpt><trkpt lat="42.449081037425344" lon="14.103084713132905"><ele>104.0</ele><time>2026-05-03T10:24:22.999Z</time></trkpt><trkpt lat="42.44901428647644" lon="14.103086380454178"><ele>103.99999999999999</ele><time>2026-05-03T10:24:23.999Z</time></trkpt><trkpt lat="42.44894422880877" lon="14.103086285131928"><ele>104.0</ele><time>2026-05-03T10:24:24.999Z</time></trkpt><trkpt lat="42.44886748985013" lon="14.103102054889776"><ele>104.0</ele><time>2026-05-03T10:24:25.999Z</time></trkpt><trkpt lat="42.44879045249482" lon="14.103094227054044"><ele>104.0</ele><time>2026-05-03T10:24:26.999Z</time></trkpt><trkpt lat="42.44870877261794" lon="14.103089662240807"><ele>103.99999999999999</ele><time>2026-05-03T10:24:27.999Z</time></trkpt><trkpt lat="42.44862805517159" lon="14.10305631660546"><ele>104.0</ele><time>2026-05-03T10:24:28.999Z</time></trkpt><trkpt lat="42.44854261302914" lon="14.103044721466938"><ele>103.16666666666666</ele><time>2026-05-03T10:24:29.999Z</time></trkpt><trkpt lat="42.44845794036063" lon="14.103031157085335"><ele>102.33333333333333</ele><time>2026-05-03T10:24:30.999Z</time></trkpt><trkpt lat="42.448368839240835" lon="14.10301648489777"><ele>101.5</ele><time>2026-05-03T10:24:31.999Z</time></trkpt><trkpt lat="42.448281649026036" lon="14.103002127379263"><ele>100.66666666666666</ele><time>2026-05-03T10:24:32.999Z</time></trkpt><trkpt lat="42.448195086554506" lon="14.102987873250111"><ele>99.83333333333333</ele><time>2026-05-03T10:24:33.999Z</time></trkpt><trkpt lat="42.44811031972488" lon="14.102972303148524"><ele>99.0</ele><time>2026-05-03T10:24:34.999Z</time></trkpt><trkpt lat="42.44802831399184" lon="14.10295359772922"><ele>98.16666666666667</ele><time>2026-05-03T10:24:35.999Z</time></trkpt><trkpt lat="42.447951598883904" lon="14.102957799232202"><ele>97.33333333333333</ele><time>2026-05-03T10:24:36.999Z</time></trkpt><trkpt lat="42.44783977310066" lon="14.102964812082302"><ele>96.5</ele><time>2026-05-03T10:24:39Z</time></trkpt><trkpt lat="42.44776801824196" lon="14.103079269943967"><ele>95.66666666666666</ele><time>2026-05-03T10:24:41Z</time></trkpt><trkpt lat="42.44772665034739" lon="14.10315272230899"><ele>94.83333333333333</ele><time>2026-05-03T10:24:42Z</time></trkpt><trkpt lat="42.4477189643205" lon="14.103238310532038"><ele>94.0</ele><time>2026-05-03T10:24:43Z</time></trkpt><trkpt lat="42.44768755630852" lon="14.103352129859406"><ele>93.0</ele><time>2026-05-03T10:24:45Z</time></trkpt><trkpt lat="42.44763453513094" lon="14.103447378086999"><ele>92.0</ele><time>2026-05-03T10:24:47Z</time></trkpt><trkpt lat="42.44757130613594" lon="14.103528863382701"><ele>91.0</ele><time>2026-05-03T10:24:49Z</time></trkpt><trkpt lat="42.447510465657636" lon="14.103609487224805"><ele>90.0</ele><time>2026-05-03T10:24:51Z</time></trkpt><trkpt lat="42.44744405644869" lon="14.103712121955013"><ele>89.0</ele><time>2026-05-03T10:24:54Z</time></trkpt><trkpt lat="42.447394509348406" lon="14.103790611112286"><ele>88.0</ele><time>2026-05-03T10:24:56Z</time></trkpt><trkpt lat="42.447376845863445" lon="14.103886284220163"><ele>88.0</ele><time>2026-05-03T10:24:59Z</time></trkpt><trkpt lat="42.447383314609276" lon="14.10400786808639"><ele>88.0</ele><time>2026-05-03T10:25:02Z</time></trkpt><trkpt lat="42.447403602488734" lon="14.10417334201678"><ele>88.0</ele><time>2026-05-03T10:25:04Z</time></trkpt><trkpt lat="42.447387790030966" lon="14.104266780001927"><ele>88.0</ele><time>2026-05-03T10:25:05Z</time></trkpt><trkpt lat="42.44738805764687" lon="14.104370049495795"><ele>88.0</ele><time>2026-05-03T10:25:06Z</time></trkpt><trkpt lat="42.44738834806124" lon="14.104482116961758"><ele>88.0</ele><time>2026-05-03T10:25:07Z</time></trkpt><trkpt lat="42.447388633154006" lon="14.104592130491742"><ele>88.66666666666666</ele><time>2026-05-03T10:25:08Z</time></trkpt><trkpt lat="42.447387928204265" lon="14.104697445477154"><ele>89.33333333333333</ele><time>2026-05-03T10:25:09Z</time></trkpt><trkpt lat="42.4473856382259" lon="14.104788372326825"><ele>90.0</ele><time>2026-05-03T10:25:10Z</time></trkpt><trkpt lat="42.44738098827851" lon="14.104916789186445"><ele>90.66666666666667</ele><time>2026-05-03T10:25:11.999Z</time></trkpt><trkpt lat="42.44737586147137" lon="14.10502919500363"><ele>91.33333333333334</ele><time>2026-05-03T10:25:14.999Z</time></trkpt><trkpt lat="42.44737095247703" lon="14.105124629154568"><ele>92.0</ele><time>2026-05-03T10:25:18.999Z</time></trkpt><trkpt lat="42.44736505118073" lon="14.105232241144586"><ele>93.19999999999999</ele><time>2026-05-03T10:25:23.999Z</time></trkpt><trkpt lat="42.447374174961844" lon="14.105345445463328"><ele>94.4</ele><time>2026-05-03T10:25:25.999Z</time></trkpt><trkpt lat="42.4473472698554" lon="14.105486475342573"><ele>95.6</ele><time>2026-05-03T10:25:27.999Z</time></trkpt><trkpt lat="42.44733261366749" lon="14.105631544355033"><ele>96.80000000000001</ele><time>2026-05-03T10:25:29.999Z</time></trkpt><trkpt lat="42.44731060323331" lon="14.105779374871066"><ele>98.0</ele><time>2026-05-03T10:25:31.999Z</time></trkpt><trkpt lat="42.44729324979586" lon="14.10586828545564"><ele>98.42857142857143</ele><time>2026-05-03T10:25:32.999Z</time></trkpt><trkpt lat="42.447269407487184" lon="14.105950533226673"><ele>98.85714285714286</ele><time>2026-05-03T10:25:33.999Z</time></trkpt><trkpt lat="42.44723932627638" lon="14.10603323811617"><ele>99.28571428571428</ele><time>2026-05-03T10:25:34.999Z</time></trkpt><trkpt lat="42.44720446860997" lon="14.106114329829483"><ele>99.71428571428572</ele><time>2026-05-03T10:25:35.999Z</time></trkpt><trkpt lat="42.44716585471584" lon="14.106197856190933"><ele>100.14285714285714</ele><time>2026-05-03T10:25:36.999Z</time></trkpt><trkpt lat="42.44712558326103" lon="14.10627623736095"><ele>100.57142857142857</ele><time>2026-05-03T10:25:37.999Z</time></trkpt><trkpt lat="42.44707922358413" lon="14.106349737535501"><ele>101.0</ele><time>2026-05-03T10:25:38.999Z</time></trkpt><trkpt lat="42.44703845349026" lon="14.106431675950283"><ele>103.85714285714286</ele><time>2026-05-03T10:25:39.999Z</time></trkpt><trkpt lat="42.446988149870094" lon="14.106498164535594"><ele>106.71428571428571</ele><time>2026-05-03T10:25:40.999Z</time></trkpt><trkpt lat="42.44694399702749" lon="14.106576538417128"><ele>109.57142857142857</ele><time>2026-05-03T10:25:41.999Z</time></trkpt><trkpt lat="42.44691630256809" lon="14.106666934854752"><ele>112.42857142857142</ele><time>2026-05-03T10:25:42.999Z</time></trkpt><trkpt lat="42.44688457943302" lon="14.106755465699724"><ele>115.28571428571428</ele><time>2026-05-03T10:25:43.999Z</time></trkpt><trkpt lat="42.44689950699004" lon="14.106863459146924"><ele>118.14285714285714</ele><time>2026-05-03T10:25:44.999Z</time></trkpt><trkpt lat="42.44690931099703" lon="14.106966913425433"><ele>121.0</ele><time>2026-05-03T10:25:45.999Z</time></trkpt><trkpt lat="42.446914622463325" lon="14.107071882444322"><ele>121.00000000000001</ele><time>2026-05-03T10:25:46.999Z</time></trkpt><trkpt lat="42.4469606060233" lon="14.107162032476811"><ele>121.0</ele><time>2026-05-03T10:25:47.999Z</time></trkpt><trkpt lat="42.44698599164194" lon="14.107250782815411"><ele>121.0</ele><time>2026-05-03T10:25:48.999Z</time></trkpt><trkpt lat="42.44699804116356" lon="14.107336475236831"><ele>121.0</ele><time>2026-05-03T10:25:49.999Z</time></trkpt><trkpt lat="42.44700389873021" lon="14.10742165400475"><ele>121.00000000000001</ele><time>2026-05-03T10:25:50.999Z</time></trkpt><trkpt lat="42.44699419396794" lon="14.107590311354949"><ele>121.0</ele><time>2026-05-03T10:25:52.999Z</time></trkpt><trkpt lat="42.4469848151948" lon="14.107676668079188"><ele>121.66666666666667</ele><time>2026-05-03T10:25:53.999Z</time></trkpt><trkpt lat="42.44697703597421" lon="14.107763648360816"><ele>122.33333333333334</ele><time>2026-05-03T10:25:54.999Z</time></trkpt><trkpt lat="42.44697519794115" lon="14.107857005228519"><ele>123.0</ele><time>2026-05-03T10:25:55.999Z</time></trkpt><trkpt lat="42.446974309000055" lon="14.107960967214648"><ele>123.66666666666666</ele><time>2026-05-03T10:25:56.999Z</time></trkpt><trkpt lat="42.446974108634876" lon="14.10806164509624"><ele>124.33333333333333</ele><time>2026-05-03T10:25:57.999Z</time></trkpt><trkpt lat="42.44697189809734" lon="14.10815133859124"><ele>125.0</ele><time>2026-05-03T10:25:58.999Z</time></trkpt><trkpt lat="42.44695685729255" lon="14.108313198499381"><ele>125.4</ele><time>2026-05-03T10:26:00.999Z</time></trkpt><trkpt lat="42.44696088167638" lon="14.108471018132578"><ele>125.8</ele><time>2026-05-03T10:26:02.999Z</time></trkpt><trkpt lat="42.44697148665655" lon="14.108569994906892"><ele>126.19999999999999</ele><time>2026-05-03T10:26:04.999Z</time></trkpt><trkpt lat="42.44700588171221" lon="14.1086689598647"><ele>126.6</ele><time>2026-05-03T10:26:06.999Z</time></trkpt><trkpt lat="42.447059819650164" lon="14.108813835272299"><ele>127.0</ele><time>2026-05-03T10:26:08.999Z</time></trkpt><trkpt lat="42.44709372518334" lon="14.108948284193826"><ele>128.75</ele><time>2026-05-03T10:26:10.999Z</time></trkpt><trkpt lat="42.44708735219746" lon="14.109079395309756"><ele>130.5</ele><time>2026-05-03T10:26:12.999Z</time></trkpt><trkpt lat="42.44702716975051" lon="14.109229028102762"><ele>132.25</ele><time>2026-05-03T10:26:14.999Z</time></trkpt><trkpt lat="42.44699496250184" lon="14.109386082960096"><ele>134.0</ele><time>2026-05-03T10:26:16.999Z</time></trkpt><trkpt lat="42.44694859502978" lon="14.109531162521508"><ele>134.0</ele><time>2026-05-03T10:26:18.999Z</time></trkpt><trkpt lat="42.44687199659588" lon="14.109642662934647"><ele>134.0</ele><time>2026-05-03T10:26:21Z</time></trkpt><trkpt lat="42.44686324172468" lon="14.109774248039104"><ele>134.0</ele><time>2026-05-03T10:26:23Z</time></trkpt><trkpt lat="42.44684834661458" lon="14.109878210452031"><ele>134.0</ele><time>2026-05-03T10:26:31Z</time></trkpt><trkpt lat="42.446954349724834" lon="14.109903460818972"><ele>134.0</ele><time>2026-05-03T10:26:33Z</time></trkpt><trkpt lat="42.447022304006495" lon="14.109901127693158"><ele>136.4</ele><time>2026-05-03T10:26:34Z</time></trkpt><trkpt lat="42.4471363446" lon="14.10994083522744"><ele>138.8</ele><time>2026-05-03T10:26:36Z</time></trkpt><trkpt lat="42.44720555809746" lon="14.109982039925054"><ele>141.2</ele><time>2026-05-03T10:26:37Z</time></trkpt><trkpt lat="42.44731422775475" lon="14.110051569897095"><ele>143.6</ele><time>2026-05-03T10:26:38Z</time></trkpt><trkpt lat="42.44744016068261" lon="14.110107728826467"><ele>146.0</ele><time>2026-05-03T10:26:39Z</time></trkpt><trkpt lat="42.44753947364094" lon="14.110147804118567"><ele>146.0</ele><time>2026-05-03T10:26:40Z</time></trkpt><trkpt lat="42.44762050392968" lon="14.110192396494458"><ele>146.0</ele><time>2026-05-03T10:26:41Z</time></trkpt><trkpt lat="42.4476997542668" lon="14.110243766664956"><ele>146.0</ele><time>2026-05-03T10:26:42Z</time></trkpt><trkpt lat="42.44777553471155" lon="14.110299150371988"><ele>146.0</ele><time>2026-05-03T10:26:43Z</time></trkpt><trkpt lat="42.44785522483869" lon="14.110346735649795"><ele>146.0</ele><time>2026-05-03T10:26:44Z</time></trkpt><trkpt lat="42.447921477830455" lon="14.110400074490476"><ele>146.0</ele><time>2026-05-03T10:26:45Z</time></trkpt><trkpt lat="42.44797923733539" lon="14.110490892938637"><ele>146.0</ele><time>2026-05-03T10:26:46Z</time></trkpt><trkpt lat="42.44803795697394" lon="14.110572245737568"><ele>146.0</ele><time>2026-05-03T10:26:47Z</time></trkpt><trkpt lat="42.44810670645334" lon="14.110655600530421"><ele>146.0</ele><time>2026-05-03T10:26:48Z</time></trkpt><trkpt lat="42.448156129259345" lon="14.110764943883298"><ele>146.0</ele><time>2026-05-03T10:26:49Z</time></trkpt><trkpt lat="42.44819999837973" lon="14.110865359542991"><ele>146.0</ele><time>2026-05-03T10:26:50Z</time></trkpt><trkpt lat="42.4482390266408" lon="14.11096399753358"><ele>146.0</ele><time>2026-05-03T10:26:51Z</time></trkpt><trkpt lat="42.448264149022584" lon="14.1110641615264"><ele>146.0</ele><time>2026-05-03T10:26:52Z</time></trkpt><trkpt lat="42.44828756291447" lon="14.111167679028556"><ele>146.0</ele><time>2026-05-03T10:26:53Z</time></trkpt><trkpt lat="42.44830691283049" lon="14.111249548904755"><ele>146.0</ele><time>2026-05-03T10:26:54Z</time></trkpt><trkpt lat="42.448332861612954" lon="14.111347797138663"><ele>146.0</ele><time>2026-05-03T10:26:56Z</time></trkpt><trkpt lat="42.44834219829063" lon="14.111433414875018"><ele>146.0</ele><time>2026-05-03T10:26:59Z</time></trkpt><trkpt lat="42.44825311954672" lon="14.111587616584533"><ele>146.0</ele><time>2026-05-03T10:27:07Z</time></trkpt><trkpt lat="42.44824977276019" lon="14.111761000123952"><ele>147.2</ele><time>2026-05-03T10:27:09Z</time></trkpt><trkpt lat="42.44823426512315" lon="14.111869477159413"><ele>148.39999999999998</ele><time>2026-05-03T10:27:10Z</time></trkpt><trkpt lat="42.44824273051803" lon="14.1119989514277"><ele>149.6</ele><time>2026-05-03T10:27:11Z</time></trkpt><trkpt lat="42.44822799475762" lon="14.112136992431571"><ele>150.79999999999998</ele><time>2026-05-03T10:27:12Z</time></trkpt><trkpt lat="42.44820851611845" lon="14.112287682326947"><ele>152.0</ele><time>2026-05-03T10:27:13Z</time></trkpt><trkpt lat="42.44819195332819" lon="14.112434650958802"><ele>152.0</ele><time>2026-05-03T10:27:14Z</time></trkpt><trkpt lat="42.44817594298715" lon="14.112569500508432"><ele>152.0</ele><time>2026-05-03T10:27:15Z</time></trkpt><trkpt lat="42.44816527805917" lon="14.112703439522868"><ele>152.0</ele><time>2026-05-03T10:27:16Z</time></trkpt><trkpt lat="42.4481504440058" lon="14.112830867645753"><ele>152.0</ele><time>2026-05-03T10:27:17Z</time></trkpt><trkpt lat="42.448148276816234" lon="14.112957671772792"><ele>152.0</ele><time>2026-05-03T10:27:18Z</time></trkpt><trkpt lat="42.44814168018006" lon="14.11307983494746"><ele>152.0</ele><time>2026-05-03T10:27:19Z</time></trkpt><trkpt lat="42.44813681896792" lon="14.11320358075021"><ele>152.0</ele><time>2026-05-03T10:27:20Z</time></trkpt><trkpt lat="42.448131826986994" lon="14.113324560238558"><ele>152.0</ele><time>2026-05-03T10:27:21Z</time></trkpt><trkpt lat="42.44811991228389" lon="14.113432943227307"><ele>152.0</ele><time>2026-05-03T10:27:22Z</time></trkpt><trkpt lat="42.44809008666461" lon="14.113526764740458"><ele>152.0</ele><time>2026-05-03T10:27:23Z</time></trkpt><trkpt lat="42.44803250924449" lon="14.113621403058968"><ele>152.0</ele><time>2026-05-03T10:27:24Z</time></trkpt><trkpt lat="42.44795396561385" lon="14.113699871215188"><ele>148.4</ele><time>2026-05-03T10:27:25Z</time></trkpt><trkpt lat="42.44786013071035" lon="14.113757994717758"><ele>144.79999999999998</ele><time>2026-05-03T10:27:26Z</time></trkpt><trkpt lat="42.44777310668273" lon="14.11380961428109"><ele>141.2</ele><time>2026-05-03T10:27:27Z</time></trkpt><trkpt lat="42.44767971800209" lon="14.113846445529877"><ele>137.6</ele><time>2026-05-03T10:27:28Z</time></trkpt><trkpt lat="42.44757659984868" lon="14.113872832409301"><ele>134.0</ele><time>2026-05-03T10:27:29Z</time></trkpt><trkpt lat="42.447467616759155" lon="14.113893040763195"><ele>134.0</ele><time>2026-05-03T10:27:30Z</time></trkpt><trkpt lat="42.44734916512714" lon="14.11391066329816"><ele>134.0</ele><time>2026-05-03T10:27:31Z</time></trkpt><trkpt lat="42.44722383741388" lon="14.113917986696631"><ele>134.0</ele><time>2026-05-03T10:27:32Z</time></trkpt><trkpt lat="42.44709653053955" lon="14.113929592898572"><ele>134.0</ele><time>2026-05-03T10:27:33Z</time></trkpt><trkpt lat="42.446974460706116" lon="14.113941851333097"><ele>133.5</ele><time>2026-05-03T10:27:34Z</time></trkpt><trkpt lat="42.446856289912304" lon="14.113958909155004"><ele>133.0</ele><time>2026-05-03T10:27:35Z</time></trkpt><trkpt lat="42.44674034191469" lon="14.113960997052093"><ele>132.5</ele><time>2026-05-03T10:27:36Z</time></trkpt><trkpt lat="42.44663216902427" lon="14.114009914756688"><ele>132.0</ele><time>2026-05-03T10:27:37Z</time></trkpt><trkpt lat="42.44654146665827" lon="14.114117861076977"><ele>132.0</ele><time>2026-05-03T10:27:38Z</time></trkpt><trkpt lat="42.44646040180963" lon="14.114225351799366"><ele>132.0</ele><time>2026-05-03T10:27:39Z</time></trkpt><trkpt lat="42.4463934971895" lon="14.114344940174348"><ele>132.0</ele><time>2026-05-03T10:27:40Z</time></trkpt><trkpt lat="42.4463445489833" lon="14.114468091052148"><ele>132.0</ele><time>2026-05-03T10:27:41Z</time></trkpt><trkpt lat="42.44630227220475" lon="14.114585981170059"><ele>132.0</ele><time>2026-05-03T10:27:42Z</time></trkpt><trkpt lat="42.44625772823057" lon="14.114689624301707"><ele>131.66666666666666</ele><time>2026-05-03T10:27:43Z</time></trkpt><trkpt lat="42.446209336580026" lon="14.114789442347066"><ele>131.33333333333334</ele><time>2026-05-03T10:27:44Z</time></trkpt><trkpt lat="42.4461567018709" lon="14.114894087472866"><ele>131.0</ele><time>2026-05-03T10:27:45Z</time></trkpt><trkpt lat="42.44611379034854" lon="14.11498860543371"><ele>130.66666666666669</ele><time>2026-05-03T10:27:46Z</time></trkpt><trkpt lat="42.446066083454596" lon="14.115097896421357"><ele>130.33333333333334</ele><time>2026-05-03T10:27:47Z</time></trkpt><trkpt lat="42.44601980964479" lon="14.115202762337944"><ele>130.0</ele><time>2026-05-03T10:27:48Z</time></trkpt><trkpt lat="42.445968082664336" lon="14.115298349978104"><ele>129.2</ele><time>2026-05-03T10:27:49Z</time></trkpt><trkpt lat="42.44590555749233" lon="14.115392093818153"><ele>128.4</ele><time>2026-05-03T10:27:50Z</time></trkpt><trkpt lat="42.445833134103616" lon="14.115477395476676"><ele>127.6</ele><time>2026-05-03T10:27:51Z</time></trkpt><trkpt lat="42.44574869057" lon="14.115549563397606"><ele>126.8</ele><time>2026-05-03T10:27:52Z</time></trkpt><trkpt lat="42.4456594759647" lon="14.115612789931308"><ele>126.0</ele><time>2026-05-03T10:27:53Z</time></trkpt><trkpt lat="42.44556842726141" lon="14.115674060949777"><ele>126.0</ele><time>2026-05-03T10:27:54Z</time></trkpt><trkpt lat="42.44547104162212" lon="14.11571062550075"><ele>126.0</ele><time>2026-05-03T10:27:55Z</time></trkpt><trkpt lat="42.44537942411111" lon="14.11575010985924"><ele>126.0</ele><time>2026-05-03T10:27:56Z</time></trkpt><trkpt lat="42.44528823203448" lon="14.115795074274985"><ele>126.0</ele><time>2026-05-03T10:27:57Z</time></trkpt><trkpt lat="42.44519828487952" lon="14.115806364063326"><ele>126.0</ele><time>2026-05-03T10:27:58Z</time></trkpt><trkpt lat="42.445116957287865" lon="14.115813787886738"><ele>124.28571428571428</ele><time>2026-05-03T10:27:59Z</time></trkpt><trkpt lat="42.44504693650378" lon="14.11582471027281"><ele>122.57142857142857</ele><time>2026-05-03T10:28:00Z</time></trkpt><trkpt lat="42.444972072270154" lon="14.115830780294901"><ele>120.85714285714286</ele><time>2026-05-03T10:28:02Z</time></trkpt><trkpt lat="42.44489337768803" lon="14.115824963686192"><ele>119.14285714285714</ele><time>2026-05-03T10:28:05Z</time></trkpt><trkpt lat="42.44482633925192" lon="14.115844618357642"><ele>117.42857142857142</ele><time>2026-05-03T10:28:08Z</time></trkpt><trkpt lat="42.44476249611287" lon="14.115851639202848"><ele>115.71428571428571</ele><time>2026-05-03T10:28:09Z</time></trkpt><trkpt lat="42.444680303223244" lon="14.11587609136086"><ele>114.0</ele><time>2026-05-03T10:28:10Z</time></trkpt><trkpt lat="42.444594443825075" lon="14.115907756283711"><ele>114.0</ele><time>2026-05-03T10:28:11Z</time></trkpt><trkpt lat="42.444495710110985" lon="14.11594801416898"><ele>114.0</ele><time>2026-05-03T10:28:12Z</time></trkpt><trkpt lat="42.444364543515036" lon="14.116011360757467"><ele>114.0</ele><time>2026-05-03T10:28:13Z</time></trkpt><trkpt lat="42.44424981893257" lon="14.116057678014245"><ele>114.0</ele><time>2026-05-03T10:28:14Z</time></trkpt><trkpt lat="42.44415323278007" lon="14.116093346101767"><ele>114.0</ele><time>2026-05-03T10:28:15Z</time></trkpt><trkpt lat="42.444071797163815" lon="14.116109516249185"><ele>114.0</ele><time>2026-05-03T10:28:16Z</time></trkpt><trkpt lat="42.443989014896026" lon="14.116115292506898"><ele>114.0</ele><time>2026-05-03T10:28:18Z</time></trkpt><trkpt lat="42.44406742795594" lon="14.116092570420205"><ele>114.0</ele><time>2026-05-03T10:28:35Z</time></trkpt><trkpt lat="42.44417561695532" lon="14.116102775426466"><ele>114.0</ele><time>2026-05-03T10:28:37Z</time></trkpt><trkpt lat="42.44424403658395" lon="14.116080461386973"><ele>114.0</ele><time>2026-05-03T10:28:38Z</time></trkpt><trkpt lat="42.44432237591571" lon="14.116049411511003"><ele>114.0</ele><time>2026-05-03T10:28:39Z</time></trkpt><trkpt lat="42.444408823721595" lon="14.116016316944146"><ele>114.0</ele><time>2026-05-03T10:28:40Z</time></trkpt><trkpt lat="42.44451128856679" lon="14.115968119903156"><ele>114.0</ele><time>2026-05-03T10:28:41Z</time></trkpt><trkpt lat="42.44463084990714" lon="14.115922275418987"><ele>114.0</ele><time>2026-05-03T10:28:42Z</time></trkpt><trkpt lat="42.444763985368034" lon="14.115882161248104"><ele>113.80000000000001</ele><time>2026-05-03T10:28:43Z</time></trkpt><trkpt lat="42.44489388981026" lon="14.11585740595707"><ele>113.60000000000001</ele><time>2026-05-03T10:28:44Z</time></trkpt><trkpt lat="42.44501133266981" lon="14.115836968785958"><ele>113.4</ele><time>2026-05-03T10:28:45Z</time></trkpt><trkpt lat="42.44509393339542" lon="14.11582775079838"><ele>113.2</ele><time>2026-05-03T10:28:46Z</time></trkpt><trkpt lat="42.445172696465015" lon="14.115838240188163"><ele>113.0</ele><time>2026-05-03T10:28:48Z</time></trkpt><trkpt lat="42.445146108793494" lon="14.11565613799318"><ele>113.4</ele><time>2026-05-03T10:28:50Z</time></trkpt><trkpt lat="42.44509313248049" lon="14.115598187901954"><ele>113.80000000000001</ele><time>2026-05-03T10:28:51Z</time></trkpt><trkpt lat="42.44504661966303" lon="14.115508131090905"><ele>114.2</ele><time>2026-05-03T10:28:52Z</time></trkpt><trkpt lat="42.44498158592006" lon="14.115414399289264"><ele>114.6</ele><time>2026-05-03T10:28:53Z</time></trkpt><trkpt lat="42.444899981189" lon="14.115327550957328"><ele>115.0</ele><time>2026-05-03T10:28:54Z</time></trkpt><trkpt lat="42.44481943736082" lon="14.115218432054034"><ele>115.0</ele><time>2026-05-03T10:28:55Z</time></trkpt><trkpt lat="42.44474434997584" lon="14.115082257553528"><ele>115.0</ele><time>2026-05-03T10:28:56Z</time></trkpt><trkpt lat="42.444655525646105" lon="14.114961025830347"><ele>115.0</ele><time>2026-05-03T10:28:57Z</time></trkpt><trkpt lat="42.444571219710426" lon="14.114845960728157"><ele>115.0</ele><time>2026-05-03T10:28:58Z</time></trkpt><trkpt lat="42.44448625084538" lon="14.114730362405023"><ele>111.75</ele><time>2026-05-03T10:28:59Z</time></trkpt><trkpt lat="42.444402420270706" lon="14.114617875576174"><ele>108.5</ele><time>2026-05-03T10:29:00Z</time></trkpt><trkpt lat="42.44431668756166" lon="14.114506391243019"><ele>105.25</ele><time>2026-05-03T10:29:01Z</time></trkpt><trkpt lat="42.44423336546233" lon="14.114397969558048"><ele>102.0</ele><time>2026-05-03T10:29:02Z</time></trkpt><trkpt lat="42.4441516090911" lon="14.114291585271276"><ele>102.0</ele><time>2026-05-03T10:29:03Z</time></trkpt><trkpt lat="42.44405902542758" lon="14.114197544241074"><ele>102.0</ele><time>2026-05-03T10:29:04Z</time></trkpt><trkpt lat="42.44398415927368" lon="14.11408443014613"><ele>102.0</ele><time>2026-05-03T10:29:05Z</time></trkpt><trkpt lat="42.44390558891918" lon="14.113975398630204"><ele>102.0</ele><time>2026-05-03T10:29:06Z</time></trkpt><trkpt lat="42.4438303270735" lon="14.113861898092063"><ele>99.6</ele><time>2026-05-03T10:29:07Z</time></trkpt><trkpt lat="42.443758212420896" lon="14.113742776973314"><ele>97.19999999999999</ele><time>2026-05-03T10:29:08Z</time></trkpt><trkpt lat="42.44368720434451" lon="14.113625730100248"><ele>94.8</ele><time>2026-05-03T10:29:09Z</time></trkpt><trkpt lat="42.443620921006136" lon="14.113506903503673"><ele>92.4</ele><time>2026-05-03T10:29:10Z</time></trkpt><trkpt lat="42.44356496067589" lon="14.113379194398892"><ele>90.0</ele><time>2026-05-03T10:29:11Z</time></trkpt><trkpt lat="42.44349783170778" lon="14.113264691609961"><ele>89.4</ele><time>2026-05-03T10:29:12Z</time></trkpt><trkpt lat="42.44343952992039" lon="14.113149207366186"><ele>88.8</ele><time>2026-05-03T10:29:13Z</time></trkpt><trkpt lat="42.44338625423595" lon="14.11303519767526"><ele>88.19999999999999</ele><time>2026-05-03T10:29:14Z</time></trkpt><trkpt lat="42.44333132344393" lon="14.112926078160054"><ele>87.6</ele><time>2026-05-03T10:29:15Z</time></trkpt><trkpt lat="42.44328656154296" lon="14.112825134173216"><ele>87.0</ele><time>2026-05-03T10:29:16Z</time></trkpt><trkpt lat="42.44324318232249" lon="14.112725585325112"><ele>87.0</ele><time>2026-05-03T10:29:17Z</time></trkpt><trkpt lat="42.443218660977976" lon="14.11261009325444"><ele>87.0</ele><time>2026-05-03T10:29:18Z</time></trkpt><trkpt lat="42.44318602214409" lon="14.112508038876584"><ele>87.0</ele><time>2026-05-03T10:29:19Z</time></trkpt><trkpt lat="42.44316076175511" lon="14.112411814881572"><ele>87.0</ele><time>2026-05-03T10:29:20Z</time></trkpt><trkpt lat="42.44312275474888" lon="14.112318931341944"><ele>87.0</ele><time>2026-05-03T10:29:21Z</time></trkpt><trkpt lat="42.443120514729124" lon="14.112194135546462"><ele>87.0</ele><time>2026-05-03T10:29:22Z</time></trkpt><trkpt lat="42.4431276694608" lon="14.11206462170322"><ele>86.33333333333333</ele><time>2026-05-03T10:29:23Z</time></trkpt><trkpt lat="42.44312397265024" lon="14.111933559983386"><ele>85.66666666666667</ele><time>2026-05-03T10:29:24Z</time></trkpt><trkpt lat="42.443110349757546" lon="14.111813593708762"><ele>85.0</ele><time>2026-05-03T10:29:25Z</time></trkpt><trkpt lat="42.443083335527376" lon="14.11169958062983"><ele>84.33333333333334</ele><time>2026-05-03T10:29:26Z</time></trkpt><trkpt lat="42.443045266659404" lon="14.111602267722745"><ele>83.66666666666667</ele><time>2026-05-03T10:29:27Z</time></trkpt><trkpt lat="42.44300819088399" lon="14.111499313285647"><ele>83.0</ele><time>2026-05-03T10:29:28Z</time></trkpt><trkpt lat="42.44296513213608" lon="14.111392526222346"><ele>82.2</ele><time>2026-05-03T10:29:29Z</time></trkpt><trkpt lat="42.44290680003038" lon="14.111297986719666"><ele>81.4</ele><time>2026-05-03T10:29:30Z</time></trkpt><trkpt lat="42.44282583600909" lon="14.111211587497326"><ele>80.60000000000001</ele><time>2026-05-03T10:29:31Z</time></trkpt><trkpt lat="42.44274120099382" lon="14.111141134366845"><ele>79.80000000000001</ele><time>2026-05-03T10:29:32Z</time></trkpt><trkpt lat="42.44266048349468" lon="14.111076067611855"><ele>79.0</ele><time>2026-05-03T10:29:33Z</time></trkpt><trkpt lat="42.442596983548974" lon="14.110981632171766"><ele>79.0</ele><time>2026-05-03T10:29:34Z</time></trkpt><trkpt lat="42.442552494541864" lon="14.110905536181304"><ele>79.0</ele><time>2026-05-03T10:29:35Z</time></trkpt><trkpt lat="42.442513583339014" lon="14.11081425931635"><ele>79.0</ele><time>2026-05-03T10:29:36Z</time></trkpt><trkpt lat="42.44249368699052" lon="14.110720491454241"><ele>79.0</ele><time>2026-05-03T10:29:37Z</time></trkpt><trkpt lat="42.44246893659655" lon="14.110607462445543"><ele>79.0</ele><time>2026-05-03T10:29:38Z</time></trkpt><trkpt lat="42.44242735301723" lon="14.110504595941908"><ele>79.0</ele><time>2026-05-03T10:29:39Z</time></trkpt><trkpt lat="42.44239396541447" lon="14.11039539700837"><ele>78.8</ele><time>2026-05-03T10:29:40Z</time></trkpt><trkpt lat="42.442348175581735" lon="14.110287626932118"><ele>78.60000000000001</ele><time>2026-05-03T10:29:41Z</time></trkpt><trkpt lat="42.4423023718618" lon="14.110172978449649"><ele>78.4</ele><time>2026-05-03T10:29:42Z</time></trkpt><trkpt lat="42.44224349625408" lon="14.110070741403382"><ele>78.2</ele><time>2026-05-03T10:29:43Z</time></trkpt><trkpt lat="42.44217303655906" lon="14.109990534659"><ele>78.0</ele><time>2026-05-03T10:29:44Z</time></trkpt><trkpt lat="42.442117509708915" lon="14.109901636149353"><ele>78.0</ele><time>2026-05-03T10:29:45Z</time></trkpt><trkpt lat="42.4420665559713" lon="14.109810833565486"><ele>78.0</ele><time>2026-05-03T10:29:46Z</time></trkpt><trkpt lat="42.4420004158947" lon="14.109727560047004"><ele>78.0</ele><time>2026-05-03T10:29:47Z</time></trkpt><trkpt lat="42.44193048122347" lon="14.109635334290182"><ele>78.0</ele><time>2026-05-03T10:29:48Z</time></trkpt><trkpt lat="42.441847357261246" lon="14.109554574447522"><ele>78.0</ele><time>2026-05-03T10:29:49Z</time></trkpt><trkpt lat="42.44176336801227" lon="14.109467791253769"><ele>78.0</ele><time>2026-05-03T10:29:50Z</time></trkpt><trkpt lat="42.44167689690079" lon="14.109374518942492"><ele>78.0</ele><time>2026-05-03T10:29:51Z</time></trkpt><trkpt lat="42.441603955838715" lon="14.109262165357363"><ele>78.0</ele><time>2026-05-03T10:29:52Z</time></trkpt><trkpt lat="42.44151805085077" lon="14.109162688069633"><ele>78.0</ele><time>2026-05-03T10:29:53Z</time></trkpt><trkpt lat="42.44142642928552" lon="14.109068587063703"><ele>78.0</ele><time>2026-05-03T10:29:54Z</time></trkpt><trkpt lat="42.44133443667756" lon="14.108969061757396"><ele>75.25</ele><time>2026-05-03T10:29:55Z</time></trkpt><trkpt lat="42.44124107173542" lon="14.108868050399881"><ele>72.5</ele><time>2026-05-03T10:29:56Z</time></trkpt><trkpt lat="42.44114703499036" lon="14.108776694489505"><ele>69.75</ele><time>2026-05-03T10:29:57Z</time></trkpt><trkpt lat="42.441041184812214" lon="14.108703646549458"><ele>67.0</ele><time>2026-05-03T10:29:58Z</time></trkpt><trkpt lat="42.44092115651519" lon="14.10865042628012"><ele>67.0</ele><time>2026-05-03T10:29:59Z</time></trkpt><trkpt lat="42.44079274956675" lon="14.108621695629534"><ele>67.0</ele><time>2026-05-03T10:30:00Z</time></trkpt><trkpt lat="42.44066491664604" lon="14.108606560714975"><ele>67.0</ele><time>2026-05-03T10:30:01Z</time></trkpt><trkpt lat="42.44054367951138" lon="14.108600812861141"><ele>67.0</ele><time>2026-05-03T10:30:02Z</time></trkpt><trkpt lat="42.44041790802266" lon="14.108615819143004"><ele>67.75</ele><time>2026-05-03T10:30:03Z</time></trkpt><trkpt lat="42.440291709302244" lon="14.108649446735269"><ele>68.5</ele><time>2026-05-03T10:30:04Z</time></trkpt><trkpt lat="42.440162744776316" lon="14.108698415589727"><ele>69.25</ele><time>2026-05-03T10:30:05Z</time></trkpt><trkpt lat="42.44003649894884" lon="14.108745200007656"><ele>70.0</ele><time>2026-05-03T10:30:06Z</time></trkpt><trkpt lat="42.43992030406099" lon="14.108804770449849"><ele>70.0</ele><time>2026-05-03T10:30:07Z</time></trkpt><trkpt lat="42.439804560722614" lon="14.108862056331676"><ele>70.0</ele><time>2026-05-03T10:30:08Z</time></trkpt><trkpt lat="42.439688561457864" lon="14.108916310466839"><ele>70.0</ele><time>2026-05-03T10:30:09Z</time></trkpt><trkpt lat="42.43957846809009" lon="14.108956787802727"><ele>70.0</ele><time>2026-05-03T10:30:10Z</time></trkpt><trkpt lat="42.43946892437739" lon="14.10898617773586"><ele>71.83333333333333</ele><time>2026-05-03T10:30:11Z</time></trkpt><trkpt lat="42.43937213646817" lon="14.10900370098546"><ele>73.66666666666666</ele><time>2026-05-03T10:30:12Z</time></trkpt><trkpt lat="42.439290546224775" lon="14.109006728724477"><ele>75.5</ele><time>2026-05-03T10:30:13Z</time></trkpt><trkpt lat="42.439213480553725" lon="14.108973008467892"><ele>77.33333333333333</ele><time>2026-05-03T10:30:14Z</time></trkpt><trkpt lat="42.43912957843965" lon="14.108947166387303"><ele>79.16666666666667</ele><time>2026-05-03T10:30:15Z</time></trkpt><trkpt lat="42.43903127769088" lon="14.108927522212564"><ele>81.0</ele><time>2026-05-03T10:30:16Z</time></trkpt><trkpt lat="42.43892978205774" lon="14.108875546448985"><ele>81.0</ele><time>2026-05-03T10:30:17Z</time></trkpt><trkpt lat="42.43883066461777" lon="14.108796321989873"><ele>81.0</ele><time>2026-05-03T10:30:18Z</time></trkpt><trkpt lat="42.43872115195322" lon="14.108752384279637"><ele>81.0</ele><time>2026-05-03T10:30:19Z</time></trkpt><trkpt lat="42.438613468548205" lon="14.108705680154094"><ele>81.0</ele><time>2026-05-03T10:30:20Z</time></trkpt><trkpt lat="42.4385099633665" lon="14.10867272235136"><ele>81.0</ele><time>2026-05-03T10:30:21Z</time></trkpt><trkpt lat="42.43839611110978" lon="14.108654820781396"><ele>83.75</ele><time>2026-05-03T10:30:22Z</time></trkpt><trkpt lat="42.43827975021267" lon="14.108659893196286"><ele>86.5</ele><time>2026-05-03T10:30:23Z</time></trkpt><trkpt lat="42.43816460615803" lon="14.10867541816859"><ele>89.25</ele><time>2026-05-03T10:30:24Z</time></trkpt><trkpt lat="42.43804759008997" lon="14.1087149108951"><ele>92.0</ele><time>2026-05-03T10:30:25Z</time></trkpt><trkpt lat="42.43793241740065" lon="14.10876214320485"><ele>95.25</ele><time>2026-05-03T10:30:26Z</time></trkpt><trkpt lat="42.43782471210134" lon="14.108815523300969"><ele>98.5</ele><time>2026-05-03T10:30:27Z</time></trkpt><trkpt lat="42.437720226472656" lon="14.108881525832729"><ele>101.75</ele><time>2026-05-03T10:30:28Z</time></trkpt><trkpt lat="42.437617604060655" lon="14.108950156808545"><ele>105.0</ele><time>2026-05-03T10:30:29Z</time></trkpt><trkpt lat="42.437526203230036" lon="14.109035801908064"><ele>106.2</ele><time>2026-05-03T10:30:30Z</time></trkpt><trkpt lat="42.43744188707688" lon="14.109128449987951"><ele>107.4</ele><time>2026-05-03T10:30:31Z</time></trkpt><trkpt lat="42.43735172258373" lon="14.109209556329084"><ele>108.6</ele><time>2026-05-03T10:30:32Z</time></trkpt><trkpt lat="42.437267818118784" lon="14.10930862535461"><ele>109.8</ele><time>2026-05-03T10:30:33Z</time></trkpt><trkpt lat="42.437184214205395" lon="14.109409745486442"><ele>111.0</ele><time>2026-05-03T10:30:34Z</time></trkpt><trkpt lat="42.437111149927624" lon="14.109525843616776"><ele>111.0</ele><time>2026-05-03T10:30:35Z</time></trkpt><trkpt lat="42.43703208596423" lon="14.109612932195343"><ele>111.0</ele><time>2026-05-03T10:30:36Z</time></trkpt><trkpt lat="42.436967155510516" lon="14.109700674782303"><ele>111.0</ele><time>2026-05-03T10:30:37Z</time></trkpt><trkpt lat="42.436912439311115" lon="14.10980163400136"><ele>111.0</ele><time>2026-05-03T10:30:38Z</time></trkpt><trkpt lat="42.43687235616144" lon="14.109920548885087"><ele>111.0</ele><time>2026-05-03T10:30:39Z</time></trkpt><trkpt lat="42.43680258188235" lon="14.109978797114051"><ele>109.0</ele><time>2026-05-03T10:30:40Z</time></trkpt><trkpt lat="42.43675166253505" lon="14.110035491475676"><ele>107.0</ele><time>2026-05-03T10:30:41Z</time></trkpt><trkpt lat="42.436645068908675" lon="14.110103661104946"><ele>105.0</ele><time>2026-05-03T10:30:43Z</time></trkpt><trkpt lat="42.43657245827168" lon="14.110092006336536"><ele>103.0</ele><time>2026-05-03T10:30:45Z</time></trkpt><trkpt lat="42.436483361485315" lon="14.11004186959808"><ele>101.0</ele><time>2026-05-03T10:30:49Z</time></trkpt><trkpt lat="42.43638942984389" lon="14.109982782815072"><ele>104.5</ele><time>2026-05-03T10:30:51Z</time></trkpt><trkpt lat="42.43628141155714" lon="14.109920617727383"><ele>108.0</ele><time>2026-05-03T10:30:53Z</time></trkpt><trkpt lat="42.43619280429602" lon="14.109815231278938"><ele>111.5</ele><time>2026-05-03T10:30:55Z</time></trkpt><trkpt lat="42.436089308164796" lon="14.10974269058231"><ele>115.0</ele><time>2026-05-03T10:30:57Z</time></trkpt><trkpt lat="42.435991276662385" lon="14.109659631509896"><ele>116.4</ele><time>2026-05-03T10:30:59Z</time></trkpt><trkpt lat="42.43587246844562" lon="14.109597174969844"><ele>117.8</ele><time>2026-05-03T10:31:01Z</time></trkpt><trkpt lat="42.435806197338536" lon="14.109574455839446"><ele>119.19999999999999</ele><time>2026-05-03T10:31:02Z</time></trkpt><trkpt lat="42.43573820522343" lon="14.109553479290204"><ele>120.6</ele><time>2026-05-03T10:31:03Z</time></trkpt><trkpt lat="42.43562743762368" lon="14.109486148987257"><ele>122.0</ele><time>2026-05-03T10:31:05Z</time></trkpt><trkpt lat="42.43557114432882" lon="14.109438231850199"><ele>122.0</ele><time>2026-05-03T10:31:06Z</time></trkpt><trkpt lat="42.435472015521796" lon="14.109344184755706"><ele>122.0</ele><time>2026-05-03T10:31:08Z</time></trkpt><trkpt lat="42.43537623938168" lon="14.109262856835159"><ele>122.0</ele><time>2026-05-03T10:31:10Z</time></trkpt><trkpt lat="42.43529444915609" lon="14.109181118851957"><ele>122.0</ele><time>2026-05-03T10:31:12Z</time></trkpt><trkpt lat="42.435197080632356" lon="14.10908796365206"><ele>124.33333333333333</ele><time>2026-05-03T10:31:14Z</time></trkpt><trkpt lat="42.43514119858107" lon="14.109046512734597"><ele>126.66666666666666</ele><time>2026-05-03T10:31:15Z</time></trkpt><trkpt lat="42.435081955174695" lon="14.10901061311784"><ele>129.0</ele><time>2026-05-03T10:31:16Z</time></trkpt><trkpt lat="42.43497539555998" lon="14.108949109544266"><ele>131.33333333333334</ele><time>2026-05-03T10:31:18Z</time></trkpt><trkpt lat="42.43491038129692" lon="14.108911584917196"><ele>133.66666666666669</ele><time>2026-05-03T10:31:20Z</time></trkpt><trkpt lat="42.43484070503312" lon="14.108987111971631"><ele>136.0</ele><time>2026-05-03T10:31:22Z</time></trkpt><trkpt lat="42.434776088881804" lon="14.109078509064824"><ele>136.0</ele><time>2026-05-03T10:31:24Z</time></trkpt><trkpt lat="42.43471215546353" lon="14.109182207892516"><ele>136.0</ele><time>2026-05-03T10:31:26Z</time></trkpt><trkpt lat="42.43465927298141" lon="14.10926326001341"><ele>136.0</ele><time>2026-05-03T10:31:28Z</time></trkpt><trkpt lat="42.43461641446854" lon="14.109354202507289"><ele>136.0</ele><time>2026-05-03T10:31:30Z</time></trkpt><trkpt lat="42.434560975728125" lon="14.109437834529887"><ele>136.0</ele><time>2026-05-03T10:31:32Z</time></trkpt><trkpt lat="42.43449934359861" lon="14.10949670244412"><ele>136.0</ele><time>2026-05-03T10:31:34Z</time></trkpt><trkpt lat="42.43445654067462" lon="14.109572276033255"><ele>136.0</ele><time>2026-05-03T10:31:36Z</time></trkpt><trkpt lat="42.434387572202255" lon="14.109604248732616"><ele>136.0</ele><time>2026-05-03T10:31:39Z</time></trkpt><trkpt lat="42.434344594308584" lon="14.109520350062068"><ele>136.0</ele><time>2026-05-03T10:31:41Z</time></trkpt><trkpt lat="42.434306428389924" lon="14.109424554755257"><ele>136.0</ele><time>2026-05-03T10:31:44Z</time></trkpt><trkpt lat="42.434282886670246" lon="14.109330349772305"><ele>136.0</ele><time>2026-05-03T10:31:47Z</time></trkpt><trkpt lat="42.434252636177504" lon="14.109206616219232"><ele>136.0</ele><time>2026-05-03T10:31:49Z</time></trkpt><trkpt lat="42.43423911990881" lon="14.109058942670202"><ele>136.0</ele><time>2026-05-03T10:31:51Z</time></trkpt><trkpt lat="42.43420527735014" lon="14.108889574771576"><ele>136.0</ele><time>2026-05-03T10:31:53Z</time></trkpt><trkpt lat="42.434186961655335" lon="14.108797527862325"><ele>136.0</ele><time>2026-05-03T10:31:54Z</time></trkpt><trkpt lat="42.43416745143963" lon="14.108699477893541"><ele>136.0</ele><time>2026-05-03T10:31:55Z</time></trkpt><trkpt lat="42.43413670225125" lon="14.108616194737007"><ele>136.0</ele><time>2026-05-03T10:31:56Z</time></trkpt><trkpt lat="42.43411740675686" lon="14.108525160461017"><ele>136.0</ele><time>2026-05-03T10:31:57Z</time></trkpt><trkpt lat="42.43409708791479" lon="14.108428936802072"><ele>136.0</ele><time>2026-05-03T10:31:58Z</time></trkpt><trkpt lat="42.43407591518325" lon="14.108329904105641"><ele>136.0</ele><time>2026-05-03T10:31:59Z</time></trkpt><trkpt lat="42.43407166519733" lon="14.108225987248082"><ele>136.0</ele><time>2026-05-03T10:32:00Z</time></trkpt><trkpt lat="42.43405457137312" lon="14.108130525386953"><ele>136.0</ele><time>2026-05-03T10:32:01Z</time></trkpt><trkpt lat="42.434027618279416" lon="14.108032610016634"><ele>136.0</ele><time>2026-05-03T10:32:02Z</time></trkpt><trkpt lat="42.43402307690144" lon="14.107927532919627"><ele>136.0</ele><time>2026-05-03T10:32:03Z</time></trkpt><trkpt lat="42.434024402013904" lon="14.10781523029685"><ele>135.16666666666669</ele><time>2026-05-03T10:32:04Z</time></trkpt><trkpt lat="42.43403355364248" lon="14.107703699915113"><ele>134.33333333333334</ele><time>2026-05-03T10:32:05Z</time></trkpt><trkpt lat="42.43405743587546" lon="14.107593430139213"><ele>133.5</ele><time>2026-05-03T10:32:06Z</time></trkpt><trkpt lat="42.434084555181805" lon="14.107498096278015"><ele>132.66666666666666</ele><time>2026-05-03T10:32:07Z</time></trkpt><trkpt lat="42.43412222081164" lon="14.107412677514114"><ele>131.83333333333331</ele><time>2026-05-03T10:32:08Z</time></trkpt><trkpt lat="42.4341614825182" lon="14.107328880525278"><ele>131.0</ele><time>2026-05-03T10:32:09Z</time></trkpt><trkpt lat="42.434212338071" lon="14.107257652426517"><ele>129.85714285714286</ele><time>2026-05-03T10:32:10Z</time></trkpt><trkpt lat="42.43427001458872" lon="14.107191106720386"><ele>128.71428571428572</ele><time>2026-05-03T10:32:11Z</time></trkpt><trkpt lat="42.43432880192005" lon="14.107128301239117"><ele>127.57142857142858</ele><time>2026-05-03T10:32:12Z</time></trkpt><trkpt lat="42.43438939971873" lon="14.10707554970094"><ele>126.42857142857144</ele><time>2026-05-03T10:32:13Z</time></trkpt><trkpt lat="42.43445140685747" lon="14.107023012818157"><ele>125.28571428571429</ele><time>2026-05-03T10:32:14Z</time></trkpt><trkpt lat="42.434501740552776" lon="14.106969798661181"><ele>124.14285714285717</ele><time>2026-05-03T10:32:15Z</time></trkpt><trkpt lat="42.43456573114686" lon="14.106906071430565"><ele>123.00000000000001</ele><time>2026-05-03T10:32:17Z</time></trkpt><trkpt lat="42.43452891708936" lon="14.107108799347174"><ele>123.0</ele><time>2026-05-03T10:32:24Z</time></trkpt><trkpt lat="42.43445106383125" lon="14.107087526922218"><ele>123.00000000000001</ele><time>2026-05-03T10:32:27Z</time></trkpt><trkpt lat="42.43436482254017" lon="14.10704140806924"><ele>123.00000000000001</ele><time>2026-05-03T10:32:31Z</time></trkpt><trkpt lat="42.43426433412577" lon="14.107134863616984"><ele>123.0</ele><time>2026-05-03T10:32:33Z</time></trkpt><trkpt lat="42.434215151633786" lon="14.107209806468589"><ele>123.0</ele><time>2026-05-03T10:32:34Z</time></trkpt><trkpt lat="42.4341559704663" lon="14.107290281352062"><ele>123.0</ele><time>2026-05-03T10:32:35Z</time></trkpt><trkpt lat="42.43409995775089" lon="14.107380138829901"><ele>123.0</ele><time>2026-05-03T10:32:36Z</time></trkpt><trkpt lat="42.434062580602834" lon="14.107476239599002"><ele>123.0</ele><time>2026-05-03T10:32:37Z</time></trkpt><trkpt lat="42.4340403515511" lon="14.107571556159387"><ele>123.0</ele><time>2026-05-03T10:32:38Z</time></trkpt><trkpt lat="42.434022192633925" lon="14.107664481585482"><ele>123.0</ele><time>2026-05-03T10:32:39Z</time></trkpt><trkpt lat="42.43401041922969" lon="14.107755449248202"><ele>123.0</ele><time>2026-05-03T10:32:40Z</time></trkpt><trkpt lat="42.43400914506004" lon="14.107855064837604"><ele>124.14285714285717</ele><time>2026-05-03T10:32:41Z</time></trkpt><trkpt lat="42.434012966856734" lon="14.10795141130096"><ele>125.28571428571429</ele><time>2026-05-03T10:32:42Z</time></trkpt><trkpt lat="42.434018781493506" lon="14.10804465746252"><ele>126.42857142857144</ele><time>2026-05-03T10:32:43Z</time></trkpt><trkpt lat="42.43402928393553" lon="14.108135380502443"><ele>127.57142857142858</ele><time>2026-05-03T10:32:44Z</time></trkpt><trkpt lat="42.43404655371819" lon="14.10822357025736"><ele>128.71428571428572</ele><time>2026-05-03T10:32:45Z</time></trkpt><trkpt lat="42.43406553800604" lon="14.108314482180589"><ele>129.85714285714286</ele><time>2026-05-03T10:32:46Z</time></trkpt><trkpt lat="42.434084736727165" lon="14.108401215154936"><ele>131.0</ele><time>2026-05-03T10:32:47Z</time></trkpt><trkpt lat="42.43411811085019" lon="14.108539136887488"><ele>132.0</ele><time>2026-05-03T10:32:49Z</time></trkpt><trkpt lat="42.43406806505232" lon="14.10860379569359"><ele>133.0</ele><time>2026-05-03T10:32:58Z</time></trkpt><trkpt lat="42.43412098257267" lon="14.108664290118138"><ele>134.0</ele><time>2026-05-03T10:33:27Z</time></trkpt><trkpt lat="42.43416949764704" lon="14.10880303306473"><ele>135.0</ele><time>2026-05-03T10:33:29Z</time></trkpt><trkpt lat="42.434201306313824" lon="14.108971351387103"><ele>136.0</ele><time>2026-05-03T10:33:31Z</time></trkpt><trkpt lat="42.43422101302954" lon="14.109066161698411"><ele>135.83333333333334</ele><time>2026-05-03T10:33:32Z</time></trkpt><trkpt lat="42.434235780354136" lon="14.10916494093168"><ele>135.66666666666669</ele><time>2026-05-03T10:33:33Z</time></trkpt><trkpt lat="42.43425713235968" lon="14.109272153072574"><ele>135.5</ele><time>2026-05-03T10:33:34Z</time></trkpt><trkpt lat="42.43427674297891" lon="14.10936875099689"><ele>135.33333333333334</ele><time>2026-05-03T10:33:35Z</time></trkpt><trkpt lat="42.43429641869424" lon="14.109453003368124"><ele>135.16666666666666</ele><time>2026-05-03T10:33:36Z</time></trkpt><trkpt lat="42.43433495357923" lon="14.109588640111827"><ele>135.0</ele><time>2026-05-03T10:33:38Z</time></trkpt><trkpt lat="42.43434557502995" lon="14.109697377283952"><ele>135.0</ele><time>2026-05-03T10:33:40Z</time></trkpt><trkpt lat="42.434281096915846" lon="14.109788566892743"><ele>135.0</ele><time>2026-05-03T10:33:42Z</time></trkpt><trkpt lat="42.43421108594238" lon="14.109924779553973"><ele>135.0</ele><time>2026-05-03T10:33:44Z</time></trkpt><trkpt lat="42.43416504548189" lon="14.109987894834262"><ele>135.0</ele><time>2026-05-03T10:33:45Z</time></trkpt><trkpt lat="42.434111910650905" lon="14.11004837011871"><ele>135.0</ele><time>2026-05-03T10:33:46Z</time></trkpt><trkpt lat="42.43405827358781" lon="14.110112171987904"><ele>135.0</ele><time>2026-05-03T10:33:47Z</time></trkpt><trkpt lat="42.43400370660227" lon="14.110177175244662"><ele>135.0</ele><time>2026-05-03T10:33:48Z</time></trkpt><trkpt lat="42.433946277770204" lon="14.110245521240019"><ele>135.0</ele><time>2026-05-03T10:33:49Z</time></trkpt><trkpt lat="42.43388612753039" lon="14.110311895647847"><ele>135.0</ele><time>2026-05-03T10:33:50Z</time></trkpt><trkpt lat="42.4338214052365" lon="14.110373655229742"><ele>135.0</ele><time>2026-05-03T10:33:51Z</time></trkpt><trkpt lat="42.43375927365918" lon="14.110424702033317"><ele>135.0</ele><time>2026-05-03T10:33:52Z</time></trkpt><trkpt lat="42.43369952312536" lon="14.11046900512761"><ele>135.0</ele><time>2026-05-03T10:33:53Z</time></trkpt><trkpt lat="42.433635817693414" lon="14.110509471872907"><ele>135.0</ele><time>2026-05-03T10:33:54Z</time></trkpt><trkpt lat="42.43356661312103" lon="14.110543327261444"><ele>134.42857142857142</ele><time>2026-05-03T10:33:55Z</time></trkpt><trkpt lat="42.43349321361585" lon="14.110565472735802"><ele>133.85714285714283</ele><time>2026-05-03T10:33:56Z</time></trkpt><trkpt lat="42.433423764401" lon="14.110585921635849"><ele>133.28571428571428</ele><time>2026-05-03T10:33:57Z</time></trkpt><trkpt lat="42.433355280075276" lon="14.110609147998598"><ele>132.71428571428572</ele><time>2026-05-03T10:33:58Z</time></trkpt><trkpt lat="42.433295822603384" lon="14.110646328271597"><ele>132.14285714285717</ele><time>2026-05-03T10:33:59Z</time></trkpt><trkpt lat="42.43323818332279" lon="14.110687350530101"><ele>131.57142857142858</ele><time>2026-05-03T10:34:00Z</time></trkpt><trkpt lat="42.433179421669564" lon="14.110727441117765"><ele>131.0</ele><time>2026-05-03T10:34:01Z</time></trkpt><trkpt lat="42.433083949567724" lon="14.110810948512983"><ele>131.0</ele><time>2026-05-03T10:34:03Z</time></trkpt><trkpt lat="42.43298646153687" lon="14.110880976607628"><ele>131.0</ele><time>2026-05-03T10:34:05Z</time></trkpt><trkpt lat="42.43289026818567" lon="14.110942203617908"><ele>131.0</ele><time>2026-05-03T10:34:07Z</time></trkpt><trkpt lat="42.43279947580516" lon="14.110990825290658"><ele>131.0</ele><time>2026-05-03T10:34:09Z</time></trkpt><trkpt lat="42.43270247594295" lon="14.110992852076933"><ele>131.0</ele><time>2026-05-03T10:34:11Z</time></trkpt><trkpt lat="42.432640914585214" lon="14.111053664813674"><ele>131.0</ele><time>2026-05-03T10:34:13Z</time></trkpt><trkpt lat="42.43260126369811" lon="14.111134407462986"><ele>131.0</ele><time>2026-05-03T10:34:16Z</time></trkpt><trkpt lat="42.432663920104616" lon="14.111107592018783"><ele>131.0</ele><time>2026-05-03T10:34:18Z</time></trkpt><trkpt lat="42.4327366707789" lon="14.111097733725467"><ele>131.0</ele><time>2026-05-03T10:34:19Z</time></trkpt><trkpt lat="42.43273038439044" lon="14.111002312644894"><ele>131.0</ele><time>2026-05-03T10:34:21Z</time></trkpt><trkpt lat="42.433021524860116" lon="14.110883344791512"><ele>131.0</ele><time>2026-05-03T10:34:23Z</time></trkpt><trkpt lat="42.43309477004032" lon="14.110827281466449"><ele>131.0</ele><time>2026-05-03T10:34:24Z</time></trkpt><trkpt lat="42.43316362027588" lon="14.110735114881239"><ele>131.0</ele><time>2026-05-03T10:34:26Z</time></trkpt><trkpt lat="42.43312159932573" lon="14.110653553512712"><ele>131.0</ele><time>2026-05-03T10:34:28Z</time></trkpt><trkpt lat="42.433028535876936" lon="14.110598885551259"><ele>131.0</ele><time>2026-05-03T10:34:30Z</time></trkpt><trkpt lat="42.43295219134961" lon="14.11051549074637"><ele>129.66666666666666</ele><time>2026-05-03T10:34:33Z</time></trkpt><trkpt lat="42.43290406414432" lon="14.11042489769404"><ele>128.33333333333331</ele><time>2026-05-03T10:34:35Z</time></trkpt><trkpt lat="42.43285174229208" lon="14.110341218191373"><ele>127.0</ele><time>2026-05-03T10:34:37Z</time></trkpt><trkpt lat="42.43279335653559" lon="14.110255819211993"><ele>125.66666666666666</ele><time>2026-05-03T10:34:39Z</time></trkpt><trkpt lat="42.43273259671775" lon="14.110166095710161"><ele>124.33333333333333</ele><time>2026-05-03T10:34:41Z</time></trkpt><trkpt lat="42.43266712772783" lon="14.110068294158175"><ele>123.0</ele><time>2026-05-03T10:34:43Z</time></trkpt><trkpt lat="42.43259867344859" lon="14.109966197257087"><ele>122.80000000000001</ele><time>2026-05-03T10:34:45Z</time></trkpt><trkpt lat="42.43254386868735" lon="14.109866777343388"><ele>122.60000000000001</ele><time>2026-05-03T10:34:47Z</time></trkpt><trkpt lat="42.43248186312726" lon="14.109766736663687"><ele>122.39999999999999</ele><time>2026-05-03T10:34:49Z</time></trkpt><trkpt lat="42.432398341081324" lon="14.109657551708185"><ele>122.19999999999999</ele><time>2026-05-03T10:34:51Z</time></trkpt><trkpt lat="42.4323013677653" lon="14.10954802366035"><ele>122.0</ele><time>2026-05-03T10:34:53Z</time></trkpt><trkpt lat="42.43221000657951" lon="14.109457770768547"><ele>120.49999999999999</ele><time>2026-05-03T10:34:55Z</time></trkpt><trkpt lat="42.4321388175598" lon="14.109394694604742"><ele>119.0</ele><time>2026-05-03T10:34:57Z</time></trkpt><trkpt lat="42.43206593964552" lon="14.109335243202608"><ele>117.5</ele><time>2026-05-03T10:35:00Z</time></trkpt><trkpt lat="42.43202951617518" lon="14.109241749400791"><ele>116.0</ele><time>2026-05-03T10:35:02Z</time></trkpt><trkpt lat="42.43204687453605" lon="14.109102978156052"><ele>114.49999999999999</ele><time>2026-05-03T10:35:04Z</time></trkpt><trkpt lat="42.432056301070375" lon="14.108988025164729"><ele>113.0</ele><time>2026-05-03T10:35:06Z</time></trkpt><trkpt lat="42.43209138278537" lon="14.108860322226901"><ele>113.49999999999999</ele><time>2026-05-03T10:35:08Z</time></trkpt><trkpt lat="42.43215143728098" lon="14.108725006128"><ele>114.0</ele><time>2026-05-03T10:35:10Z</time></trkpt><trkpt lat="42.43219392024635" lon="14.108657769674414"><ele>114.5</ele><time>2026-05-03T10:35:11Z</time></trkpt><trkpt lat="42.43225093990226" lon="14.108591986846289"><ele>115.0</ele><time>2026-05-03T10:35:12Z</time></trkpt><trkpt lat="42.432312484999194" lon="14.10851803692714"><ele>115.49999999999999</ele><time>2026-05-03T10:35:13Z</time></trkpt><trkpt lat="42.432380213384526" lon="14.108440615574052"><ele>116.0</ele><time>2026-05-03T10:35:14Z</time></trkpt><trkpt lat="42.43244438818078" lon="14.108364912806508"><ele>115.99999999999999</ele><time>2026-05-03T10:35:15Z</time></trkpt><trkpt lat="42.43250247972644" lon="14.108287757931809"><ele>116.0</ele><time>2026-05-03T10:35:16Z</time></trkpt><trkpt lat="42.43254958338994" lon="14.108207028786351"><ele>116.0</ele><time>2026-05-03T10:35:17Z</time></trkpt><trkpt lat="42.43257838379442" lon="14.10811329221761"><ele>116.0</ele><time>2026-05-03T10:35:18Z</time></trkpt><trkpt lat="42.4325883720389" lon="14.108015589537354"><ele>115.99999999999999</ele><time>2026-05-03T10:35:19Z</time></trkpt><trkpt lat="42.43257702019833" lon="14.107915395806291"><ele>116.0</ele><time>2026-05-03T10:35:20Z</time></trkpt><trkpt lat="42.43254768771537" lon="14.107829378369665"><ele>114.49999999999999</ele><time>2026-05-03T10:35:21Z</time></trkpt><trkpt lat="42.43247554257397" lon="14.107725819794952"><ele>113.0</ele><time>2026-05-03T10:35:23Z</time></trkpt><trkpt lat="42.432447214286924" lon="14.107626659312851"><ele>111.5</ele><time>2026-05-03T10:35:26Z</time></trkpt><trkpt lat="42.43249345897133" lon="14.107546671882515"><ele>110.0</ele><time>2026-05-03T10:35:28Z</time></trkpt><trkpt lat="42.43248418484326" lon="14.10745531978156"><ele>108.49999999999999</ele><time>2026-05-03T10:35:37Z</time></trkpt><trkpt lat="42.43239517916111" lon="14.107397888603254"><ele>107.0</ele><time>2026-05-03T10:35:39Z</time></trkpt><trkpt lat="42.43232771723364" lon="14.10737942035498"><ele>104.49999999999999</ele><time>2026-05-03T10:35:40Z</time></trkpt><trkpt lat="42.43226873833093" lon="14.107337411840422"><ele>102.0</ele><time>2026-05-03T10:35:41Z</time></trkpt><trkpt lat="42.432181675324244" lon="14.107323155168544"><ele>99.5</ele><time>2026-05-03T10:35:43Z</time></trkpt><trkpt lat="42.432098281281114" lon="14.107255037865533"><ele>97.0</ele><time>2026-05-03T10:35:45Z</time></trkpt><trkpt lat="42.431982433935346" lon="14.107187043019895"><ele>94.5</ele><time>2026-05-03T10:35:47Z</time></trkpt><trkpt lat="42.431919923470716" lon="14.107150095101447"><ele>92.0</ele><time>2026-05-03T10:35:48Z</time></trkpt><trkpt lat="42.43185834628832" lon="14.107116524991516"><ele>91.66666666666667</ele><time>2026-05-03T10:35:49Z</time></trkpt><trkpt lat="42.43179446372447" lon="14.107081800382836"><ele>91.33333333333334</ele><time>2026-05-03T10:35:50Z</time></trkpt><trkpt lat="42.43172958031133" lon="14.107048921689353"><ele>91.0</ele><time>2026-05-03T10:35:51Z</time></trkpt><trkpt lat="42.43165691677663" lon="14.10701228396528"><ele>90.66666666666667</ele><time>2026-05-03T10:35:52Z</time></trkpt><trkpt lat="42.43158125858606" lon="14.10697485377007"><ele>90.33333333333333</ele><time>2026-05-03T10:35:53Z</time></trkpt><trkpt lat="42.43150360770191" lon="14.106937808392573"><ele>90.0</ele><time>2026-05-03T10:35:54Z</time></trkpt><trkpt lat="42.431426258612014" lon="14.106901392680742"><ele>90.0</ele><time>2026-05-03T10:35:55Z</time></trkpt><trkpt lat="42.43134920734607" lon="14.106888647097794"><ele>90.0</ele><time>2026-05-03T10:35:56Z</time></trkpt><trkpt lat="42.431285372131015" lon="14.106835934442703"><ele>90.0</ele><time>2026-05-03T10:35:57Z</time></trkpt><trkpt lat="42.43121117549301" lon="14.106804113819988"><ele>90.0</ele><time>2026-05-03T10:35:58Z</time></trkpt><trkpt lat="42.43113126403369" lon="14.10679959266499"><ele>90.0</ele><time>2026-05-03T10:35:59Z</time></trkpt><trkpt lat="42.43105757046819" lon="14.106779365613525"><ele>90.0</ele><time>2026-05-03T10:36:00Z</time></trkpt><trkpt lat="42.43098346908305" lon="14.106779119220775"><ele>89.0</ele><time>2026-05-03T10:36:01Z</time></trkpt><trkpt lat="42.430908485643855" lon="14.106784315253527"><ele>88.0</ele><time>2026-05-03T10:36:02Z</time></trkpt><trkpt lat="42.430836566975444" lon="14.10681178351419"><ele>87.0</ele><time>2026-05-03T10:36:03Z</time></trkpt><trkpt lat="42.430768206154255" lon="14.10685276301383"><ele>86.0</ele><time>2026-05-03T10:36:04Z</time></trkpt><trkpt lat="42.430715486264866" lon="14.106914738526203"><ele>85.0</ele><time>2026-05-03T10:36:05Z</time></trkpt><trkpt lat="42.430673401051585" lon="14.106982596263517"><ele>84.0</ele><time>2026-05-03T10:36:06Z</time></trkpt><trkpt lat="42.43060818655264" lon="14.107119523189388"><ele>84.0</ele><time>2026-05-03T10:36:08Z</time></trkpt><trkpt lat="42.43055986948955" lon="14.107181055291942"><ele>84.0</ele><time>2026-05-03T10:36:09Z</time></trkpt><trkpt lat="42.430505618941545" lon="14.107234815527724"><ele>84.0</ele><time>2026-05-03T10:36:10Z</time></trkpt><trkpt lat="42.43044834018958" lon="14.107285541817932"><ele>84.0</ele><time>2026-05-03T10:36:11Z</time></trkpt><trkpt lat="42.43038425300095" lon="14.10734284714659"><ele>84.0</ele><time>2026-05-03T10:36:12Z</time></trkpt><trkpt lat="42.43030943739912" lon="14.107408131279525"><ele>84.0</ele><time>2026-05-03T10:36:13Z</time></trkpt><trkpt lat="42.43023979587027" lon="14.1074752977817"><ele>84.0</ele><time>2026-05-03T10:36:14Z</time></trkpt><trkpt lat="42.430163084626116" lon="14.10754805946838"><ele>84.0</ele><time>2026-05-03T10:36:15Z</time></trkpt><trkpt lat="42.43008815205462" lon="14.107619250826959"><ele>84.0</ele><time>2026-05-03T10:36:16Z</time></trkpt><trkpt lat="42.430018352175274" lon="14.10769623407697"><ele>84.0</ele><time>2026-05-03T10:36:17Z</time></trkpt><trkpt lat="42.42994701033454" lon="14.107776145311627"><ele>84.0</ele><time>2026-05-03T10:36:18Z</time></trkpt><trkpt lat="42.429878227688675" lon="14.107856133694979"><ele>84.0</ele><time>2026-05-03T10:36:19Z</time></trkpt><trkpt lat="42.42981297636505" lon="14.10793579285431"><ele>84.0</ele><time>2026-05-03T10:36:20Z</time></trkpt><trkpt lat="42.42974898384988" lon="14.108017089586395"><ele>84.0</ele><time>2026-05-03T10:36:21Z</time></trkpt><trkpt lat="42.42968489022188" lon="14.108097983204104"><ele>84.0</ele><time>2026-05-03T10:36:22Z</time></trkpt><trkpt lat="42.42962934287906" lon="14.108184705328659"><ele>84.0</ele><time>2026-05-03T10:36:23Z</time></trkpt><trkpt lat="42.42957845814919" lon="14.108268116569288"><ele>84.0</ele><time>2026-05-03T10:36:24Z</time></trkpt><trkpt lat="42.429535937162036" lon="14.108363050872953"><ele>81.8</ele><time>2026-05-03T10:36:25Z</time></trkpt><trkpt lat="42.42949773907285" lon="14.108471272108979"><ele>79.60000000000001</ele><time>2026-05-03T10:36:26Z</time></trkpt><trkpt lat="42.429463514896675" lon="14.10858169262105"><ele>77.4</ele><time>2026-05-03T10:36:27Z</time></trkpt><trkpt lat="42.429426240800595" lon="14.108688742609344"><ele>75.2</ele><time>2026-05-03T10:36:28Z</time></trkpt><trkpt lat="42.42938155076277" lon="14.10878282533134"><ele>73.0</ele><time>2026-05-03T10:36:29Z</time></trkpt><trkpt lat="42.429305784543395" lon="14.108905317442618"><ele>73.0</ele><time>2026-05-03T10:36:31Z</time></trkpt><trkpt lat="42.42925603029516" lon="14.108959317185583"><ele>73.0</ele><time>2026-05-03T10:36:32Z</time></trkpt><trkpt lat="42.429185587585756" lon="14.108996336142152"><ele>73.0</ele><time>2026-05-03T10:36:33Z</time></trkpt><trkpt lat="42.42911998169477" lon="14.10905564627656"><ele>73.0</ele><time>2026-05-03T10:36:34Z</time></trkpt><trkpt lat="42.429058739797696" lon="14.109126980067236"><ele>73.0</ele><time>2026-05-03T10:36:35Z</time></trkpt><trkpt lat="42.42899137075491" lon="14.109201342380997"><ele>73.0</ele><time>2026-05-03T10:36:36Z</time></trkpt><trkpt lat="42.428921534020624" lon="14.109281767032748"><ele>72.83333333333333</ele><time>2026-05-03T10:36:37Z</time></trkpt><trkpt lat="42.428854832077526" lon="14.109370373941443"><ele>72.66666666666666</ele><time>2026-05-03T10:36:38Z</time></trkpt><trkpt lat="42.42879096374764" lon="14.109457355234996"><ele>72.5</ele><time>2026-05-03T10:36:39Z</time></trkpt><trkpt lat="42.42871811693129" lon="14.10952152624525"><ele>72.33333333333333</ele><time>2026-05-03T10:36:40Z</time></trkpt><trkpt lat="42.428654524765" lon="14.109593948199754"><ele>72.16666666666667</ele><time>2026-05-03T10:36:41Z</time></trkpt><trkpt lat="42.42859321030914" lon="14.10965808752372"><ele>72.0</ele><time>2026-05-03T10:36:42Z</time></trkpt><trkpt lat="42.428529222789656" lon="14.109721268733464"><ele>71.33333333333333</ele><time>2026-05-03T10:36:43Z</time></trkpt><trkpt lat="42.428471911717175" lon="14.109791669862076"><ele>70.66666666666667</ele><time>2026-05-03T10:36:44Z</time></trkpt><trkpt lat="42.42839631578672" lon="14.109834879421483"><ele>70.0</ele><time>2026-05-03T10:36:45Z</time></trkpt><trkpt lat="42.4283178743852" lon="14.109868070260564"><ele>69.33333333333334</ele><time>2026-05-03T10:36:46Z</time></trkpt><trkpt lat="42.42822996402132" lon="14.10989334517508"><ele>68.66666666666667</ele><time>2026-05-03T10:36:47Z</time></trkpt><trkpt lat="42.428129657696445" lon="14.109906882870272"><ele>68.0</ele><time>2026-05-03T10:36:48Z</time></trkpt><trkpt lat="42.42802630167859" lon="14.109924509159212"><ele>65.2</ele><time>2026-05-03T10:36:49Z</time></trkpt><trkpt lat="42.4279266872467" lon="14.10994232733697"><ele>62.4</ele><time>2026-05-03T10:36:49.999Z</time></trkpt><trkpt lat="42.42782989307531" lon="14.109964079104142"><ele>59.60000000000001</ele><time>2026-05-03T10:36:50.999Z</time></trkpt><trkpt lat="42.42773776072204" lon="14.109985463328602"><ele>56.800000000000004</ele><time>2026-05-03T10:36:51.999Z</time></trkpt><trkpt lat="42.42765114455238" lon="14.109997396624687"><ele>54.0</ele><time>2026-05-03T10:36:52.999Z</time></trkpt><trkpt lat="42.42757218171018" lon="14.110015415343272"><ele>54.0</ele><time>2026-05-03T10:36:53.999Z</time></trkpt><trkpt lat="42.42749980273077" lon="14.110031443675828"><ele>54.0</ele><time>2026-05-03T10:36:54.999Z</time></trkpt><trkpt lat="42.42742977078344" lon="14.110052688842146"><ele>54.0</ele><time>2026-05-03T10:36:55.999Z</time></trkpt><trkpt lat="42.42736011899347" lon="14.11008613191628"><ele>54.0</ele><time>2026-05-03T10:36:56.999Z</time></trkpt><trkpt lat="42.42729180473948" lon="14.11012502506311"><ele>54.0</ele><time>2026-05-03T10:36:57.999Z</time></trkpt><trkpt lat="42.42722123338428" lon="14.110175838635906"><ele>54.0</ele><time>2026-05-03T10:36:58.999Z</time></trkpt><trkpt lat="42.42714627244256" lon="14.110233250775332"><ele>52.0</ele><time>2026-05-03T10:36:59.999Z</time></trkpt><trkpt lat="42.42706753613991" lon="14.110294662871159"><ele>50.00000000000001</ele><time>2026-05-03T10:37:00.999Z</time></trkpt><trkpt lat="42.4269878575678" lon="14.110354702262669"><ele>48.0</ele><time>2026-05-03T10:37:01.999Z</time></trkpt><trkpt lat="42.426909007537596" lon="14.110412183178202"><ele>46.0</ele><time>2026-05-03T10:37:03Z</time></trkpt><trkpt lat="42.426830075434985" lon="14.110467892332423"><ele>44.0</ele><time>2026-05-03T10:37:04Z</time></trkpt><trkpt lat="42.426750315939934" lon="14.110523044335704"><ele>44.0</ele><time>2026-05-03T10:37:05Z</time></trkpt><trkpt lat="42.42667555593403" lon="14.110570478489327"><ele>44.0</ele><time>2026-05-03T10:37:06Z</time></trkpt><trkpt lat="42.426591059968544" lon="14.110602842272172"><ele>44.0</ele><time>2026-05-03T10:37:07Z</time></trkpt><trkpt lat="42.4265240470131" lon="14.110666281273264"><ele>44.0</ele><time>2026-05-03T10:37:08Z</time></trkpt><trkpt lat="42.42644866460263" lon="14.110700274294988"><ele>44.0</ele><time>2026-05-03T10:37:09Z</time></trkpt><trkpt lat="42.426369337874775" lon="14.110735718385246"><ele>44.0</ele><time>2026-05-03T10:37:10Z</time></trkpt><trkpt lat="42.42629045819409" lon="14.110771437138553"><ele>44.666666666666664</ele><time>2026-05-03T10:37:11Z</time></trkpt><trkpt lat="42.426215981582" lon="14.110810139405334"><ele>45.33333333333333</ele><time>2026-05-03T10:37:12Z</time></trkpt><trkpt lat="42.42614158471281" lon="14.110854315442904"><ele>46.0</ele><time>2026-05-03T10:37:13Z</time></trkpt><trkpt lat="42.42606372395842" lon="14.110877522035558"><ele>46.666666666666664</ele><time>2026-05-03T10:37:14Z</time></trkpt><trkpt lat="42.42598623166395" lon="14.11091445729495"><ele>47.333333333333336</ele><time>2026-05-03T10:37:15Z</time></trkpt><trkpt lat="42.42591215927957" lon="14.110949762611755"><ele>48.0</ele><time>2026-05-03T10:37:16Z</time></trkpt><trkpt lat="42.4258384299566" lon="14.110984002660862"><ele>48.0</ele><time>2026-05-03T10:37:17Z</time></trkpt><trkpt lat="42.425766995422656" lon="14.11101656435312"><ele>48.0</ele><time>2026-05-03T10:37:18Z</time></trkpt><trkpt lat="42.42569789198101" lon="14.111056753617186"><ele>48.0</ele><time>2026-05-03T10:37:19Z</time></trkpt><trkpt lat="42.425630627902635" lon="14.111087502878997"><ele>48.0</ele><time>2026-05-03T10:37:20Z</time></trkpt><trkpt lat="42.42554481001504" lon="14.111120150693"><ele>48.0</ele><time>2026-05-03T10:37:22Z</time></trkpt><trkpt lat="42.425468141770004" lon="14.11112782089674"><ele>48.0</ele><time>2026-05-03T10:37:26Z</time></trkpt><trkpt lat="42.42537408771097" lon="14.111143372038292"><ele>47.0</ele><time>2026-05-03T10:37:28Z</time></trkpt><trkpt lat="42.42526734061465" lon="14.111241221551351"><ele>46.0</ele><time>2026-05-03T10:37:30Z</time></trkpt><trkpt lat="42.42519371350645" lon="14.111347122043387"><ele>45.0</ele><time>2026-05-03T10:37:32Z</time></trkpt><trkpt lat="42.42512392268155" lon="14.111403556331645"><ele>44.0</ele><time>2026-05-03T10:37:34Z</time></trkpt><trkpt lat="42.42504364551263" lon="14.111467429924112"><ele>43.0</ele><time>2026-05-03T10:37:36Z</time></trkpt><trkpt lat="42.42493954970516" lon="14.111540068116351"><ele>42.833333333333336</ele><time>2026-05-03T10:37:38Z</time></trkpt><trkpt lat="42.424885994235105" lon="14.111605349922128"><ele>42.66666666666667</ele><time>2026-05-03T10:37:39Z</time></trkpt><trkpt lat="42.42482725133169" lon="14.111649930383624"><ele>42.5</ele><time>2026-05-03T10:37:40Z</time></trkpt><trkpt lat="42.424762167865765" lon="14.111690246464898"><ele>42.333333333333336</ele><time>2026-05-03T10:37:41Z</time></trkpt><trkpt lat="42.42469604136028" lon="14.111726880721015"><ele>42.166666666666664</ele><time>2026-05-03T10:37:42Z</time></trkpt><trkpt lat="42.42463234676668" lon="14.111755410351956"><ele>42.0</ele><time>2026-05-03T10:37:43Z</time></trkpt><trkpt lat="42.42451560889155" lon="14.111802122208672"><ele>42.0</ele><time>2026-05-03T10:37:45Z</time></trkpt><trkpt lat="42.424448622519094" lon="14.111836011625483"><ele>42.0</ele><time>2026-05-03T10:37:46Z</time></trkpt><trkpt lat="42.42438054685672" lon="14.111859569915893"><ele>42.0</ele><time>2026-05-03T10:37:47Z</time></trkpt><trkpt lat="42.42430863267798" lon="14.111873859516313"><ele>42.0</ele><time>2026-05-03T10:37:48Z</time></trkpt><trkpt lat="42.42423150128211" lon="14.111888605964175"><ele>42.0</ele><time>2026-05-03T10:37:49Z</time></trkpt><trkpt lat="42.42416003683868" lon="14.111902329202785"><ele>42.0</ele><time>2026-05-03T10:37:50Z</time></trkpt><trkpt lat="42.42408484857124" lon="14.111900120797475"><ele>42.0</ele><time>2026-05-03T10:37:51Z</time></trkpt><trkpt lat="42.424009235790734" lon="14.111915205871563"><ele>42.0</ele><time>2026-05-03T10:37:52Z</time></trkpt><trkpt lat="42.4239270358644" lon="14.111934786578859"><ele>42.0</ele><time>2026-05-03T10:37:53Z</time></trkpt><trkpt lat="42.42384526836385" lon="14.111959560156324"><ele>42.0</ele><time>2026-05-03T10:37:54Z</time></trkpt><trkpt lat="42.423761730775965" lon="14.111978222503478"><ele>42.0</ele><time>2026-05-03T10:37:55Z</time></trkpt><trkpt lat="42.42367657119873" lon="14.111978320918462"><ele>42.0</ele><time>2026-05-03T10:37:56Z</time></trkpt><trkpt lat="42.42359109470408" lon="14.111975695849887"><ele>42.0</ele><time>2026-05-03T10:37:57Z</time></trkpt><trkpt lat="42.42350363014157" lon="14.111971348333324"><ele>41.0</ele><time>2026-05-03T10:37:58Z</time></trkpt><trkpt lat="42.423417663110655" lon="14.111965246003583"><ele>40.0</ele><time>2026-05-03T10:37:59Z</time></trkpt><trkpt lat="42.4233262374998" lon="14.111977765289954"><ele>39.0</ele><time>2026-05-03T10:38:00Z</time></trkpt><trkpt lat="42.42324310947044" lon="14.112029835742108"><ele>38.0</ele><time>2026-05-03T10:38:01Z</time></trkpt><trkpt lat="42.4231731917409" lon="14.1121142341019"><ele>37.0</ele><time>2026-05-03T10:38:02Z</time></trkpt><trkpt lat="42.42310033650825" lon="14.112192096441927"><ele>37.0</ele><time>2026-05-03T10:38:03Z</time></trkpt><trkpt lat="42.4230300704352" lon="14.112268556799881"><ele>37.0</ele><time>2026-05-03T10:38:04Z</time></trkpt><trkpt lat="42.422970869206374" lon="14.112338441163827"><ele>37.0</ele><time>2026-05-03T10:38:05Z</time></trkpt><trkpt lat="42.422920397289616" lon="14.112398263920463"><ele>37.0</ele><time>2026-05-03T10:38:06Z</time></trkpt><trkpt lat="42.42285467697095" lon="14.112479969667723"><ele>37.0</ele><time>2026-05-03T10:38:08Z</time></trkpt><trkpt lat="42.422769951415404" lon="14.112515735637732"><ele>37.0</ele><time>2026-05-03T10:38:16Z</time></trkpt><trkpt lat="42.42264384850745" lon="14.112509457974086"><ele>38.16666666666667</ele><time>2026-05-03T10:38:18Z</time></trkpt><trkpt lat="42.42258962990867" lon="14.112570549666948"><ele>39.333333333333336</ele><time>2026-05-03T10:38:19Z</time></trkpt><trkpt lat="42.422523360423" lon="14.112619235096165"><ele>40.5</ele><time>2026-05-03T10:38:20Z</time></trkpt><trkpt lat="42.42244820565922" lon="14.112674791453172"><ele>41.666666666666664</ele><time>2026-05-03T10:38:21Z</time></trkpt><trkpt lat="42.422362617119575" lon="14.112736450826876"><ele>42.83333333333333</ele><time>2026-05-03T10:38:22Z</time></trkpt><trkpt lat="42.42230503755254" lon="14.112771307765527"><ele>44.0</ele><time>2026-05-03T10:38:23Z</time></trkpt><trkpt lat="42.422227589671024" lon="14.112809546805487"><ele>44.0</ele><time>2026-05-03T10:38:24Z</time></trkpt><trkpt lat="42.42215690701064" lon="14.112829007501261"><ele>44.0</ele><time>2026-05-03T10:38:25Z</time></trkpt><trkpt lat="42.4220844048092" lon="14.11286337616064"><ele>44.0</ele><time>2026-05-03T10:38:26Z</time></trkpt><trkpt lat="42.42201040138182" lon="14.112890465509592"><ele>44.0</ele><time>2026-05-03T10:38:27Z</time></trkpt><trkpt lat="42.421935584866" lon="14.112897907983951"><ele>44.0</ele><time>2026-05-03T10:38:28Z</time></trkpt><trkpt lat="42.42185825414193" lon="14.112884249739103"><ele>44.0</ele><time>2026-05-03T10:38:29Z</time></trkpt><trkpt lat="42.42177789976073" lon="14.112856331685965"><ele>46.0</ele><time>2026-05-03T10:38:30Z</time></trkpt><trkpt lat="42.42169114060904" lon="14.11281416041252"><ele>48.0</ele><time>2026-05-03T10:38:31Z</time></trkpt><trkpt lat="42.42160341260302" lon="14.11275838743783"><ele>50.00000000000001</ele><time>2026-05-03T10:38:32Z</time></trkpt><trkpt lat="42.42152252523283" lon="14.11270059337811"><ele>52.0</ele><time>2026-05-03T10:38:33Z</time></trkpt><trkpt lat="42.42144386667489" lon="14.112639411454447"><ele>54.0</ele><time>2026-05-03T10:38:34Z</time></trkpt><trkpt lat="42.42137813242813" lon="14.112566010800485"><ele>54.0</ele><time>2026-05-03T10:38:35Z</time></trkpt><trkpt lat="42.42132727541664" lon="14.11246737024315"><ele>54.00000000000001</ele><time>2026-05-03T10:38:36Z</time></trkpt><trkpt lat="42.42127452600651" lon="14.112365168780023"><ele>54.00000000000001</ele><time>2026-05-03T10:38:37Z</time></trkpt><trkpt lat="42.42123477272959" lon="14.11224330736655"><ele>54.0</ele><time>2026-05-03T10:38:38Z</time></trkpt><trkpt lat="42.42119370517072" lon="14.112101202456943"><ele>54.0</ele><time>2026-05-03T10:38:39Z</time></trkpt><trkpt lat="42.42114621259316" lon="14.111954123404928"><ele>55.6</ele><time>2026-05-03T10:38:40Z</time></trkpt><trkpt lat="42.42108940380586" lon="14.111819033642869"><ele>57.2</ele><time>2026-05-03T10:38:41Z</time></trkpt><trkpt lat="42.42103618476867" lon="14.111693279398512"><ele>58.800000000000004</ele><time>2026-05-03T10:38:42Z</time></trkpt><trkpt lat="42.420978819282126" lon="14.111577981131411"><ele>60.400000000000006</ele><time>2026-05-03T10:38:43Z</time></trkpt><trkpt lat="42.42091896472996" lon="14.111478276304426"><ele>62.0</ele><time>2026-05-03T10:38:44Z</time></trkpt><trkpt lat="42.420848495701755" lon="14.11139059964429"><ele>64.6</ele><time>2026-05-03T10:38:45Z</time></trkpt><trkpt lat="42.420781137095794" lon="14.111302451249987"><ele>67.2</ele><time>2026-05-03T10:38:46Z</time></trkpt><trkpt lat="42.42071016912516" lon="14.111211856766793"><ele>69.8</ele><time>2026-05-03T10:38:47Z</time></trkpt><trkpt lat="42.42064083578031" lon="14.111118880850935"><ele>72.4</ele><time>2026-05-03T10:38:48Z</time></trkpt><trkpt lat="42.420571127005225" lon="14.111028521779813"><ele>75.0</ele><time>2026-05-03T10:38:49Z</time></trkpt><trkpt lat="42.42051545449625" lon="14.110922688613732"><ele>75.66666666666667</ele><time>2026-05-03T10:38:50Z</time></trkpt><trkpt lat="42.42043669521671" lon="14.110853428465042"><ele>76.33333333333333</ele><time>2026-05-03T10:38:51Z</time></trkpt><trkpt lat="42.420366327626645" lon="14.110774063070052"><ele>77.0</ele><time>2026-05-03T10:38:52Z</time></trkpt><trkpt lat="42.42029424872476" lon="14.110702933124612"><ele>77.66666666666666</ele><time>2026-05-03T10:38:53Z</time></trkpt><trkpt lat="42.42022314389429" lon="14.110641162272508"><ele>78.33333333333333</ele><time>2026-05-03T10:38:54Z</time></trkpt><trkpt lat="42.420157666499186" lon="14.110584211869119"><ele>79.0</ele><time>2026-05-03T10:38:55Z</time></trkpt><trkpt lat="42.420094562380065" lon="14.110519244371623"><ele>79.00000000000001</ele><time>2026-05-03T10:38:55.999Z</time></trkpt><trkpt lat="42.42004035262666" lon="14.110435720063114"><ele>79.0</ele><time>2026-05-03T10:38:56.999Z</time></trkpt><trkpt lat="42.41998507839468" lon="14.110366862508833"><ele>79.0</ele><time>2026-05-03T10:38:57.999Z</time></trkpt><trkpt lat="42.41993723725529" lon="14.110296313581829"><ele>79.0</ele><time>2026-05-03T10:38:58.999Z</time></trkpt><trkpt lat="42.41989637418835" lon="14.110217317544205"><ele>79.0</ele><time>2026-05-03T10:38:59.999Z</time></trkpt><trkpt lat="42.41986091751531" lon="14.110132387822748"><ele>79.00000000000001</ele><time>2026-05-03T10:39:01Z</time></trkpt><trkpt lat="42.41982457320982" lon="14.110044930320395"><ele>79.0</ele><time>2026-05-03T10:39:02Z</time></trkpt><trkpt lat="42.419786754608026" lon="14.109953923280376"><ele>79.6</ele><time>2026-05-03T10:39:03Z</time></trkpt><trkpt lat="42.419752370955536" lon="14.109873571545807"><ele>80.2</ele><time>2026-05-03T10:39:04Z</time></trkpt><trkpt lat="42.419707786830735" lon="14.109813316012477"><ele>80.8</ele><time>2026-05-03T10:39:05Z</time></trkpt><trkpt lat="42.419652714759465" lon="14.10969463820422"><ele>81.39999999999999</ele><time>2026-05-03T10:39:07Z</time></trkpt><trkpt lat="42.41952886288667" lon="14.109666765641245"><ele>82.0</ele><time>2026-05-03T10:39:09Z</time></trkpt><trkpt lat="42.41940119882538" lon="14.109696259886615"><ele>83.16666666666666</ele><time>2026-05-03T10:39:11Z</time></trkpt><trkpt lat="42.41933447142389" lon="14.10971564901059"><ele>84.33333333333333</ele><time>2026-05-03T10:39:12Z</time></trkpt><trkpt lat="42.419259756180885" lon="14.109737359140391"><ele>85.5</ele><time>2026-05-03T10:39:13Z</time></trkpt><trkpt lat="42.41918229891173" lon="14.109755544047996"><ele>86.66666666666667</ele><time>2026-05-03T10:39:14Z</time></trkpt><trkpt lat="42.419103432289226" lon="14.109760385249343"><ele>87.83333333333334</ele><time>2026-05-03T10:39:15Z</time></trkpt><trkpt lat="42.4190204809939" lon="14.109761383245472"><ele>89.0</ele><time>2026-05-03T10:39:16Z</time></trkpt><trkpt lat="42.418939080539" lon="14.109755877557468"><ele>89.0</ele><time>2026-05-03T10:39:17Z</time></trkpt><trkpt lat="42.418854561975955" lon="14.109746382692277"><ele>89.0</ele><time>2026-05-03T10:39:18Z</time></trkpt><trkpt lat="42.41877623646569" lon="14.10973741479692"><ele>89.0</ele><time>2026-05-03T10:39:19Z</time></trkpt><trkpt lat="42.41869323655547" lon="14.109726986060615"><ele>89.0</ele><time>2026-05-03T10:39:20Z</time></trkpt><trkpt lat="42.418610991946935" lon="14.109713761111479"><ele>89.0</ele><time>2026-05-03T10:39:21Z</time></trkpt><trkpt lat="42.41853324282927" lon="14.109713126192839"><ele>89.0</ele><time>2026-05-03T10:39:22Z</time></trkpt><trkpt lat="42.41846152124708" lon="14.10970011302021"><ele>91.66666666666667</ele><time>2026-05-03T10:39:23Z</time></trkpt><trkpt lat="42.41839001113196" lon="14.109673986190211"><ele>94.33333333333334</ele><time>2026-05-03T10:39:24Z</time></trkpt><trkpt lat="42.41831884929374" lon="14.109652628580701"><ele>97.0</ele><time>2026-05-03T10:39:25Z</time></trkpt><trkpt lat="42.418241434186" lon="14.109632743461477"><ele>99.66666666666667</ele><time>2026-05-03T10:39:26Z</time></trkpt><trkpt lat="42.41816586056215" lon="14.109612323746187"><ele>102.33333333333333</ele><time>2026-05-03T10:39:27Z</time></trkpt><trkpt lat="42.41809630398666" lon="14.109564712087586"><ele>105.0</ele><time>2026-05-03T10:39:28Z</time></trkpt><trkpt lat="42.41802191892305" lon="14.109533320095856"><ele>105.28571428571429</ele><time>2026-05-03T10:39:29Z</time></trkpt><trkpt lat="42.417952229865" lon="14.109497931724784"><ele>105.57142857142857</ele><time>2026-05-03T10:39:30Z</time></trkpt><trkpt lat="42.417888436476524" lon="14.109462372484707"><ele>105.85714285714286</ele><time>2026-05-03T10:39:31Z</time></trkpt><trkpt lat="42.41781433524658" lon="14.10942033053273"><ele>106.14285714285714</ele><time>2026-05-03T10:39:32Z</time></trkpt><trkpt lat="42.41774813340423" lon="14.109388565772552"><ele>106.42857142857143</ele><time>2026-05-03T10:39:33Z</time></trkpt><trkpt lat="42.41766837998627" lon="14.109359119540372"><ele>106.71428571428572</ele><time>2026-05-03T10:39:34Z</time></trkpt><trkpt lat="42.417603095419786" lon="14.10933510599686"><ele>107.0</ele><time>2026-05-03T10:39:35Z</time></trkpt><trkpt lat="42.417496573126506" lon="14.10931079616106"><ele>106.99999999999999</ele><time>2026-05-03T10:39:37Z</time></trkpt><trkpt lat="42.41740401947454" lon="14.109309176168948"><ele>107.0</ele><time>2026-05-03T10:39:39Z</time></trkpt><trkpt lat="42.41734040525175" lon="14.109346952030588"><ele>107.0</ele><time>2026-05-03T10:39:40Z</time></trkpt><trkpt lat="42.417284372950945" lon="14.109399880708956"><ele>107.0</ele><time>2026-05-03T10:39:41Z</time></trkpt><trkpt lat="42.41722636462608" lon="14.109458434291328"><ele>106.99999999999999</ele><time>2026-05-03T10:39:42Z</time></trkpt><trkpt lat="42.41716918184013" lon="14.109525084642783"><ele>107.0</ele><time>2026-05-03T10:39:43Z</time></trkpt><trkpt lat="42.41710685364841" lon="14.109601935038507"><ele>107.49999999999999</ele><time>2026-05-03T10:39:44Z</time></trkpt><trkpt lat="42.41704984133524" lon="14.109671013360927"><ele>108.0</ele><time>2026-05-03T10:39:45Z</time></trkpt><trkpt lat="42.41698763152308" lon="14.10974419410557"><ele>108.5</ele><time>2026-05-03T10:39:46Z</time></trkpt><trkpt lat="42.41692507401068" lon="14.10981778394815"><ele>109.0</ele><time>2026-05-03T10:39:47Z</time></trkpt><trkpt lat="42.416861886858314" lon="14.10989191116508"><ele>109.49999999999999</ele><time>2026-05-03T10:39:48Z</time></trkpt><trkpt lat="42.416795656805846" lon="14.109967669510752"><ele>110.0</ele><time>2026-05-03T10:39:49Z</time></trkpt><trkpt lat="42.41673079360196" lon="14.110041864378644"><ele>109.99999999999999</ele><time>2026-05-03T10:39:50Z</time></trkpt><trkpt lat="42.4166676198568" lon="14.11011412664359"><ele>110.0</ele><time>2026-05-03T10:39:51Z</time></trkpt><trkpt lat="42.41660320756335" lon="14.110186916131957"><ele>110.0</ele><time>2026-05-03T10:39:52Z</time></trkpt><trkpt lat="42.4165338439774" lon="14.110265337238484"><ele>110.0</ele><time>2026-05-03T10:39:53Z</time></trkpt><trkpt lat="42.41646644246769" lon="14.110340707827644"><ele>109.99999999999999</ele><time>2026-05-03T10:39:54Z</time></trkpt><trkpt lat="42.416391352342586" lon="14.11042306871532"><ele>110.0</ele><time>2026-05-03T10:39:55Z</time></trkpt><trkpt lat="42.416314939381294" lon="14.11050411123824"><ele>110.2</ele><time>2026-05-03T10:39:56Z</time></trkpt><trkpt lat="42.416239505643574" lon="14.110583158249955"><ele>110.4</ele><time>2026-05-03T10:39:57Z</time></trkpt><trkpt lat="42.41616219170446" lon="14.110660016226518"><ele>110.6</ele><time>2026-05-03T10:39:58Z</time></trkpt><trkpt lat="42.41608198635202" lon="14.110733499839005"><ele>110.8</ele><time>2026-05-03T10:39:59Z</time></trkpt><trkpt lat="42.415997874240446" lon="14.11079852466563"><ele>111.0</ele><time>2026-05-03T10:40:00Z</time></trkpt><trkpt lat="42.41590856050333" lon="14.110865602632432"><ele>111.0</ele><time>2026-05-03T10:40:01Z</time></trkpt><trkpt lat="42.41581803871347" lon="14.110937951567193"><ele>111.0</ele><time>2026-05-03T10:40:02Z</time></trkpt><trkpt lat="42.41572541013578" lon="14.111014250238597"><ele>111.0</ele><time>2026-05-03T10:40:03Z</time></trkpt><trkpt lat="42.41563472111038" lon="14.111094090430536"><ele>111.0</ele><time>2026-05-03T10:40:04Z</time></trkpt><trkpt lat="42.415540382409816" lon="14.111178183635511"><ele>111.0</ele><time>2026-05-03T10:40:05Z</time></trkpt><trkpt lat="42.41544396103357" lon="14.111266443398465"><ele>112.75</ele><time>2026-05-03T10:40:06Z</time></trkpt><trkpt lat="42.415345992740626" lon="14.111357964172274"><ele>114.5</ele><time>2026-05-03T10:40:07Z</time></trkpt><trkpt lat="42.415250020453044" lon="14.111449165688164"><ele>116.25</ele><time>2026-05-03T10:40:08Z</time></trkpt><trkpt lat="42.41515084678127" lon="14.111542931099558"><ele>118.0</ele><time>2026-05-03T10:40:09Z</time></trkpt><trkpt lat="42.415042989172946" lon="14.111643218233171"><ele>120.66666666666667</ele><time>2026-05-03T10:40:10Z</time></trkpt><trkpt lat="42.414926832901706" lon="14.111749966679298"><ele>123.33333333333334</ele><time>2026-05-03T10:40:11Z</time></trkpt><trkpt lat="42.41479955450706" lon="14.111861310111077"><ele>126.0</ele><time>2026-05-03T10:40:12Z</time></trkpt><trkpt lat="42.4146514646905" lon="14.111987840064623"><ele>127.75</ele><time>2026-05-03T10:40:13Z</time></trkpt><trkpt lat="42.4145091061994" lon="14.112133271305698"><ele>129.5</ele><time>2026-05-03T10:40:14Z</time></trkpt><trkpt lat="42.41438433518457" lon="14.112233898240328"><ele>131.25</ele><time>2026-05-03T10:40:15Z</time></trkpt><trkpt lat="42.41428259805367" lon="14.11229992757165"><ele>133.0</ele><time>2026-05-03T10:40:16Z</time></trkpt><trkpt lat="42.41420035871369" lon="14.11236920874548"><ele>132.57142857142858</ele><time>2026-05-03T10:40:17Z</time></trkpt><trkpt lat="42.41413579259365" lon="14.11242360140426"><ele>132.14285714285714</ele><time>2026-05-03T10:40:18Z</time></trkpt><trkpt lat="42.4140774518109" lon="14.112472414162852"><ele>131.71428571428572</ele><time>2026-05-03T10:40:19Z</time></trkpt><trkpt lat="42.41401727929517" lon="14.112522053868084"><ele>131.28571428571428</ele><time>2026-05-03T10:40:20Z</time></trkpt><trkpt lat="42.41395234665438" lon="14.112575620469709"><ele>130.85714285714286</ele><time>2026-05-03T10:40:21Z</time></trkpt><trkpt lat="42.413884228816336" lon="14.112631814759952"><ele>130.42857142857144</ele><time>2026-05-03T10:40:22Z</time></trkpt><trkpt lat="42.41382545613629" lon="14.112679691840462"><ele>130.0</ele><time>2026-05-03T10:40:23Z</time></trkpt><trkpt lat="42.41371976690439" lon="14.112757405902503"><ele>129.6</ele><time>2026-05-03T10:40:25Z</time></trkpt><trkpt lat="42.41364815968191" lon="14.112796249338263"><ele>129.2</ele><time>2026-05-03T10:40:27Z</time></trkpt><trkpt lat="42.413577479216606" lon="14.112819483846456"><ele>128.8</ele><time>2026-05-03T10:40:31Z</time></trkpt><trkpt lat="42.41347497340267" lon="14.112859231767747"><ele>128.4</ele><time>2026-05-03T10:40:33Z</time></trkpt><trkpt lat="42.413372684072996" lon="14.112865371717136"><ele>128.0</ele><time>2026-05-03T10:40:35Z</time></trkpt><trkpt lat="42.413255852644674" lon="14.112841061183818"><ele>127.99999999999999</ele><time>2026-05-03T10:40:37Z</time></trkpt><trkpt lat="42.41318835289697" lon="14.112835722093077"><ele>128.0</ele><time>2026-05-03T10:40:38Z</time></trkpt><trkpt lat="42.41311761389705" lon="14.112834701437961"><ele>128.0</ele><time>2026-05-03T10:40:39Z</time></trkpt><trkpt lat="42.41304359523031" lon="14.11283548866536"><ele>128.0</ele><time>2026-05-03T10:40:40Z</time></trkpt><trkpt lat="42.412959761393054" lon="14.11283888819962"><ele>127.99999999999999</ele><time>2026-05-03T10:40:41Z</time></trkpt><trkpt lat="42.41287361513931" lon="14.11284457594201"><ele>128.0</ele><time>2026-05-03T10:40:42Z</time></trkpt><trkpt lat="42.41278765508547" lon="14.112867058415922"><ele>128.4</ele><time>2026-05-03T10:40:43Z</time></trkpt><trkpt lat="42.41269378956585" lon="14.112872321694597"><ele>128.8</ele><time>2026-05-03T10:40:44Z</time></trkpt><trkpt lat="42.41259565246489" lon="14.112885832682563"><ele>129.2</ele><time>2026-05-03T10:40:45Z</time></trkpt><trkpt lat="42.41249630671482" lon="14.11287404956348"><ele>129.6</ele><time>2026-05-03T10:40:46Z</time></trkpt><trkpt lat="42.41240076978595" lon="14.112881700757777"><ele>130.0</ele><time>2026-05-03T10:40:47Z</time></trkpt><trkpt lat="42.412304961688605" lon="14.112889373669521"><ele>130.00000000000003</ele><time>2026-05-03T10:40:48Z</time></trkpt><trkpt lat="42.412216037248434" lon="14.112896495293862"><ele>130.0</ele><time>2026-05-03T10:40:49Z</time></trkpt><trkpt lat="42.41213543336566" lon="14.11290074607178"><ele>130.0</ele><time>2026-05-03T10:40:50Z</time></trkpt><trkpt lat="42.41207051716097" lon="14.11291245523045"><ele>130.0</ele><time>2026-05-03T10:40:51Z</time></trkpt><trkpt lat="42.4120054232257" lon="14.11291769866973"><ele>130.0</ele><time>2026-05-03T10:40:52Z</time></trkpt><trkpt lat="42.41194043194037" lon="14.11292095210922"><ele>130.00000000000003</ele><time>2026-05-03T10:40:53Z</time></trkpt><trkpt lat="42.411870488716076" lon="14.112928155789506"><ele>130.0</ele><time>2026-05-03T10:40:54Z</time></trkpt><trkpt lat="42.41180266068297" lon="14.112926477098055"><ele>130.16666666666669</ele><time>2026-05-03T10:40:55Z</time></trkpt><trkpt lat="42.411729231429476" lon="14.112928656723742"><ele>130.33333333333334</ele><time>2026-05-03T10:40:56Z</time></trkpt><trkpt lat="42.41165490842582" lon="14.112928329892235"><ele>130.5</ele><time>2026-05-03T10:40:57Z</time></trkpt><trkpt lat="42.41156941842139" lon="14.112928635953002"><ele>130.66666666666666</ele><time>2026-05-03T10:40:58Z</time></trkpt><trkpt lat="42.411481501335146" lon="14.112930948911288"><ele>130.83333333333331</ele><time>2026-05-03T10:40:59Z</time></trkpt><trkpt lat="42.41137964830799" lon="14.112907307120894"><ele>131.0</ele><time>2026-05-03T10:41:00Z</time></trkpt><trkpt lat="42.41128259863329" lon="14.11290540069183"><ele>129.2</ele><time>2026-05-03T10:41:01Z</time></trkpt><trkpt lat="42.411181951174385" lon="14.112903423586468"><ele>127.39999999999999</ele><time>2026-05-03T10:41:02Z</time></trkpt><trkpt lat="42.41107682994468" lon="14.112901358600794"><ele>125.6</ele><time>2026-05-03T10:41:03Z</time></trkpt><trkpt lat="42.41096195695514" lon="14.112899102052799"><ele>123.8</ele><time>2026-05-03T10:41:04Z</time></trkpt><trkpt lat="42.41084438837557" lon="14.112898377464992"><ele>122.0</ele><time>2026-05-03T10:41:05Z</time></trkpt><trkpt lat="42.410721523862634" lon="14.112898170670867"><ele>122.0</ele><time>2026-05-03T10:41:06Z</time></trkpt><trkpt lat="42.41059772561265" lon="14.112897962304"><ele>122.0</ele><time>2026-05-03T10:41:07Z</time></trkpt><trkpt lat="42.41048058897557" lon="14.112897765150752"><ele>122.0</ele><time>2026-05-03T10:41:08Z</time></trkpt><trkpt lat="42.41036382975169" lon="14.112897568631068"><ele>122.0</ele><time>2026-05-03T10:41:09Z</time></trkpt><trkpt lat="42.410251972552146" lon="14.112897380363822"><ele>120.8</ele><time>2026-05-03T10:41:10Z</time></trkpt><trkpt lat="42.41014361090389" lon="14.112897197980878"><ele>119.6</ele><time>2026-05-03T10:41:11Z</time></trkpt><trkpt lat="42.4100470401111" lon="14.11289634242536"><ele>118.39999999999999</ele><time>2026-05-03T10:41:12Z</time></trkpt><trkpt lat="42.40995444670478" lon="14.112892324624566"><ele>117.19999999999999</ele><time>2026-05-03T10:41:13Z</time></trkpt><trkpt lat="42.40986318165708" lon="14.112884481635765"><ele>116.0</ele><time>2026-05-03T10:41:14Z</time></trkpt><trkpt lat="42.409768227832956" lon="14.112871604894531"><ele>116.0</ele><time>2026-05-03T10:41:15Z</time></trkpt><trkpt lat="42.4096719941006" lon="14.112854802617981"><ele>116.0</ele><time>2026-05-03T10:41:16Z</time></trkpt><trkpt lat="42.40957058517131" lon="14.112835080267889"><ele>116.0</ele><time>2026-05-03T10:41:17Z</time></trkpt><trkpt lat="42.409468153274325" lon="14.112815601525277"><ele>116.0</ele><time>2026-05-03T10:41:18Z</time></trkpt><trkpt lat="42.409362772227794" lon="14.112798067088926"><ele>116.0</ele><time>2026-05-03T10:41:19Z</time></trkpt><trkpt lat="42.409256378321665" lon="14.112781119076041"><ele>116.8</ele><time>2026-05-03T10:41:20Z</time></trkpt><trkpt lat="42.40914855991153" lon="14.112763943264762"><ele>117.6</ele><time>2026-05-03T10:41:21Z</time></trkpt><trkpt lat="42.40903909229554" lon="14.11274650472231"><ele>118.4</ele><time>2026-05-03T10:41:22Z</time></trkpt><trkpt lat="42.408933611726866" lon="14.112729701251656"><ele>119.2</ele><time>2026-05-03T10:41:23Z</time></trkpt><trkpt lat="42.408829213902195" lon="14.112717395081468"><ele>120.0</ele><time>2026-05-03T10:41:24Z</time></trkpt><trkpt lat="42.408724277636416" lon="14.112724947130225"><ele>121.0</ele><time>2026-05-03T10:41:25Z</time></trkpt><trkpt lat="42.408622545924814" lon="14.112685043030895"><ele>122.0</ele><time>2026-05-03T10:41:26Z</time></trkpt><trkpt lat="42.40852990035834" lon="14.112661655755817"><ele>123.0</ele><time>2026-05-03T10:41:27Z</time></trkpt><trkpt lat="42.408444091353616" lon="14.112635036178071"><ele>124.0</ele><time>2026-05-03T10:41:28Z</time></trkpt><trkpt lat="42.40836368677249" lon="14.112611497646542"><ele>125.0</ele><time>2026-05-03T10:41:29Z</time></trkpt><trkpt lat="42.4082844299638" lon="14.112606738167708"><ele>125.0</ele><time>2026-05-03T10:41:30Z</time></trkpt><trkpt lat="42.408192996310646" lon="14.1125954319218"><ele>125.0</ele><time>2026-05-03T10:41:31Z</time></trkpt><trkpt lat="42.4080962206755" lon="14.11259504744553"><ele>125.0</ele><time>2026-05-03T10:41:32Z</time></trkpt><trkpt lat="42.40799784860332" lon="14.112570140642072"><ele>125.0</ele><time>2026-05-03T10:41:33Z</time></trkpt><trkpt lat="42.407894945386055" lon="14.112571026734045"><ele>125.0</ele><time>2026-05-03T10:41:34Z</time></trkpt><trkpt lat="42.40778932913938" lon="14.11259236460471"><ele>123.0</ele><time>2026-05-03T10:41:35Z</time></trkpt><trkpt lat="42.407681091776745" lon="14.11259056661084"><ele>121.0</ele><time>2026-05-03T10:41:36Z</time></trkpt><trkpt lat="42.40756855159233" lon="14.112596451570301"><ele>119.0</ele><time>2026-05-03T10:41:37Z</time></trkpt><trkpt lat="42.40745350990403" lon="14.112611812652462"><ele>117.0</ele><time>2026-05-03T10:41:38Z</time></trkpt><trkpt lat="42.40734095291379" lon="14.112630396949152"><ele>117.0</ele><time>2026-05-03T10:41:39Z</time></trkpt><trkpt lat="42.407233195002796" lon="14.112638576233632"><ele>116.99999999999999</ele><time>2026-05-03T10:41:40Z</time></trkpt><trkpt lat="42.4071293812899" lon="14.112621456175887"><ele>116.99999999999999</ele><time>2026-05-03T10:41:41Z</time></trkpt><trkpt lat="42.40702241791982" lon="14.112624271003464"><ele>117.0</ele><time>2026-05-03T10:41:42Z</time></trkpt><trkpt lat="42.40692158718751" lon="14.112626924443077"><ele>117.0</ele><time>2026-05-03T10:41:43Z</time></trkpt><trkpt lat="42.40682096697707" lon="14.112631758294576"><ele>117.33333333333333</ele><time>2026-05-03T10:41:44Z</time></trkpt><trkpt lat="42.406720918189315" lon="14.112638899155355"><ele>117.66666666666666</ele><time>2026-05-03T10:41:45Z</time></trkpt><trkpt lat="42.40662661851463" lon="14.112655722355882"><ele>118.0</ele><time>2026-05-03T10:41:46Z</time></trkpt><trkpt lat="42.40654533090259" lon="14.112718521835847"><ele>118.33333333333333</ele><time>2026-05-03T10:41:47Z</time></trkpt><trkpt lat="42.40647728927407" lon="14.11276894851935"><ele>118.66666666666666</ele><time>2026-05-03T10:41:48Z</time></trkpt><trkpt lat="42.406407350170845" lon="14.112819095444582"><ele>119.0</ele><time>2026-05-03T10:41:49Z</time></trkpt><trkpt lat="42.40637691730403" lon="14.112953377566186"><ele>119.0</ele><time>2026-05-03T10:41:50Z</time></trkpt><trkpt lat="42.40634191088294" lon="14.113086089360456"><ele>119.0</ele><time>2026-05-03T10:41:51Z</time></trkpt><trkpt lat="42.40631500037803" lon="14.113233000922307"><ele>119.0</ele><time>2026-05-03T10:41:52Z</time></trkpt><trkpt lat="42.40628528547969" lon="14.113391048998109"><ele>119.0</ele><time>2026-05-03T10:41:53Z</time></trkpt><trkpt lat="42.40625311646884" lon="14.113550401341053"><ele>116.75</ele><time>2026-05-03T10:41:54Z</time></trkpt><trkpt lat="42.40622039447984" lon="14.113704750769596"><ele>114.5</ele><time>2026-05-03T10:41:55Z</time></trkpt><trkpt lat="42.406190135227305" lon="14.113856577979295"><ele>112.25</ele><time>2026-05-03T10:41:56Z</time></trkpt><trkpt lat="42.406158591904166" lon="14.114002433794573"><ele>110.0</ele><time>2026-05-03T10:41:57Z</time></trkpt><trkpt lat="42.40612788493562" lon="14.114143988067493"><ele>109.6</ele><time>2026-05-03T10:41:58Z</time></trkpt><trkpt lat="42.40610094788741" lon="14.114281319281782"><ele>109.2</ele><time>2026-05-03T10:41:59Z</time></trkpt><trkpt lat="42.406056524378826" lon="14.114404717471288"><ele>108.80000000000001</ele><time>2026-05-03T10:42:00Z</time></trkpt><trkpt lat="42.40604446826738" lon="14.114535124954292"><ele>108.4</ele><time>2026-05-03T10:42:01Z</time></trkpt><trkpt lat="42.40601233531654" lon="14.114655323839381"><ele>108.0</ele><time>2026-05-03T10:42:02Z</time></trkpt><trkpt lat="42.40597844385801" lon="14.114779939546152"><ele>108.2</ele><time>2026-05-03T10:42:03Z</time></trkpt><trkpt lat="42.405949725318145" lon="14.114908197160196"><ele>108.4</ele><time>2026-05-03T10:42:04Z</time></trkpt><trkpt lat="42.405922685966736" lon="14.115031995956556"><ele>108.60000000000001</ele><time>2026-05-03T10:42:05Z</time></trkpt><trkpt lat="42.40589249409693" lon="14.115146195839374"><ele>108.80000000000001</ele><time>2026-05-03T10:42:06Z</time></trkpt><trkpt lat="42.40583972159991" lon="14.115248010251067"><ele>109.0</ele><time>2026-05-03T10:42:07Z</time></trkpt><trkpt lat="42.4057890651673" lon="14.115337533767939"><ele>109.00000000000001</ele><time>2026-05-03T10:42:08Z</time></trkpt><trkpt lat="42.405732349911204" lon="14.115399901899567"><ele>109.0</ele><time>2026-05-03T10:42:09Z</time></trkpt><trkpt lat="42.405665799230576" lon="14.115439977205197"><ele>109.0</ele><time>2026-05-03T10:42:10Z</time></trkpt><trkpt lat="42.405591489651414" lon="14.115453340448436"><ele>109.0</ele><time>2026-05-03T10:42:11Z</time></trkpt><trkpt lat="42.405511032118056" lon="14.115464788625165"><ele>109.00000000000001</ele><time>2026-05-03T10:42:12Z</time></trkpt><trkpt lat="42.4054275920455" lon="14.115495676076815"><ele>109.0</ele><time>2026-05-03T10:42:13Z</time></trkpt><trkpt lat="42.405339348817066" lon="14.11546170455394"><ele>107.83333333333334</ele><time>2026-05-03T10:42:14Z</time></trkpt><trkpt lat="42.40524639293717" lon="14.11545768409843"><ele>106.66666666666667</ele><time>2026-05-03T10:42:15Z</time></trkpt><trkpt lat="42.40516300630587" lon="14.115451156319311"><ele>105.5</ele><time>2026-05-03T10:42:16Z</time></trkpt><trkpt lat="42.405083215888155" lon="14.115439540183655"><ele>104.33333333333334</ele><time>2026-05-03T10:42:17Z</time></trkpt><trkpt lat="42.405008279248705" lon="14.115426439297213"><ele>103.16666666666667</ele><time>2026-05-03T10:42:18Z</time></trkpt><trkpt lat="42.40493668921014" lon="14.115403485530615"><ele>102.0</ele><time>2026-05-03T10:42:19Z</time></trkpt><trkpt lat="42.40486599469101" lon="14.115371116509074"><ele>102.0</ele><time>2026-05-03T10:42:20Z</time></trkpt><trkpt lat="42.40479174927429" lon="14.11532348586946"><ele>102.0</ele><time>2026-05-03T10:42:21Z</time></trkpt><trkpt lat="42.40471519683211" lon="14.115266696744179"><ele>102.0</ele><time>2026-05-03T10:42:22Z</time></trkpt><trkpt lat="42.404634654803885" lon="14.115204118627716"><ele>102.0</ele><time>2026-05-03T10:42:23Z</time></trkpt><trkpt lat="42.40455415192112" lon="14.11513900806822"><ele>102.0</ele><time>2026-05-03T10:42:24Z</time></trkpt><trkpt lat="42.40447155737566" lon="14.115071637832825"><ele>101.19999999999999</ele><time>2026-05-03T10:42:25Z</time></trkpt><trkpt lat="42.40438666313529" lon="14.114998850524206"><ele>100.4</ele><time>2026-05-03T10:42:26Z</time></trkpt><trkpt lat="42.404298255393655" lon="14.11491898997387"><ele>99.6</ele><time>2026-05-03T10:42:27Z</time></trkpt><trkpt lat="42.40421096490249" lon="14.114838625893604"><ele>98.80000000000001</ele><time>2026-05-03T10:42:28Z</time></trkpt><trkpt lat="42.40412153654356" lon="14.114754412614902"><ele>98.0</ele><time>2026-05-03T10:42:29Z</time></trkpt><trkpt lat="42.4040293524853" lon="14.114669567448601"><ele>98.0</ele><time>2026-05-03T10:42:30Z</time></trkpt><trkpt lat="42.40393636797208" lon="14.114582318768882"><ele>98.0</ele><time>2026-05-03T10:42:31Z</time></trkpt><trkpt lat="42.40384727694613" lon="14.114483588680967"><ele>98.0</ele><time>2026-05-03T10:42:32Z</time></trkpt><trkpt lat="42.40376016837867" lon="14.11436820261991"><ele>98.0</ele><time>2026-05-03T10:42:33Z</time></trkpt><trkpt lat="42.403682340860954" lon="14.114242163792785"><ele>98.0</ele><time>2026-05-03T10:42:34Z</time></trkpt><trkpt lat="42.40361905126848" lon="14.114113079357589"><ele>98.0</ele><time>2026-05-03T10:42:35Z</time></trkpt><trkpt lat="42.403551488476154" lon="14.113997271002296"><ele>98.0</ele><time>2026-05-03T10:42:36Z</time></trkpt><trkpt lat="42.403501534832955" lon="14.113871987318694"><ele>98.0</ele><time>2026-05-03T10:42:37Z</time></trkpt><trkpt lat="42.40343963073829" lon="14.113745336033421"><ele>98.0</ele><time>2026-05-03T10:42:38Z</time></trkpt><trkpt lat="42.403364465264794" lon="14.113621341138664"><ele>97.0</ele><time>2026-05-03T10:42:39Z</time></trkpt><trkpt lat="42.40326816048865" lon="14.113495929381337"><ele>96.0</ele><time>2026-05-03T10:42:40Z</time></trkpt><trkpt lat="42.40317008243906" lon="14.113373616653238"><ele>95.0</ele><time>2026-05-03T10:42:41Z</time></trkpt><trkpt lat="42.403104484597186" lon="14.113274339313772"><ele>94.0</ele><time>2026-05-03T10:42:42Z</time></trkpt><trkpt lat="42.40304276353433" lon="14.113207272268147"><ele>93.0</ele><time>2026-05-03T10:42:43Z</time></trkpt><trkpt lat="42.40297431657048" lon="14.11312368892075"><ele>91.60000000000001</ele><time>2026-05-03T10:42:44Z</time></trkpt><trkpt lat="42.4028894950511" lon="14.113037499686774"><ele>90.2</ele><time>2026-05-03T10:42:45Z</time></trkpt><trkpt lat="42.40281949226024" lon="14.112932094403499"><ele>88.8</ele><time>2026-05-03T10:42:46Z</time></trkpt><trkpt lat="42.402741126485594" lon="14.112838744292663"><ele>87.4</ele><time>2026-05-03T10:42:47Z</time></trkpt><trkpt lat="42.4026618720377" lon="14.112744331392213"><ele>86.0</ele><time>2026-05-03T10:42:48Z</time></trkpt><trkpt lat="42.402575054010036" lon="14.112667893707112"><ele>86.0</ele><time>2026-05-03T10:42:49Z</time></trkpt><trkpt lat="42.40248858160456" lon="14.11257300838179"><ele>86.0</ele><time>2026-05-03T10:42:50Z</time></trkpt><trkpt lat="42.40239820902574" lon="14.11248693929084"><ele>86.0</ele><time>2026-05-03T10:42:51Z</time></trkpt><trkpt lat="42.40232020126242" lon="14.112382115827835"><ele>86.0</ele><time>2026-05-03T10:42:52Z</time></trkpt><trkpt lat="42.4022346629378" lon="14.11229370391647"><ele>86.0</ele><time>2026-05-03T10:42:53Z</time></trkpt><trkpt lat="42.40214956341837" lon="14.11220158068044"><ele>85.8</ele><time>2026-05-03T10:42:54Z</time></trkpt><trkpt lat="42.40206553534711" lon="14.112110617357779"><ele>85.6</ele><time>2026-05-03T10:42:55Z</time></trkpt><trkpt lat="42.40198427942574" lon="14.112022835915583"><ele>85.4</ele><time>2026-05-03T10:42:56Z</time></trkpt><trkpt lat="42.40190896527676" lon="14.111943720017802"><ele>85.2</ele><time>2026-05-03T10:42:57Z</time></trkpt><trkpt lat="42.40183563848279" lon="14.111866690602298"><ele>85.0</ele><time>2026-05-03T10:42:58Z</time></trkpt><trkpt lat="42.401762434342864" lon="14.11179066288114"><ele>85.0</ele><time>2026-05-03T10:42:59Z</time></trkpt><trkpt lat="42.40168930915504" lon="14.111718011711732"><ele>85.0</ele><time>2026-05-03T10:43:00Z</time></trkpt><trkpt lat="42.4016159821542" lon="14.11165049567459"><ele>85.0</ele><time>2026-05-03T10:43:01Z</time></trkpt><trkpt lat="42.401531435245566" lon="14.111610274856927"><ele>85.0</ele><time>2026-05-03T10:43:02Z</time></trkpt><trkpt lat="42.401462450933664" lon="14.111541123333085"><ele>85.0</ele><time>2026-05-03T10:43:03Z</time></trkpt><trkpt lat="42.4013900414842" lon="14.111490204555224"><ele>85.0</ele><time>2026-05-03T10:43:04Z</time></trkpt><trkpt lat="42.401313535240064" lon="14.111435630474638"><ele>83.0</ele><time>2026-05-03T10:43:05Z</time></trkpt><trkpt lat="42.401238926788984" lon="14.111376103491075"><ele>81.0</ele><time>2026-05-03T10:43:06.001Z</time></trkpt><trkpt lat="42.401163308780774" lon="14.111312206392926"><ele>79.0</ele><time>2026-05-03T10:43:07.001Z</time></trkpt><trkpt lat="42.4010897196797" lon="14.111256996462858"><ele>77.0</ele><time>2026-05-03T10:43:08.001Z</time></trkpt><trkpt lat="42.401011317309674" lon="14.111222835226526"><ele>75.0</ele><time>2026-05-03T10:43:09.001Z</time></trkpt><trkpt lat="42.40092275372245" lon="14.111243981198449"><ele>73.0</ele><time>2026-05-03T10:43:10.001Z</time></trkpt><trkpt lat="42.40083774697279" lon="14.111271983319197"><ele>73.0</ele><time>2026-05-03T10:43:11.001Z</time></trkpt><trkpt lat="42.40075391201143" lon="14.111328363934478"><ele>73.0</ele><time>2026-05-03T10:43:12.001Z</time></trkpt><trkpt lat="42.40067174472957" lon="14.111398831136164"><ele>73.0</ele><time>2026-05-03T10:43:13.001Z</time></trkpt><trkpt lat="42.400575242511856" lon="14.11146896359508"><ele>73.0</ele><time>2026-05-03T10:43:14.001Z</time></trkpt><trkpt lat="42.40048592923834" lon="14.111559519560338"><ele>73.0</ele><time>2026-05-03T10:43:15.001Z</time></trkpt><trkpt lat="42.40039466825844" lon="14.111658853204672"><ele>72.0</ele><time>2026-05-03T10:43:16.001Z</time></trkpt><trkpt lat="42.40030548514755" lon="14.111755772415638"><ele>71.0</ele><time>2026-05-03T10:43:17.001Z</time></trkpt><trkpt lat="42.4002335978843" lon="14.111844797251369"><ele>70.0</ele><time>2026-05-03T10:43:18.001Z</time></trkpt><trkpt lat="42.400158466186426" lon="14.111894029911943"><ele>69.0</ele><time>2026-05-03T10:43:19.001Z</time></trkpt><trkpt lat="42.40009151578222" lon="14.111945806854033"><ele>68.0</ele><time>2026-05-03T10:43:20.001Z</time></trkpt><trkpt lat="42.40002489449189" lon="14.111986427361522"><ele>67.0</ele><time>2026-05-03T10:43:21Z</time></trkpt><trkpt lat="42.399944726382984" lon="14.112015059234277"><ele>67.0</ele><time>2026-05-03T10:43:22Z</time></trkpt><trkpt lat="42.399850958711546" lon="14.112031641451985"><ele>67.0</ele><time>2026-05-03T10:43:23Z</time></trkpt><trkpt lat="42.39974367251497" lon="14.112051172961062"><ele>67.0</ele><time>2026-05-03T10:43:24Z</time></trkpt><trkpt lat="42.39963862468835" lon="14.112075998958282"><ele>67.0</ele><time>2026-05-03T10:43:25Z</time></trkpt><trkpt lat="42.39953042296995" lon="14.112117465463289"><ele>67.0</ele><time>2026-05-03T10:43:26Z</time></trkpt><trkpt lat="42.39942727680585" lon="14.112193241503029"><ele>66.8</ele><time>2026-05-03T10:43:27Z</time></trkpt><trkpt lat="42.399317549405424" lon="14.112253841422795"><ele>66.6</ele><time>2026-05-03T10:43:28Z</time></trkpt><trkpt lat="42.39920463543011" lon="14.11230147768657"><ele>66.39999999999999</ele><time>2026-05-03T10:43:29Z</time></trkpt><trkpt lat="42.39909967423247" lon="14.112352438925404"><ele>66.2</ele><time>2026-05-03T10:43:30Z</time></trkpt><trkpt lat="42.39900592973873" lon="14.112388340235592"><ele>66.0</ele><time>2026-05-03T10:43:31Z</time></trkpt><trkpt lat="42.39892831481111" lon="14.112411096710645"><ele>66.0</ele><time>2026-05-03T10:43:32Z</time></trkpt><trkpt lat="42.39885618878081" lon="14.112421275334984"><ele>66.0</ele><time>2026-05-03T10:43:33Z</time></trkpt><trkpt lat="42.39878186403096" lon="14.11239893671186"><ele>66.0</ele><time>2026-05-03T10:43:34Z</time></trkpt><trkpt lat="42.398691428010004" lon="14.112364973389708"><ele>66.0</ele><time>2026-05-03T10:43:35Z</time></trkpt><trkpt lat="42.398583101446214" lon="14.112357128423978"><ele>66.0</ele><time>2026-05-03T10:43:36Z</time></trkpt><trkpt lat="42.39845697348287" lon="14.112316808954272"><ele>66.33333333333333</ele><time>2026-05-03T10:43:37Z</time></trkpt><trkpt lat="42.398312736870906" lon="14.112262446121186"><ele>66.66666666666666</ele><time>2026-05-03T10:43:38Z</time></trkpt><trkpt lat="42.398151945766976" lon="14.112247673861004"><ele>67.0</ele><time>2026-05-03T10:43:39Z</time></trkpt><trkpt lat="42.397987092731306" lon="14.112216436702427"><ele>69.0</ele><time>2026-05-03T10:43:40Z</time></trkpt><trkpt lat="42.397831277042464" lon="14.112247644658854"><ele>71.0</ele><time>2026-05-03T10:43:41Z</time></trkpt><trkpt lat="42.39768897682132" lon="14.112284721718044"><ele>73.0</ele><time>2026-05-03T10:43:42Z</time></trkpt><trkpt lat="42.39756199453382" lon="14.112346883431858"><ele>75.0</ele><time>2026-05-03T10:43:43Z</time></trkpt><trkpt lat="42.39743255022145" lon="14.112406943064775"><ele>75.0</ele><time>2026-05-03T10:43:44Z</time></trkpt><trkpt lat="42.39730332597509" lon="14.112488126927296"><ele>75.0</ele><time>2026-05-03T10:43:45Z</time></trkpt><trkpt lat="42.397179538490334" lon="14.112565940497362"><ele>75.0</ele><time>2026-05-03T10:43:46Z</time></trkpt><trkpt lat="42.39706255829476" lon="14.112644111831662"><ele>75.0</ele><time>2026-05-03T10:43:47Z</time></trkpt><trkpt lat="42.39696017341426" lon="14.1127307791185"><ele>78.8</ele><time>2026-05-03T10:43:48Z</time></trkpt><trkpt lat="42.39685498762401" lon="14.112806683058608"><ele>82.6</ele><time>2026-05-03T10:43:49Z</time></trkpt><trkpt lat="42.39674533620997" lon="14.112854205413436"><ele>86.4</ele><time>2026-05-03T10:43:50Z</time></trkpt><trkpt lat="42.396643344429066" lon="14.11291599006551"><ele>90.2</ele><time>2026-05-03T10:43:51Z</time></trkpt><trkpt lat="42.39656525329956" lon="14.112960944178402"><ele>94.0</ele><time>2026-05-03T10:43:52Z</time></trkpt><trkpt lat="42.39649638210758" lon="14.11301747128355"><ele>94.0</ele><time>2026-05-03T10:43:53Z</time></trkpt><trkpt lat="42.39641616383223" lon="14.113040009392027"><ele>94.0</ele><time>2026-05-03T10:43:55Z</time></trkpt><trkpt lat="42.39635848213207" lon="14.112991545923027"><ele>94.0</ele><time>2026-05-03T10:43:59Z</time></trkpt><trkpt lat="42.39634739874286" lon="14.112806984666733"><ele>94.0</ele><time>2026-05-03T10:44:01Z</time></trkpt><trkpt lat="42.39632046937152" lon="14.112713404012647"><ele>94.0</ele><time>2026-05-03T10:44:02Z</time></trkpt><trkpt lat="42.396304802400564" lon="14.112612606095562"><ele>94.0</ele><time>2026-05-03T10:44:03Z</time></trkpt><trkpt lat="42.39629940666449" lon="14.112496564051554"><ele>94.2</ele><time>2026-05-03T10:44:04Z</time></trkpt><trkpt lat="42.396306316399475" lon="14.112369191454402"><ele>94.4</ele><time>2026-05-03T10:44:05Z</time></trkpt><trkpt lat="42.396344053851536" lon="14.112251920375094"><ele>94.6</ele><time>2026-05-03T10:44:06Z</time></trkpt><trkpt lat="42.396386049454435" lon="14.112136810940068"><ele>94.8</ele><time>2026-05-03T10:44:07Z</time></trkpt><trkpt lat="42.39644031136677" lon="14.112018227226658"><ele>95.0</ele><time>2026-05-03T10:44:08Z</time></trkpt><trkpt lat="42.396494723548564" lon="14.111890702614666"><ele>95.0</ele><time>2026-05-03T10:44:09Z</time></trkpt><trkpt lat="42.39654276058553" lon="14.111752867870317"><ele>95.0</ele><time>2026-05-03T10:44:10Z</time></trkpt><trkpt lat="42.39658897036917" lon="14.111600486655647"><ele>95.0</ele><time>2026-05-03T10:44:11Z</time></trkpt><trkpt lat="42.396632196139095" lon="14.111432686725893"><ele>95.0</ele><time>2026-05-03T10:44:12Z</time></trkpt><trkpt lat="42.3966653631504" lon="14.111255871807073"><ele>94.25</ele><time>2026-05-03T10:44:13Z</time></trkpt><trkpt lat="42.39668012573929" lon="14.111072109439803"><ele>93.5</ele><time>2026-05-03T10:44:14Z</time></trkpt><trkpt lat="42.396683451003334" lon="14.110893391743387"><ele>92.75</ele><time>2026-05-03T10:44:15Z</time></trkpt><trkpt lat="42.39668251564943" lon="14.110722170833592"><ele>92.0</ele><time>2026-05-03T10:44:16Z</time></trkpt><trkpt lat="42.396675976681685" lon="14.110552904332774"><ele>93.16666666666667</ele><time>2026-05-03T10:44:17Z</time></trkpt><trkpt lat="42.39666478294109" lon="14.110417559895996"><ele>94.33333333333334</ele><time>2026-05-03T10:44:18Z</time></trkpt><trkpt lat="42.3966581872845" lon="14.110297567741064"><ele>95.5</ele><time>2026-05-03T10:44:19Z</time></trkpt><trkpt lat="42.39667053585899" lon="14.110209853854489"><ele>96.66666666666667</ele><time>2026-05-03T10:44:20Z</time></trkpt><trkpt lat="42.39677116188004" lon="14.11017757165332"><ele>97.83333333333333</ele><time>2026-05-03T10:44:22Z</time></trkpt><trkpt lat="42.396851567602994" lon="14.11016737015503"><ele>99.0</ele><time>2026-05-03T10:44:23Z</time></trkpt><trkpt lat="42.396933065920706" lon="14.110115959673873"><ele>99.0</ele><time>2026-05-03T10:44:24Z</time></trkpt><trkpt lat="42.39701656258103" lon="14.110048819727929"><ele>99.0</ele><time>2026-05-03T10:44:25Z</time></trkpt><trkpt lat="42.397088748925505" lon="14.10992497766965"><ele>99.0</ele><time>2026-05-03T10:44:26Z</time></trkpt><trkpt lat="42.39714703638411" lon="14.109763773965351"><ele>99.0</ele><time>2026-05-03T10:44:27Z</time></trkpt><trkpt lat="42.39718285107725" lon="14.109616625343673"><ele>99.0</ele><time>2026-05-03T10:44:28Z</time></trkpt><trkpt lat="42.397228370294236" lon="14.10947041239821"><ele>99.0</ele><time>2026-05-03T10:44:29Z</time></trkpt><trkpt lat="42.3972741841954" lon="14.109328004061064"><ele>99.0</ele><time>2026-05-03T10:44:30Z</time></trkpt><trkpt lat="42.397322438713225" lon="14.10919416205933"><ele>99.0</ele><time>2026-05-03T10:44:31Z</time></trkpt><trkpt lat="42.39736885848402" lon="14.109062764156581"><ele>99.0</ele><time>2026-05-03T10:44:32Z</time></trkpt><trkpt lat="42.397419137423356" lon="14.108931308845076"><ele>100.4</ele><time>2026-05-03T10:44:33Z</time></trkpt><trkpt lat="42.397468631253254" lon="14.108800821003117"><ele>101.80000000000001</ele><time>2026-05-03T10:44:34Z</time></trkpt><trkpt lat="42.39752652962455" lon="14.108682754673623"><ele>103.19999999999999</ele><time>2026-05-03T10:44:35Z</time></trkpt><trkpt lat="42.39757665985559" lon="14.108578296847707"><ele>104.6</ele><time>2026-05-03T10:44:36Z</time></trkpt><trkpt lat="42.39761904136177" lon="14.108495796425109"><ele>106.0</ele><time>2026-05-03T10:44:37Z</time></trkpt><trkpt lat="42.397676791995956" lon="14.108383824825095"><ele>106.00000000000001</ele><time>2026-05-03T10:44:39Z</time></trkpt><trkpt lat="42.397743502637915" lon="14.108248539656875"><ele>106.0</ele><time>2026-05-03T10:44:41Z</time></trkpt><trkpt lat="42.3977784044268" lon="14.108171760061579"><ele>106.0</ele><time>2026-05-03T10:44:42Z</time></trkpt><trkpt lat="42.39782837959464" lon="14.108100012040467"><ele>106.0</ele><time>2026-05-03T10:44:43Z</time></trkpt><trkpt lat="42.397886864205425" lon="14.108030887637383"><ele>106.00000000000001</ele><time>2026-05-03T10:44:44Z</time></trkpt><trkpt lat="42.39794848198593" lon="14.10796047155627"><ele>106.0</ele><time>2026-05-03T10:44:45Z</time></trkpt><trkpt lat="42.3980114226048" lon="14.107891662563404"><ele>105.19999999999999</ele><time>2026-05-03T10:44:46Z</time></trkpt><trkpt lat="42.39808748953477" lon="14.107818709236632"><ele>104.39999999999999</ele><time>2026-05-03T10:44:47Z</time></trkpt><trkpt lat="42.398172649207275" lon="14.10774032062016"><ele>103.6</ele><time>2026-05-03T10:44:48Z</time></trkpt><trkpt lat="42.39825872832799" lon="14.10765582162377"><ele>102.8</ele><time>2026-05-03T10:44:49Z</time></trkpt><trkpt lat="42.398343329834844" lon="14.107572522593"><ele>102.0</ele><time>2026-05-03T10:44:50Z</time></trkpt><trkpt lat="42.39842907592883" lon="14.107491963574715"><ele>102.0</ele><time>2026-05-03T10:44:51Z</time></trkpt><trkpt lat="42.39851816716597" lon="14.107411374269098"><ele>102.0</ele><time>2026-05-03T10:44:52Z</time></trkpt><trkpt lat="42.39861271126569" lon="14.107333825564037"><ele>102.0</ele><time>2026-05-03T10:44:53Z</time></trkpt><trkpt lat="42.39870637566408" lon="14.10725793042613"><ele>102.0</ele><time>2026-05-03T10:44:54Z</time></trkpt><trkpt lat="42.398811603306285" lon="14.107195091062"><ele>102.0</ele><time>2026-05-03T10:44:55Z</time></trkpt><trkpt lat="42.39893707962234" lon="14.107154180825374"><ele>104.0</ele><time>2026-05-03T10:44:56Z</time></trkpt><trkpt lat="42.39907655582255" lon="14.107131607405046"><ele>106.0</ele><time>2026-05-03T10:44:57Z</time></trkpt><trkpt lat="42.39921791542454" lon="14.107108437837004"><ele>108.0</ele><time>2026-05-03T10:44:58Z</time></trkpt><trkpt lat="42.399363314382406" lon="14.107081254074282"><ele>110.0</ele><time>2026-05-03T10:44:59Z</time></trkpt><trkpt lat="42.399509619111754" lon="14.107040213211265"><ele>110.0</ele><time>2026-05-03T10:45:00Z</time></trkpt><trkpt lat="42.399648697775035" lon="14.106978538675952"><ele>110.0</ele><time>2026-05-03T10:45:01Z</time></trkpt><trkpt lat="42.39976542249441" lon="14.106913801906048"><ele>110.0</ele><time>2026-05-03T10:45:02Z</time></trkpt><trkpt lat="42.39985611585082" lon="14.106847998543556"><ele>110.0</ele><time>2026-05-03T10:45:03Z</time></trkpt><trkpt lat="42.39993176820866" lon="14.10679083061047"><ele>109.4</ele><time>2026-05-03T10:45:04Z</time></trkpt><trkpt lat="42.40001163643933" lon="14.106741902415463"><ele>108.8</ele><time>2026-05-03T10:45:05Z</time></trkpt><trkpt lat="42.40010440138895" lon="14.106677673759409"><ele>108.19999999999999</ele><time>2026-05-03T10:45:06Z</time></trkpt><trkpt lat="42.40020537153908" lon="14.106589153121206"><ele>107.6</ele><time>2026-05-03T10:45:07Z</time></trkpt><trkpt lat="42.40031348945633" lon="14.106482019773361"><ele>107.0</ele><time>2026-05-03T10:45:08Z</time></trkpt><trkpt lat="42.40042894880912" lon="14.10635371017872"><ele>107.33333333333333</ele><time>2026-05-03T10:45:09Z</time></trkpt><trkpt lat="42.400542967189025" lon="14.106211114857103"><ele>107.66666666666666</ele><time>2026-05-03T10:45:10Z</time></trkpt><trkpt lat="42.40065551355029" lon="14.106046726053519"><ele>108.0</ele><time>2026-05-03T10:45:11Z</time></trkpt><trkpt lat="42.40076052039507" lon="14.105860880025192"><ele>108.66666666666666</ele><time>2026-05-03T10:45:12.001Z</time></trkpt><trkpt lat="42.40084933478874" lon="14.105671996914996"><ele>109.33333333333333</ele><time>2026-05-03T10:45:13.001Z</time></trkpt><trkpt lat="42.400922923035914" lon="14.105491947037745"><ele>110.0</ele><time>2026-05-03T10:45:14.001Z</time></trkpt><trkpt lat="42.400989511729755" lon="14.105306502521364"><ele>110.0</ele><time>2026-05-03T10:45:15.001Z</time></trkpt><trkpt lat="42.40105117841361" lon="14.10510731593067"><ele>110.0</ele><time>2026-05-03T10:45:16.001Z</time></trkpt><trkpt lat="42.40111029762508" lon="14.104897269151463"><ele>110.0</ele><time>2026-05-03T10:45:17.001Z</time></trkpt><trkpt lat="42.40119196999518" lon="14.104700974091992"><ele>111.0</ele><time>2026-05-03T10:45:18.001Z</time></trkpt><trkpt lat="42.40124568627235" lon="14.10451554746059"><ele>112.0</ele><time>2026-05-03T10:45:19.001Z</time></trkpt><trkpt lat="42.40131874566037" lon="14.104375196294436"><ele>113.0</ele><time>2026-05-03T10:45:20.001Z</time></trkpt><trkpt lat="42.40139734905674" lon="14.104267558485382"><ele>114.0</ele><time>2026-05-03T10:45:21.001Z</time></trkpt><trkpt lat="42.40150913771888" lon="14.104218531250618"><ele>113.80000000000001</ele><time>2026-05-03T10:45:22.001Z</time></trkpt><trkpt lat="42.40162650843457" lon="14.104164309066626"><ele>113.60000000000001</ele><time>2026-05-03T10:45:23.001Z</time></trkpt><trkpt lat="42.40173970499604" lon="14.10408973663472"><ele>113.4</ele><time>2026-05-03T10:45:24.001Z</time></trkpt><trkpt lat="42.40183448604349" lon="14.104051379990672"><ele>113.2</ele><time>2026-05-03T10:45:25.001Z</time></trkpt><trkpt lat="42.40189329061481" lon="14.10400962267791"><ele>113.0</ele><time>2026-05-03T10:45:26Z</time></trkpt><trkpt lat="42.40196392272875" lon="14.10392837679131"><ele>113.0</ele><time>2026-05-03T10:45:28Z</time></trkpt><trkpt lat="42.40191619075437" lon="14.103689213089437"><ele>113.0</ele><time>2026-05-03T10:45:31Z</time></trkpt><trkpt lat="42.40185090484074" lon="14.103591046010125"><ele>113.0</ele><time>2026-05-03T10:45:32Z</time></trkpt><trkpt lat="42.40179874490004" lon="14.103435035633355"><ele>113.0</ele><time>2026-05-03T10:45:33Z</time></trkpt><trkpt lat="42.40173572090894" lon="14.103292937656807"><ele>115.0</ele><time>2026-05-03T10:45:34Z</time></trkpt><trkpt lat="42.40167207513417" lon="14.103147578676552"><ele>117.0</ele><time>2026-05-03T10:45:35Z</time></trkpt><trkpt lat="42.401607792682675" lon="14.103000765600852"><ele>119.0</ele><time>2026-05-03T10:45:36Z</time></trkpt><trkpt lat="42.4015464781756" lon="14.102860731045253"><ele>121.0</ele><time>2026-05-03T10:45:37Z</time></trkpt><trkpt lat="42.401485118505775" lon="14.102720593268723"><ele>121.0</ele><time>2026-05-03T10:45:38Z</time></trkpt><trkpt lat="42.40142384396843" lon="14.102580649934941"><ele>121.0</ele><time>2026-05-03T10:45:39Z</time></trkpt><trkpt lat="42.40136397724472" lon="14.102443757021106"><ele>121.0</ele><time>2026-05-03T10:45:40Z</time></trkpt><trkpt lat="42.401314711140046" lon="14.102330937055248"><ele>121.0</ele><time>2026-05-03T10:45:41Z</time></trkpt><trkpt lat="42.40126294100768" lon="14.102253135520984"><ele>121.0</ele><time>2026-05-03T10:45:42Z</time></trkpt><trkpt lat="42.40121229512057" lon="14.102141167286732"><ele>120.6</ele><time>2026-05-03T10:45:44Z</time></trkpt><trkpt lat="42.401210439058666" lon="14.102041546947211"><ele>120.19999999999999</ele><time>2026-05-03T10:45:46Z</time></trkpt><trkpt lat="42.40126487435099" lon="14.101985474447797"><ele>119.80000000000001</ele><time>2026-05-03T10:45:47Z</time></trkpt><trkpt lat="42.40130199872175" lon="14.101877371781473"><ele>119.4</ele><time>2026-05-03T10:45:48Z</time></trkpt><trkpt lat="42.40136875564456" lon="14.101757219441096"><ele>119.0</ele><time>2026-05-03T10:45:49Z</time></trkpt><trkpt lat="42.40142862316372" lon="14.10162823241463"><ele>121.0</ele><time>2026-05-03T10:45:50Z</time></trkpt><trkpt lat="42.401488487455744" lon="14.101479590857368"><ele>123.0</ele><time>2026-05-03T10:45:51Z</time></trkpt><trkpt lat="42.401548727108036" lon="14.101331276888285"><ele>125.0</ele><time>2026-05-03T10:45:52Z</time></trkpt><trkpt lat="42.40160811213965" lon="14.101179564535567"><ele>127.0</ele><time>2026-05-03T10:45:53Z</time></trkpt><trkpt lat="42.40167206333491" lon="14.101020917327753"><ele>127.0</ele><time>2026-05-03T10:45:54Z</time></trkpt><trkpt lat="42.40174142864067" lon="14.100861090858098"><ele>127.0</ele><time>2026-05-03T10:45:55Z</time></trkpt><trkpt lat="42.4018158418136" lon="14.100698353474739"><ele>127.0</ele><time>2026-05-03T10:45:56Z</time></trkpt><trkpt lat="42.40189651752062" lon="14.10053838346109"><ele>127.0</ele><time>2026-05-03T10:45:57Z</time></trkpt><trkpt lat="42.401979816034356" lon="14.100379693977002"><ele>126.75</ele><time>2026-05-03T10:45:58Z</time></trkpt><trkpt lat="42.40206413080591" lon="14.100215746477803"><ele>126.5</ele><time>2026-05-03T10:45:59Z</time></trkpt><trkpt lat="42.40215131002733" lon="14.100051278092453"><ele>126.25</ele><time>2026-05-03T10:46:00Z</time></trkpt><trkpt lat="42.40223997780197" lon="14.09988854897692"><ele>126.0</ele><time>2026-05-03T10:46:01Z</time></trkpt><trkpt lat="42.40232901146563" lon="14.099727673080498"><ele>126.75</ele><time>2026-05-03T10:46:02Z</time></trkpt><trkpt lat="42.40241656848438" lon="14.099568384946897"><ele>127.5</ele><time>2026-05-03T10:46:03Z</time></trkpt><trkpt lat="42.402507403161316" lon="14.099412410714093"><ele>128.25</ele><time>2026-05-03T10:46:04Z</time></trkpt><trkpt lat="42.402597749394616" lon="14.0992572716347"><ele>129.0</ele><time>2026-05-03T10:46:05Z</time></trkpt><trkpt lat="42.40268277497016" lon="14.0991136657022"><ele>129.0</ele><time>2026-05-03T10:46:06Z</time></trkpt><trkpt lat="42.40276288577744" lon="14.09898482747467"><ele>129.0</ele><time>2026-05-03T10:46:07Z</time></trkpt><trkpt lat="42.40284221846751" lon="14.098871640190396"><ele>129.0</ele><time>2026-05-03T10:46:08Z</time></trkpt><trkpt lat="42.40291351925152" lon="14.09876412998115"><ele>129.0</ele><time>2026-05-03T10:46:09Z</time></trkpt><trkpt lat="42.40298153882906" lon="14.098667184507192"><ele>129.0</ele><time>2026-05-03T10:46:10Z</time></trkpt><trkpt lat="42.403047858879496" lon="14.098577946792732"><ele>129.0</ele><time>2026-05-03T10:46:11Z</time></trkpt><trkpt lat="42.40311392633143" lon="14.098489477175002"><ele>129.0</ele><time>2026-05-03T10:46:12Z</time></trkpt><trkpt lat="42.40318208112358" lon="14.098392502163506"><ele>129.0</ele><time>2026-05-03T10:46:13Z</time></trkpt><trkpt lat="42.40324965977834" lon="14.098298007346624"><ele>129.0</ele><time>2026-05-03T10:46:14Z</time></trkpt><trkpt lat="42.403317590804185" lon="14.098206481385256"><ele>129.0</ele><time>2026-05-03T10:46:15Z</time></trkpt><trkpt lat="42.40337840027582" lon="14.098131075121573"><ele>128.6</ele><time>2026-05-03T10:46:16Z</time></trkpt><trkpt lat="42.40343055277078" lon="14.098062058159341"><ele>128.2</ele><time>2026-05-03T10:46:17Z</time></trkpt><trkpt lat="42.403507929842434" lon="14.097926102541457"><ele>127.79999999999998</ele><time>2026-05-03T10:46:19Z</time></trkpt><trkpt lat="42.403549754416495" lon="14.097837488691846"><ele>127.39999999999999</ele><time>2026-05-03T10:46:20Z</time></trkpt><trkpt lat="42.40358521325122" lon="14.097734800855125"><ele>127.0</ele><time>2026-05-03T10:46:21Z</time></trkpt><trkpt lat="42.40361728893866" lon="14.097616115574011"><ele>127.0</ele><time>2026-05-03T10:46:22Z</time></trkpt><trkpt lat="42.40364632576652" lon="14.097491553637273"><ele>127.0</ele><time>2026-05-03T10:46:23Z</time></trkpt><trkpt lat="42.40366645508248" lon="14.097342317322413"><ele>127.0</ele><time>2026-05-03T10:46:24Z</time></trkpt><trkpt lat="42.403677068099235" lon="14.097186696730066"><ele>127.0</ele><time>2026-05-03T10:46:25Z</time></trkpt><trkpt lat="42.403677667446345" lon="14.097009200673625"><ele>128.25</ele><time>2026-05-03T10:46:26Z</time></trkpt><trkpt lat="42.40367638992864" lon="14.096816631707087"><ele>129.5</ele><time>2026-05-03T10:46:27Z</time></trkpt><trkpt lat="42.40367127127504" lon="14.096615949122574"><ele>130.75</ele><time>2026-05-03T10:46:28Z</time></trkpt><trkpt lat="42.40366894840198" lon="14.096421542808606"><ele>132.0</ele><time>2026-05-03T10:46:29Z</time></trkpt><trkpt lat="42.40366842564839" lon="14.096237434561765"><ele>134.5</ele><time>2026-05-03T10:46:30Z</time></trkpt><trkpt lat="42.40366937241291" lon="14.09606371982428"><ele>137.0</ele><time>2026-05-03T10:46:31Z</time></trkpt><trkpt lat="42.40368287312714" lon="14.095901523889387"><ele>139.5</ele><time>2026-05-03T10:46:32Z</time></trkpt><trkpt lat="42.40367472695271" lon="14.09574028949704"><ele>142.0</ele><time>2026-05-03T10:46:33Z</time></trkpt><trkpt lat="42.403686037494296" lon="14.09558059862372"><ele>142.2</ele><time>2026-05-03T10:46:34Z</time></trkpt><trkpt lat="42.40369455304055" lon="14.095419495046912"><ele>142.39999999999998</ele><time>2026-05-03T10:46:35Z</time></trkpt><trkpt lat="42.403704643179886" lon="14.095259795814545"><ele>142.60000000000002</ele><time>2026-05-03T10:46:36Z</time></trkpt><trkpt lat="42.40372998193927" lon="14.09511331941373"><ele>142.8</ele><time>2026-05-03T10:46:37Z</time></trkpt><trkpt lat="42.4037385084727" lon="14.094986054001058"><ele>143.0</ele><time>2026-05-03T10:46:38Z</time></trkpt><trkpt lat="42.40374512150081" lon="14.094873379193476"><ele>143.0</ele><time>2026-05-03T10:46:39Z</time></trkpt><trkpt lat="42.40373454947272" lon="14.094770112763193"><ele>143.0</ele><time>2026-05-03T10:46:40Z</time></trkpt><trkpt lat="42.403744093152405" lon="14.094666718500953"><ele>143.0</ele><time>2026-05-03T10:46:41Z</time></trkpt><trkpt lat="42.40375422879758" lon="14.094557907173781"><ele>143.0</ele><time>2026-05-03T10:46:42Z</time></trkpt><trkpt lat="42.40375855553835" lon="14.094431620440613"><ele>143.0</ele><time>2026-05-03T10:46:43Z</time></trkpt><trkpt lat="42.40376065912858" lon="14.094293118809743"><ele>143.0</ele><time>2026-05-03T10:46:44Z</time></trkpt><trkpt lat="42.40375965098738" lon="14.094141877738236"><ele>141.75</ele><time>2026-05-03T10:46:45Z</time></trkpt><trkpt lat="42.40375690250075" lon="14.093981856726808"><ele>140.5</ele><time>2026-05-03T10:46:46Z</time></trkpt><trkpt lat="42.40374966960553" lon="14.093812045517671"><ele>139.25</ele><time>2026-05-03T10:46:47Z</time></trkpt><trkpt lat="42.40373009503392" lon="14.093642812854373"><ele>138.0</ele><time>2026-05-03T10:46:48Z</time></trkpt><trkpt lat="42.40369688534189" lon="14.093473704744481"><ele>138.0</ele><time>2026-05-03T10:46:49Z</time></trkpt><trkpt lat="42.40364402271723" lon="14.093312565905649"><ele>138.0</ele><time>2026-05-03T10:46:50Z</time></trkpt><trkpt lat="42.40360051926947" lon="14.093142505186714"><ele>138.0</ele><time>2026-05-03T10:46:51Z</time></trkpt><trkpt lat="42.40353305300082" lon="14.092987546666835"><ele>138.0</ele><time>2026-05-03T10:46:52Z</time></trkpt><trkpt lat="42.403465209674515" lon="14.092838593895223"><ele>138.0</ele><time>2026-05-03T10:46:53Z</time></trkpt><trkpt lat="42.40339784493312" lon="14.092694910999928"><ele>138.0</ele><time>2026-05-03T10:46:54Z</time></trkpt><trkpt lat="42.40333281499097" lon="14.092555484703253"><ele>138.0</ele><time>2026-05-03T10:46:55Z</time></trkpt><trkpt lat="42.40327370107068" lon="14.092428742499557"><ele>138.0</ele><time>2026-05-03T10:46:56Z</time></trkpt><trkpt lat="42.40320616029224" lon="14.092324684253143"><ele>138.0</ele><time>2026-05-03T10:46:57Z</time></trkpt><trkpt lat="42.40315696255153" lon="14.092205205072792"><ele>138.0</ele><time>2026-05-03T10:46:58Z</time></trkpt><trkpt lat="42.40309856726415" lon="14.09207927734279"><ele>138.0</ele><time>2026-05-03T10:46:59Z</time></trkpt><trkpt lat="42.40304149451897" lon="14.091951767386638"><ele>138.0</ele><time>2026-05-03T10:47:00Z</time></trkpt><trkpt lat="42.40297966305973" lon="14.091826260179813"><ele>138.0</ele><time>2026-05-03T10:47:01Z</time></trkpt><trkpt lat="42.40291775671417" lon="14.091701386034437"><ele>139.6</ele><time>2026-05-03T10:47:02Z</time></trkpt><trkpt lat="42.40285471708728" lon="14.091578293016115"><ele>141.20000000000002</ele><time>2026-05-03T10:47:03Z</time></trkpt><trkpt lat="42.4027960010708" lon="14.091453733277184"><ele>142.8</ele><time>2026-05-03T10:47:04Z</time></trkpt><trkpt lat="42.40272925910883" lon="14.091337357436549"><ele>144.4</ele><time>2026-05-03T10:47:05Z</time></trkpt><trkpt lat="42.40266153968903" lon="14.091225538240796"><ele>146.0</ele><time>2026-05-03T10:47:06Z</time></trkpt><trkpt lat="42.402593610698815" lon="14.09111170139192"><ele>146.0</ele><time>2026-05-03T10:47:07Z</time></trkpt><trkpt lat="42.40251710761886" lon="14.09100018770842"><ele>146.0</ele><time>2026-05-03T10:47:08Z</time></trkpt><trkpt lat="42.402451313765624" lon="14.090897326091337"><ele>146.0</ele><time>2026-05-03T10:47:09Z</time></trkpt><trkpt lat="42.40240136047416" lon="14.090828702545343"><ele>146.0</ele><time>2026-05-03T10:47:10Z</time></trkpt><trkpt lat="42.40233935779909" lon="14.090802650049943"><ele>146.0</ele><time>2026-05-03T10:47:12Z</time></trkpt><trkpt lat="42.402385625435286" lon="14.090917423791327"><ele>146.0</ele><time>2026-05-03T10:47:15Z</time></trkpt><trkpt lat="42.402501873454646" lon="14.091053595828898"><ele>146.0</ele><time>2026-05-03T10:47:16Z</time></trkpt><trkpt lat="42.40262434651483" lon="14.091195080663873"><ele>146.0</ele><time>2026-05-03T10:47:17Z</time></trkpt><trkpt lat="42.40276282785521" lon="14.091423488147342"><ele>146.0</ele><time>2026-05-03T10:47:18Z</time></trkpt><trkpt lat="42.40288310139922" lon="14.091642086138908"><ele>145.5</ele><time>2026-05-03T10:47:19Z</time></trkpt><trkpt lat="42.40294455085765" lon="14.091800221185498"><ele>145.0</ele><time>2026-05-03T10:47:20Z</time></trkpt><trkpt lat="42.40298316629737" lon="14.091894296005869"><ele>144.5</ele><time>2026-05-03T10:47:21Z</time></trkpt><trkpt lat="42.40309572370266" lon="14.091815887434858"><ele>144.0</ele><time>2026-05-03T10:47:25Z</time></trkpt><trkpt lat="42.40310192058109" lon="14.091640425619937"><ele>142.0</ele><time>2026-05-03T10:47:26Z</time></trkpt><trkpt lat="42.40309969883817" lon="14.091488795194854"><ele>140.0</ele><time>2026-05-03T10:47:27Z</time></trkpt><trkpt lat="42.40308485364778" lon="14.091327805099253"><ele>138.0</ele><time>2026-05-03T10:47:28Z</time></trkpt><trkpt lat="42.403058208622525" lon="14.09117469732739"><ele>136.0</ele><time>2026-05-03T10:47:29Z</time></trkpt><trkpt lat="42.403017897193216" lon="14.091031363032444"><ele>136.0</ele><time>2026-05-03T10:47:30Z</time></trkpt><trkpt lat="42.402962152180145" lon="14.090901201985728"><ele>136.0</ele><time>2026-05-03T10:47:31Z</time></trkpt><trkpt lat="42.40288713342464" lon="14.090765735406954"><ele>136.0</ele><time>2026-05-03T10:47:32Z</time></trkpt><trkpt lat="42.40280314405197" lon="14.090615857532148"><ele>136.0</ele><time>2026-05-03T10:47:33Z</time></trkpt><trkpt lat="42.40271596959584" lon="14.090456696911842"><ele>136.0</ele><time>2026-05-03T10:47:34Z</time></trkpt><trkpt lat="42.40262231743738" lon="14.090282714734235"><ele>136.0</ele><time>2026-05-03T10:47:35Z</time></trkpt><trkpt lat="42.40252255687413" lon="14.09010197936921"><ele>136.0</ele><time>2026-05-03T10:47:36Z</time></trkpt><trkpt lat="42.4024300456507" lon="14.089896773275045"><ele>138.66666666666669</ele><time>2026-05-03T10:47:37Z</time></trkpt><trkpt lat="42.40231082345417" lon="14.089712499108536"><ele>141.33333333333334</ele><time>2026-05-03T10:47:38Z</time></trkpt><trkpt lat="42.40220388916774" lon="14.08950590125656"><ele>144.0</ele><time>2026-05-03T10:47:39Z</time></trkpt><trkpt lat="42.402088435208015" lon="14.089294317697913"><ele>140.0</ele><time>2026-05-03T10:47:40Z</time></trkpt><trkpt lat="42.40196992606533" lon="14.089079986289313"><ele>136.0</ele><time>2026-05-03T10:47:41Z</time></trkpt><trkpt lat="42.40185794463541" lon="14.088873954056243"><ele>132.0</ele><time>2026-05-03T10:47:42Z</time></trkpt><trkpt lat="42.401760583195376" lon="14.088680881404628"><ele>132.0</ele><time>2026-05-03T10:47:43Z</time></trkpt><trkpt lat="42.40167698657932" lon="14.0885114829129"><ele>132.0</ele><time>2026-05-03T10:47:44Z</time></trkpt><trkpt lat="42.40159758698422" lon="14.08835328199995"><ele>132.0</ele><time>2026-05-03T10:47:45Z</time></trkpt><trkpt lat="42.401521326153386" lon="14.088208136271293"><ele>132.0</ele><time>2026-05-03T10:47:46Z</time></trkpt><trkpt lat="42.40145950463911" lon="14.088072147014515"><ele>130.75</ele><time>2026-05-03T10:47:47Z</time></trkpt><trkpt lat="42.401353635007304" lon="14.087999805892977"><ele>129.5</ele><time>2026-05-03T10:47:48Z</time></trkpt><trkpt lat="42.40124458433614" lon="14.087950039244973"><ele>128.25</ele><time>2026-05-03T10:47:49Z</time></trkpt><trkpt lat="42.40111106300626" lon="14.087923859449017"><ele>127.0</ele><time>2026-05-03T10:47:50Z</time></trkpt><trkpt lat="42.40096462854115" lon="14.087870403269088"><ele>127.0</ele><time>2026-05-03T10:47:51Z</time></trkpt><trkpt lat="42.40082820680414" lon="14.087837725955744"><ele>127.0</ele><time>2026-05-03T10:47:52Z</time></trkpt><trkpt lat="42.400710325667454" lon="14.087809429493104"><ele>127.0</ele><time>2026-05-03T10:47:53Z</time></trkpt><trkpt lat="42.400632997044376" lon="14.08770948951411"><ele>127.0</ele><time>2026-05-03T10:47:54Z</time></trkpt><trkpt lat="42.40058324050236" lon="14.087585397706603"><ele>127.0</ele><time>2026-05-03T10:47:55Z</time></trkpt><trkpt lat="42.400529131906424" lon="14.08742819266876"><ele>127.0</ele><time>2026-05-03T10:47:56Z</time></trkpt><trkpt lat="42.40046264513722" lon="14.087248022302118"><ele>127.0</ele><time>2026-05-03T10:47:57Z</time></trkpt><trkpt lat="42.40041374490529" lon="14.087047705271718"><ele>127.0</ele><time>2026-05-03T10:47:58Z</time></trkpt><trkpt lat="42.4003657390553" lon="14.086852702343695"><ele>129.75</ele><time>2026-05-03T10:47:59Z</time></trkpt><trkpt lat="42.40033331121494" lon="14.086675563158247"><ele>132.5</ele><time>2026-05-03T10:48:00Z</time></trkpt><trkpt lat="42.40031211071422" lon="14.086497980286191"><ele>135.25</ele><time>2026-05-03T10:48:01Z</time></trkpt><trkpt lat="42.40029995485776" lon="14.086319321134408"><ele>138.0</ele><time>2026-05-03T10:48:02Z</time></trkpt><trkpt lat="42.40031519038029" lon="14.086135449770067"><ele>138.0</ele><time>2026-05-03T10:48:03Z</time></trkpt><trkpt lat="42.40030669367573" lon="14.085942354456161"><ele>138.0</ele><time>2026-05-03T10:48:04Z</time></trkpt><trkpt lat="42.4003161497753" lon="14.085750031311319"><ele>138.0</ele><time>2026-05-03T10:48:05Z</time></trkpt><trkpt lat="42.40031897858207" lon="14.085563374154265"><ele>138.0</ele><time>2026-05-03T10:48:06Z</time></trkpt><trkpt lat="42.400322545018476" lon="14.085381304632838"><ele>137.25</ele><time>2026-05-03T10:48:07Z</time></trkpt><trkpt lat="42.400333437826454" lon="14.08521084637463"><ele>136.5</ele><time>2026-05-03T10:48:08Z</time></trkpt><trkpt lat="42.40035935349078" lon="14.08505593505675"><ele>135.75</ele><time>2026-05-03T10:48:09Z</time></trkpt><trkpt lat="42.40040479442595" lon="14.08490805712686"><ele>135.0</ele><time>2026-05-03T10:48:10Z</time></trkpt><trkpt lat="42.400462114590525" lon="14.084767586932868"><ele>130.25</ele><time>2026-05-03T10:48:11Z</time></trkpt><trkpt lat="42.400531408150435" lon="14.084625523470434"><ele>125.5</ele><time>2026-05-03T10:48:12Z</time></trkpt><trkpt lat="42.40060967663775" lon="14.084480796815928"><ele>120.75</ele><time>2026-05-03T10:48:13Z</time></trkpt><trkpt lat="42.40068611746142" lon="14.084345223976923"><ele>116.0</ele><time>2026-05-03T10:48:14Z</time></trkpt><trkpt lat="42.40076824506617" lon="14.084221143445928"><ele>116.0</ele><time>2026-05-03T10:48:15Z</time></trkpt><trkpt lat="42.400858565202725" lon="14.084105594243052"><ele>116.0</ele><time>2026-05-03T10:48:16Z</time></trkpt><trkpt lat="42.400950971903676" lon="14.083982086103545"><ele>116.0</ele><time>2026-05-03T10:48:17Z</time></trkpt><trkpt lat="42.4010405074922" lon="14.083847166299305"><ele>116.0</ele><time>2026-05-03T10:48:18Z</time></trkpt><trkpt lat="42.40112300122741" lon="14.083694997374636"><ele>117.25</ele><time>2026-05-03T10:48:19Z</time></trkpt><trkpt lat="42.401199100732285" lon="14.083526857107696"><ele>118.5</ele><time>2026-05-03T10:48:20Z</time></trkpt><trkpt lat="42.40126537230128" lon="14.083343547310347"><ele>119.75</ele><time>2026-05-03T10:48:21Z</time></trkpt><trkpt lat="42.40133504382881" lon="14.083161166961558"><ele>121.0</ele><time>2026-05-03T10:48:22Z</time></trkpt><trkpt lat="42.40140631163267" lon="14.082995701477312"><ele>118.5</ele><time>2026-05-03T10:48:23Z</time></trkpt><trkpt lat="42.40147917059665" lon="14.082842748629496"><ele>116.0</ele><time>2026-05-03T10:48:24Z</time></trkpt><trkpt lat="42.40155472131165" lon="14.082690041926964"><ele>113.5</ele><time>2026-05-03T10:48:25Z</time></trkpt><trkpt lat="42.40163790887167" lon="14.082544363485319"><ele>111.0</ele><time>2026-05-03T10:48:26Z</time></trkpt><trkpt lat="42.401726569382525" lon="14.082398063426412"><ele>111.0</ele><time>2026-05-03T10:48:27Z</time></trkpt><trkpt lat="42.40181624456016" lon="14.082246719752396"><ele>111.0</ele><time>2026-05-03T10:48:28Z</time></trkpt><trkpt lat="42.40190671065277" lon="14.082089750290715"><ele>111.0</ele><time>2026-05-03T10:48:29Z</time></trkpt><trkpt lat="42.401999311481724" lon="14.08193524415648"><ele>111.0</ele><time>2026-05-03T10:48:30Z</time></trkpt><trkpt lat="42.40208760224977" lon="14.081770047850927"><ele>104.33333333333333</ele><time>2026-05-03T10:48:31Z</time></trkpt><trkpt lat="42.40216921907411" lon="14.081596020288048"><ele>97.66666666666666</ele><time>2026-05-03T10:48:32Z</time></trkpt><trkpt lat="42.40224246104081" lon="14.08141348448284"><ele>91.0</ele><time>2026-05-03T10:48:33Z</time></trkpt><trkpt lat="42.40230885686148" lon="14.081232841632625"><ele>91.0</ele><time>2026-05-03T10:48:34Z</time></trkpt><trkpt lat="42.40236103577969" lon="14.08106011290007"><ele>91.0</ele><time>2026-05-03T10:48:35Z</time></trkpt><trkpt lat="42.40239884500507" lon="14.080903364223243"><ele>91.0</ele><time>2026-05-03T10:48:36Z</time></trkpt><trkpt lat="42.40242104644299" lon="14.080763499237118"><ele>91.0</ele><time>2026-05-03T10:48:37Z</time></trkpt><trkpt lat="42.40242444586681" lon="14.080618205421214"><ele>89.75</ele><time>2026-05-03T10:48:38Z</time></trkpt><trkpt lat="42.4023989944786" lon="14.08045760988452"><ele>88.5</ele><time>2026-05-03T10:48:39Z</time></trkpt><trkpt lat="42.40234654659998" lon="14.08027981961703"><ele>87.25</ele><time>2026-05-03T10:48:40Z</time></trkpt><trkpt lat="42.402302727432385" lon="14.080095241997965"><ele>86.0</ele><time>2026-05-03T10:48:41Z</time></trkpt><trkpt lat="42.40225214040155" lon="14.079909438248729"><ele>84.25</ele><time>2026-05-03T10:48:42Z</time></trkpt><trkpt lat="42.40220583199569" lon="14.079723761578887"><ele>82.5</ele><time>2026-05-03T10:48:43Z</time></trkpt><trkpt lat="42.40215450203645" lon="14.079535431669212"><ele>80.75</ele><time>2026-05-03T10:48:44Z</time></trkpt><trkpt lat="42.40212263175429" lon="14.079336225128312"><ele>79.0</ele><time>2026-05-03T10:48:45Z</time></trkpt><trkpt lat="42.40206660632613" lon="14.079140388857383"><ele>81.33333333333333</ele><time>2026-05-03T10:48:46Z</time></trkpt><trkpt lat="42.402034693205664" lon="14.078935593263022"><ele>83.66666666666667</ele><time>2026-05-03T10:48:47Z</time></trkpt><trkpt lat="42.40200267709835" lon="14.078725783142959"><ele>86.0</ele><time>2026-05-03T10:48:48Z</time></trkpt><trkpt lat="42.40196953152566" lon="14.078511626793151"><ele>86.0</ele><time>2026-05-03T10:48:49Z</time></trkpt><trkpt lat="42.40193661063629" lon="14.078284766813015"><ele>86.0</ele><time>2026-05-03T10:48:50Z</time></trkpt><trkpt lat="42.40190369173217" lon="14.07804409136549"><ele>86.0</ele><time>2026-05-03T10:48:51Z</time></trkpt><trkpt lat="42.401878602724516" lon="14.077828377263122"><ele>85.0</ele><time>2026-05-03T10:48:52Z</time></trkpt><trkpt lat="42.401866127985535" lon="14.077660990016035"><ele>84.0</ele><time>2026-05-03T10:48:53Z</time></trkpt><trkpt lat="42.40186496011875" lon="14.077518131457323"><ele>83.0</ele><time>2026-05-03T10:48:54Z</time></trkpt><trkpt lat="42.40188779846387" lon="14.077408699639687"><ele>82.0</ele><time>2026-05-03T10:48:55Z</time></trkpt><trkpt lat="42.40194176439368" lon="14.077319457038275"><ele>81.0</ele><time>2026-05-03T10:48:56Z</time></trkpt><trkpt lat="42.40202391752267" lon="14.077238141415757"><ele>79.75</ele><time>2026-05-03T10:48:57Z</time></trkpt><trkpt lat="42.40212931734416" lon="14.07715468905461"><ele>78.5</ele><time>2026-05-03T10:48:58Z</time></trkpt><trkpt lat="42.40225347832238" lon="14.077055430161273"><ele>77.25</ele><time>2026-05-03T10:48:59Z</time></trkpt><trkpt lat="42.40235975682279" lon="14.076944968723785"><ele>76.0</ele><time>2026-05-03T10:49:00Z</time></trkpt><trkpt lat="42.40243788544616" lon="14.076816895996927"><ele>76.0</ele><time>2026-05-03T10:49:01Z</time></trkpt><trkpt lat="42.40248776959485" lon="14.076674346136764"><ele>76.0</ele><time>2026-05-03T10:49:02Z</time></trkpt><trkpt lat="42.402501425752035" lon="14.076531715395273"><ele>76.0</ele><time>2026-05-03T10:49:03Z</time></trkpt><trkpt lat="42.402486846054515" lon="14.076379033634343"><ele>76.0</ele><time>2026-05-03T10:49:04Z</time></trkpt><trkpt lat="42.40243227758134" lon="14.076206907979051"><ele>78.66666666666666</ele><time>2026-05-03T10:49:05Z</time></trkpt><trkpt lat="42.40234196921749" lon="14.076001384459063"><ele>81.33333333333333</ele><time>2026-05-03T10:49:06Z</time></trkpt><trkpt lat="42.402230545892536" lon="14.075737178870737"><ele>84.0</ele><time>2026-05-03T10:49:07Z</time></trkpt><trkpt lat="42.402124794739755" lon="14.07547351242531"><ele>85.0</ele><time>2026-05-03T10:49:08Z</time></trkpt><trkpt lat="42.40206787269739" lon="14.075285090663227"><ele>86.0</ele><time>2026-05-03T10:49:09Z</time></trkpt><trkpt lat="42.402023187487764" lon="14.07511345701894"><ele>87.0</ele><time>2026-05-03T10:49:10Z</time></trkpt><trkpt lat="42.40200001246962" lon="14.07496124981731"><ele>88.0</ele><time>2026-05-03T10:49:11Z</time></trkpt><trkpt lat="42.40201572186559" lon="14.074856219380765"><ele>91.0</ele><time>2026-05-03T10:49:12Z</time></trkpt><trkpt lat="42.40206422340898" lon="14.074778349575592"><ele>94.0</ele><time>2026-05-03T10:49:13Z</time></trkpt><trkpt lat="42.402147959521514" lon="14.074750495192806"><ele>97.0</ele><time>2026-05-03T10:49:14Z</time></trkpt><trkpt lat="42.402250243846964" lon="14.074809145861039"><ele>100.0</ele><time>2026-05-03T10:49:15Z</time></trkpt><trkpt lat="42.402371827063874" lon="14.074848422395993"><ele>103.0</ele><time>2026-05-03T10:49:16Z</time></trkpt><trkpt lat="42.4024865272983" lon="14.074871693125221"><ele>103.2</ele><time>2026-05-03T10:49:17Z</time></trkpt><trkpt lat="42.402580750713085" lon="14.074851912243014"><ele>103.4</ele><time>2026-05-03T10:49:18Z</time></trkpt><trkpt lat="42.40266652117567" lon="14.074786885055481"><ele>103.60000000000001</ele><time>2026-05-03T10:49:19Z</time></trkpt><trkpt lat="42.40273708623464" lon="14.074699273175828"><ele>103.80000000000001</ele><time>2026-05-03T10:49:20Z</time></trkpt><trkpt lat="42.40277489412233" lon="14.074578386260592"><ele>104.0</ele><time>2026-05-03T10:49:21Z</time></trkpt><trkpt lat="42.40279955415955" lon="14.074423726526316"><ele>103.99999999999999</ele><time>2026-05-03T10:49:22Z</time></trkpt><trkpt lat="42.402803997046696" lon="14.074280457185981"><ele>104.0</ele><time>2026-05-03T10:49:23.001Z</time></trkpt><trkpt lat="42.402782681640566" lon="14.074175869741962"><ele>104.0</ele><time>2026-05-03T10:49:24.001Z</time></trkpt><trkpt lat="42.40273392825243" lon="14.07409856805877"><ele>104.0</ele><time>2026-05-03T10:49:25.001Z</time></trkpt><trkpt lat="42.40264864748533" lon="14.074066063457552"><ele>103.99999999999999</ele><time>2026-05-03T10:49:26.001Z</time></trkpt><trkpt lat="42.40255686144515" lon="14.074073561868117"><ele>104.0</ele><time>2026-05-03T10:49:27.001Z</time></trkpt><trkpt lat="42.40245830545776" lon="14.074104263842658"><ele>106.75</ele><time>2026-05-03T10:49:28.001Z</time></trkpt><trkpt lat="42.40235365695939" lon="14.074093464926039"><ele>109.5</ele><time>2026-05-03T10:49:29.001Z</time></trkpt><trkpt lat="42.40225253226796" lon="14.074061348514093"><ele>112.25</ele><time>2026-05-03T10:49:30.001Z</time></trkpt><trkpt lat="42.40214008996601" lon="14.074001915457979"><ele>115.0</ele><time>2026-05-03T10:49:31.001Z</time></trkpt><trkpt lat="42.402001713178535" lon="14.073935044830383"><ele>118.33333333333334</ele><time>2026-05-03T10:49:32.001Z</time></trkpt><trkpt lat="42.40182937917555" lon="14.073828491504793"><ele>121.66666666666666</ele><time>2026-05-03T10:49:33.001Z</time></trkpt><trkpt lat="42.401630208646" lon="14.073729332366964"><ele>125.0</ele><time>2026-05-03T10:49:34.001Z</time></trkpt><trkpt lat="42.40140718359703" lon="14.073647032270273"><ele>123.25</ele><time>2026-05-03T10:49:35.001Z</time></trkpt><trkpt lat="42.401233377696016" lon="14.073589862922738"><ele>121.5</ele><time>2026-05-03T10:49:36.001Z</time></trkpt><trkpt lat="42.40110088494416" lon="14.073542668635639"><ele>119.75</ele><time>2026-05-03T10:49:37.001Z</time></trkpt><trkpt lat="42.401000653464486" lon="14.07349789916648"><ele>118.0</ele><time>2026-05-03T10:49:38.001Z</time></trkpt><trkpt lat="42.400915896125674" lon="14.073439465640138"><ele>118.0</ele><time>2026-05-03T10:49:39.001Z</time></trkpt><trkpt lat="42.400854320947666" lon="14.073345318997488"><ele>118.0</ele><time>2026-05-03T10:49:40.001Z</time></trkpt><trkpt lat="42.40083417994881" lon="14.073191392323523"><ele>118.0</ele><time>2026-05-03T10:49:41.001Z</time></trkpt><trkpt lat="42.40078622847208" lon="14.07301754468732"><ele>118.0</ele><time>2026-05-03T10:49:42.001Z</time></trkpt><trkpt lat="42.40074543024533" lon="14.072761667171408"><ele>119.75</ele><time>2026-05-03T10:49:43.001Z</time></trkpt><trkpt lat="42.40072272594992" lon="14.072528123723336"><ele>121.5</ele><time>2026-05-03T10:49:44.001Z</time></trkpt><trkpt lat="42.40071126527132" lon="14.072370360211481"><ele>123.25</ele><time>2026-05-03T10:49:45.001Z</time></trkpt><trkpt lat="42.40071967296158" lon="14.072220399309447"><ele>125.0</ele><time>2026-05-03T10:49:46.001Z</time></trkpt><trkpt lat="42.40075942394558" lon="14.0720819171166"><ele>125.0</ele><time>2026-05-03T10:49:47Z</time></trkpt><trkpt lat="42.40080506950748" lon="14.071941829721837"><ele>125.0</ele><time>2026-05-03T10:49:48Z</time></trkpt><trkpt lat="42.400892299732206" lon="14.071833476660284"><ele>125.0</ele><time>2026-05-03T10:49:49Z</time></trkpt><trkpt lat="42.40100112221584" lon="14.07178063863665"><ele>125.0</ele><time>2026-05-03T10:49:50Z</time></trkpt><trkpt lat="42.40111230294271" lon="14.071747482426904"><ele>125.0</ele><time>2026-05-03T10:49:51Z</time></trkpt><trkpt lat="42.401237739700534" lon="14.071711466283398"><ele>125.0</ele><time>2026-05-03T10:49:52Z</time></trkpt><trkpt lat="42.401365118028146" lon="14.071715384003953"><ele>125.0</ele><time>2026-05-03T10:49:53Z</time></trkpt><trkpt lat="42.401468448635775" lon="14.0717254783211"><ele>125.0</ele><time>2026-05-03T10:49:54Z</time></trkpt><trkpt lat="42.401540475445294" lon="14.071727316968756"><ele>125.0</ele><time>2026-05-03T10:49:55Z</time></trkpt><trkpt lat="42.401645688990364" lon="14.071715165274137"><ele>128.0</ele><time>2026-05-03T10:49:57Z</time></trkpt><trkpt lat="42.40171301646599" lon="14.071703957517219"><ele>131.0</ele><time>2026-05-03T10:49:59Z</time></trkpt><trkpt lat="42.401818029430935" lon="14.071707422970025"><ele>134.0</ele><time>2026-05-03T10:50:02Z</time></trkpt><trkpt lat="42.4018844126675" lon="14.071695676897335"><ele>137.0</ele><time>2026-05-03T10:50:04Z</time></trkpt><trkpt lat="42.40244420948646" lon="14.070661169212473"><ele>139.16666666666666</ele><time>2026-05-03T10:55:56.905Z</time></trkpt><trkpt lat="42.40240245572672" lon="14.070575651324953"><ele>141.33333333333331</ele><time>2026-05-03T10:55:57.905Z</time></trkpt><trkpt lat="42.40234265330347" lon="14.070487374433464"><ele>143.5</ele><time>2026-05-03T10:55:58.905Z</time></trkpt><trkpt lat="42.40228696567319" lon="14.070395417849692"><ele>145.66666666666666</ele><time>2026-05-03T10:55:59.905Z</time></trkpt><trkpt lat="42.40222625697995" lon="14.070299126103908"><ele>147.83333333333334</ele><time>2026-05-03T10:56:00.905Z</time></trkpt><trkpt lat="42.40215804276179" lon="14.070203918156189"><ele>150.0</ele><time>2026-05-03T10:56:01.905Z</time></trkpt><trkpt lat="42.40208958600614" lon="14.070109209154017"><ele>150.0</ele><time>2026-05-03T10:56:02.905Z</time></trkpt><trkpt lat="42.40201007701693" lon="14.07000282736639"><ele>150.0</ele><time>2026-05-03T10:56:04Z</time></trkpt><trkpt lat="42.40193152975053" lon="14.069907014800158"><ele>150.0</ele><time>2026-05-03T10:56:05Z</time></trkpt><trkpt lat="42.40185454268391" lon="14.069814119913934"><ele>150.0</ele><time>2026-05-03T10:56:06Z</time></trkpt><trkpt lat="42.401767143605646" lon="14.069716071219531"><ele>150.0</ele><time>2026-05-03T10:56:07Z</time></trkpt><trkpt lat="42.401675720631815" lon="14.069619161619963"><ele>151.75</ele><time>2026-05-03T10:56:08Z</time></trkpt><trkpt lat="42.40158511222592" lon="14.069524560874836"><ele>153.5</ele><time>2026-05-03T10:56:09Z</time></trkpt><trkpt lat="42.40149402902575" lon="14.06943259902787"><ele>155.25</ele><time>2026-05-03T10:56:10Z</time></trkpt><trkpt lat="42.40139771124105" lon="14.06933925536403"><ele>157.0</ele><time>2026-05-03T10:56:11Z</time></trkpt><trkpt lat="42.40129716842359" lon="14.06924668532977"><ele>157.0</ele><time>2026-05-03T10:56:12Z</time></trkpt><trkpt lat="42.4011950372963" lon="14.069154012995533"><ele>157.0</ele><time>2026-05-03T10:56:13Z</time></trkpt><trkpt lat="42.40109377983609" lon="14.06906070255444"><ele>157.0</ele><time>2026-05-03T10:56:14Z</time></trkpt><trkpt lat="42.400993854818445" lon="14.068965186893001"><ele>157.0</ele><time>2026-05-03T10:56:15Z</time></trkpt><trkpt lat="42.4008882385118" lon="14.068883829521559"><ele>158.39999999999998</ele><time>2026-05-03T10:56:16Z</time></trkpt><trkpt lat="42.40077930162338" lon="14.068826726873223"><ele>159.79999999999998</ele><time>2026-05-03T10:56:17Z</time></trkpt><trkpt lat="42.40067107943819" lon="14.068790274602195"><ele>161.2</ele><time>2026-05-03T10:56:18Z</time></trkpt><trkpt lat="42.40056233942256" lon="14.068751895392017"><ele>162.6</ele><time>2026-05-03T10:56:19Z</time></trkpt><trkpt lat="42.40046873028349" lon="14.068699867634743"><ele>164.0</ele><time>2026-05-03T10:56:20Z</time></trkpt><trkpt lat="42.40039953788086" lon="14.06861363822789"><ele>164.0</ele><time>2026-05-03T10:56:21Z</time></trkpt><trkpt lat="42.400342103590255" lon="14.068520102926554"><ele>164.0</ele><time>2026-05-03T10:56:22Z</time></trkpt><trkpt lat="42.400299343614584" lon="14.068419936586123"><ele>164.0</ele><time>2026-05-03T10:56:23Z</time></trkpt><trkpt lat="42.40025850091247" lon="14.068306960700218"><ele>164.0</ele><time>2026-05-03T10:56:24Z</time></trkpt><trkpt lat="42.40021859326102" lon="14.068188221374108"><ele>164.0</ele><time>2026-05-03T10:56:25Z</time></trkpt><trkpt lat="42.40016952678485" lon="14.068073758982166"><ele>166.79999999999998</ele><time>2026-05-03T10:56:26Z</time></trkpt><trkpt lat="42.400122231520946" lon="14.067943942423629"><ele>169.6</ele><time>2026-05-03T10:56:27Z</time></trkpt><trkpt lat="42.400070306222524" lon="14.067810540617065"><ele>172.4</ele><time>2026-05-03T10:56:28Z</time></trkpt><trkpt lat="42.40001614042067" lon="14.067679262577318"><ele>175.2</ele><time>2026-05-03T10:56:29Z</time></trkpt><trkpt lat="42.39995477369952" lon="14.067548485011569"><ele>178.0</ele><time>2026-05-03T10:56:30Z</time></trkpt><trkpt lat="42.39988919801978" lon="14.067413428401997"><ele>176.0</ele><time>2026-05-03T10:56:31Z</time></trkpt><trkpt lat="42.399818444697665" lon="14.067270199065575"><ele>174.0</ele><time>2026-05-03T10:56:32Z</time></trkpt><trkpt lat="42.39974328913673" lon="14.067129382712531"><ele>172.0</ele><time>2026-05-03T10:56:33Z</time></trkpt><trkpt lat="42.399668455546866" lon="14.066984842154579"><ele>170.0</ele><time>2026-05-03T10:56:34Z</time></trkpt><trkpt lat="42.39960074191126" lon="14.066838421592578"><ele>170.0</ele><time>2026-05-03T10:56:35Z</time></trkpt><trkpt lat="42.399530884624866" lon="14.066698467599782"><ele>170.0</ele><time>2026-05-03T10:56:36Z</time></trkpt><trkpt lat="42.39949050125871" lon="14.0665458664903"><ele>170.0</ele><time>2026-05-03T10:56:37Z</time></trkpt><trkpt lat="42.399453099958095" lon="14.066402171814028"><ele>170.0</ele><time>2026-05-03T10:56:38Z</time></trkpt><trkpt lat="42.39940381160218" lon="14.066260106222042"><ele>171.5</ele><time>2026-05-03T10:56:39Z</time></trkpt><trkpt lat="42.399379937490686" lon="14.066100936748056"><ele>173.0</ele><time>2026-05-03T10:56:40Z</time></trkpt><trkpt lat="42.399348726524664" lon="14.065942004864747"><ele>174.5</ele><time>2026-05-03T10:56:41Z</time></trkpt><trkpt lat="42.39931443219068" lon="14.065778823567937"><ele>176.0</ele><time>2026-05-03T10:56:42Z</time></trkpt><trkpt lat="42.399280816803696" lon="14.065616013820872"><ele>177.5</ele><time>2026-05-03T10:56:43Z</time></trkpt><trkpt lat="42.39924646841878" lon="14.065450587698093"><ele>179.0</ele><time>2026-05-03T10:56:44Z</time></trkpt><trkpt lat="42.39921902835708" lon="14.065288883017674"><ele>180.5</ele><time>2026-05-03T10:56:45Z</time></trkpt><trkpt lat="42.39918814144876" lon="14.065144947287186"><ele>182.0</ele><time>2026-05-03T10:56:46Z</time></trkpt><trkpt lat="42.39917273602443" lon="14.065014831329975"><ele>181.8</ele><time>2026-05-03T10:56:47Z</time></trkpt><trkpt lat="42.39917619569534" lon="14.064887610172626"><ele>181.6</ele><time>2026-05-03T10:56:48Z</time></trkpt><trkpt lat="42.39920486226233" lon="14.06475467079128"><ele>181.4</ele><time>2026-05-03T10:56:49Z</time></trkpt><trkpt lat="42.39924730153625" lon="14.064615334558738"><ele>181.20000000000002</ele><time>2026-05-03T10:56:50Z</time></trkpt><trkpt lat="42.39929937935249" lon="14.0644771623159"><ele>181.0</ele><time>2026-05-03T10:56:51Z</time></trkpt><trkpt lat="42.39935368761381" lon="14.064330709877842"><ele>181.0</ele><time>2026-05-03T10:56:52Z</time></trkpt><trkpt lat="42.39941403353603" lon="14.064177528895286"><ele>181.0</ele><time>2026-05-03T10:56:53Z</time></trkpt><trkpt lat="42.39947559956805" lon="14.064013457454667"><ele>181.0</ele><time>2026-05-03T10:56:54Z</time></trkpt><trkpt lat="42.399536088366226" lon="14.06384092010569"><ele>181.0</ele><time>2026-05-03T10:56:55Z</time></trkpt><trkpt lat="42.39960329445711" lon="14.063665573324956"><ele>183.66666666666669</ele><time>2026-05-03T10:56:56Z</time></trkpt><trkpt lat="42.39967108312684" lon="14.063479332976177"><ele>186.33333333333334</ele><time>2026-05-03T10:56:57Z</time></trkpt><trkpt lat="42.399742136005855" lon="14.063286780773359"><ele>189.0</ele><time>2026-05-03T10:56:58Z</time></trkpt><trkpt lat="42.39981322945603" lon="14.063092756777603"><ele>189.0</ele><time>2026-05-03T10:56:59Z</time></trkpt><trkpt lat="42.39987861019001" lon="14.062924227215754"><ele>189.0</ele><time>2026-05-03T10:57:00Z</time></trkpt><trkpt lat="42.39993868442961" lon="14.06276631033892"><ele>189.0</ele><time>2026-05-03T10:57:01Z</time></trkpt><trkpt lat="42.39999468293267" lon="14.062614210202211"><ele>189.0</ele><time>2026-05-03T10:57:02Z</time></trkpt><trkpt lat="42.400051074999425" lon="14.062467441646696"><ele>189.0</ele><time>2026-05-03T10:57:03Z</time></trkpt><trkpt lat="42.40010969473766" lon="14.06232716886922"><ele>189.0</ele><time>2026-05-03T10:57:04Z</time></trkpt><trkpt lat="42.400173268640444" lon="14.062194663327013"><ele>189.0</ele><time>2026-05-03T10:57:05Z</time></trkpt><trkpt lat="42.400245970195506" lon="14.062073601251504"><ele>189.0</ele><time>2026-05-03T10:57:06Z</time></trkpt><trkpt lat="42.40032664121959" lon="14.061958327308483"><ele>189.0</ele><time>2026-05-03T10:57:07Z</time></trkpt><trkpt lat="42.400409204172625" lon="14.061839414881865"><ele>189.0</ele><time>2026-05-03T10:57:08Z</time></trkpt><trkpt lat="42.40049190738484" lon="14.061718258555999"><ele>189.0</ele><time>2026-05-03T10:57:09Z</time></trkpt><trkpt lat="42.4005769212303" lon="14.061592706985982"><ele>189.0</ele><time>2026-05-03T10:57:10Z</time></trkpt><trkpt lat="42.40066757826866" lon="14.06146244973686"><ele>188.25</ele><time>2026-05-03T10:57:11Z</time></trkpt><trkpt lat="42.40076053199603" lon="14.06132598960348"><ele>187.5</ele><time>2026-05-03T10:57:12Z</time></trkpt><trkpt lat="42.40086197508273" lon="14.061175809204052"><ele>186.75</ele><time>2026-05-03T10:57:13Z</time></trkpt><trkpt lat="42.40096890409704" lon="14.061015883005469"><ele>186.0</ele><time>2026-05-03T10:57:14Z</time></trkpt><trkpt lat="42.401079310522086" lon="14.060844402560187"><ele>186.0</ele><time>2026-05-03T10:57:15Z</time></trkpt><trkpt lat="42.40120158551862" lon="14.06065842735941"><ele>186.0</ele><time>2026-05-03T10:57:16Z</time></trkpt><trkpt lat="42.40132913606952" lon="14.06046714160902"><ele>186.0</ele><time>2026-05-03T10:57:17Z</time></trkpt><trkpt lat="42.401455163313244" lon="14.060276121209748"><ele>184.33333333333334</ele><time>2026-05-03T10:57:18Z</time></trkpt><trkpt lat="42.40156945067347" lon="14.060102049583714"><ele>182.66666666666669</ele><time>2026-05-03T10:57:19Z</time></trkpt><trkpt lat="42.40167541551267" lon="14.059957502936882"><ele>181.0</ele><time>2026-05-03T10:57:20Z</time></trkpt><trkpt lat="42.401774815262" lon="14.059827477997342"><ele>180.75</ele><time>2026-05-03T10:57:21Z</time></trkpt><trkpt lat="42.401872393086556" lon="14.059698937048896"><ele>180.5</ele><time>2026-05-03T10:57:22Z</time></trkpt><trkpt lat="42.401974243828256" lon="14.059568330015535"><ele>180.25</ele><time>2026-05-03T10:57:23Z</time></trkpt><trkpt lat="42.40208006786949" lon="14.059439102764085"><ele>180.0</ele><time>2026-05-03T10:57:24Z</time></trkpt><trkpt lat="42.40218192050041" lon="14.059307401177929"><ele>183.0</ele><time>2026-05-03T10:57:25Z</time></trkpt><trkpt lat="42.40227823601366" lon="14.059172815994641"><ele>186.0</ele><time>2026-05-03T10:57:26Z</time></trkpt><trkpt lat="42.40237742178948" lon="14.059037492863217"><ele>189.0</ele><time>2026-05-03T10:57:27Z</time></trkpt><trkpt lat="42.40247415848569" lon="14.058905472986979"><ele>192.0</ele><time>2026-05-03T10:57:28Z</time></trkpt><trkpt lat="42.402555127470514" lon="14.058768989547856"><ele>192.0</ele><time>2026-05-03T10:57:29Z</time></trkpt><trkpt lat="42.40261393127074" lon="14.058611169094313"><ele>192.0</ele><time>2026-05-03T10:57:30Z</time></trkpt><trkpt lat="42.40264119476671" lon="14.058429723702515"><ele>192.0</ele><time>2026-05-03T10:57:31Z</time></trkpt><trkpt lat="42.402634916062325" lon="14.058223166690288"><ele>192.0</ele><time>2026-05-03T10:57:32Z</time></trkpt><trkpt lat="42.40259388772259" lon="14.05797410256107"><ele>195.0</ele><time>2026-05-03T10:57:33Z</time></trkpt><trkpt lat="42.40253844981315" lon="14.057684760840504"><ele>198.0</ele><time>2026-05-03T10:57:34Z</time></trkpt><trkpt lat="42.40246926085871" lon="14.05736973759026"><ele>200.66666666666669</ele><time>2026-05-03T10:57:35Z</time></trkpt><trkpt lat="42.40242588556326" lon="14.057097282656036"><ele>203.33333333333334</ele><time>2026-05-03T10:57:36Z</time></trkpt><trkpt lat="42.402376942070354" lon="14.056879218200038"><ele>206.0</ele><time>2026-05-03T10:57:37Z</time></trkpt><trkpt lat="42.40233089479938" lon="14.056674057779006"><ele>205.5</ele><time>2026-05-03T10:57:38Z</time></trkpt><trkpt lat="42.40228970545406" lon="14.056497400777232"><ele>205.0</ele><time>2026-05-03T10:57:39Z</time></trkpt><trkpt lat="42.40223515935283" lon="14.056353772348546"><ele>204.5</ele><time>2026-05-03T10:57:40Z</time></trkpt><trkpt lat="42.40219454433179" lon="14.056220356828412"><ele>204.0</ele><time>2026-05-03T10:57:41Z</time></trkpt><trkpt lat="42.40212962115604" lon="14.056099213484286"><ele>204.0</ele><time>2026-05-03T10:57:42Z</time></trkpt><trkpt lat="42.402052230119374" lon="14.055983084343143"><ele>204.0</ele><time>2026-05-03T10:57:43Z</time></trkpt><trkpt lat="42.40197654420865" lon="14.055884762880725"><ele>204.0</ele><time>2026-05-03T10:57:44Z</time></trkpt><trkpt lat="42.40191700288269" lon="14.05580492855814"><ele>204.0</ele><time>2026-05-03T10:57:45Z</time></trkpt><trkpt lat="42.40183447843993" lon="14.055704328049483"><ele>204.0</ele><time>2026-05-03T10:57:47Z</time></trkpt><trkpt lat="42.401793139212714" lon="14.055620824557744"><ele>205.79999999999998</ele><time>2026-05-03T10:57:48Z</time></trkpt><trkpt lat="42.401726306339164" lon="14.05552640439373"><ele>207.6</ele><time>2026-05-03T10:57:49Z</time></trkpt><trkpt lat="42.4016588750111" lon="14.05541777563709"><ele>209.4</ele><time>2026-05-03T10:57:50Z</time></trkpt><trkpt lat="42.40160092849804" lon="14.055303017531413"><ele>211.2</ele><time>2026-05-03T10:57:51Z</time></trkpt><trkpt lat="42.40156698713459" lon="14.055184053586371"><ele>213.0</ele><time>2026-05-03T10:57:52Z</time></trkpt><trkpt lat="42.40156595808954" lon="14.05505073293215"><ele>214.75</ele><time>2026-05-03T10:57:53Z</time></trkpt><trkpt lat="42.40156559299622" lon="14.054885629352013"><ele>216.5</ele><time>2026-05-03T10:57:54Z</time></trkpt><trkpt lat="42.40155927380757" lon="14.054711563383101"><ele>218.25</ele><time>2026-05-03T10:57:55Z</time></trkpt><trkpt lat="42.40156408794844" lon="14.054559886142368"><ele>220.0</ele><time>2026-05-03T10:57:56Z</time></trkpt><trkpt lat="42.40155188593211" lon="14.054408880827955"><ele>220.0</ele><time>2026-05-03T10:57:57Z</time></trkpt><trkpt lat="42.4015156993844" lon="14.054251538600731"><ele>220.0</ele><time>2026-05-03T10:57:58Z</time></trkpt><trkpt lat="42.40147046206294" lon="14.05409162254184"><ele>220.0</ele><time>2026-05-03T10:57:59Z</time></trkpt><trkpt lat="42.40137268417091" lon="14.053956297979452"><ele>220.0</ele><time>2026-05-03T10:58:00Z</time></trkpt><trkpt lat="42.401278286270724" lon="14.053800689674423"><ele>219.33333333333331</ele><time>2026-05-03T10:58:01Z</time></trkpt><trkpt lat="42.401169283181844" lon="14.053663653522857"><ele>218.66666666666669</ele><time>2026-05-03T10:58:02Z</time></trkpt><trkpt lat="42.40104366779859" lon="14.053503113454413"><ele>218.0</ele><time>2026-05-03T10:58:03Z</time></trkpt><trkpt lat="42.40093617417842" lon="14.053364900330333"><ele>219.2</ele><time>2026-05-03T10:58:04Z</time></trkpt><trkpt lat="42.40084282064355" lon="14.053247458986405"><ele>220.4</ele><time>2026-05-03T10:58:05Z</time></trkpt><trkpt lat="42.40076731776827" lon="14.053152502365009"><ele>221.59999999999997</ele><time>2026-05-03T10:58:06Z</time></trkpt><trkpt lat="42.40071202867662" lon="14.053081689543971"><ele>222.79999999999998</ele><time>2026-05-03T10:58:07Z</time></trkpt><trkpt lat="42.40062888740387" lon="14.05299762569871"><ele>224.0</ele><time>2026-05-03T10:58:09Z</time></trkpt><trkpt lat="42.40059122770868" lon="14.05292536031424"><ele>224.00000000000003</ele><time>2026-05-03T10:58:10Z</time></trkpt><trkpt lat="42.40053667684425" lon="14.052851473506257"><ele>224.0</ele><time>2026-05-03T10:58:11Z</time></trkpt><trkpt lat="42.40048843219697" lon="14.052786128131425"><ele>224.0</ele><time>2026-05-03T10:58:12Z</time></trkpt><trkpt lat="42.4004314380164" lon="14.052737808021392"><ele>224.0</ele><time>2026-05-03T10:58:14Z</time></trkpt><trkpt lat="42.40034885929656" lon="14.052616973224584"><ele>224.00000000000003</ele><time>2026-05-03T10:58:16Z</time></trkpt><trkpt lat="42.400285743301495" lon="14.052538751478876"><ele>224.0</ele><time>2026-05-03T10:58:17Z</time></trkpt><trkpt lat="42.40022551406084" lon="14.052446882948797"><ele>223.6</ele><time>2026-05-03T10:58:18Z</time></trkpt><trkpt lat="42.400151755257106" lon="14.052344657709746"><ele>223.2</ele><time>2026-05-03T10:58:19Z</time></trkpt><trkpt lat="42.400052083949696" lon="14.05226989047865"><ele>222.79999999999998</ele><time>2026-05-03T10:58:20Z</time></trkpt><trkpt lat="42.3999681689438" lon="14.052192222471446"><ele>222.39999999999998</ele><time>2026-05-03T10:58:21Z</time></trkpt><trkpt lat="42.3999006004383" lon="14.052137822409847"><ele>222.0</ele><time>2026-05-03T10:58:22Z</time></trkpt><trkpt lat="42.399835251369" lon="14.052076136599513"><ele>222.0</ele><time>2026-05-03T10:58:24Z</time></trkpt><trkpt lat="42.39981010512353" lon="14.051993670108073"><ele>222.0</ele><time>2026-05-03T10:58:26Z</time></trkpt><trkpt lat="42.39984638909815" lon="14.051902366725269"><ele>222.0</ele><time>2026-05-03T10:58:28Z</time></trkpt><trkpt lat="42.39998865981981" lon="14.05185160481005"><ele>222.0</ele><time>2026-05-03T10:58:30Z</time></trkpt><trkpt lat="42.400078541584385" lon="14.051833259246402"><ele>222.0</ele><time>2026-05-03T10:58:31Z</time></trkpt><trkpt lat="42.400173052369496" lon="14.051787610128303"><ele>222.0</ele><time>2026-05-03T10:58:32Z</time></trkpt><trkpt lat="42.40027045391721" lon="14.051726823153965"><ele>222.0</ele><time>2026-05-03T10:58:33Z</time></trkpt><trkpt lat="42.40037069210598" lon="14.051668212177079"><ele>222.0</ele><time>2026-05-03T10:58:34Z</time></trkpt><trkpt lat="42.40047238699" lon="14.051612175727154"><ele>222.0</ele><time>2026-05-03T10:58:35Z</time></trkpt><trkpt lat="42.400578227863626" lon="14.05155234767474"><ele>222.0</ele><time>2026-05-03T10:58:36Z</time></trkpt><trkpt lat="42.4006812109687" lon="14.05149774937987"><ele>222.39999999999998</ele><time>2026-05-03T10:58:37Z</time></trkpt><trkpt lat="42.4007721608963" lon="14.051466271796745"><ele>222.79999999999998</ele><time>2026-05-03T10:58:38Z</time></trkpt><trkpt lat="42.40083733631789" lon="14.051455451102273"><ele>223.2</ele><time>2026-05-03T10:58:39Z</time></trkpt><trkpt lat="42.400956917571165" lon="14.051521415147993"><ele>223.6</ele><time>2026-05-03T10:58:41Z</time></trkpt><trkpt lat="42.40101964894814" lon="14.051600345317318"><ele>224.0</ele><time>2026-05-03T10:58:42Z</time></trkpt><trkpt lat="42.401076730427455" lon="14.051702793700985"><ele>224.25</ele><time>2026-05-03T10:58:43Z</time></trkpt><trkpt lat="42.40113215920659" lon="14.0518169673978"><ele>224.5</ele><time>2026-05-03T10:58:44Z</time></trkpt><trkpt lat="42.40120014497811" lon="14.0519384156829"><ele>224.75</ele><time>2026-05-03T10:58:45Z</time></trkpt><trkpt lat="42.401274808458595" lon="14.052066512177053"><ele>225.0</ele><time>2026-05-03T10:58:46Z</time></trkpt><trkpt lat="42.40135113425623" lon="14.05220227024564"><ele>224.75</ele><time>2026-05-03T10:58:47Z</time></trkpt><trkpt lat="42.40143278622585" lon="14.052349394869909"><ele>224.5</ele><time>2026-05-03T10:58:48Z</time></trkpt><trkpt lat="42.40151926356904" lon="14.052501428851915"><ele>224.25</ele><time>2026-05-03T10:58:49Z</time></trkpt><trkpt lat="42.40160618316762" lon="14.05264815377991"><ele>224.0</ele><time>2026-05-03T10:58:50Z</time></trkpt><trkpt lat="42.401690978236495" lon="14.052803376451415"><ele>224.0</ele><time>2026-05-03T10:58:51Z</time></trkpt><trkpt lat="42.401779965692015" lon="14.052961059210485"><ele>224.0</ele><time>2026-05-03T10:58:52Z</time></trkpt><trkpt lat="42.4018691153815" lon="14.053122134433062"><ele>224.0</ele><time>2026-05-03T10:58:53Z</time></trkpt><trkpt lat="42.40195884842558" lon="14.053282973544754"><ele>224.0</ele><time>2026-05-03T10:58:54Z</time></trkpt><trkpt lat="42.40204854505857" lon="14.053445809392658"><ele>224.0</ele><time>2026-05-03T10:58:55Z</time></trkpt><trkpt lat="42.40213728693048" lon="14.053606795716721"><ele>224.0</ele><time>2026-05-03T10:58:56Z</time></trkpt><trkpt lat="42.402216538391045" lon="14.053759411036411"><ele>224.0</ele><time>2026-05-03T10:58:57Z</time></trkpt><trkpt lat="42.402291550334475" lon="14.053897781222428"><ele>224.0</ele><time>2026-05-03T10:58:58Z</time></trkpt><trkpt lat="42.40236485989517" lon="14.054030023550908"><ele>223.25</ele><time>2026-05-03T10:58:59Z</time></trkpt><trkpt lat="42.4024356814642" lon="14.054155152797247"><ele>222.5</ele><time>2026-05-03T10:59:00Z</time></trkpt><trkpt lat="42.40250484017613" lon="14.054281296318422"><ele>221.75</ele><time>2026-05-03T10:59:01Z</time></trkpt><trkpt lat="42.402576390528715" lon="14.054411844038595"><ele>221.0</ele><time>2026-05-03T10:59:02Z</time></trkpt><trkpt lat="42.40264644292881" lon="14.054549111142336"><ele>221.0</ele><time>2026-05-03T10:59:03Z</time></trkpt><trkpt lat="42.40271808809309" lon="14.054683259776594"><ele>221.0</ele><time>2026-05-03T10:59:04Z</time></trkpt><trkpt lat="42.4027966221359" lon="14.054816976295573"><ele>221.0</ele><time>2026-05-03T10:59:05Z</time></trkpt><trkpt lat="42.40287234672795" lon="14.05495090810301"><ele>221.0</ele><time>2026-05-03T10:59:06Z</time></trkpt><trkpt lat="42.4029475149679" lon="14.055081859028649"><ele>218.25</ele><time>2026-05-03T10:59:07Z</time></trkpt><trkpt lat="42.40302122400383" lon="14.05521490540245"><ele>215.5</ele><time>2026-05-03T10:59:08Z</time></trkpt><trkpt lat="42.40309112124505" lon="14.055351381311425"><ele>212.75</ele><time>2026-05-03T10:59:09Z</time></trkpt><trkpt lat="42.403161779402716" lon="14.055484893684211"><ele>210.0</ele><time>2026-05-03T10:59:10Z</time></trkpt><trkpt lat="42.403227216588284" lon="14.055616775666179"><ele>210.0</ele><time>2026-05-03T10:59:11Z</time></trkpt><trkpt lat="42.403277644465014" lon="14.055753790767465"><ele>210.0</ele><time>2026-05-03T10:59:12Z</time></trkpt><trkpt lat="42.40330424489605" lon="14.055901353676843"><ele>210.0</ele><time>2026-05-03T10:59:13Z</time></trkpt><trkpt lat="42.40328856139453" lon="14.056053266674594"><ele>210.0</ele><time>2026-05-03T10:59:14Z</time></trkpt><trkpt lat="42.40326168629954" lon="14.056206203636846"><ele>210.5</ele><time>2026-05-03T10:59:15Z</time></trkpt><trkpt lat="42.403242694895454" lon="14.056368280356304"><ele>211.0</ele><time>2026-05-03T10:59:16Z</time></trkpt><trkpt lat="42.403207618174385" lon="14.056532975971713"><ele>211.5</ele><time>2026-05-03T10:59:17Z</time></trkpt><trkpt lat="42.40317919321529" lon="14.056704111564294"><ele>212.0</ele><time>2026-05-03T10:59:18Z</time></trkpt><trkpt lat="42.40315950567787" lon="14.05687735366222"><ele>212.0</ele><time>2026-05-03T10:59:19Z</time></trkpt><trkpt lat="42.4031474958022" lon="14.057036541598615"><ele>212.0</ele><time>2026-05-03T10:59:20Z</time></trkpt><trkpt lat="42.40314296793638" lon="14.057193546217327"><ele>212.0</ele><time>2026-05-03T10:59:21Z</time></trkpt><trkpt lat="42.40314807969792" lon="14.057354775905731"><ele>212.0</ele><time>2026-05-03T10:59:22Z</time></trkpt><trkpt lat="42.40317400418434" lon="14.05751886259171"><ele>212.25</ele><time>2026-05-03T10:59:23Z</time></trkpt><trkpt lat="42.403217914041726" lon="14.057682153742174"><ele>212.5</ele><time>2026-05-03T10:59:24Z</time></trkpt><trkpt lat="42.403275952555155" lon="14.057843984409491"><ele>212.75</ele><time>2026-05-03T10:59:25Z</time></trkpt><trkpt lat="42.40334443118456" lon="14.058007161146927"><ele>213.0</ele><time>2026-05-03T10:59:26Z</time></trkpt><trkpt lat="42.403417463981135" lon="14.058174260425563"><ele>212.5</ele><time>2026-05-03T10:59:27Z</time></trkpt><trkpt lat="42.40348934845276" lon="14.058350127796308"><ele>212.0</ele><time>2026-05-03T10:59:28Z</time></trkpt><trkpt lat="42.40355618399132" lon="14.058529653023967"><ele>211.5</ele><time>2026-05-03T10:59:29Z</time></trkpt><trkpt lat="42.403617139906075" lon="14.05871756851204"><ele>211.0</ele><time>2026-05-03T10:59:30Z</time></trkpt><trkpt lat="42.40367313287529" lon="14.05890553092233"><ele>211.0</ele><time>2026-05-03T10:59:31Z</time></trkpt><trkpt lat="42.40372902360588" lon="14.059097434464261"><ele>211.0</ele><time>2026-05-03T10:59:32Z</time></trkpt><trkpt lat="42.40378913545134" lon="14.059288940711156"><ele>211.0</ele><time>2026-05-03T10:59:33Z</time></trkpt><trkpt lat="42.40384841880439" lon="14.059478759579358"><ele>211.25</ele><time>2026-05-03T10:59:34Z</time></trkpt><trkpt lat="42.40390311616641" lon="14.05965567626936"><ele>211.5</ele><time>2026-05-03T10:59:35Z</time></trkpt><trkpt lat="42.40394924571888" lon="14.05980450555644"><ele>211.75</ele><time>2026-05-03T10:59:36Z</time></trkpt><trkpt lat="42.40399183169507" lon="14.05994237763472"><ele>212.0</ele><time>2026-05-03T10:59:37Z</time></trkpt><trkpt lat="42.40403270979039" lon="14.060068175361504"><ele>211.39999999999998</ele><time>2026-05-03T10:59:38Z</time></trkpt><trkpt lat="42.40407099166631" lon="14.060203789878555"><ele>210.79999999999998</ele><time>2026-05-03T10:59:39Z</time></trkpt><trkpt lat="42.40411074119853" lon="14.060332525447128"><ele>210.2</ele><time>2026-05-03T10:59:40Z</time></trkpt><trkpt lat="42.404150946277795" lon="14.06045697913839"><ele>209.6</ele><time>2026-05-03T10:59:41Z</time></trkpt><trkpt lat="42.40418865177217" lon="14.060579667807707"><ele>209.0</ele><time>2026-05-03T10:59:42Z</time></trkpt><trkpt lat="42.40422399174782" lon="14.060697823846269"><ele>208.50000000000003</ele><time>2026-05-03T10:59:43Z</time></trkpt><trkpt lat="42.40426126214065" lon="14.060812498111385"><ele>208.0</ele><time>2026-05-03T10:59:44Z</time></trkpt><trkpt lat="42.404302413259906" lon="14.060920506312929"><ele>207.5</ele><time>2026-05-03T10:59:45Z</time></trkpt><trkpt lat="42.404349992811106" lon="14.061024516455461"><ele>207.0</ele><time>2026-05-03T10:59:46Z</time></trkpt><trkpt lat="42.40439612493762" lon="14.061122287258524"><ele>206.50000000000003</ele><time>2026-05-03T10:59:47Z</time></trkpt><trkpt lat="42.40444171725204" lon="14.061220635320971"><ele>206.0</ele><time>2026-05-03T10:59:48Z</time></trkpt><trkpt lat="42.404488332445084" lon="14.061315235137634"><ele>206.00000000000003</ele><time>2026-05-03T10:59:49Z</time></trkpt><trkpt lat="42.4045394516239" lon="14.061408493988662"><ele>206.0</ele><time>2026-05-03T10:59:50Z</time></trkpt><trkpt lat="42.40458954403734" lon="14.061498074341847"><ele>206.0</ele><time>2026-05-03T10:59:51Z</time></trkpt><trkpt lat="42.40464156312924" lon="14.061587244254277"><ele>206.0</ele><time>2026-05-03T10:59:52Z</time></trkpt><trkpt lat="42.404691883566386" lon="14.061671247063774"><ele>206.00000000000003</ele><time>2026-05-03T10:59:53Z</time></trkpt><trkpt lat="42.404743921186444" lon="14.061757235098987"><ele>206.0</ele><time>2026-05-03T10:59:54Z</time></trkpt><trkpt lat="42.404796116246644" lon="14.06183899973505"><ele>205.33333333333334</ele><time>2026-05-03T10:59:55Z</time></trkpt><trkpt lat="42.40484472625256" lon="14.061922273403226"><ele>204.66666666666669</ele><time>2026-05-03T10:59:56Z</time></trkpt><trkpt lat="42.40489305649786" lon="14.062002395715478"><ele>204.0</ele><time>2026-05-03T10:59:57Z</time></trkpt><trkpt lat="42.40494451011852" lon="14.0620798207792"><ele>203.33333333333331</ele><time>2026-05-03T10:59:58Z</time></trkpt><trkpt lat="42.40499584388502" lon="14.062161239966112"><ele>202.66666666666666</ele><time>2026-05-03T10:59:59Z</time></trkpt><trkpt lat="42.40504255151344" lon="14.06224140463638"><ele>202.0</ele><time>2026-05-03T11:00:00Z</time></trkpt><trkpt lat="42.405092383386716" lon="14.062321812652323"><ele>201.99999999999997</ele><time>2026-05-03T11:00:01Z</time></trkpt><trkpt lat="42.405140701371394" lon="14.06240643102763"><ele>202.0</ele><time>2026-05-03T11:00:02Z</time></trkpt><trkpt lat="42.405190839076376" lon="14.062491672297952"><ele>202.0</ele><time>2026-05-03T11:00:03Z</time></trkpt><trkpt lat="42.40524468206258" lon="14.062576222063003"><ele>202.0</ele><time>2026-05-03T11:00:04Z</time></trkpt><trkpt lat="42.405298345670396" lon="14.062662515977586"><ele>201.99999999999997</ele><time>2026-05-03T11:00:05Z</time></trkpt><trkpt lat="42.40535262617421" lon="14.062748739639408"><ele>202.0</ele><time>2026-05-03T11:00:06Z</time></trkpt><trkpt lat="42.405405416605916" lon="14.062833642005302"><ele>201.49999999999997</ele><time>2026-05-03T11:00:07Z</time></trkpt><trkpt lat="42.40546059220438" lon="14.062921368173471"><ele>201.0</ele><time>2026-05-03T11:00:08Z</time></trkpt><trkpt lat="42.40551632890971" lon="14.063008536929967"><ele>200.5</ele><time>2026-05-03T11:00:09Z</time></trkpt><trkpt lat="42.40557300875194" lon="14.063096103335056"><ele>200.0</ele><time>2026-05-03T11:00:10Z</time></trkpt><trkpt lat="42.405626882586084" lon="14.063187002692509"><ele>199.49999999999997</ele><time>2026-05-03T11:00:11Z</time></trkpt><trkpt lat="42.405683043950845" lon="14.063281116964717"><ele>199.0</ele><time>2026-05-03T11:00:12Z</time></trkpt><trkpt lat="42.405743762047265" lon="14.063377820260653"><ele>198.0</ele><time>2026-05-03T11:00:13Z</time></trkpt><trkpt lat="42.405813423009604" lon="14.06347267063927"><ele>197.0</ele><time>2026-05-03T11:00:14Z</time></trkpt><trkpt lat="42.405896710530904" lon="14.063562832752599"><ele>196.0</ele><time>2026-05-03T11:00:15Z</time></trkpt><trkpt lat="42.40598638897862" lon="14.063653794552533"><ele>195.0</ele><time>2026-05-03T11:00:16Z</time></trkpt><trkpt lat="42.406082070533294" lon="14.063743407295066"><ele>194.0</ele><time>2026-05-03T11:00:17Z</time></trkpt><trkpt lat="42.40618234664124" lon="14.063835289907178"><ele>194.0</ele><time>2026-05-03T11:00:18Z</time></trkpt><trkpt lat="42.406283213879924" lon="14.063937957073973"><ele>194.0</ele><time>2026-05-03T11:00:19Z</time></trkpt><trkpt lat="42.406377670638115" lon="14.064055591037535"><ele>194.0</ele><time>2026-05-03T11:00:20Z</time></trkpt><trkpt lat="42.406471627948974" lon="14.064180339400432"><ele>194.0</ele><time>2026-05-03T11:00:21Z</time></trkpt><trkpt lat="42.40657024702172" lon="14.06430391619372"><ele>192.5</ele><time>2026-05-03T11:00:22Z</time></trkpt><trkpt lat="42.406670593323575" lon="14.064423722660257"><ele>191.0</ele><time>2026-05-03T11:00:23Z</time></trkpt><trkpt lat="42.40676798393727" lon="14.064544319768766"><ele>189.5</ele><time>2026-05-03T11:00:24Z</time></trkpt><trkpt lat="42.40686566683679" lon="14.064662323649765"><ele>188.0</ele><time>2026-05-03T11:00:25Z</time></trkpt><trkpt lat="42.4069621343552" lon="14.064779381040262"><ele>188.0</ele><time>2026-05-03T11:00:26Z</time></trkpt><trkpt lat="42.40706047446286" lon="14.064895594164078"><ele>188.0</ele><time>2026-05-03T11:00:27Z</time></trkpt><trkpt lat="42.40716399072042" lon="14.065005674792834"><ele>188.0</ele><time>2026-05-03T11:00:28Z</time></trkpt><trkpt lat="42.40727378118344" lon="14.065102916551476"><ele>188.0</ele><time>2026-05-03T11:00:29Z</time></trkpt><trkpt lat="42.40738181129" lon="14.06520111379"><ele>186.25</ele><time>2026-05-03T11:00:30Z</time></trkpt><trkpt lat="42.407486412149964" lon="14.065302557098526"><ele>184.5</ele><time>2026-05-03T11:00:31Z</time></trkpt><trkpt lat="42.40759012937044" lon="14.0654094376458"><ele>182.75</ele><time>2026-05-03T11:00:32Z</time></trkpt><trkpt lat="42.40769453787623" lon="14.065519718436992"><ele>181.0</ele><time>2026-05-03T11:00:33Z</time></trkpt><trkpt lat="42.40779970719673" lon="14.065631124306641"><ele>181.0</ele><time>2026-05-03T11:00:34Z</time></trkpt><trkpt lat="42.4079013834039" lon="14.065750609481965"><ele>181.0</ele><time>2026-05-03T11:00:35Z</time></trkpt><trkpt lat="42.407998302377486" lon="14.065877227010736"><ele>181.0</ele><time>2026-05-03T11:00:36Z</time></trkpt><trkpt lat="42.40808949790802" lon="14.066008951275279"><ele>181.0</ele><time>2026-05-03T11:00:37Z</time></trkpt><trkpt lat="42.40817375398216" lon="14.06615316449255"><ele>180.25</ele><time>2026-05-03T11:00:38Z</time></trkpt><trkpt lat="42.408248676600934" lon="14.066302891425012"><ele>179.5</ele><time>2026-05-03T11:00:39Z</time></trkpt><trkpt lat="42.40831573392223" lon="14.0664592929539"><ele>178.75</ele><time>2026-05-03T11:00:40Z</time></trkpt><trkpt lat="42.408378394614566" lon="14.066619093025178"><ele>178.0</ele><time>2026-05-03T11:00:41Z</time></trkpt><trkpt lat="42.4084401717023" lon="14.066780520535874"><ele>177.75</ele><time>2026-05-03T11:00:42Z</time></trkpt><trkpt lat="42.40850379636352" lon="14.066941895240559"><ele>177.5</ele><time>2026-05-03T11:00:43Z</time></trkpt><trkpt lat="42.408570338477205" lon="14.067104533678593"><ele>177.25</ele><time>2026-05-03T11:00:44Z</time></trkpt><trkpt lat="42.408640636329" lon="14.067262973681771"><ele>177.0</ele><time>2026-05-03T11:00:45Z</time></trkpt><trkpt lat="42.408714756483995" lon="14.067421805491152"><ele>176.75</ele><time>2026-05-03T11:00:46Z</time></trkpt><trkpt lat="42.408794435330165" lon="14.067573372390157"><ele>176.5</ele><time>2026-05-03T11:00:47Z</time></trkpt><trkpt lat="42.408880694305694" lon="14.067724031506756"><ele>176.25</ele><time>2026-05-03T11:00:48Z</time></trkpt><trkpt lat="42.40896931462419" lon="14.067872004217493"><ele>176.0</ele><time>2026-05-03T11:00:49Z</time></trkpt><trkpt lat="42.40906530227242" lon="14.068014537927544"><ele>176.0</ele><time>2026-05-03T11:00:50Z</time></trkpt><trkpt lat="42.409163577279074" lon="14.068158305756707"><ele>176.0</ele><time>2026-05-03T11:00:51Z</time></trkpt><trkpt lat="42.40925742717483" lon="14.068290673327764"><ele>176.0</ele><time>2026-05-03T11:00:52Z</time></trkpt><trkpt lat="42.40934729199363" lon="14.068418409353121"><ele>176.0</ele><time>2026-05-03T11:00:53Z</time></trkpt><trkpt lat="42.40943215852399" lon="14.068544904759849"><ele>176.0</ele><time>2026-05-03T11:00:54Z</time></trkpt><trkpt lat="42.40951564006113" lon="14.06866779461292"><ele>176.0</ele><time>2026-05-03T11:00:55Z</time></trkpt><trkpt lat="42.409598444234355" lon="14.068784822442304"><ele>176.0</ele><time>2026-05-03T11:00:56Z</time></trkpt><trkpt lat="42.40967875439549" lon="14.068893994667212"><ele>176.0</ele><time>2026-05-03T11:00:57Z</time></trkpt><trkpt lat="42.40975643570836" lon="14.068999378269767"><ele>175.60000000000002</ele><time>2026-05-03T11:00:58Z</time></trkpt><trkpt lat="42.40982964841486" lon="14.06910233913099"><ele>175.2</ele><time>2026-05-03T11:00:59Z</time></trkpt><trkpt lat="42.409898273405695" lon="14.06920509701297"><ele>174.8</ele><time>2026-05-03T11:01:00Z</time></trkpt><trkpt lat="42.40996459487528" lon="14.069305532459653"><ele>174.39999999999998</ele><time>2026-05-03T11:01:01Z</time></trkpt><trkpt lat="42.41003220519045" lon="14.069406397607535"><ele>174.0</ele><time>2026-05-03T11:01:02Z</time></trkpt><trkpt lat="42.41010083032294" lon="14.069508185885404"><ele>173.39999999999998</ele><time>2026-05-03T11:01:03Z</time></trkpt><trkpt lat="42.41016848620864" lon="14.069610353470303"><ele>172.8</ele><time>2026-05-03T11:01:04Z</time></trkpt><trkpt lat="42.41023274107049" lon="14.069708006891886"><ele>172.2</ele><time>2026-05-03T11:01:05Z</time></trkpt><trkpt lat="42.41029633965645" lon="14.069792583198495"><ele>171.60000000000002</ele><time>2026-05-03T11:01:06Z</time></trkpt><trkpt lat="42.41035980412816" lon="14.069879613373468"><ele>171.0</ele><time>2026-05-03T11:01:07Z</time></trkpt><trkpt lat="42.41042987143819" lon="14.069975480281615"><ele>171.60000000000002</ele><time>2026-05-03T11:01:08Z</time></trkpt><trkpt lat="42.41050277342172" lon="14.070074309680862"><ele>172.2</ele><time>2026-05-03T11:01:09Z</time></trkpt><trkpt lat="42.410578121792355" lon="14.070156165131786"><ele>172.8</ele><time>2026-05-03T11:01:10Z</time></trkpt><trkpt lat="42.41064990681942" lon="14.070230284930636"><ele>173.39999999999998</ele><time>2026-05-03T11:01:11Z</time></trkpt><trkpt lat="42.410724442877516" lon="14.070311308504959"><ele>174.0</ele><time>2026-05-03T11:01:12Z</time></trkpt><trkpt lat="42.41080806952556" lon="14.070399221429057"><ele>174.0</ele><time>2026-05-03T11:01:13Z</time></trkpt><trkpt lat="42.41089184184652" lon="14.070485117144855"><ele>174.0</ele><time>2026-05-03T11:01:14Z</time></trkpt><trkpt lat="42.41097697109013" lon="14.0705699571017"><ele>174.0</ele><time>2026-05-03T11:01:15Z</time></trkpt><trkpt lat="42.411061104262814" lon="14.070652482640186"><ele>174.0</ele><time>2026-05-03T11:01:16Z</time></trkpt><trkpt lat="42.41114821854193" lon="14.070737163519183"><ele>174.0</ele><time>2026-05-03T11:01:17Z</time></trkpt><trkpt lat="42.41123024029943" lon="14.070821248953104"><ele>173.79999999999998</ele><time>2026-05-03T11:01:18Z</time></trkpt><trkpt lat="42.41131217854791" lon="14.070905612240306"><ele>173.6</ele><time>2026-05-03T11:01:19Z</time></trkpt><trkpt lat="42.41139855518145" lon="14.070986963468654"><ele>173.4</ele><time>2026-05-03T11:01:20Z</time></trkpt><trkpt lat="42.41148151527803" lon="14.07107569072641"><ele>173.2</ele><time>2026-05-03T11:01:21Z</time></trkpt><trkpt lat="42.411563113318955" lon="14.07116707175062"><ele>173.0</ele><time>2026-05-03T11:01:22Z</time></trkpt><trkpt lat="42.411640273561815" lon="14.07126076800841"><ele>173.4</ele><time>2026-05-03T11:01:23Z</time></trkpt><trkpt lat="42.411712484843946" lon="14.071360862152785"><ele>173.8</ele><time>2026-05-03T11:01:24Z</time></trkpt><trkpt lat="42.411779317263196" lon="14.07147085628272"><ele>174.2</ele><time>2026-05-03T11:01:25Z</time></trkpt><trkpt lat="42.41183602576832" lon="14.071586667316677"><ele>174.6</ele><time>2026-05-03T11:01:26Z</time></trkpt><trkpt lat="42.411895871756606" lon="14.071701300788554"><ele>175.0</ele><time>2026-05-03T11:01:27Z</time></trkpt><trkpt lat="42.41196125728183" lon="14.071812151633077"><ele>175.0</ele><time>2026-05-03T11:01:28Z</time></trkpt><trkpt lat="42.41203001528818" lon="14.071915766989644"><ele>175.0</ele><time>2026-05-03T11:01:29Z</time></trkpt><trkpt lat="42.4121008559702" lon="14.072021127766398"><ele>175.0</ele><time>2026-05-03T11:01:30Z</time></trkpt><trkpt lat="42.41217411648059" lon="14.072119460324458"><ele>175.0</ele><time>2026-05-03T11:01:31Z</time></trkpt><trkpt lat="42.41224993126441" lon="14.072215191757579"><ele>175.0</ele><time>2026-05-03T11:01:32Z</time></trkpt><trkpt lat="42.412329285155316" lon="14.072308133687475"><ele>175.0</ele><time>2026-05-03T11:01:33Z</time></trkpt><trkpt lat="42.412410350580615" lon="14.072395766680843"><ele>175.0</ele><time>2026-05-03T11:01:34Z</time></trkpt><trkpt lat="42.41249148043713" lon="14.072479922934248"><ele>175.0</ele><time>2026-05-03T11:01:35Z</time></trkpt><trkpt lat="42.41257281948268" lon="14.07256740424592"><ele>175.0</ele><time>2026-05-03T11:01:36Z</time></trkpt><trkpt lat="42.41265423006528" lon="14.07265466707085"><ele>175.0</ele><time>2026-05-03T11:01:37Z</time></trkpt><trkpt lat="42.41273455167643" lon="14.072742966890043"><ele>174.8</ele><time>2026-05-03T11:01:38Z</time></trkpt><trkpt lat="42.412813048768896" lon="14.072831915889562"><ele>174.6</ele><time>2026-05-03T11:01:39Z</time></trkpt><trkpt lat="42.41289568520443" lon="14.072916434206837"><ele>174.39999999999998</ele><time>2026-05-03T11:01:40Z</time></trkpt><trkpt lat="42.41298141727162" lon="14.072998922751198"><ele>174.2</ele><time>2026-05-03T11:01:41Z</time></trkpt><trkpt lat="42.413065868543725" lon="14.073081747551905"><ele>174.0</ele><time>2026-05-03T11:01:42Z</time></trkpt><trkpt lat="42.413152769820236" lon="14.073158411882428"><ele>174.0</ele><time>2026-05-03T11:01:43Z</time></trkpt><trkpt lat="42.41324195139105" lon="14.073229561426453"><ele>174.0</ele><time>2026-05-03T11:01:44Z</time></trkpt><trkpt lat="42.41333812035821" lon="14.073288246896722"><ele>174.0</ele><time>2026-05-03T11:01:45Z</time></trkpt><trkpt lat="42.413439369894206" lon="14.073328264842774"><ele>174.0</ele><time>2026-05-03T11:01:46Z</time></trkpt><trkpt lat="42.413542580035234" lon="14.07335693046053"><ele>174.0</ele><time>2026-05-03T11:01:47Z</time></trkpt><trkpt lat="42.41364545388309" lon="14.073383190998118"><ele>173.39999999999998</ele><time>2026-05-03T11:01:48Z</time></trkpt><trkpt lat="42.41374690326138" lon="14.073413809536808"><ele>172.8</ele><time>2026-05-03T11:01:49Z</time></trkpt><trkpt lat="42.413849828730335" lon="14.07344432510531"><ele>172.2</ele><time>2026-05-03T11:01:50Z</time></trkpt><trkpt lat="42.4139516774109" lon="14.07348141370566"><ele>171.60000000000002</ele><time>2026-05-03T11:01:51Z</time></trkpt><trkpt lat="42.4140509113644" lon="14.073523614027357"><ele>171.0</ele><time>2026-05-03T11:01:52Z</time></trkpt><trkpt lat="42.41415279263891" lon="14.073568652523287"><ele>171.0</ele><time>2026-05-03T11:01:53Z</time></trkpt><trkpt lat="42.414252124779104" lon="14.073613564241702"><ele>171.0</ele><time>2026-05-03T11:01:54Z</time></trkpt><trkpt lat="42.414345322450636" lon="14.073668643696244"><ele>171.0</ele><time>2026-05-03T11:01:55Z</time></trkpt><trkpt lat="42.41443401448865" lon="14.073738288278665"><ele>171.0</ele><time>2026-05-03T11:01:56Z</time></trkpt><trkpt lat="42.41451204033329" lon="14.073831306110032"><ele>171.0</ele><time>2026-05-03T11:01:57Z</time></trkpt><trkpt lat="42.41457887522141" lon="14.073933731409111"><ele>171.0</ele><time>2026-05-03T11:01:58Z</time></trkpt><trkpt lat="42.414637677174284" lon="14.074052196829372"><ele>171.0</ele><time>2026-05-03T11:01:59Z</time></trkpt><trkpt lat="42.41469767547582" lon="14.07416711005938"><ele>171.0</ele><time>2026-05-03T11:02:00Z</time></trkpt><trkpt lat="42.41475810825104" lon="14.074283893215595"><ele>171.0</ele><time>2026-05-03T11:02:01Z</time></trkpt><trkpt lat="42.414823637636204" lon="14.074391613175475"><ele>171.0</ele><time>2026-05-03T11:02:02Z</time></trkpt><trkpt lat="42.41489444740213" lon="14.074492811159086"><ele>170.60000000000002</ele><time>2026-05-03T11:02:03Z</time></trkpt><trkpt lat="42.41497224384803" lon="14.074585589420312"><ele>170.2</ele><time>2026-05-03T11:02:04Z</time></trkpt><trkpt lat="42.41505163697139" lon="14.074677092773962"><ele>169.8</ele><time>2026-05-03T11:02:05Z</time></trkpt><trkpt lat="42.415133983684456" lon="14.074763846887262"><ele>169.39999999999998</ele><time>2026-05-03T11:02:06Z</time></trkpt><trkpt lat="42.41521854297732" lon="14.074849789654062"><ele>169.0</ele><time>2026-05-03T11:02:07Z</time></trkpt><trkpt lat="42.41530376407005" lon="14.074937731209515"><ele>168.0</ele><time>2026-05-03T11:02:08Z</time></trkpt><trkpt lat="42.41538688042928" lon="14.075029578265331"><ele>167.0</ele><time>2026-05-03T11:02:09Z</time></trkpt><trkpt lat="42.415468020154734" lon="14.075123226485179"><ele>166.0</ele><time>2026-05-03T11:02:10Z</time></trkpt><trkpt lat="42.41554715356417" lon="14.075215332174801"><ele>165.0</ele><time>2026-05-03T11:02:11Z</time></trkpt><trkpt lat="42.415630418373496" lon="14.075306963671002"><ele>164.0</ele><time>2026-05-03T11:02:12Z</time></trkpt><trkpt lat="42.41571077508118" lon="14.075399267849814"><ele>164.0</ele><time>2026-05-03T11:02:13Z</time></trkpt><trkpt lat="42.415791033920435" lon="14.075493950909614"><ele>164.0</ele><time>2026-05-03T11:02:14Z</time></trkpt><trkpt lat="42.415869778903165" lon="14.07558393092692"><ele>164.0</ele><time>2026-05-03T11:02:15Z</time></trkpt><trkpt lat="42.415949714119165" lon="14.075668617500437"><ele>164.0</ele><time>2026-05-03T11:02:16Z</time></trkpt><trkpt lat="42.416030016462834" lon="14.075754518913598"><ele>164.0</ele><time>2026-05-03T11:02:17Z</time></trkpt><trkpt lat="42.41610944561449" lon="14.075841976064819"><ele>161.6</ele><time>2026-05-03T11:02:18Z</time></trkpt><trkpt lat="42.41618885794134" lon="14.075932112063215"><ele>159.2</ele><time>2026-05-03T11:02:19Z</time></trkpt><trkpt lat="42.41626897742509" lon="14.076020605982839"><ele>156.79999999999998</ele><time>2026-05-03T11:02:20Z</time></trkpt><trkpt lat="42.416346922680745" lon="14.076113222299973"><ele>154.39999999999998</ele><time>2026-05-03T11:02:21Z</time></trkpt><trkpt lat="42.41642091290801" lon="14.076210057401397"><ele>152.0</ele><time>2026-05-03T11:02:22Z</time></trkpt><trkpt lat="42.41649629711351" lon="14.076307906732483"><ele>152.0</ele><time>2026-05-03T11:02:23Z</time></trkpt><trkpt lat="42.41657310844091" lon="14.076405824199227"><ele>152.0</ele><time>2026-05-03T11:02:24Z</time></trkpt><trkpt lat="42.416649317616134" lon="14.076502522094477"><ele>152.0</ele><time>2026-05-03T11:02:25Z</time></trkpt><trkpt lat="42.416725280882645" lon="14.076598081045407"><ele>152.0</ele><time>2026-05-03T11:02:26Z</time></trkpt><trkpt lat="42.416800025231325" lon="14.076694095022376"><ele>152.0</ele><time>2026-05-03T11:02:27Z</time></trkpt><trkpt lat="42.416875607050684" lon="14.076789857729429"><ele>151.6</ele><time>2026-05-03T11:02:28Z</time></trkpt><trkpt lat="42.416952432157544" lon="14.076884249127103"><ele>151.2</ele><time>2026-05-03T11:02:29Z</time></trkpt><trkpt lat="42.41702727514376" lon="14.076980813557563"><ele>150.8</ele><time>2026-05-03T11:02:30Z</time></trkpt><trkpt lat="42.4171010036755" lon="14.07707916760359"><ele>150.4</ele><time>2026-05-03T11:02:31Z</time></trkpt><trkpt lat="42.41717440827658" lon="14.077177412837653"><ele>150.0</ele><time>2026-05-03T11:02:32Z</time></trkpt><trkpt lat="42.41724932810516" lon="14.077274066490228"><ele>150.8</ele><time>2026-05-03T11:02:33Z</time></trkpt><trkpt lat="42.41732379979202" lon="14.07737056257947"><ele>151.6</ele><time>2026-05-03T11:02:34Z</time></trkpt><trkpt lat="42.4173985998266" lon="14.077466629637463"><ele>152.4</ele><time>2026-05-03T11:02:35Z</time></trkpt><trkpt lat="42.417474846490144" lon="14.077563855243685"><ele>153.2</ele><time>2026-05-03T11:02:36Z</time></trkpt><trkpt lat="42.4175527401689" lon="14.077657184188208"><ele>154.0</ele><time>2026-05-03T11:02:37Z</time></trkpt><trkpt lat="42.417628024494604" lon="14.07775126360664"><ele>152.0</ele><time>2026-05-03T11:02:38Z</time></trkpt><trkpt lat="42.417702808666036" lon="14.077848626367178"><ele>150.0</ele><time>2026-05-03T11:02:39Z</time></trkpt><trkpt lat="42.41777607608393" lon="14.07794526335234"><ele>148.0</ele><time>2026-05-03T11:02:40Z</time></trkpt><trkpt lat="42.41784878186121" lon="14.078044836405077"><ele>146.0</ele><time>2026-05-03T11:02:41Z</time></trkpt><trkpt lat="42.4179203858921" lon="14.078150410122431"><ele>144.0</ele><time>2026-05-03T11:02:42Z</time></trkpt><trkpt lat="42.4179852946834" lon="14.078259793515318"><ele>142.2</ele><time>2026-05-03T11:02:43Z</time></trkpt><trkpt lat="42.41804664167304" lon="14.078374371636945"><ele>140.4</ele><time>2026-05-03T11:02:44Z</time></trkpt><trkpt lat="42.41810535747112" lon="14.078490481279076"><ele>138.6</ele><time>2026-05-03T11:02:45Z</time></trkpt><trkpt lat="42.4181643998805" lon="14.078606873161853"><ele>136.8</ele><time>2026-05-03T11:02:46Z</time></trkpt><trkpt lat="42.41822659378383" lon="14.07871879151262"><ele>135.0</ele><time>2026-05-03T11:02:47Z</time></trkpt><trkpt lat="42.41829143064914" lon="14.07883116721846"><ele>135.0</ele><time>2026-05-03T11:02:48Z</time></trkpt><trkpt lat="42.41835716543019" lon="14.078943185484201"><ele>135.0</ele><time>2026-05-03T11:02:49Z</time></trkpt><trkpt lat="42.418424184276645" lon="14.079052906631977"><ele>135.0</ele><time>2026-05-03T11:02:50Z</time></trkpt><trkpt lat="42.418498906525805" lon="14.07916754444836"><ele>135.0</ele><time>2026-05-03T11:02:51Z</time></trkpt><trkpt lat="42.41858664457584" lon="14.079296872731641"><ele>134.0</ele><time>2026-05-03T11:02:52Z</time></trkpt><trkpt lat="42.41868097591539" lon="14.079445575824206"><ele>133.0</ele><time>2026-05-03T11:02:53Z</time></trkpt><trkpt lat="42.418777765776305" lon="14.079598367367444"><ele>132.0</ele><time>2026-05-03T11:02:54Z</time></trkpt><trkpt lat="42.41888363938255" lon="14.079761559746816"><ele>132.66666666666666</ele><time>2026-05-03T11:02:55Z</time></trkpt><trkpt lat="42.41900434725284" lon="14.07994167973884"><ele>133.33333333333331</ele><time>2026-05-03T11:02:56Z</time></trkpt><trkpt lat="42.41914133172585" lon="14.080150058465657"><ele>134.0</ele><time>2026-05-03T11:02:57Z</time></trkpt><trkpt lat="42.41928313361317" lon="14.080375277337504"><ele>134.0</ele><time>2026-05-03T11:02:58Z</time></trkpt><trkpt lat="42.41942038851402" lon="14.080580549087914"><ele>134.0</ele><time>2026-05-03T11:02:59Z</time></trkpt><trkpt lat="42.41957830935144" lon="14.080786860941974"><ele>134.0</ele><time>2026-05-03T11:03:00Z</time></trkpt><trkpt lat="42.419767540848405" lon="14.081001333093573"><ele>136.33333333333331</ele><time>2026-05-03T11:03:01Z</time></trkpt><trkpt lat="42.419935375515635" lon="14.081195096302894"><ele>138.66666666666666</ele><time>2026-05-03T11:03:02Z</time></trkpt><trkpt lat="42.42007453762602" lon="14.081379842429426"><ele>141.0</ele><time>2026-05-03T11:03:03Z</time></trkpt><trkpt lat="42.42021897854318" lon="14.081593494202117"><ele>140.5</ele><time>2026-05-03T11:03:04Z</time></trkpt><trkpt lat="42.420377909242816" lon="14.081828229291947"><ele>140.0</ele><time>2026-05-03T11:03:05Z</time></trkpt><trkpt lat="42.42055068316558" lon="14.082078120262695"><ele>140.0</ele><time>2026-05-03T11:03:06Z</time></trkpt><trkpt lat="42.420724834266295" lon="14.082332859595212"><ele>140.0</ele><time>2026-05-03T11:03:07Z</time></trkpt><trkpt lat="42.42088988899014" lon="14.082577003159848"><ele>139.0</ele><time>2026-05-03T11:03:08Z</time></trkpt><trkpt lat="42.421028662169235" lon="14.082787073744989"><ele>138.0</ele><time>2026-05-03T11:03:09Z</time></trkpt><trkpt lat="42.42115232913834" lon="14.082967998200365"><ele>137.0</ele><time>2026-05-03T11:03:10Z</time></trkpt><trkpt lat="42.42126313817834" lon="14.083142488676534"><ele>138.0</ele><time>2026-05-03T11:03:11Z</time></trkpt><trkpt lat="42.42136861885131" lon="14.0833319778236"><ele>139.0</ele><time>2026-05-03T11:03:12Z</time></trkpt><trkpt lat="42.42146601012265" lon="14.083546498306784"><ele>140.0</ele><time>2026-05-03T11:03:13Z</time></trkpt><trkpt lat="42.42155532012058" lon="14.083807039264407"><ele>143.5</ele><time>2026-05-03T11:03:14Z</time></trkpt><trkpt lat="42.42166201473818" lon="14.084105392319612"><ele>147.0</ele><time>2026-05-03T11:03:15Z</time></trkpt><trkpt lat="42.421806899265235" lon="14.084432573474306"><ele>147.0</ele><time>2026-05-03T11:03:16Z</time></trkpt><trkpt lat="42.42195527162397" lon="14.084733884356437"><ele>147.0</ele><time>2026-05-03T11:03:17Z</time></trkpt><trkpt lat="42.422083396999646" lon="14.084983144585825"><ele>148.0</ele><time>2026-05-03T11:03:18Z</time></trkpt><trkpt lat="42.42220849875532" lon="14.085210685911433"><ele>149.0</ele><time>2026-05-03T11:03:19Z</time></trkpt><trkpt lat="42.4223379152005" lon="14.085427584243908"><ele>150.0</ele><time>2026-05-03T11:03:20Z</time></trkpt><trkpt lat="42.422474856784774" lon="14.085644801344406"><ele>149.66666666666666</ele><time>2026-05-03T11:03:21Z</time></trkpt><trkpt lat="42.42260276472797" lon="14.085848590047025"><ele>149.33333333333331</ele><time>2026-05-03T11:03:22Z</time></trkpt><trkpt lat="42.42271490450677" lon="14.086022353243083"><ele>149.0</ele><time>2026-05-03T11:03:23Z</time></trkpt><trkpt lat="42.422817258432005" lon="14.086175079742999"><ele>149.0</ele><time>2026-05-03T11:03:24Z</time></trkpt><trkpt lat="42.42290344678039" lon="14.086315898258515"><ele>149.0</ele><time>2026-05-03T11:03:25Z</time></trkpt><trkpt lat="42.42298199772849" lon="14.086444240349673"><ele>149.0</ele><time>2026-05-03T11:03:26Z</time></trkpt><trkpt lat="42.42305615851525" lon="14.086568093467427"><ele>149.0</ele><time>2026-05-03T11:03:27Z</time></trkpt><trkpt lat="42.42312122630731" lon="14.086686722577594"><ele>149.8</ele><time>2026-05-03T11:03:28Z</time></trkpt><trkpt lat="42.423183369664564" lon="14.086800394480058"><ele>150.60000000000002</ele><time>2026-05-03T11:03:29Z</time></trkpt><trkpt lat="42.42324693764232" lon="14.086912131202457"><ele>151.4</ele><time>2026-05-03T11:03:30Z</time></trkpt><trkpt lat="42.4233146171675" lon="14.087015774753048"><ele>152.20000000000002</ele><time>2026-05-03T11:03:31Z</time></trkpt><trkpt lat="42.423384256564965" lon="14.08712234131672"><ele>153.0</ele><time>2026-05-03T11:03:32Z</time></trkpt><trkpt lat="42.42345057671772" lon="14.08722627229836"><ele>153.0</ele><time>2026-05-03T11:03:33Z</time></trkpt><trkpt lat="42.423492880028384" lon="14.087312400179973"><ele>153.0</ele><time>2026-05-03T11:03:34Z</time></trkpt><trkpt lat="42.42352670746853" lon="14.087422855875246"><ele>153.0</ele><time>2026-05-03T11:03:36Z</time></trkpt><trkpt lat="42.42358751576495" lon="14.087455875411521"><ele>153.0</ele><time>2026-05-03T11:03:49Z</time></trkpt><trkpt lat="42.42354696708411" lon="14.087355650759344"><ele>153.0</ele><time>2026-05-03T11:03:51Z</time></trkpt><trkpt lat="42.423496317947205" lon="14.08722000294312"><ele>153.0</ele><time>2026-05-03T11:03:52Z</time></trkpt><trkpt lat="42.42340876404129" lon="14.087097434978613"><ele>153.0</ele><time>2026-05-03T11:03:53Z</time></trkpt><trkpt lat="42.423301601688806" lon="14.086930341362777"><ele>153.0</ele><time>2026-05-03T11:03:54Z</time></trkpt><trkpt lat="42.42319383955048" lon="14.086751823504708"><ele>153.0</ele><time>2026-05-03T11:03:55Z</time></trkpt><trkpt lat="42.42308805768794" lon="14.08658035039254"><ele>152.75</ele><time>2026-05-03T11:03:56Z</time></trkpt><trkpt lat="42.422993056307796" lon="14.086429136530935"><ele>152.5</ele><time>2026-05-03T11:03:57Z</time></trkpt><trkpt lat="42.42290226270836" lon="14.08628145562311"><ele>152.25</ele><time>2026-05-03T11:03:58Z</time></trkpt><trkpt lat="42.42282136216373" lon="14.086143422110622"><ele>152.0</ele><time>2026-05-03T11:03:59Z</time></trkpt><trkpt lat="42.422738758534145" lon="14.086000060812715"><ele>151.5</ele><time>2026-05-03T11:04:00Z</time></trkpt><trkpt lat="42.422649185977356" lon="14.085853776592662"><ele>151.0</ele><time>2026-05-03T11:04:01Z</time></trkpt><trkpt lat="42.422554582862574" lon="14.08570652539522"><ele>150.5</ele><time>2026-05-03T11:04:02Z</time></trkpt><trkpt lat="42.42246212902281" lon="14.085561458680488"><ele>150.0</ele><time>2026-05-03T11:04:03Z</time></trkpt><trkpt lat="42.422380920638226" lon="14.085430312978454"><ele>150.0</ele><time>2026-05-03T11:04:04Z</time></trkpt><trkpt lat="42.42231634947985" lon="14.085330630544197"><ele>150.0</ele><time>2026-05-03T11:04:05Z</time></trkpt><trkpt lat="42.42227437277893" lon="14.085251417675428"><ele>150.0</ele><time>2026-05-03T11:04:06Z</time></trkpt><trkpt lat="42.42229184643892" lon="14.085125364045519"><ele>150.0</ele><time>2026-05-03T11:04:09Z</time></trkpt><trkpt lat="42.422347727611715" lon="14.085084941227311"><ele>150.0</ele><time>2026-05-03T11:04:10Z</time></trkpt><trkpt lat="42.422434817895514" lon="14.085065646564"><ele>150.0</ele><time>2026-05-03T11:04:11Z</time></trkpt><trkpt lat="42.422513173774384" lon="14.08503791659561"><ele>150.0</ele><time>2026-05-03T11:04:12Z</time></trkpt><trkpt lat="42.42259409246603" lon="14.085004170359605"><ele>150.0</ele><time>2026-05-03T11:04:13Z</time></trkpt><trkpt lat="42.42266707550427" lon="14.084984617565352"><ele>150.0</ele><time>2026-05-03T11:04:14Z</time></trkpt><trkpt lat="42.42274051856761" lon="14.084977238035098"><ele>150.0</ele><time>2026-05-03T11:04:15Z</time></trkpt><trkpt lat="42.42281252354824" lon="14.08498888004621"><ele>150.0</ele><time>2026-05-03T11:04:16Z</time></trkpt><trkpt lat="42.42289599562228" lon="14.085022163431672"><ele>150.0</ele><time>2026-05-03T11:04:17Z</time></trkpt><trkpt lat="42.42298932978541" lon="14.085076785615936"><ele>149.2</ele><time>2026-05-03T11:04:18Z</time></trkpt><trkpt lat="42.42308355662253" lon="14.085136349739408"><ele>148.4</ele><time>2026-05-03T11:04:19Z</time></trkpt><trkpt lat="42.42316049938213" lon="14.085177515359623"><ele>147.6</ele><time>2026-05-03T11:04:20Z</time></trkpt><trkpt lat="42.42322294008152" lon="14.08518884658947"><ele>146.8</ele><time>2026-05-03T11:04:21Z</time></trkpt><trkpt lat="42.423319231265275" lon="14.085109149675668"><ele>146.0</ele><time>2026-05-03T11:04:23Z</time></trkpt><trkpt lat="42.42334607798058" lon="14.084956535076133"><ele>143.75</ele><time>2026-05-03T11:04:25Z</time></trkpt><trkpt lat="42.42332484650373" lon="14.084845582059815"><ele>141.5</ele><time>2026-05-03T11:04:26Z</time></trkpt><trkpt lat="42.42330062220391" lon="14.084708296642102"><ele>139.25</ele><time>2026-05-03T11:04:27Z</time></trkpt><trkpt lat="42.42327670326928" lon="14.084540435998832"><ele>137.0</ele><time>2026-05-03T11:04:28Z</time></trkpt><trkpt lat="42.42325204946281" lon="14.084351545040658"><ele>137.0</ele><time>2026-05-03T11:04:29Z</time></trkpt><trkpt lat="42.42321902930437" lon="14.084173567943635"><ele>137.0</ele><time>2026-05-03T11:04:30Z</time></trkpt><trkpt lat="42.42322203346911" lon="14.083997623730967"><ele>137.0</ele><time>2026-05-03T11:04:31Z</time></trkpt><trkpt lat="42.42321214866379" lon="14.083827532458988"><ele>137.0</ele><time>2026-05-03T11:04:32Z</time></trkpt><trkpt lat="42.42320649062124" lon="14.083661807845461"><ele>135.75</ele><time>2026-05-03T11:04:33Z</time></trkpt><trkpt lat="42.42320976595631" lon="14.08349609244272"><ele>134.5</ele><time>2026-05-03T11:04:34Z</time></trkpt><trkpt lat="42.42322297544044" lon="14.08333211791865"><ele>133.25</ele><time>2026-05-03T11:04:35Z</time></trkpt><trkpt lat="42.42324000079779" lon="14.08315882606173"><ele>132.0</ele><time>2026-05-03T11:04:36Z</time></trkpt><trkpt lat="42.42325095415524" lon="14.0829863753417"><ele>132.0</ele><time>2026-05-03T11:04:37Z</time></trkpt><trkpt lat="42.42328709720433" lon="14.082824524893452"><ele>132.0</ele><time>2026-05-03T11:04:38Z</time></trkpt><trkpt lat="42.42334560432219" lon="14.082686440371278"><ele>132.0</ele><time>2026-05-03T11:04:39Z</time></trkpt><trkpt lat="42.423381755013466" lon="14.082539647509561"><ele>132.0</ele><time>2026-05-03T11:04:40Z</time></trkpt><trkpt lat="42.4234475724926" lon="14.082408952354289"><ele>134.0</ele><time>2026-05-03T11:04:41Z</time></trkpt><trkpt lat="42.42354473080697" lon="14.082291024930528"><ele>136.0</ele><time>2026-05-03T11:04:42Z</time></trkpt><trkpt lat="42.42362907113938" lon="14.082148900890035"><ele>138.0</ele><time>2026-05-03T11:04:43Z</time></trkpt><trkpt lat="42.42372062981215" lon="14.0820304241963"><ele>140.0</ele><time>2026-05-03T11:04:44Z</time></trkpt><trkpt lat="42.423809166717106" lon="14.081917299069817"><ele>136.83333333333331</ele><time>2026-05-03T11:04:45Z</time></trkpt><trkpt lat="42.423885396760355" lon="14.081814446460749"><ele>133.66666666666666</ele><time>2026-05-03T11:04:46Z</time></trkpt><trkpt lat="42.42394623119569" lon="14.081721794470807"><ele>130.5</ele><time>2026-05-03T11:04:47Z</time></trkpt><trkpt lat="42.42399690347964" lon="14.08162940183983"><ele>127.33333333333334</ele><time>2026-05-03T11:04:48Z</time></trkpt><trkpt lat="42.42403381125827" lon="14.08153705010715"><ele>124.16666666666667</ele><time>2026-05-03T11:04:49Z</time></trkpt><trkpt lat="42.424045033934654" lon="14.08142821243933"><ele>121.0</ele><time>2026-05-03T11:04:50Z</time></trkpt><trkpt lat="42.424033384320985" lon="14.081306391205882"><ele>119.75</ele><time>2026-05-03T11:04:51Z</time></trkpt><trkpt lat="42.42400522914465" lon="14.08117935116397"><ele>118.5</ele><time>2026-05-03T11:04:52Z</time></trkpt><trkpt lat="42.42396527751742" lon="14.081045754959217"><ele>117.25</ele><time>2026-05-03T11:04:53Z</time></trkpt><trkpt lat="42.42390792105296" lon="14.080897975424783"><ele>116.0</ele><time>2026-05-03T11:04:54Z</time></trkpt><trkpt lat="42.42386565752404" lon="14.080741930659403"><ele>115.6</ele><time>2026-05-03T11:04:55Z</time></trkpt><trkpt lat="42.42380287648065" lon="14.08062276755102"><ele>115.19999999999999</ele><time>2026-05-03T11:04:56Z</time></trkpt><trkpt lat="42.42376638869937" lon="14.080506200511298"><ele>114.80000000000001</ele><time>2026-05-03T11:04:57Z</time></trkpt><trkpt lat="42.4237330688848" lon="14.080415209486326"><ele>114.4</ele><time>2026-05-03T11:04:58Z</time></trkpt><trkpt lat="42.42366488957445" lon="14.080281639550039"><ele>114.0</ele><time>2026-05-03T11:05:00Z</time></trkpt><trkpt lat="42.423536558482006" lon="14.080223376004172"><ele>114.0</ele><time>2026-05-03T11:05:02Z</time></trkpt><trkpt lat="42.42345935849321" lon="14.080197721213535"><ele>114.0</ele><time>2026-05-03T11:05:03Z</time></trkpt><trkpt lat="42.423418421111776" lon="14.080098774590677"><ele>114.0</ele><time>2026-05-03T11:05:04Z</time></trkpt><trkpt lat="42.42335815718552" lon="14.080056568682723"><ele>114.0</ele><time>2026-05-03T11:05:05Z</time></trkpt><trkpt lat="42.42327556059748" lon="14.080017039797985"><ele>114.0</ele><time>2026-05-03T11:05:06Z</time></trkpt><trkpt lat="42.423187627411245" lon="14.080000765925215"><ele>114.0</ele><time>2026-05-03T11:05:07Z</time></trkpt><trkpt lat="42.42308586973129" lon="14.079975474480115"><ele>114.2</ele><time>2026-05-03T11:05:08Z</time></trkpt><trkpt lat="42.4229778963471" lon="14.079947673622744"><ele>114.4</ele><time>2026-05-03T11:05:09Z</time></trkpt><trkpt lat="42.42286665587555" lon="14.079917922696069"><ele>114.6</ele><time>2026-05-03T11:05:10Z</time></trkpt><trkpt lat="42.4227631150298" lon="14.079887830850403"><ele>114.8</ele><time>2026-05-03T11:05:11Z</time></trkpt><trkpt lat="42.42266816041879" lon="14.079852656189528"><ele>115.0</ele><time>2026-05-03T11:05:12Z</time></trkpt><trkpt lat="42.42259618056311" lon="14.0798057850175"><ele>115.2</ele><time>2026-05-03T11:05:13Z</time></trkpt><trkpt lat="42.422556636663934" lon="14.079665290073974"><ele>115.4</ele><time>2026-05-03T11:05:15Z</time></trkpt><trkpt lat="42.422559611554036" lon="14.079570667382962"><ele>115.6</ele><time>2026-05-03T11:05:16Z</time></trkpt><trkpt lat="42.422618405567306" lon="14.079468966773073"><ele>115.8</ele><time>2026-05-03T11:05:17Z</time></trkpt><trkpt lat="42.42272360063208" lon="14.079376358092675"><ele>116.0</ele><time>2026-05-03T11:05:18Z</time></trkpt><trkpt lat="42.42286643409402" lon="14.079250720724076"><ele>110.33333333333333</ele><time>2026-05-03T11:05:19Z</time></trkpt><trkpt lat="42.42303961942156" lon="14.079084295620921"><ele>104.66666666666666</ele><time>2026-05-03T11:05:20Z</time></trkpt><trkpt lat="42.423226550153984" lon="14.078899902876167"><ele>99.0</ele><time>2026-05-03T11:05:21Z</time></trkpt><trkpt lat="42.42335824572191" lon="14.078764205137366"><ele>99.0</ele><time>2026-05-03T11:05:22Z</time></trkpt><trkpt lat="42.42346252821078" lon="14.078661255111102"><ele>99.0</ele><time>2026-05-03T11:05:23Z</time></trkpt><trkpt lat="42.42355326271975" lon="14.078577568594312"><ele>99.0</ele><time>2026-05-03T11:05:24Z</time></trkpt><trkpt lat="42.42363070153563" lon="14.078508605843563"><ele>99.0</ele><time>2026-05-03T11:05:25Z</time></trkpt><trkpt lat="42.42369067331568" lon="14.078432704814457"><ele>99.0</ele><time>2026-05-03T11:05:26Z</time></trkpt><trkpt lat="42.42373016848223" lon="14.078327996406346"><ele>97.5</ele><time>2026-05-03T11:05:27Z</time></trkpt><trkpt lat="42.42374548187523" lon="14.078183957557854"><ele>96.0</ele><time>2026-05-03T11:05:28Z</time></trkpt><trkpt lat="42.42374350083913" lon="14.078004913158468"><ele>94.5</ele><time>2026-05-03T11:05:29Z</time></trkpt><trkpt lat="42.423738762969066" lon="14.077828893524146"><ele>93.0</ele><time>2026-05-03T11:05:30Z</time></trkpt><trkpt lat="42.42372018446738" lon="14.077671845102104"><ele>93.0</ele><time>2026-05-03T11:05:31Z</time></trkpt><trkpt lat="42.423682135085656" lon="14.077529488969487"><ele>93.0</ele><time>2026-05-03T11:05:32Z</time></trkpt><trkpt lat="42.42361740856288" lon="14.077395015026555"><ele>93.0</ele><time>2026-05-03T11:05:33Z</time></trkpt><trkpt lat="42.42356806097927" lon="14.077262124969723"><ele>93.0</ele><time>2026-05-03T11:05:34Z</time></trkpt><trkpt lat="42.423519029539676" lon="14.07717152668233"><ele>93.0</ele><time>2026-05-03T11:05:35Z</time></trkpt><trkpt lat="42.42347717187884" lon="14.077039172232512"><ele>92.0</ele><time>2026-05-03T11:05:37Z</time></trkpt><trkpt lat="42.42353175004256" lon="14.07699010495919"><ele>91.0</ele><time>2026-05-03T11:05:38Z</time></trkpt><trkpt lat="42.423664756438235" lon="14.077047120191406"><ele>90.0</ele><time>2026-05-03T11:05:40Z</time></trkpt><trkpt lat="42.42374713789729" lon="14.077136438598552"><ele>89.0</ele><time>2026-05-03T11:05:41Z</time></trkpt><trkpt lat="42.42381292604622" lon="14.077188701812927"><ele>88.0</ele><time>2026-05-03T11:05:42Z</time></trkpt><trkpt lat="42.423933513210294" lon="14.07719862263221"><ele>88.0</ele><time>2026-05-03T11:05:44Z</time></trkpt><trkpt lat="42.42400837166313" lon="14.077162338362088"><ele>88.0</ele><time>2026-05-03T11:05:45Z</time></trkpt><trkpt lat="42.42409243907042" lon="14.077114097875837"><ele>88.0</ele><time>2026-05-03T11:05:46Z</time></trkpt><trkpt lat="42.4241995269311" lon="14.077062123020934"><ele>88.0</ele><time>2026-05-03T11:05:47Z</time></trkpt><trkpt lat="42.424326232378284" lon="14.077024760573916"><ele>88.0</ele><time>2026-05-03T11:05:48Z</time></trkpt><trkpt lat="42.42446866063347" lon="14.07699447382807"><ele>88.0</ele><time>2026-05-03T11:05:49Z</time></trkpt><trkpt lat="42.424608486668134" lon="14.076973898269864"><ele>88.0</ele><time>2026-05-03T11:05:50Z</time></trkpt><trkpt lat="42.42470117111155" lon="14.076958266717313"><ele>88.0</ele><time>2026-05-03T11:05:51Z</time></trkpt><trkpt lat="42.42476174147125" lon="14.076830165457089"><ele>88.0</ele><time>2026-05-03T11:05:53Z</time></trkpt><trkpt lat="42.42473985556583" lon="14.076718520196403"><ele>88.0</ele><time>2026-05-03T11:05:54Z</time></trkpt><trkpt lat="42.424672066791935" lon="14.07659056284107"><ele>92.66666666666666</ele><time>2026-05-03T11:05:55Z</time></trkpt><trkpt lat="42.424566380876065" lon="14.076439195485742"><ele>97.33333333333333</ele><time>2026-05-03T11:05:56Z</time></trkpt><trkpt lat="42.424437166929756" lon="14.076233416343419"><ele>102.0</ele><time>2026-05-03T11:05:57Z</time></trkpt><trkpt lat="42.42428384845031" lon="14.075974173322377"><ele>106.33333333333334</ele><time>2026-05-03T11:05:58Z</time></trkpt><trkpt lat="42.42413200316803" lon="14.075738105139914"><ele>110.66666666666667</ele><time>2026-05-03T11:05:59Z</time></trkpt><trkpt lat="42.424010926912096" lon="14.075587656932314"><ele>115.0</ele><time>2026-05-03T11:06:00Z</time></trkpt><trkpt lat="42.42393872109477" lon="14.07545719831375"><ele>115.0</ele><time>2026-05-03T11:06:01Z</time></trkpt><trkpt lat="42.42389807302567" lon="14.075367149840734"><ele>115.0</ele><time>2026-05-03T11:06:02Z</time></trkpt><trkpt lat="42.423872915024056" lon="14.07528243542588"><ele>115.0</ele><time>2026-05-03T11:06:03Z</time></trkpt><trkpt lat="42.42385010733194" lon="14.075167754467092"><ele>115.0</ele><time>2026-05-03T11:06:04Z</time></trkpt><trkpt lat="42.42381851705255" lon="14.075004119198564"><ele>115.0</ele><time>2026-05-03T11:06:05Z</time></trkpt><trkpt lat="42.42377673361119" lon="14.074802630139832"><ele>114.66666666666667</ele><time>2026-05-03T11:06:06Z</time></trkpt><trkpt lat="42.42371742956437" lon="14.074618296392906"><ele>114.33333333333334</ele><time>2026-05-03T11:06:07Z</time></trkpt><trkpt lat="42.423648950490325" lon="14.074436821793856"><ele>114.0</ele><time>2026-05-03T11:06:08Z</time></trkpt><trkpt lat="42.42354870210541" lon="14.074270039529074"><ele>117.66666666666666</ele><time>2026-05-03T11:06:09Z</time></trkpt><trkpt lat="42.423431046838104" lon="14.074082308598513"><ele>121.33333333333333</ele><time>2026-05-03T11:06:10Z</time></trkpt><trkpt lat="42.42330991695242" lon="14.073874310884312"><ele>125.0</ele><time>2026-05-03T11:06:11Z</time></trkpt><trkpt lat="42.42319708662882" lon="14.07368636965973"><ele>125.0</ele><time>2026-05-03T11:06:12Z</time></trkpt><trkpt lat="42.423123482763344" lon="14.073557178872305"><ele>125.0</ele><time>2026-05-03T11:06:13Z</time></trkpt><trkpt lat="42.4231027361529" lon="14.073441777368274"><ele>125.0</ele><time>2026-05-03T11:06:15Z</time></trkpt><trkpt lat="42.4231666171637" lon="14.073332093405575"><ele>125.0</ele><time>2026-05-03T11:06:17Z</time></trkpt><trkpt lat="42.423313964340835" lon="14.073372306499909"><ele>125.0</ele><time>2026-05-03T11:06:18Z</time></trkpt><trkpt lat="42.423450060979945" lon="14.073421783862115"><ele>125.0</ele><time>2026-05-03T11:06:19Z</time></trkpt><trkpt lat="42.42363065433312" lon="14.07352340029632"><ele>125.0</ele><time>2026-05-03T11:06:20Z</time></trkpt><trkpt lat="42.42383993496924" lon="14.07362703114914"><ele>126.6</ele><time>2026-05-03T11:06:21Z</time></trkpt><trkpt lat="42.42397973035914" lon="14.07371372601996"><ele>128.2</ele><time>2026-05-03T11:06:22Z</time></trkpt><trkpt lat="42.42408377050013" lon="14.073749196110839"><ele>129.8</ele><time>2026-05-03T11:06:23Z</time></trkpt><trkpt lat="42.42415795489623" lon="14.073752077004947"><ele>131.4</ele><time>2026-05-03T11:06:24Z</time></trkpt><trkpt lat="42.42422799413413" lon="14.073709457956355"><ele>133.0</ele><time>2026-05-03T11:06:25Z</time></trkpt><trkpt lat="42.4242726881321" lon="14.073611996078354"><ele>133.0</ele><time>2026-05-03T11:06:26Z</time></trkpt><trkpt lat="42.42429371151817" lon="14.07346525475593"><ele>133.0</ele><time>2026-05-03T11:06:27Z</time></trkpt><trkpt lat="42.42429890201176" lon="14.073246654725242"><ele>133.0</ele><time>2026-05-03T11:06:28Z</time></trkpt><trkpt lat="42.42430566241555" lon="14.07296371978092"><ele>135.5</ele><time>2026-05-03T11:06:29Z</time></trkpt><trkpt lat="42.4243287679409" lon="14.072661072866005"><ele>138.0</ele><time>2026-05-03T11:06:30Z</time></trkpt><trkpt lat="42.42433360919482" lon="14.072353438024692"><ele>141.66666666666666</ele><time>2026-05-03T11:06:31Z</time></trkpt><trkpt lat="42.424322559664496" lon="14.072085503214527"><ele>145.33333333333331</ele><time>2026-05-03T11:06:32Z</time></trkpt><trkpt lat="42.42434961178099" lon="14.07187765269812"><ele>149.0</ele><time>2026-05-03T11:06:33Z</time></trkpt><trkpt lat="42.424383666609174" lon="14.071714407638149"><ele>150.66666666666666</ele><time>2026-05-03T11:06:34Z</time></trkpt><trkpt lat="42.424455580049106" lon="14.071559960152795"><ele>152.33333333333334</ele><time>2026-05-03T11:06:35Z</time></trkpt><trkpt lat="42.424546259766934" lon="14.071366859585652"><ele>154.0</ele><time>2026-05-03T11:06:36Z</time></trkpt><trkpt lat="42.42461748557469" lon="14.071138850872277"><ele>154.0</ele><time>2026-05-03T11:06:37Z</time></trkpt><trkpt lat="42.42469468646592" lon="14.070892283376672"><ele>154.0</ele><time>2026-05-03T11:06:38Z</time></trkpt><trkpt lat="42.424741282500875" lon="14.070611922796664"><ele>154.0</ele><time>2026-05-03T11:06:39Z</time></trkpt><trkpt lat="42.42477813381396" lon="14.070391258536837"><ele>155.75</ele><time>2026-05-03T11:06:40Z</time></trkpt><trkpt lat="42.42481133226938" lon="14.070237008514752"><ele>157.5</ele><time>2026-05-03T11:06:41Z</time></trkpt><trkpt lat="42.424867428570366" lon="14.070124934145829"><ele>159.25</ele><time>2026-05-03T11:06:42Z</time></trkpt><trkpt lat="42.424940037501955" lon="14.0699990172026"><ele>161.0</ele><time>2026-05-03T11:06:43Z</time></trkpt><trkpt lat="42.4250489439315" lon="14.069832038999"><ele>162.66666666666666</ele><time>2026-05-03T11:06:44Z</time></trkpt><trkpt lat="42.425172895287645" lon="14.069638502214938"><ele>164.33333333333334</ele><time>2026-05-03T11:06:45Z</time></trkpt><trkpt lat="42.425289664101015" lon="14.06942928041826"><ele>166.0</ele><time>2026-05-03T11:06:46Z</time></trkpt><trkpt lat="42.425431706132414" lon="14.069251453277923"><ele>167.66666666666669</ele><time>2026-05-03T11:06:47Z</time></trkpt><trkpt lat="42.425561250639085" lon="14.069083533865058"><ele>169.33333333333334</ele><time>2026-05-03T11:06:48Z</time></trkpt><trkpt lat="42.425712708951835" lon="14.068908868141014"><ele>171.0</ele><time>2026-05-03T11:06:49Z</time></trkpt><trkpt lat="42.425872370162104" lon="14.06872536281156"><ele>171.0</ele><time>2026-05-03T11:06:50Z</time></trkpt><trkpt lat="42.42602925743089" lon="14.068539140590817"><ele>171.0</ele><time>2026-05-03T11:06:51Z</time></trkpt><trkpt lat="42.42617490860447" lon="14.068339887660938"><ele>171.0</ele><time>2026-05-03T11:06:52Z</time></trkpt><trkpt lat="42.42630789591291" lon="14.068169397915934"><ele>172.66666666666666</ele><time>2026-05-03T11:06:53Z</time></trkpt><trkpt lat="42.42643222976664" lon="14.068007779612696"><ele>174.33333333333331</ele><time>2026-05-03T11:06:54Z</time></trkpt><trkpt lat="42.42653798481157" lon="14.067859767265457"><ele>176.0</ele><time>2026-05-03T11:06:55Z</time></trkpt><trkpt lat="42.42663311983929" lon="14.067688012754907"><ele>176.0</ele><time>2026-05-03T11:06:56Z</time></trkpt><trkpt lat="42.42670291413787" lon="14.06748364930755"><ele>176.0</ele><time>2026-05-03T11:06:57Z</time></trkpt><trkpt lat="42.426764249520616" lon="14.067267555425744"><ele>176.0</ele><time>2026-05-03T11:06:58Z</time></trkpt><trkpt lat="42.42682299016268" lon="14.067056283316358"><ele>176.4</ele><time>2026-05-03T11:06:59Z</time></trkpt><trkpt lat="42.426871119096205" lon="14.066882317423238"><ele>176.8</ele><time>2026-05-03T11:07:00Z</time></trkpt><trkpt lat="42.426922345486346" lon="14.066769660973254"><ele>177.20000000000002</ele><time>2026-05-03T11:07:01Z</time></trkpt><trkpt lat="42.42699454273765" lon="14.066643865843844"><ele>177.60000000000002</ele><time>2026-05-03T11:07:03Z</time></trkpt><trkpt lat="42.427059131095945" lon="14.06657023770781"><ele>178.0</ele><time>2026-05-03T11:07:04Z</time></trkpt><trkpt lat="42.427140781604706" lon="14.066517153399843"><ele>177.25</ele><time>2026-05-03T11:07:05Z</time></trkpt><trkpt lat="42.42725209951698" lon="14.066493264732145"><ele>176.5</ele><time>2026-05-03T11:07:06Z</time></trkpt><trkpt lat="42.42738161949774" lon="14.066503967218887"><ele>175.75</ele><time>2026-05-03T11:07:07Z</time></trkpt><trkpt lat="42.42753165637912" lon="14.066507844197723"><ele>175.0</ele><time>2026-05-03T11:07:08Z</time></trkpt><trkpt lat="42.4276905762995" lon="14.066555350185926"><ele>175.0</ele><time>2026-05-03T11:07:09Z</time></trkpt><trkpt lat="42.427860394045595" lon="14.066592739047726"><ele>175.0</ele><time>2026-05-03T11:07:10Z</time></trkpt><trkpt lat="42.428041889973386" lon="14.066624965245651"><ele>175.0</ele><time>2026-05-03T11:07:11Z</time></trkpt><trkpt lat="42.428239574962696" lon="14.06664440151156"><ele>178.33333333333334</ele><time>2026-05-03T11:07:12Z</time></trkpt><trkpt lat="42.4284324500592" lon="14.066677261789543"><ele>181.66666666666666</ele><time>2026-05-03T11:07:13Z</time></trkpt><trkpt lat="42.42860812655833" lon="14.066707061779884"><ele>185.0</ele><time>2026-05-03T11:07:14Z</time></trkpt><trkpt lat="42.42875980613998" lon="14.066708349878649"><ele>189.33333333333331</ele><time>2026-05-03T11:07:15Z</time></trkpt><trkpt lat="42.42889078401854" lon="14.066662493680976"><ele>193.66666666666666</ele><time>2026-05-03T11:07:16Z</time></trkpt><trkpt lat="42.429016561929195" lon="14.066573851289682"><ele>198.0</ele><time>2026-05-03T11:07:17Z</time></trkpt><trkpt lat="42.429154268238946" lon="14.066429693468914"><ele>199.0</ele><time>2026-05-03T11:07:18Z</time></trkpt><trkpt lat="42.42929511231755" lon="14.066285423268885"><ele>200.0</ele><time>2026-05-03T11:07:19Z</time></trkpt><trkpt lat="42.429432163217605" lon="14.06616968457053"><ele>201.0</ele><time>2026-05-03T11:07:20Z</time></trkpt><trkpt lat="42.429568159044464" lon="14.066071929161346"><ele>202.5</ele><time>2026-05-03T11:07:21Z</time></trkpt><trkpt lat="42.42970415626167" lon="14.065998404485317"><ele>204.0</ele><time>2026-05-03T11:07:22Z</time></trkpt><trkpt lat="42.42981562423463" lon="14.065948906924236"><ele>205.5</ele><time>2026-05-03T11:07:23Z</time></trkpt><trkpt lat="42.42989620613056" lon="14.065920772957273"><ele>207.0</ele><time>2026-05-03T11:07:24Z</time></trkpt><trkpt lat="42.43000359631031" lon="14.065897707804139"><ele>207.0</ele><time>2026-05-03T11:07:26Z</time></trkpt><trkpt lat="42.43005196783737" lon="14.066034730805793"><ele>207.0</ele><time>2026-05-03T11:07:29Z</time></trkpt><trkpt lat="42.4300489938175" lon="14.066154427822696"><ele>207.0</ele><time>2026-05-03T11:07:30Z</time></trkpt><trkpt lat="42.43003386537728" lon="14.066291245982718"><ele>207.0</ele><time>2026-05-03T11:07:31Z</time></trkpt><trkpt lat="42.43001348400179" lon="14.06644402691242"><ele>207.0</ele><time>2026-05-03T11:07:32Z</time></trkpt><trkpt lat="42.42999909897774" lon="14.066605250022016"><ele>206.25</ele><time>2026-05-03T11:07:33Z</time></trkpt><trkpt lat="42.42998347517743" lon="14.066789470336442"><ele>205.5</ele><time>2026-05-03T11:07:34Z</time></trkpt><trkpt lat="42.429962349572094" lon="14.066978746965908"><ele>204.75</ele><time>2026-05-03T11:07:35Z</time></trkpt><trkpt lat="42.42994418115178" lon="14.067184604018099"><ele>204.0</ele><time>2026-05-03T11:07:36Z</time></trkpt><trkpt lat="42.42992759350042" lon="14.067394395063717"><ele>203.5</ele><time>2026-05-03T11:07:37Z</time></trkpt><trkpt lat="42.42991151025995" lon="14.067589037567572"><ele>203.0</ele><time>2026-05-03T11:07:38Z</time></trkpt><trkpt lat="42.42989365214332" lon="14.067777228277748"><ele>202.5</ele><time>2026-05-03T11:07:39Z</time></trkpt><trkpt lat="42.42987672705566" lon="14.067967523211806"><ele>202.0</ele><time>2026-05-03T11:07:40Z</time></trkpt><trkpt lat="42.42986593358684" lon="14.068162241575033"><ele>200.33333333333331</ele><time>2026-05-03T11:07:41Z</time></trkpt><trkpt lat="42.429861811592616" lon="14.068361477406208"><ele>198.66666666666669</ele><time>2026-05-03T11:07:42Z</time></trkpt><trkpt lat="42.429868389138235" lon="14.068579817345242"><ele>197.0</ele><time>2026-05-03T11:07:43Z</time></trkpt><trkpt lat="42.42988422742549" lon="14.068805941441207"><ele>197.0</ele><time>2026-05-03T11:07:44Z</time></trkpt><trkpt lat="42.42990979858539" lon="14.069041742810008"><ele>197.0</ele><time>2026-05-03T11:07:45Z</time></trkpt><trkpt lat="42.42994489561474" lon="14.069277826094837"><ele>197.0</ele><time>2026-05-03T11:07:46Z</time></trkpt><trkpt lat="42.42999139466506" lon="14.069518489831504"><ele>195.66666666666669</ele><time>2026-05-03T11:07:47Z</time></trkpt><trkpt lat="42.43005313485069" lon="14.069770105999645"><ele>194.33333333333331</ele><time>2026-05-03T11:07:48Z</time></trkpt><trkpt lat="42.43012415059294" lon="14.070026268906483"><ele>193.0</ele><time>2026-05-03T11:07:49Z</time></trkpt><trkpt lat="42.43019805136932" lon="14.070288284313134"><ele>190.66666666666666</ele><time>2026-05-03T11:07:50Z</time></trkpt><trkpt lat="42.43027559416966" lon="14.070558317696314"><ele>188.33333333333331</ele><time>2026-05-03T11:07:51Z</time></trkpt><trkpt lat="42.430353878360094" lon="14.070832253678747"><ele>186.0</ele><time>2026-05-03T11:07:52Z</time></trkpt><trkpt lat="42.43043410556098" lon="14.071111755119913"><ele>186.0</ele><time>2026-05-03T11:07:53Z</time></trkpt><trkpt lat="42.430512805862236" lon="14.07138286010379"><ele>186.0</ele><time>2026-05-03T11:07:54Z</time></trkpt><trkpt lat="42.4305897645172" lon="14.071645525956935"><ele>186.0</ele><time>2026-05-03T11:07:55Z</time></trkpt><trkpt lat="42.43067270284009" lon="14.071914280199362"><ele>185.0</ele><time>2026-05-03T11:07:56Z</time></trkpt><trkpt lat="42.43075356913294" lon="14.072184649257169"><ele>184.0</ele><time>2026-05-03T11:07:57Z</time></trkpt><trkpt lat="42.43083618511092" lon="14.072460711869589"><ele>183.0</ele><time>2026-05-03T11:07:58Z</time></trkpt><trkpt lat="42.430916124717946" lon="14.072739862652242"><ele>181.0</ele><time>2026-05-03T11:07:59Z</time></trkpt><trkpt lat="42.43099252496311" lon="14.072997998982414"><ele>179.0</ele><time>2026-05-03T11:08:00Z</time></trkpt><trkpt lat="42.43105847923539" lon="14.07323627806934"><ele>177.0</ele><time>2026-05-03T11:08:01Z</time></trkpt><trkpt lat="42.43111725173796" lon="14.073468508474491"><ele>176.0</ele><time>2026-05-03T11:08:02Z</time></trkpt><trkpt lat="42.4311671776824" lon="14.07370235889181"><ele>175.0</ele><time>2026-05-03T11:08:03Z</time></trkpt><trkpt lat="42.431205773740196" lon="14.07394786667265"><ele>174.0</ele><time>2026-05-03T11:08:04Z</time></trkpt><trkpt lat="42.43123609045468" lon="14.074199584930724"><ele>173.33333333333334</ele><time>2026-05-03T11:08:05Z</time></trkpt><trkpt lat="42.43126669580318" lon="14.07444990762174"><ele>172.66666666666669</ele><time>2026-05-03T11:08:06Z</time></trkpt><trkpt lat="42.431299019925696" lon="14.074699866187611"><ele>172.0</ele><time>2026-05-03T11:08:07Z</time></trkpt><trkpt lat="42.431330589794804" lon="14.07495053741224"><ele>171.33333333333334</ele><time>2026-05-03T11:08:08Z</time></trkpt><trkpt lat="42.4313592605257" lon="14.075200001028152"><ele>170.66666666666666</ele><time>2026-05-03T11:08:09Z</time></trkpt><trkpt lat="42.431379197015936" lon="14.075453924293372"><ele>170.0</ele><time>2026-05-03T11:08:10Z</time></trkpt><trkpt lat="42.43139561165586" lon="14.075712493949903"><ele>169.33333333333331</ele><time>2026-05-03T11:08:11Z</time></trkpt><trkpt lat="42.4314047501093" lon="14.075968713626592"><ele>168.66666666666666</ele><time>2026-05-03T11:08:12Z</time></trkpt><trkpt lat="42.43141010310239" lon="14.076229141494798"><ele>168.0</ele><time>2026-05-03T11:08:13Z</time></trkpt><trkpt lat="42.431417630419304" lon="14.076489206203155"><ele>168.66666666666666</ele><time>2026-05-03T11:08:14Z</time></trkpt><trkpt lat="42.43142541418527" lon="14.076749692152552"><ele>169.33333333333331</ele><time>2026-05-03T11:08:15Z</time></trkpt><trkpt lat="42.43143301095821" lon="14.07701725663674"><ele>170.0</ele><time>2026-05-03T11:08:16Z</time></trkpt><trkpt lat="42.43143969250725" lon="14.077281990917157"><ele>170.33333333333331</ele><time>2026-05-03T11:08:17Z</time></trkpt><trkpt lat="42.43144539171087" lon="14.07755256306773"><ele>170.66666666666666</ele><time>2026-05-03T11:08:18Z</time></trkpt><trkpt lat="42.43145596046515" lon="14.077820063303577"><ele>171.0</ele><time>2026-05-03T11:08:19Z</time></trkpt><trkpt lat="42.43146494322877" lon="14.078090141279102"><ele>170.0</ele><time>2026-05-03T11:08:20Z</time></trkpt><trkpt lat="42.431472951339174" lon="14.078362355417012"><ele>169.0</ele><time>2026-05-03T11:08:21Z</time></trkpt><trkpt lat="42.431482850169786" lon="14.078624430097976"><ele>168.0</ele><time>2026-05-03T11:08:22Z</time></trkpt><trkpt lat="42.43149099787477" lon="14.07886830350935"><ele>168.0</ele><time>2026-05-03T11:08:23Z</time></trkpt><trkpt lat="42.4314998858237" lon="14.079096905987287"><ele>168.0</ele><time>2026-05-03T11:08:24Z</time></trkpt><trkpt lat="42.43150694665985" lon="14.079325938484933"><ele>168.0</ele><time>2026-05-03T11:08:25Z</time></trkpt><trkpt lat="42.43151631041998" lon="14.079557367844208"><ele>167.33333333333334</ele><time>2026-05-03T11:08:26Z</time></trkpt><trkpt lat="42.43152421607956" lon="14.0797926771548"><ele>166.66666666666669</ele><time>2026-05-03T11:08:27Z</time></trkpt><trkpt lat="42.43153329952023" lon="14.080032560872505"><ele>166.0</ele><time>2026-05-03T11:08:28Z</time></trkpt><trkpt lat="42.4315411110374" lon="14.08026835152953"><ele>165.33333333333334</ele><time>2026-05-03T11:08:29Z</time></trkpt><trkpt lat="42.43155163881748" lon="14.080503343443047"><ele>164.66666666666666</ele><time>2026-05-03T11:08:30Z</time></trkpt><trkpt lat="42.43156304844818" lon="14.080741773506432"><ele>164.0</ele><time>2026-05-03T11:08:31Z</time></trkpt><trkpt lat="42.43157890980089" lon="14.080987321251435"><ele>162.66666666666666</ele><time>2026-05-03T11:08:32Z</time></trkpt><trkpt lat="42.431602617000536" lon="14.081231992378612"><ele>161.33333333333334</ele><time>2026-05-03T11:08:33Z</time></trkpt><trkpt lat="42.43162133174024" lon="14.081483134141768"><ele>160.0</ele><time>2026-05-03T11:08:34Z</time></trkpt><trkpt lat="42.43164376821077" lon="14.08172694102275"><ele>159.33333333333334</ele><time>2026-05-03T11:08:35Z</time></trkpt><trkpt lat="42.43166479481397" lon="14.081974258973895"><ele>158.66666666666666</ele><time>2026-05-03T11:08:36Z</time></trkpt><trkpt lat="42.431676670745475" lon="14.082220714612076"><ele>158.0</ele><time>2026-05-03T11:08:37Z</time></trkpt><trkpt lat="42.43169021184946" lon="14.082466493456696"><ele>156.66666666666666</ele><time>2026-05-03T11:08:38Z</time></trkpt><trkpt lat="42.43169421373262" lon="14.082707774079042"><ele>155.33333333333334</ele><time>2026-05-03T11:08:39Z</time></trkpt><trkpt lat="42.43170196391834" lon="14.08295069465044"><ele>154.0</ele><time>2026-05-03T11:08:40Z</time></trkpt><trkpt lat="42.431708169556124" lon="14.083188314744453"><ele>153.66666666666669</ele><time>2026-05-03T11:08:41Z</time></trkpt><trkpt lat="42.43172067731244" lon="14.083430872263527"><ele>153.33333333333334</ele><time>2026-05-03T11:08:42Z</time></trkpt><trkpt lat="42.431728477372864" lon="14.08367366859928"><ele>153.0</ele><time>2026-05-03T11:08:43Z</time></trkpt><trkpt lat="42.431731129782115" lon="14.083907696805054"><ele>153.66666666666666</ele><time>2026-05-03T11:08:44Z</time></trkpt><trkpt lat="42.43173601817328" lon="14.084142715978182"><ele>154.33333333333331</ele><time>2026-05-03T11:08:45Z</time></trkpt><trkpt lat="42.4317404169516" lon="14.084378615926177"><ele>155.0</ele><time>2026-05-03T11:08:46Z</time></trkpt><trkpt lat="42.4317476899295" lon="14.08461679750009"><ele>155.0</ele><time>2026-05-03T11:08:47Z</time></trkpt><trkpt lat="42.431759385944154" lon="14.08485488370846"><ele>155.0</ele><time>2026-05-03T11:08:48Z</time></trkpt><trkpt lat="42.43177222841308" lon="14.08509766938303"><ele>155.0</ele><time>2026-05-03T11:08:49Z</time></trkpt><trkpt lat="42.43178213458183" lon="14.085340587186657"><ele>153.66666666666666</ele><time>2026-05-03T11:08:50Z</time></trkpt><trkpt lat="42.431796325156725" lon="14.08558655042621"><ele>152.33333333333334</ele><time>2026-05-03T11:08:51Z</time></trkpt><trkpt lat="42.43181676213839" lon="14.085827924689577"><ele>151.0</ele><time>2026-05-03T11:08:52Z</time></trkpt><trkpt lat="42.43184143816671" lon="14.086073922684044"><ele>149.66666666666669</ele><time>2026-05-03T11:08:53Z</time></trkpt><trkpt lat="42.431869459683355" lon="14.08631780023155"><ele>148.33333333333334</ele><time>2026-05-03T11:08:54Z</time></trkpt><trkpt lat="42.43189626162409" lon="14.086562770446974"><ele>147.0</ele><time>2026-05-03T11:08:55Z</time></trkpt><trkpt lat="42.43192273442354" lon="14.0868094890422"><ele>146.33333333333334</ele><time>2026-05-03T11:08:56Z</time></trkpt><trkpt lat="42.431947555011064" lon="14.087058591705016"><ele>145.66666666666669</ele><time>2026-05-03T11:08:57Z</time></trkpt><trkpt lat="42.431970753230445" lon="14.087310265128387"><ele>145.0</ele><time>2026-05-03T11:08:58Z</time></trkpt><trkpt lat="42.431994248021404" lon="14.087558055127218"><ele>144.33333333333334</ele><time>2026-05-03T11:08:59Z</time></trkpt><trkpt lat="42.43201972206108" lon="14.087786485436528"><ele>143.66666666666666</ele><time>2026-05-03T11:09:00Z</time></trkpt><trkpt lat="42.43204595224585" lon="14.087994010087717"><ele>143.0</ele><time>2026-05-03T11:09:01Z</time></trkpt><trkpt lat="42.43206953614264" lon="14.088188600537547"><ele>141.75</ele><time>2026-05-03T11:09:02Z</time></trkpt><trkpt lat="42.432091042246626" lon="14.08837188135245"><ele>140.5</ele><time>2026-05-03T11:09:03Z</time></trkpt><trkpt lat="42.432109406507536" lon="14.088538902900096"><ele>139.25</ele><time>2026-05-03T11:09:04Z</time></trkpt><trkpt lat="42.432121643720166" lon="14.088697045095072"><ele>138.0</ele><time>2026-05-03T11:09:05Z</time></trkpt><trkpt lat="42.43212157831921" lon="14.088851099333537"><ele>138.0</ele><time>2026-05-03T11:09:06Z</time></trkpt><trkpt lat="42.43210425140518" lon="14.088983914279739"><ele>138.0</ele><time>2026-05-03T11:09:07Z</time></trkpt><trkpt lat="42.43206843377044" lon="14.08911200825676"><ele>138.0</ele><time>2026-05-03T11:09:08Z</time></trkpt><trkpt lat="42.432003043508885" lon="14.089243068378426"><ele>138.0</ele><time>2026-05-03T11:09:09Z</time></trkpt><trkpt lat="42.43190189030515" lon="14.089353242734694"><ele>138.0</ele><time>2026-05-03T11:09:10Z</time></trkpt><trkpt lat="42.43181034650582" lon="14.08949251980341"><ele>136.25</ele><time>2026-05-03T11:09:11Z</time></trkpt><trkpt lat="42.43171094495342" lon="14.089614891145317"><ele>134.5</ele><time>2026-05-03T11:09:12Z</time></trkpt><trkpt lat="42.43161967040298" lon="14.089736399728785"><ele>132.75</ele><time>2026-05-03T11:09:13Z</time></trkpt><trkpt lat="42.431540364394536" lon="14.089858832151162"><ele>131.0</ele><time>2026-05-03T11:09:14Z</time></trkpt><trkpt lat="42.43148484916014" lon="14.090009913353693"><ele>129.0</ele><time>2026-05-03T11:09:15Z</time></trkpt><trkpt lat="42.431454500722104" lon="14.090203798945241"><ele>127.0</ele><time>2026-05-03T11:09:16Z</time></trkpt><trkpt lat="42.43143912053417" lon="14.090419511213192"><ele>125.0</ele><time>2026-05-03T11:09:17Z</time></trkpt><trkpt lat="42.43143669687115" lon="14.09065778350267"><ele>123.0</ele><time>2026-05-03T11:09:18Z</time></trkpt><trkpt lat="42.43144089028283" lon="14.090903482778822"><ele>121.0</ele><time>2026-05-03T11:09:19Z</time></trkpt><trkpt lat="42.431443892652034" lon="14.091145445359608"><ele>119.0</ele><time>2026-05-03T11:09:20Z</time></trkpt><trkpt lat="42.43144482307141" lon="14.091365963893184"><ele>119.0</ele><time>2026-05-03T11:09:21Z</time></trkpt><trkpt lat="42.43144126660704" lon="14.091581777952792"><ele>119.0</ele><time>2026-05-03T11:09:22Z</time></trkpt><trkpt lat="42.43143705623483" lon="14.091788073990392"><ele>119.0</ele><time>2026-05-03T11:09:23Z</time></trkpt><trkpt lat="42.431425819110885" lon="14.091990419480382"><ele>117.25</ele><time>2026-05-03T11:09:24Z</time></trkpt><trkpt lat="42.43140985165864" lon="14.092177745288463"><ele>115.5</ele><time>2026-05-03T11:09:25Z</time></trkpt><trkpt lat="42.43136765358098" lon="14.09235276191585"><ele>113.75</ele><time>2026-05-03T11:09:26Z</time></trkpt><trkpt lat="42.43129998894723" lon="14.092532737271297"><ele>112.0</ele><time>2026-05-03T11:09:27Z</time></trkpt><trkpt lat="42.43121982008084" lon="14.092697180372227"><ele>111.39999999999999</ele><time>2026-05-03T11:09:28Z</time></trkpt><trkpt lat="42.431139957101195" lon="14.092835132478873"><ele>110.79999999999998</ele><time>2026-05-03T11:09:29Z</time></trkpt><trkpt lat="42.431074192481866" lon="14.092963213154198"><ele>110.2</ele><time>2026-05-03T11:09:30Z</time></trkpt><trkpt lat="42.43101817258654" lon="14.093090736717189"><ele>109.6</ele><time>2026-05-03T11:09:31Z</time></trkpt><trkpt lat="42.43098039095361" lon="14.09320606214974"><ele>109.0</ele><time>2026-05-03T11:09:32Z</time></trkpt><trkpt lat="42.43097197836232" lon="14.09330629764307"><ele>107.6</ele><time>2026-05-03T11:09:33Z</time></trkpt><trkpt lat="42.43099846765389" lon="14.093396765572924"><ele>106.2</ele><time>2026-05-03T11:09:34Z</time></trkpt><trkpt lat="42.431052206437215" lon="14.09348004264625"><ele>104.8</ele><time>2026-05-03T11:09:35Z</time></trkpt><trkpt lat="42.43114189115137" lon="14.093522400171254"><ele>103.39999999999999</ele><time>2026-05-03T11:09:36Z</time></trkpt><trkpt lat="42.43123897967959" lon="14.093520400410918"><ele>102.0</ele><time>2026-05-03T11:09:37Z</time></trkpt><trkpt lat="42.43136865943948" lon="14.093487434419869"><ele>101.0</ele><time>2026-05-03T11:09:38Z</time></trkpt><trkpt lat="42.43155269170636" lon="14.093428028818165"><ele>100.0</ele><time>2026-05-03T11:09:39Z</time></trkpt><trkpt lat="42.431727199542635" lon="14.093386317041478"><ele>99.0</ele><time>2026-05-03T11:09:40Z</time></trkpt><trkpt lat="42.431886561381155" lon="14.093331884061412"><ele>99.0</ele><time>2026-05-03T11:09:41Z</time></trkpt><trkpt lat="42.43202056265621" lon="14.093260551210955"><ele>99.0</ele><time>2026-05-03T11:09:42Z</time></trkpt><trkpt lat="42.43212592850669" lon="14.093179921035738"><ele>99.0</ele><time>2026-05-03T11:09:43Z</time></trkpt><trkpt lat="42.43221744470263" lon="14.093101274051381"><ele>99.0</ele><time>2026-05-03T11:09:44Z</time></trkpt><trkpt lat="42.43229498514768" lon="14.09304743451706"><ele>98.16666666666667</ele><time>2026-05-03T11:09:45Z</time></trkpt><trkpt lat="42.432362054958126" lon="14.093017787341626"><ele>97.33333333333333</ele><time>2026-05-03T11:09:46Z</time></trkpt><trkpt lat="42.4324346614346" lon="14.09301869692658"><ele>96.5</ele><time>2026-05-03T11:09:47Z</time></trkpt><trkpt lat="42.43250257054927" lon="14.093054141823098"><ele>95.66666666666666</ele><time>2026-05-03T11:09:48Z</time></trkpt><trkpt lat="42.432556621935056" lon="14.093145642622481"><ele>94.83333333333333</ele><time>2026-05-03T11:09:49Z</time></trkpt><trkpt lat="42.432588409351794" lon="14.093269364681602"><ele>94.0</ele><time>2026-05-03T11:09:50Z</time></trkpt><trkpt lat="42.43258489488082" lon="14.093402257076464"><ele>91.66666666666666</ele><time>2026-05-03T11:09:51Z</time></trkpt><trkpt lat="42.432535300609516" lon="14.09355197948366"><ele>89.33333333333333</ele><time>2026-05-03T11:09:52Z</time></trkpt><trkpt lat="42.43245658567622" lon="14.093731915783053"><ele>87.0</ele><time>2026-05-03T11:09:53Z</time></trkpt><trkpt lat="42.43235446019175" lon="14.093961994386657"><ele>88.33333333333333</ele><time>2026-05-03T11:09:54Z</time></trkpt><trkpt lat="42.43226201904856" lon="14.094193018297336"><ele>89.66666666666666</ele><time>2026-05-03T11:09:55Z</time></trkpt><trkpt lat="42.43217100400827" lon="14.094405440332928"><ele>91.0</ele><time>2026-05-03T11:09:56Z</time></trkpt><trkpt lat="42.43207733754667" lon="14.0945789717646"><ele>91.0</ele><time>2026-05-03T11:09:57Z</time></trkpt><trkpt lat="42.431970635306406" lon="14.094742393562667"><ele>91.0</ele><time>2026-05-03T11:09:58Z</time></trkpt><trkpt lat="42.43184602296264" lon="14.094908965665198"><ele>91.0</ele><time>2026-05-03T11:09:59Z</time></trkpt><trkpt lat="42.43168846757236" lon="14.095091603581226"><ele>84.5</ele><time>2026-05-03T11:10:00Z</time></trkpt><trkpt lat="42.43150750765444" lon="14.095304675464995"><ele>78.0</ele><time>2026-05-03T11:10:01Z</time></trkpt><trkpt lat="42.43133389369634" lon="14.095520766979075"><ele>76.33333333333333</ele><time>2026-05-03T11:10:02Z</time></trkpt><trkpt lat="42.43117839658244" lon="14.095706194318499"><ele>74.66666666666666</ele><time>2026-05-03T11:10:03Z</time></trkpt><trkpt lat="42.43102833666759" lon="14.095884708254491"><ele>73.0</ele><time>2026-05-03T11:10:04Z</time></trkpt><trkpt lat="42.4308842764262" lon="14.096052049220125"><ele>73.0</ele><time>2026-05-03T11:10:05Z</time></trkpt><trkpt lat="42.4307364401729" lon="14.09620010896805"><ele>73.0</ele><time>2026-05-03T11:10:06Z</time></trkpt><trkpt lat="42.43059384117062" lon="14.096326326429134"><ele>73.0</ele><time>2026-05-03T11:10:07Z</time></trkpt><trkpt lat="42.43045230794156" lon="14.096449360234773"><ele>71.33333333333333</ele><time>2026-05-03T11:10:08Z</time></trkpt><trkpt lat="42.43031705803181" lon="14.096580993424462"><ele>69.66666666666667</ele><time>2026-05-03T11:10:09Z</time></trkpt><trkpt lat="42.43018669336" lon="14.096731887074684"><ele>68.0</ele><time>2026-05-03T11:10:10Z</time></trkpt><trkpt lat="42.43006018514469" lon="14.096929144769287"><ele>65.5</ele><time>2026-05-03T11:10:11Z</time></trkpt><trkpt lat="42.42993193838545" lon="14.097187457221562"><ele>63.0</ele><time>2026-05-03T11:10:12Z</time></trkpt><trkpt lat="42.42979349310315" lon="14.09747740522926"><ele>59.5</ele><time>2026-05-03T11:10:13Z</time></trkpt><trkpt lat="42.429656264216085" lon="14.097750354681208"><ele>56.0</ele><time>2026-05-03T11:10:14Z</time></trkpt><trkpt lat="42.429531398020835" lon="14.097998804568556"><ele>55.333333333333336</ele><time>2026-05-03T11:10:15Z</time></trkpt><trkpt lat="42.42941624118851" lon="14.098232364878202"><ele>54.66666666666667</ele><time>2026-05-03T11:10:16Z</time></trkpt><trkpt lat="42.42930656246792" lon="14.098452914960161"><ele>54.0</ele><time>2026-05-03T11:10:17Z</time></trkpt><trkpt lat="42.42920342420792" lon="14.098661093124573"><ele>53.75</ele><time>2026-05-03T11:10:18Z</time></trkpt><trkpt lat="42.42911099449664" lon="14.098840859931881"><ele>53.5</ele><time>2026-05-03T11:10:19Z</time></trkpt><trkpt lat="42.4290249819009" lon="14.098999633380378"><ele>53.25</ele><time>2026-05-03T11:10:20Z</time></trkpt><trkpt lat="42.42894511313658" lon="14.099158295297777"><ele>53.0</ele><time>2026-05-03T11:10:21Z</time></trkpt><trkpt lat="42.42886943391686" lon="14.099309859751116"><ele>55.75</ele><time>2026-05-03T11:10:22Z</time></trkpt><trkpt lat="42.42880482185446" lon="14.09946541108289"><ele>58.5</ele><time>2026-05-03T11:10:23Z</time></trkpt><trkpt lat="42.42874419917013" lon="14.099636708207907"><ele>61.25</ele><time>2026-05-03T11:10:24Z</time></trkpt><trkpt lat="42.42868090811133" lon="14.099816357828574"><ele>64.0</ele><time>2026-05-03T11:10:25Z</time></trkpt><trkpt lat="42.42860876321249" lon="14.10001376708729"><ele>64.33333333333333</ele><time>2026-05-03T11:10:26Z</time></trkpt><trkpt lat="42.42853609110146" lon="14.100226832162639"><ele>64.66666666666667</ele><time>2026-05-03T11:10:27Z</time></trkpt><trkpt lat="42.42846502163154" lon="14.100445600132007"><ele>65.0</ele><time>2026-05-03T11:10:28Z</time></trkpt><trkpt lat="42.42839679501387" lon="14.100658244281588"><ele>63.0</ele><time>2026-05-03T11:10:29Z</time></trkpt><trkpt lat="42.42832508816504" lon="14.100864851238496"><ele>61.0</ele><time>2026-05-03T11:10:30Z</time></trkpt><trkpt lat="42.42824838573289" lon="14.101068908730158"><ele>59.0</ele><time>2026-05-03T11:10:31Z</time></trkpt><trkpt lat="42.42815780476039" lon="14.10127719712156"><ele>59.0</ele><time>2026-05-03T11:10:32Z</time></trkpt><trkpt lat="42.42805022079839" lon="14.10148945200916"><ele>59.0</ele><time>2026-05-03T11:10:33Z</time></trkpt><trkpt lat="42.42792907171735" lon="14.10170479357406"><ele>59.0</ele><time>2026-05-03T11:10:34Z</time></trkpt><trkpt lat="42.427807643299104" lon="14.101917937081662"><ele>62.0</ele><time>2026-05-03T11:10:35Z</time></trkpt><trkpt lat="42.427692418623124" lon="14.102125365190778"><ele>65.0</ele><time>2026-05-03T11:10:36Z</time></trkpt><trkpt lat="42.42757622156795" lon="14.102333183443044"><ele>68.0</ele><time>2026-05-03T11:10:37Z</time></trkpt><trkpt lat="42.427468023713345" lon="14.102529067875928"><ele>68.0</ele><time>2026-05-03T11:10:38Z</time></trkpt><trkpt lat="42.427380282890276" lon="14.10270031827517"><ele>68.0</ele><time>2026-05-03T11:10:39Z</time></trkpt><trkpt lat="42.427298519006776" lon="14.102844363082855"><ele>68.0</ele><time>2026-05-03T11:10:40.001Z</time></trkpt><trkpt lat="42.427227589822785" lon="14.102967808104793"><ele>68.0</ele><time>2026-05-03T11:10:41.001Z</time></trkpt><trkpt lat="42.427163001399855" lon="14.103065998198566"><ele>70.2</ele><time>2026-05-03T11:10:42.001Z</time></trkpt><trkpt lat="42.42709985666892" lon="14.103141542666085"><ele>72.4</ele><time>2026-05-03T11:10:43.001Z</time></trkpt><trkpt lat="42.42703556979979" lon="14.103192450618591"><ele>74.60000000000001</ele><time>2026-05-03T11:10:44.001Z</time></trkpt><trkpt lat="42.42693478636257" lon="14.103271597891322"><ele>76.8</ele><time>2026-05-03T11:10:46.001Z</time></trkpt><trkpt lat="42.426932061545365" lon="14.103459045842383"><ele>79.0</ele><time>2026-05-03T11:10:47.001Z</time></trkpt><trkpt lat="42.42692507436591" lon="14.103653201522558"><ele>79.0</ele><time>2026-05-03T11:10:48.001Z</time></trkpt><trkpt lat="42.42691156021755" lon="14.10387514174446"><ele>79.0</ele><time>2026-05-03T11:10:49.001Z</time></trkpt><trkpt lat="42.42687299585763" lon="14.104123223527246"><ele>79.0</ele><time>2026-05-03T11:10:50.001Z</time></trkpt><trkpt lat="42.42681862005946" lon="14.104401526470422"><ele>77.0</ele><time>2026-05-03T11:10:51.001Z</time></trkpt><trkpt lat="42.426767618764934" lon="14.104676469726892"><ele>75.0</ele><time>2026-05-03T11:10:52.001Z</time></trkpt><trkpt lat="42.42671779135332" lon="14.104933793734434"><ele>73.0</ele><time>2026-05-03T11:10:53.001Z</time></trkpt><trkpt lat="42.42667133078267" lon="14.105181328409527"><ele>70.66666666666666</ele><time>2026-05-03T11:10:54.001Z</time></trkpt><trkpt lat="42.426627989679666" lon="14.105413430002065"><ele>68.33333333333333</ele><time>2026-05-03T11:10:55.001Z</time></trkpt><trkpt lat="42.42658429654117" lon="14.105632930224335"><ele>66.0</ele><time>2026-05-03T11:10:56.001Z</time></trkpt><trkpt lat="42.426541661997625" lon="14.105841847225742"><ele>64.0</ele><time>2026-05-03T11:10:57.001Z</time></trkpt><trkpt lat="42.42649921297881" lon="14.106039140194463"><ele>62.0</ele><time>2026-05-03T11:10:58.001Z</time></trkpt><trkpt lat="42.426458475912405" lon="14.106233917744706"><ele>60.0</ele><time>2026-05-03T11:10:59.001Z</time></trkpt><trkpt lat="42.42642636439977" lon="14.106415220821393"><ele>58.0</ele><time>2026-05-03T11:11:00.001Z</time></trkpt><trkpt lat="42.4263963235799" lon="14.106595597486155"><ele>56.25</ele><time>2026-05-03T11:11:01.001Z</time></trkpt><trkpt lat="42.42637070700554" lon="14.106790553752798"><ele>54.5</ele><time>2026-05-03T11:11:02.001Z</time></trkpt><trkpt lat="42.426351484617946" lon="14.106987604328491"><ele>52.75</ele><time>2026-05-03T11:11:03.001Z</time></trkpt><trkpt lat="42.42633616502227" lon="14.107192578877703"><ele>51.0</ele><time>2026-05-03T11:11:04.001Z</time></trkpt><trkpt lat="42.426326597238585" lon="14.107410944029938"><ele>50.66666666666667</ele><time>2026-05-03T11:11:05.001Z</time></trkpt><trkpt lat="42.42631615132552" lon="14.107636710146435"><ele>50.333333333333336</ele><time>2026-05-03T11:11:06.001Z</time></trkpt><trkpt lat="42.426307378863115" lon="14.107864563635836"><ele>50.0</ele><time>2026-05-03T11:11:07.001Z</time></trkpt><trkpt lat="42.426295652535394" lon="14.10807516785245"><ele>49.25</ele><time>2026-05-03T11:11:08.001Z</time></trkpt><trkpt lat="42.42627746453536" lon="14.108272697550191"><ele>48.5</ele><time>2026-05-03T11:11:09.001Z</time></trkpt><trkpt lat="42.42625077949814" lon="14.10846006038694"><ele>47.75</ele><time>2026-05-03T11:11:10.001Z</time></trkpt><trkpt lat="42.42623065270231" lon="14.108647645422886"><ele>47.0</ele><time>2026-05-03T11:11:11.001Z</time></trkpt><trkpt lat="42.42621383152024" lon="14.108832227593178"><ele>47.0</ele><time>2026-05-03T11:11:12.001Z</time></trkpt><trkpt lat="42.42619778445245" lon="14.109009964527276"><ele>47.0</ele><time>2026-05-03T11:11:13.001Z</time></trkpt><trkpt lat="42.426179528826296" lon="14.109178896897705"><ele>47.0</ele><time>2026-05-03T11:11:14.001Z</time></trkpt><trkpt lat="42.42616070595002" lon="14.109350957504327"><ele>47.0</ele><time>2026-05-03T11:11:15.001Z</time></trkpt><trkpt lat="42.426140184971075" lon="14.109528027185364"><ele>46.25</ele><time>2026-05-03T11:11:16.001Z</time></trkpt><trkpt lat="42.42611655796561" lon="14.109714737287083"><ele>45.5</ele><time>2026-05-03T11:11:17.001Z</time></trkpt><trkpt lat="42.42609695075769" lon="14.1099041710827"><ele>44.75</ele><time>2026-05-03T11:11:18.001Z</time></trkpt><trkpt lat="42.42606354747348" lon="14.110096285310616"><ele>44.0</ele><time>2026-05-03T11:11:19.001Z</time></trkpt><trkpt lat="42.42600745296426" lon="14.110280634870909"><ele>43.666666666666664</ele><time>2026-05-03T11:11:20.001Z</time></trkpt><trkpt lat="42.425925879841394" lon="14.110460267526754"><ele>43.333333333333336</ele><time>2026-05-03T11:11:21.001Z</time></trkpt><trkpt lat="42.42583154293186" lon="14.110628313312683"><ele>43.0</ele><time>2026-05-03T11:11:22.001Z</time></trkpt><trkpt lat="42.42571893432286" lon="14.110765123843324"><ele>43.0</ele><time>2026-05-03T11:11:23.001Z</time></trkpt><trkpt lat="42.42559896740226" lon="14.110894531386563"><ele>43.0</ele><time>2026-05-03T11:11:24.001Z</time></trkpt><trkpt lat="42.42549685170193" lon="14.110999866957245"><ele>43.0</ele><time>2026-05-03T11:11:25.001Z</time></trkpt><trkpt lat="42.42541516232598" lon="14.11109541890269"><ele>43.0</ele><time>2026-05-03T11:11:26.001Z</time></trkpt><trkpt lat="42.42533667084143" lon="14.11119201602956"><ele>43.0</ele><time>2026-05-03T11:11:27.001Z</time></trkpt><trkpt lat="42.4252484212867" lon="14.111287347889078"><ele>43.0</ele><time>2026-05-03T11:11:28.001Z</time></trkpt><trkpt lat="42.42516431499933" lon="14.111413721387597"><ele>43.0</ele><time>2026-05-03T11:11:29Z</time></trkpt><trkpt lat="42.42509182877127" lon="14.111568235032824"><ele>43.0</ele><time>2026-05-03T11:11:30Z</time></trkpt><trkpt lat="42.42503483040995" lon="14.111760856409548"><ele>44.66666666666667</ele><time>2026-05-03T11:11:31Z</time></trkpt><trkpt lat="42.424989842266164" lon="14.111982969206233"><ele>46.333333333333336</ele><time>2026-05-03T11:11:32Z</time></trkpt><trkpt lat="42.4249430012639" lon="14.112233692824185"><ele>48.0</ele><time>2026-05-03T11:11:33Z</time></trkpt><trkpt lat="42.42488957221207" lon="14.112467107010177"><ele>49.33333333333333</ele><time>2026-05-03T11:11:34Z</time></trkpt><trkpt lat="42.42484447778872" lon="14.112682404273981"><ele>50.666666666666664</ele><time>2026-05-03T11:11:35Z</time></trkpt><trkpt lat="42.42480992811129" lon="14.112887946926746"><ele>52.0</ele><time>2026-05-03T11:11:36Z</time></trkpt><trkpt lat="42.42479947743377" lon="14.113113180429268"><ele>51.33333333333333</ele><time>2026-05-03T11:11:37Z</time></trkpt><trkpt lat="42.424814129509315" lon="14.11337471912322"><ele>50.66666666666667</ele><time>2026-05-03T11:11:38Z</time></trkpt><trkpt lat="42.42483686961868" lon="14.113640727318291"><ele>50.0</ele><time>2026-05-03T11:11:38.999Z</time></trkpt><trkpt lat="42.42485705581527" lon="14.113909876141477"><ele>49.333333333333336</ele><time>2026-05-03T11:11:39.999Z</time></trkpt><trkpt lat="42.42487581363553" lon="14.114198026020302"><ele>48.66666666666667</ele><time>2026-05-03T11:11:40.999Z</time></trkpt><trkpt lat="42.42489118436819" lon="14.114493592103855"><ele>48.0</ele><time>2026-05-03T11:11:41.999Z</time></trkpt><trkpt lat="42.42491265666296" lon="14.114806765967566"><ele>46.5</ele><time>2026-05-03T11:11:42.999Z</time></trkpt><trkpt lat="42.42494161967613" lon="14.11513515926914"><ele>45.0</ele><time>2026-05-03T11:11:43.999Z</time></trkpt><trkpt lat="42.42496711919613" lon="14.115479748697867"><ele>44.5</ele><time>2026-05-03T11:11:44.999Z</time></trkpt><trkpt lat="42.424993719640426" lon="14.115857467847103"><ele>44.0</ele><time>2026-05-03T11:11:45.999Z</time></trkpt><trkpt lat="42.425020904855494" lon="14.116276003581634"><ele>44.0</ele><time>2026-05-03T11:11:46.999Z</time></trkpt><trkpt lat="42.42504575015696" lon="14.116652286666914"><ele>44.0</ele><time>2026-05-03T11:11:47.999Z</time></trkpt><trkpt lat="42.42506897204919" lon="14.116992464501486"><ele>44.0</ele><time>2026-05-03T11:11:48.999Z</time></trkpt><trkpt lat="42.425095095904055" lon="14.117316438949375"><ele>44.0</ele><time>2026-05-03T11:11:49.999Z</time></trkpt><trkpt lat="42.42513495008657" lon="14.117657953912085"><ele>42.0</ele><time>2026-05-03T11:11:50.999Z</time></trkpt><trkpt lat="42.42519316403929" lon="14.118024989155334"><ele>40.0</ele><time>2026-05-03T11:11:51.999Z</time></trkpt><trkpt lat="42.42525459361362" lon="14.118382151352021"><ele>39.5</ele><time>2026-05-03T11:11:52.999Z</time></trkpt><trkpt lat="42.425308082085714" lon="14.118722745833267"><ele>39.0</ele><time>2026-05-03T11:11:53.999Z</time></trkpt><trkpt lat="42.42535568751875" lon="14.119029558860309"><ele>38.666666666666664</ele><time>2026-05-03T11:11:54.999Z</time></trkpt><trkpt lat="42.42540097759911" lon="14.119295845077302"><ele>38.33333333333333</ele><time>2026-05-03T11:11:55.999Z</time></trkpt><trkpt lat="42.425444009872464" lon="14.11954700778905"><ele>38.0</ele><time>2026-05-03T11:11:56.999Z</time></trkpt><trkpt lat="42.4254849522231" lon="14.119765634194847"><ele>40.33333333333333</ele><time>2026-05-03T11:11:57.999Z</time></trkpt><trkpt lat="42.42554758833103" lon="14.119989149155314"><ele>42.666666666666664</ele><time>2026-05-03T11:11:58.999Z</time></trkpt><trkpt lat="42.42563646588107" lon="14.120213688039383"><ele>45.0</ele><time>2026-05-03T11:11:59.999Z</time></trkpt><trkpt lat="42.42572605143211" lon="14.12044896235952"><ele>45.0</ele><time>2026-05-03T11:12:00.999Z</time></trkpt><trkpt lat="42.42582047717175" lon="14.120690442077082"><ele>45.0</ele><time>2026-05-03T11:12:01.999Z</time></trkpt><trkpt lat="42.425901323861595" lon="14.120919905243408"><ele>45.0</ele><time>2026-05-03T11:12:02.999Z</time></trkpt><trkpt lat="42.42596925546114" lon="14.121141181109563"><ele>43.666666666666664</ele><time>2026-05-03T11:12:03.999Z</time></trkpt><trkpt lat="42.4259939033923" lon="14.121373349297958"><ele>42.33333333333333</ele><time>2026-05-03T11:12:04.999Z</time></trkpt><trkpt lat="42.426037432527785" lon="14.12162011667845"><ele>41.0</ele><time>2026-05-03T11:12:05.999Z</time></trkpt><trkpt lat="42.4260677603109" lon="14.121889601522641"><ele>40.33333333333333</ele><time>2026-05-03T11:12:06.999Z</time></trkpt><trkpt lat="42.42610208799612" lon="14.122159817116282"><ele>39.666666666666664</ele><time>2026-05-03T11:12:07.999Z</time></trkpt><trkpt lat="42.42613646011684" lon="14.122436801683653"><ele>39.0</ele><time>2026-05-03T11:12:08.999Z</time></trkpt><trkpt lat="42.42617126117175" lon="14.122717024628495"><ele>38.666666666666664</ele><time>2026-05-03T11:12:09.999Z</time></trkpt><trkpt lat="42.42620857905363" lon="14.122996194118576"><ele>38.33333333333333</ele><time>2026-05-03T11:12:10.999Z</time></trkpt><trkpt lat="42.4262460005649" lon="14.123276845943996"><ele>38.0</ele><time>2026-05-03T11:12:11.999Z</time></trkpt><trkpt lat="42.42629073260743" lon="14.12355220574027"><ele>38.33333333333333</ele><time>2026-05-03T11:12:12.999Z</time></trkpt><trkpt lat="42.42634316581245" lon="14.123823796231717"><ele>38.666666666666664</ele><time>2026-05-03T11:12:13.999Z</time></trkpt><trkpt lat="42.42640223508798" lon="14.124090996149775"><ele>39.0</ele><time>2026-05-03T11:12:14.999Z</time></trkpt><trkpt lat="42.42646737323908" lon="14.124352264152604"><ele>39.0</ele><time>2026-05-03T11:12:15.999Z</time></trkpt><trkpt lat="42.42653325616429" lon="14.124613124817177"><ele>39.0</ele><time>2026-05-03T11:12:16.999Z</time></trkpt><trkpt lat="42.42659449932087" lon="14.124872280289281"><ele>39.0</ele><time>2026-05-03T11:12:17.999Z</time></trkpt><trkpt lat="42.42664048844356" lon="14.125109519286726"><ele>39.333333333333336</ele><time>2026-05-03T11:12:18.999Z</time></trkpt><trkpt lat="42.42666570535736" lon="14.125320012474633"><ele>39.66666666666667</ele><time>2026-05-03T11:12:19.999Z</time></trkpt><trkpt lat="42.42667513944309" lon="14.125531586235072"><ele>40.0</ele><time>2026-05-03T11:12:20.999Z</time></trkpt><trkpt lat="42.426653213070644" lon="14.125748100631617"><ele>40.0</ele><time>2026-05-03T11:12:21.999Z</time></trkpt><trkpt lat="42.42661064040564" lon="14.125946820125213"><ele>40.0</ele><time>2026-05-03T11:12:22.999Z</time></trkpt><trkpt lat="42.42651967286768" lon="14.126127122555733"><ele>40.0</ele><time>2026-05-03T11:12:23.999Z</time></trkpt><trkpt lat="42.42641587716395" lon="14.126360551322682"><ele>38.5</ele><time>2026-05-03T11:12:24.999Z</time></trkpt><trkpt lat="42.42628088262226" lon="14.12660791463866"><ele>37.0</ele><time>2026-05-03T11:12:25.999Z</time></trkpt><trkpt lat="42.42615357871653" lon="14.126859053363995"><ele>37.0</ele><time>2026-05-03T11:12:26.999Z</time></trkpt><trkpt lat="42.42602384110332" lon="14.127114838964403"><ele>37.0</ele><time>2026-05-03T11:12:27.999Z</time></trkpt><trkpt lat="42.42588727467429" lon="14.12737801768239"><ele>36.5</ele><time>2026-05-03T11:12:28.999Z</time></trkpt><trkpt lat="42.42575036471531" lon="14.127649283115286"><ele>36.0</ele><time>2026-05-03T11:12:29.999Z</time></trkpt><trkpt lat="42.425611264292485" lon="14.127926584669014"><ele>34.5</ele><time>2026-05-03T11:12:30.999Z</time></trkpt><trkpt lat="42.425471212552814" lon="14.128208954727466"><ele>33.0</ele><time>2026-05-03T11:12:31.999Z</time></trkpt><trkpt lat="42.4253282597284" lon="14.128495984295927"><ele>33.0</ele><time>2026-05-03T11:12:32.999Z</time></trkpt><trkpt lat="42.425183943470806" lon="14.128781018503103"><ele>33.0</ele><time>2026-05-03T11:12:33.999Z</time></trkpt><trkpt lat="42.42503773086194" lon="14.129073487710953"><ele>34.5</ele><time>2026-05-03T11:12:34.999Z</time></trkpt><trkpt lat="42.424894378138504" lon="14.129367288387618"><ele>36.0</ele><time>2026-05-03T11:12:35.999Z</time></trkpt><trkpt lat="42.42475039375277" lon="14.129662732473307"><ele>35.5</ele><time>2026-05-03T11:12:36.999Z</time></trkpt><trkpt lat="42.42461003768368" lon="14.129944976742447"><ele>35.0</ele><time>2026-05-03T11:12:37.999Z</time></trkpt><trkpt lat="42.42447927276064" lon="14.130196023404359"><ele>35.0</ele><time>2026-05-03T11:12:38.999Z</time></trkpt><trkpt lat="42.424358540244626" lon="14.13042961340669"><ele>35.0</ele><time>2026-05-03T11:12:39.999Z</time></trkpt><trkpt lat="42.424249240361696" lon="14.13065586580369"><ele>35.0</ele><time>2026-05-03T11:12:40.999Z</time></trkpt><trkpt lat="42.424152117608735" lon="14.130896821907855"><ele>36.0</ele><time>2026-05-03T11:12:41.999Z</time></trkpt><trkpt lat="42.424067220112626" lon="14.131156908783858"><ele>37.0</ele><time>2026-05-03T11:12:42.999Z</time></trkpt><trkpt lat="42.42399010427922" lon="14.131432328083461"><ele>38.0</ele><time>2026-05-03T11:12:43.999Z</time></trkpt><trkpt lat="42.42391283953718" lon="14.131710582234529"><ele>39.5</ele><time>2026-05-03T11:12:44.999Z</time></trkpt><trkpt lat="42.42383299824733" lon="14.13199701145901"><ele>41.0</ele><time>2026-05-03T11:12:46Z</time></trkpt><trkpt lat="42.423750396101" lon="14.13228011935353"><ele>36.5</ele><time>2026-05-03T11:12:47Z</time></trkpt><trkpt lat="42.423668032341894" lon="14.13256888123175"><ele>32.0</ele><time>2026-05-03T11:12:48Z</time></trkpt><trkpt lat="42.42358515055856" lon="14.132860815162347"><ele>32.0</ele><time>2026-05-03T11:12:49Z</time></trkpt><trkpt lat="42.42350271380854" lon="14.13315943590462"><ele>32.0</ele><time>2026-05-03T11:12:50Z</time></trkpt><trkpt lat="42.42341717441635" lon="14.133456210044777"><ele>33.0</ele><time>2026-05-03T11:12:51Z</time></trkpt><trkpt lat="42.4233294578952" lon="14.133753479581975"><ele>34.0</ele><time>2026-05-03T11:12:52Z</time></trkpt><trkpt lat="42.42323844808485" lon="14.134054023426724"><ele>36.0</ele><time>2026-05-03T11:12:53Z</time></trkpt><trkpt lat="42.423151158783355" lon="14.13435420637808"><ele>38.0</ele><time>2026-05-03T11:12:54Z</time></trkpt><trkpt lat="42.423061333286626" lon="14.134658076819063"><ele>35.0</ele><time>2026-05-03T11:12:55Z</time></trkpt><trkpt lat="42.42296973991382" lon="14.134955532237491"><ele>32.0</ele><time>2026-05-03T11:12:56Z</time></trkpt><trkpt lat="42.42288174927001" lon="14.135230294505721"><ele>32.0</ele><time>2026-05-03T11:12:57Z</time></trkpt><trkpt lat="42.42278614516579" lon="14.135465587669971"><ele>32.0</ele><time>2026-05-03T11:12:58Z</time></trkpt><trkpt lat="42.42267258644317" lon="14.135689977038751"><ele>32.0</ele><time>2026-05-03T11:12:59Z</time></trkpt><trkpt lat="42.42253469427192" lon="14.135894350068842"><ele>34.33333333333333</ele><time>2026-05-03T11:13:00Z</time></trkpt><trkpt lat="42.42240050342663" lon="14.136082479314153"><ele>36.666666666666664</ele><time>2026-05-03T11:13:01Z</time></trkpt><trkpt lat="42.42229281426775" lon="14.136258357091286"><ele>39.0</ele><time>2026-05-03T11:13:02Z</time></trkpt><trkpt lat="42.42220937050265" lon="14.136435020758611"><ele>35.333333333333336</ele><time>2026-05-03T11:13:03Z</time></trkpt><trkpt lat="42.422159628590485" lon="14.136622689333752"><ele>31.666666666666668</ele><time>2026-05-03T11:13:04Z</time></trkpt><trkpt lat="42.422129871069906" lon="14.136842155282979"><ele>28.0</ele><time>2026-05-03T11:13:05Z</time></trkpt><trkpt lat="42.422110982016484" lon="14.137082907899469"><ele>28.0</ele><time>2026-05-03T11:13:06Z</time></trkpt><trkpt lat="42.422077609526895" lon="14.137308748442273"><ele>28.0</ele><time>2026-05-03T11:13:07Z</time></trkpt><trkpt lat="42.42201965507979" lon="14.137518727317804"><ele>28.0</ele><time>2026-05-03T11:13:08Z</time></trkpt><trkpt lat="42.42194733751394" lon="14.13772555018429"><ele>29.666666666666668</ele><time>2026-05-03T11:13:09Z</time></trkpt><trkpt lat="42.42185070784883" lon="14.137935412037951"><ele>31.333333333333336</ele><time>2026-05-03T11:13:10Z</time></trkpt><trkpt lat="42.42172487571689" lon="14.13815887211214"><ele>33.0</ele><time>2026-05-03T11:13:11Z</time></trkpt><trkpt lat="42.4216066577285" lon="14.138387295375994"><ele>35.666666666666664</ele><time>2026-05-03T11:13:12Z</time></trkpt><trkpt lat="42.421497966914316" lon="14.138623201250288"><ele>38.33333333333333</ele><time>2026-05-03T11:13:13Z</time></trkpt><trkpt lat="42.42140366445242" lon="14.138853935277934"><ele>41.0</ele><time>2026-05-03T11:13:14Z</time></trkpt><trkpt lat="42.4213201139661" lon="14.139071232434425"><ele>36.666666666666664</ele><time>2026-05-03T11:13:15Z</time></trkpt><trkpt lat="42.42124547449239" lon="14.139280668732804"><ele>32.333333333333336</ele><time>2026-05-03T11:13:16Z</time></trkpt><trkpt lat="42.4211772353937" lon="14.139476824200012"><ele>28.0</ele><time>2026-05-03T11:13:17Z</time></trkpt><trkpt lat="42.421107788170616" lon="14.13966510588247"><ele>28.0</ele><time>2026-05-03T11:13:18Z</time></trkpt><trkpt lat="42.42104194487696" lon="14.139846873844665"><ele>28.0</ele><time>2026-05-03T11:13:19Z</time></trkpt><trkpt lat="42.42097880752433" lon="14.140016650571235"><ele>28.0</ele><time>2026-05-03T11:13:20Z</time></trkpt><trkpt lat="42.42092218000164" lon="14.140181448428807"><ele>28.0</ele><time>2026-05-03T11:13:21Z</time></trkpt><trkpt lat="42.420862052063654" lon="14.140338960119953"><ele>28.0</ele><time>2026-05-03T11:13:22Z</time></trkpt><trkpt lat="42.420808328137504" lon="14.140485718903953"><ele>27.999999999999996</ele><time>2026-05-03T11:13:23Z</time></trkpt><trkpt lat="42.42076460136263" lon="14.140620714350243"><ele>27.999999999999996</ele><time>2026-05-03T11:13:24Z</time></trkpt><trkpt lat="42.42072374577935" lon="14.140740278720841"><ele>28.0</ele><time>2026-05-03T11:13:25Z</time></trkpt><trkpt lat="42.420686602827416" lon="14.140831126506413"><ele>28.0</ele><time>2026-05-03T11:13:26Z</time></trkpt><trkpt lat="42.420656628749725" lon="14.140918940704907"><ele>28.0</ele><time>2026-05-03T11:13:27Z</time></trkpt><trkpt lat="42.420632531187984" lon="14.141051368087835"><ele>27.999999999999996</ele><time>2026-05-03T11:13:29Z</time></trkpt><trkpt lat="42.42062069191755" lon="14.141140337427956"><ele>27.999999999999996</ele><time>2026-05-03T11:13:32Z</time></trkpt><trkpt lat="42.42060258874772" lon="14.141264993227477"><ele>28.0</ele><time>2026-05-03T11:14:28Z</time></trkpt><trkpt lat="42.42058208493442" lon="14.141427162458127"><ele>28.0</ele><time>2026-05-03T11:14:30Z</time></trkpt><trkpt lat="42.42057497748145" lon="14.141524472775952"><ele>27.799999999999997</ele><time>2026-05-03T11:14:31Z</time></trkpt><trkpt lat="42.42057464510229" lon="14.141632636794935"><ele>27.599999999999998</ele><time>2026-05-03T11:14:32Z</time></trkpt><trkpt lat="42.42058610825885" lon="14.141755904260492"><ele>27.400000000000002</ele><time>2026-05-03T11:14:33Z</time></trkpt><trkpt lat="42.420604373960586" lon="14.141880342067564"><ele>27.200000000000003</ele><time>2026-05-03T11:14:34Z</time></trkpt><trkpt lat="42.420631750167104" lon="14.14200290897292"><ele>27.0</ele><time>2026-05-03T11:14:35Z</time></trkpt><trkpt lat="42.42064038425397" lon="14.142139214733536"><ele>27.0</ele><time>2026-05-03T11:14:36Z</time></trkpt><trkpt lat="42.42066700690479" lon="14.142276170528907"><ele>27.000000000000004</ele><time>2026-05-03T11:14:37Z</time></trkpt><trkpt lat="42.42069435278369" lon="14.142414644392312"><ele>27.000000000000004</ele><time>2026-05-03T11:14:38Z</time></trkpt><trkpt lat="42.42072243293431" lon="14.142550612292764"><ele>27.0</ele><time>2026-05-03T11:14:39Z</time></trkpt><trkpt lat="42.42075066074909" lon="14.142689812549806"><ele>27.0</ele><time>2026-05-03T11:14:40Z</time></trkpt><trkpt lat="42.42077899066082" lon="14.142831807402937"><ele>27.200000000000003</ele><time>2026-05-03T11:14:41Z</time></trkpt><trkpt lat="42.420807033651634" lon="14.142974197578745"><ele>27.400000000000002</ele><time>2026-05-03T11:14:42Z</time></trkpt><trkpt lat="42.42083303329042" lon="14.143110144859463"><ele>27.599999999999998</ele><time>2026-05-03T11:14:43Z</time></trkpt><trkpt lat="42.42085852775967" lon="14.143243450635358"><ele>27.799999999999997</ele><time>2026-05-03T11:14:44Z</time></trkpt><trkpt lat="42.420885491917566" lon="14.143384441243928"><ele>28.0</ele><time>2026-05-03T11:14:45Z</time></trkpt><trkpt lat="42.420911941713776" lon="14.143581170588254"><ele>28.0</ele><time>2026-05-03T11:14:46Z</time></trkpt><trkpt lat="42.42094313701825" lon="14.143747200657408"><ele>28.0</ele><time>2026-05-03T11:14:47Z</time></trkpt><trkpt lat="42.420974944108686" lon="14.143923096710134"><ele>28.0</ele><time>2026-05-03T11:14:48Z</time></trkpt><trkpt lat="42.42100726067165" lon="14.144096874338617"><ele>28.0</ele><time>2026-05-03T11:14:49Z</time></trkpt><trkpt lat="42.42104581495019" lon="14.144278921592129"><ele>28.0</ele><time>2026-05-03T11:14:50Z</time></trkpt><trkpt lat="42.421084836417094" lon="14.144460339016002"><ele>28.0</ele><time>2026-05-03T11:14:51Z</time></trkpt><trkpt lat="42.421119777644066" lon="14.14463481151607"><ele>28.0</ele><time>2026-05-03T11:14:52Z</time></trkpt><trkpt lat="42.42115000354387" lon="14.144812728878223"><ele>28.0</ele><time>2026-05-03T11:14:53Z</time></trkpt><trkpt lat="42.42118128175024" lon="14.144990832315587"><ele>27.75</ele><time>2026-05-03T11:14:54Z</time></trkpt><trkpt lat="42.42120685412053" lon="14.14517142792025"><ele>27.5</ele><time>2026-05-03T11:14:55Z</time></trkpt><trkpt lat="42.42121871719417" lon="14.145350293499936"><ele>27.25</ele><time>2026-05-03T11:14:56Z</time></trkpt><trkpt lat="42.421218153278204" lon="14.145531723338786"><ele>27.0</ele><time>2026-05-03T11:14:57Z</time></trkpt><trkpt lat="42.421207373570475" lon="14.145715806511033"><ele>27.0</ele><time>2026-05-03T11:14:58Z</time></trkpt><trkpt lat="42.42119062666263" lon="14.145898210707648"><ele>27.0</ele><time>2026-05-03T11:14:59Z</time></trkpt><trkpt lat="42.42115438559877" lon="14.146078888212452"><ele>27.0</ele><time>2026-05-03T11:15:00Z</time></trkpt><trkpt lat="42.421113267045904" lon="14.146265827238487"><ele>27.0</ele><time>2026-05-03T11:15:01Z</time></trkpt><trkpt lat="42.42106847547725" lon="14.146456305453372"><ele>26.0</ele><time>2026-05-03T11:15:02Z</time></trkpt><trkpt lat="42.421032609165565" lon="14.146650770835931"><ele>25.0</ele><time>2026-05-03T11:15:03Z</time></trkpt><trkpt lat="42.42099754906072" lon="14.146852561823529"><ele>24.0</ele><time>2026-05-03T11:15:04Z</time></trkpt><trkpt lat="42.420962024701886" lon="14.14704856651456"><ele>24.0</ele><time>2026-05-03T11:15:05Z</time></trkpt><trkpt lat="42.42092624799915" lon="14.147232596905164"><ele>24.0</ele><time>2026-05-03T11:15:06Z</time></trkpt><trkpt lat="42.42089280972801" lon="14.147413637679366"><ele>24.0</ele><time>2026-05-03T11:15:07Z</time></trkpt><trkpt lat="42.42086572841447" lon="14.147595788757508"><ele>24.0</ele><time>2026-05-03T11:15:08Z</time></trkpt><trkpt lat="42.42083979308303" lon="14.1477690858902"><ele>24.0</ele><time>2026-05-03T11:15:09Z</time></trkpt><trkpt lat="42.42081124159572" lon="14.147945627719093"><ele>24.0</ele><time>2026-05-03T11:15:10Z</time></trkpt><trkpt lat="42.4207894709402" lon="14.148107848646204"><ele>24.0</ele><time>2026-05-03T11:15:11Z</time></trkpt><trkpt lat="42.42077625516881" lon="14.148255932564497"><ele>24.0</ele><time>2026-05-03T11:15:12Z</time></trkpt><trkpt lat="42.420740204320396" lon="14.14836888307185"><ele>23.25</ele><time>2026-05-03T11:15:13Z</time></trkpt><trkpt lat="42.420723507068125" lon="14.148461332268178"><ele>22.5</ele><time>2026-05-03T11:15:14Z</time></trkpt><trkpt lat="42.42090216976389" lon="14.148487555902442"><ele>21.75</ele><time>2026-05-03T11:15:15Z</time></trkpt><trkpt lat="42.42099697193697" lon="14.148538082997739"><ele>21.0</ele><time>2026-05-03T11:15:16Z</time></trkpt><trkpt lat="42.421126641492926" lon="14.148622097470621"><ele>21.0</ele><time>2026-05-03T11:15:17Z</time></trkpt><trkpt lat="42.42129674807843" lon="14.148701428375182"><ele>21.0</ele><time>2026-05-03T11:15:18Z</time></trkpt><trkpt lat="42.421502478956484" lon="14.148848682250295"><ele>21.0</ele><time>2026-05-03T11:15:19Z</time></trkpt><trkpt lat="42.42173174388734" lon="14.148993999902059"><ele>24.5</ele><time>2026-05-03T11:15:20Z</time></trkpt><trkpt lat="42.42194888846776" lon="14.149189363029494"><ele>28.0</ele><time>2026-05-03T11:15:21Z</time></trkpt><trkpt lat="42.42213397322493" lon="14.149283214359302"><ele>29.333333333333336</ele><time>2026-05-03T11:15:22Z</time></trkpt><trkpt lat="42.42230111986874" lon="14.149382494534777"><ele>30.666666666666664</ele><time>2026-05-03T11:15:23Z</time></trkpt><trkpt lat="42.422442783949236" lon="14.149443660532087"><ele>32.0</ele><time>2026-05-03T11:15:24Z</time></trkpt><trkpt lat="42.42261921889272" lon="14.149443645722885"><ele>32.0</ele><time>2026-05-03T11:15:25Z</time></trkpt><trkpt lat="42.42278528187634" lon="14.149441839363048"><ele>32.0</ele><time>2026-05-03T11:15:26Z</time></trkpt><trkpt lat="42.422965232854175" lon="14.149423592864773"><ele>32.0</ele><time>2026-05-03T11:15:27Z</time></trkpt><trkpt lat="42.42315825942529" lon="14.149416265515908"><ele>35.5</ele><time>2026-05-03T11:15:28Z</time></trkpt><trkpt lat="42.42337874241886" lon="14.14940750271505"><ele>39.0</ele><time>2026-05-03T11:15:29Z</time></trkpt><trkpt lat="42.4236304779138" lon="14.149398142386866"><ele>41.0</ele><time>2026-05-03T11:15:30Z</time></trkpt><trkpt lat="42.42388005055599" lon="14.14939041872524"><ele>43.0</ele><time>2026-05-03T11:15:31Z</time></trkpt><trkpt lat="42.424128983499415" lon="14.149377745967"><ele>43.0</ele><time>2026-05-03T11:15:32Z</time></trkpt><trkpt lat="42.42437445390168" lon="14.149368571039014"><ele>43.0</ele><time>2026-05-03T11:15:33Z</time></trkpt><trkpt lat="42.42461900833262" lon="14.149361078542402"><ele>46.5</ele><time>2026-05-03T11:15:34Z</time></trkpt><trkpt lat="42.424864293443555" lon="14.149354535715652"><ele>50.0</ele><time>2026-05-03T11:15:35Z</time></trkpt><trkpt lat="42.425109527144606" lon="14.149348073615093"><ele>50.0</ele><time>2026-05-03T11:15:36Z</time></trkpt><trkpt lat="42.42535363494217" lon="14.149337570222604"><ele>50.0</ele><time>2026-05-03T11:15:37Z</time></trkpt><trkpt lat="42.42559643314101" lon="14.149334114839727"><ele>52.0</ele><time>2026-05-03T11:15:38Z</time></trkpt><trkpt lat="42.42583665454435" lon="14.14932862408906"><ele>54.0</ele><time>2026-05-03T11:15:39Z</time></trkpt><trkpt lat="42.4260791700489" lon="14.149330291438634"><ele>55.0</ele><time>2026-05-03T11:15:40Z</time></trkpt><trkpt lat="42.42632381025692" lon="14.149334079430947"><ele>56.0</ele><time>2026-05-03T11:15:41Z</time></trkpt><trkpt lat="42.42657016355641" lon="14.149335684521642"><ele>56.0</ele><time>2026-05-03T11:15:42Z</time></trkpt><trkpt lat="42.42681428598057" lon="14.149324560869328"><ele>56.0</ele><time>2026-05-03T11:15:43Z</time></trkpt><trkpt lat="42.427037305286376" lon="14.149304042404086"><ele>57.0</ele><time>2026-05-03T11:15:44Z</time></trkpt><trkpt lat="42.42723790595306" lon="14.149267243262075"><ele>58.0</ele><time>2026-05-03T11:15:45Z</time></trkpt><trkpt lat="42.42744435354409" lon="14.149188893023195"><ele>59.0</ele><time>2026-05-03T11:15:46Z</time></trkpt><trkpt lat="42.427680157130105" lon="14.149078463016084"><ele>58.0</ele><time>2026-05-03T11:15:47Z</time></trkpt><trkpt lat="42.427949833558" lon="14.148954708341464"><ele>57.0</ele><time>2026-05-03T11:15:48Z</time></trkpt><trkpt lat="42.42822884988491" lon="14.148837877752447"><ele>59.5</ele><time>2026-05-03T11:15:49Z</time></trkpt><trkpt lat="42.42851865392672" lon="14.14872798207932"><ele>62.0</ele><time>2026-05-03T11:15:50Z</time></trkpt><trkpt lat="42.428815841742406" lon="14.148626817136382"><ele>63.5</ele><time>2026-05-03T11:15:51Z</time></trkpt><trkpt lat="42.42910357014919" lon="14.148538851598161"><ele>65.0</ele><time>2026-05-03T11:15:52Z</time></trkpt><trkpt lat="42.42935051470101" lon="14.148467201162212"><ele>65.0</ele><time>2026-05-03T11:15:53Z</time></trkpt><trkpt lat="42.42956085659624" lon="14.148404884247519"><ele>65.0</ele><time>2026-05-03T11:15:54Z</time></trkpt><trkpt lat="42.42973976177781" lon="14.148347717449203"><ele>65.0</ele><time>2026-05-03T11:15:55Z</time></trkpt><trkpt lat="42.42988895118161" lon="14.14829330327648"><ele>67.0</ele><time>2026-05-03T11:15:56Z</time></trkpt><trkpt lat="42.43001825145649" lon="14.148235958591169"><ele>69.0</ele><time>2026-05-03T11:15:57Z</time></trkpt><trkpt lat="42.43017430734555" lon="14.148190131159824"><ele>71.0</ele><time>2026-05-03T11:15:58Z</time></trkpt><trkpt lat="42.43034737518555" lon="14.148126084464618"><ele>73.33333333333334</ele><time>2026-05-03T11:15:59Z</time></trkpt><trkpt lat="42.430512364177524" lon="14.147939619818297"><ele>75.66666666666667</ele><time>2026-05-03T11:16:00Z</time></trkpt><trkpt lat="42.430716699522904" lon="14.147823066806676"><ele>78.0</ele><time>2026-05-03T11:16:01Z</time></trkpt><trkpt lat="42.43092427054656" lon="14.147700859523079"><ele>78.0</ele><time>2026-05-03T11:16:02Z</time></trkpt><trkpt lat="42.431143740685776" lon="14.147563717520335"><ele>78.0</ele><time>2026-05-03T11:16:03Z</time></trkpt><trkpt lat="42.43137143613684" lon="14.147424709491645"><ele>86.0</ele><time>2026-05-03T11:16:04Z</time></trkpt><trkpt lat="42.43160039647662" lon="14.147276773319442"><ele>94.0</ele><time>2026-05-03T11:16:05Z</time></trkpt><trkpt lat="42.43180476885719" lon="14.147136675484335"><ele>94.0</ele><time>2026-05-03T11:16:06Z</time></trkpt><trkpt lat="42.432001228202935" lon="14.146993622556609"><ele>94.0</ele><time>2026-05-03T11:16:07Z</time></trkpt><trkpt lat="42.43218738254606" lon="14.146849632718045"><ele>94.0</ele><time>2026-05-03T11:16:08Z</time></trkpt><trkpt lat="42.43236654496146" lon="14.146696857993902"><ele>94.0</ele><time>2026-05-03T11:16:09Z</time></trkpt><trkpt lat="42.43252824348751" lon="14.146562345029354"><ele>94.0</ele><time>2026-05-03T11:16:10Z</time></trkpt><trkpt lat="42.4326618556238" lon="14.146449026837944"><ele>94.0</ele><time>2026-05-03T11:16:11Z</time></trkpt><trkpt lat="42.43278175234361" lon="14.146347569885592"><ele>97.0</ele><time>2026-05-03T11:16:12Z</time></trkpt><trkpt lat="42.43290214290709" lon="14.146230301480115"><ele>100.0</ele><time>2026-05-03T11:16:13Z</time></trkpt><trkpt lat="42.4330225080138" lon="14.146079105400297"><ele>103.0</ele><time>2026-05-03T11:16:14Z</time></trkpt><trkpt lat="42.43313448952694" lon="14.145905061769511"><ele>103.0</ele><time>2026-05-03T11:16:15Z</time></trkpt><trkpt lat="42.43324504400648" lon="14.145733410579876"><ele>103.0</ele><time>2026-05-03T11:16:16Z</time></trkpt><trkpt lat="42.43335499102858" lon="14.145555147225087"><ele>103.0</ele><time>2026-05-03T11:16:17Z</time></trkpt><trkpt lat="42.43346025287525" lon="14.145367182302069"><ele>107.33333333333334</ele><time>2026-05-03T11:16:18Z</time></trkpt><trkpt lat="42.43354961531859" lon="14.145170215930882"><ele>111.66666666666666</ele><time>2026-05-03T11:16:19Z</time></trkpt><trkpt lat="42.43361938493221" lon="14.144947854430116"><ele>116.0</ele><time>2026-05-03T11:16:20Z</time></trkpt><trkpt lat="42.43367818972646" lon="14.144729014768156"><ele>116.25</ele><time>2026-05-03T11:16:21Z</time></trkpt><trkpt lat="42.43373435345144" lon="14.14453432397941"><ele>116.5</ele><time>2026-05-03T11:16:22Z</time></trkpt><trkpt lat="42.43378989458914" lon="14.144378873778523"><ele>116.75</ele><time>2026-05-03T11:16:23Z</time></trkpt><trkpt lat="42.433871117003264" lon="14.144227334316671"><ele>117.0</ele><time>2026-05-03T11:16:24Z</time></trkpt><trkpt lat="42.43397716845568" lon="14.144075626445021"><ele>115.33333333333334</ele><time>2026-05-03T11:16:25Z</time></trkpt><trkpt lat="42.43408418094732" lon="14.143913956328692"><ele>113.66666666666667</ele><time>2026-05-03T11:16:26Z</time></trkpt><trkpt lat="42.43419117617817" lon="14.143741202994324"><ele>112.0</ele><time>2026-05-03T11:16:27Z</time></trkpt><trkpt lat="42.43430112913451" lon="14.143552939182381"><ele>112.0</ele><time>2026-05-03T11:16:28Z</time></trkpt><trkpt lat="42.43440823691169" lon="14.143346092579947"><ele>112.0</ele><time>2026-05-03T11:16:29Z</time></trkpt><trkpt lat="42.434514766540104" lon="14.143133228770296"><ele>112.0</ele><time>2026-05-03T11:16:30Z</time></trkpt><trkpt lat="42.4346272250389" lon="14.142916724653071"><ele>111.33333333333334</ele><time>2026-05-03T11:16:31Z</time></trkpt><trkpt lat="42.4347356216607" lon="14.142704513024931"><ele>110.66666666666666</ele><time>2026-05-03T11:16:32Z</time></trkpt><trkpt lat="42.434837821348886" lon="14.142518145417615"><ele>110.0</ele><time>2026-05-03T11:16:33Z</time></trkpt><trkpt lat="42.434940659426694" lon="14.142346721897704"><ele>112.0</ele><time>2026-05-03T11:16:34Z</time></trkpt><trkpt lat="42.43505601728467" lon="14.142204642513798"><ele>114.0</ele><time>2026-05-03T11:16:35Z</time></trkpt><trkpt lat="42.43519590846944" lon="14.142091066954393"><ele>116.0</ele><time>2026-05-03T11:16:36Z</time></trkpt><trkpt lat="42.43534892767645" lon="14.141985198935508"><ele>116.25</ele><time>2026-05-03T11:16:37Z</time></trkpt><trkpt lat="42.43549357025768" lon="14.141897856867622"><ele>116.5</ele><time>2026-05-03T11:16:38Z</time></trkpt><trkpt lat="42.43561384167123" lon="14.141846490573409"><ele>116.75</ele><time>2026-05-03T11:16:39Z</time></trkpt><trkpt lat="42.43570911478056" lon="14.141841028701494"><ele>117.0</ele><time>2026-05-03T11:16:40Z</time></trkpt><trkpt lat="42.435798417691174" lon="14.141878526244064"><ele>117.0</ele><time>2026-05-03T11:16:41Z</time></trkpt><trkpt lat="42.435897402837625" lon="14.141947929300398"><ele>117.0</ele><time>2026-05-03T11:16:42Z</time></trkpt><trkpt lat="42.43600176481464" lon="14.142025358306313"><ele>117.0</ele><time>2026-05-03T11:16:43Z</time></trkpt><trkpt lat="42.43611645540471" lon="14.14207566750567"><ele>117.0</ele><time>2026-05-03T11:16:44Z</time></trkpt><trkpt lat="42.436235892142314" lon="14.142091335259913"><ele>117.75</ele><time>2026-05-03T11:16:45Z</time></trkpt><trkpt lat="42.43636201081738" lon="14.14207006376659"><ele>118.5</ele><time>2026-05-03T11:16:46Z</time></trkpt><trkpt lat="42.43649466487475" lon="14.142025710064054"><ele>119.25</ele><time>2026-05-03T11:16:47Z</time></trkpt><trkpt lat="42.43664000414827" lon="14.141973816932955"><ele>120.0</ele><time>2026-05-03T11:16:48Z</time></trkpt><trkpt lat="42.43678173275054" lon="14.141908367279077"><ele>120.0</ele><time>2026-05-03T11:16:49Z</time></trkpt><trkpt lat="42.436924845922164" lon="14.141842287973002"><ele>120.0</ele><time>2026-05-03T11:16:50Z</time></trkpt><trkpt lat="42.43706650799277" lon="14.14179159389168"><ele>120.0</ele><time>2026-05-03T11:16:51Z</time></trkpt><trkpt lat="42.43721190046041" lon="14.141756194552652"><ele>120.0</ele><time>2026-05-03T11:16:52Z</time></trkpt><trkpt lat="42.437363447754336" lon="14.141732795373573"><ele>120.66666666666666</ele><time>2026-05-03T11:16:53Z</time></trkpt><trkpt lat="42.43751753967074" lon="14.141722403862584"><ele>121.33333333333333</ele><time>2026-05-03T11:16:54Z</time></trkpt><trkpt lat="42.437670273392555" lon="14.14171035034437"><ele>122.0</ele><time>2026-05-03T11:16:55Z</time></trkpt><trkpt lat="42.43782131031854" lon="14.141694395278924"><ele>121.33333333333333</ele><time>2026-05-03T11:16:56Z</time></trkpt><trkpt lat="42.437973646626986" lon="14.141661291022853"><ele>120.66666666666666</ele><time>2026-05-03T11:16:57Z</time></trkpt><trkpt lat="42.4381258508883" lon="14.141612096343701"><ele>120.0</ele><time>2026-05-03T11:16:58Z</time></trkpt><trkpt lat="42.43828456199219" lon="14.141552026289054"><ele>123.66666666666666</ele><time>2026-05-03T11:16:59Z</time></trkpt><trkpt lat="42.438446162153255" lon="14.141498133844877"><ele>127.33333333333333</ele><time>2026-05-03T11:17:00Z</time></trkpt><trkpt lat="42.43860134587693" lon="14.14147052702174"><ele>131.0</ele><time>2026-05-03T11:17:01Z</time></trkpt><trkpt lat="42.43874090735291" lon="14.141460359589265"><ele>130.8</ele><time>2026-05-03T11:17:02Z</time></trkpt><trkpt lat="42.43886080694027" lon="14.141464898285632"><ele>130.6</ele><time>2026-05-03T11:17:03Z</time></trkpt><trkpt lat="42.43897225733456" lon="14.141482682038097"><ele>130.4</ele><time>2026-05-03T11:17:04Z</time></trkpt><trkpt lat="42.43907090799965" lon="14.141526104166138"><ele>130.2</ele><time>2026-05-03T11:17:05Z</time></trkpt><trkpt lat="42.439161422912896" lon="14.141578884803375"><ele>130.0</ele><time>2026-05-03T11:17:06Z</time></trkpt><trkpt lat="42.43924083508629" lon="14.141639689823734"><ele>129.2</ele><time>2026-05-03T11:17:07Z</time></trkpt><trkpt lat="42.4393162097826" lon="14.141708879878427"><ele>128.4</ele><time>2026-05-03T11:17:08Z</time></trkpt><trkpt lat="42.43939879949694" lon="14.14178073479177"><ele>127.6</ele><time>2026-05-03T11:17:09Z</time></trkpt><trkpt lat="42.43948274031704" lon="14.141849537678988"><ele>126.8</ele><time>2026-05-03T11:17:10Z</time></trkpt><trkpt lat="42.43956769282104" lon="14.141921181835004"><ele>126.0</ele><time>2026-05-03T11:17:11Z</time></trkpt><trkpt lat="42.43964842631903" lon="14.141996010340323"><ele>126.0</ele><time>2026-05-03T11:17:12Z</time></trkpt><trkpt lat="42.43973123408124" lon="14.142072375701902"><ele>126.0</ele><time>2026-05-03T11:17:13Z</time></trkpt><trkpt lat="42.439812297726085" lon="14.142147041634498"><ele>126.0</ele><time>2026-05-03T11:17:14Z</time></trkpt><trkpt lat="42.439896702305695" lon="14.142217692306104"><ele>126.0</ele><time>2026-05-03T11:17:15Z</time></trkpt><trkpt lat="42.43998196233181" lon="14.142292226162699"><ele>126.0</ele><time>2026-05-03T11:17:16Z</time></trkpt><trkpt lat="42.44006691433989" lon="14.142367257597154"><ele>126.0</ele><time>2026-05-03T11:17:17Z</time></trkpt><trkpt lat="42.440156639154026" lon="14.142441644970585"><ele>126.0</ele><time>2026-05-03T11:17:18Z</time></trkpt><trkpt lat="42.44025258636316" lon="14.142501380763408"><ele>126.0</ele><time>2026-05-03T11:17:19Z</time></trkpt><trkpt lat="42.44034854213652" lon="14.142576299164679"><ele>126.0</ele><time>2026-05-03T11:17:20Z</time></trkpt><trkpt lat="42.440446571292306" lon="14.142635475399242"><ele>126.0</ele><time>2026-05-03T11:17:21Z</time></trkpt><trkpt lat="42.440551903909196" lon="14.142672054471026"><ele>127.4</ele><time>2026-05-03T11:17:22Z</time></trkpt><trkpt lat="42.44065429127323" lon="14.142700893081303"><ele>128.8</ele><time>2026-05-03T11:17:23Z</time></trkpt><trkpt lat="42.44076010784055" lon="14.142726618858298"><ele>130.20000000000002</ele><time>2026-05-03T11:17:24Z</time></trkpt><trkpt lat="42.440862602304556" lon="14.142763146618142"><ele>131.6</ele><time>2026-05-03T11:17:25Z</time></trkpt><trkpt lat="42.440964352645786" lon="14.142773829627243"><ele>133.0</ele><time>2026-05-03T11:17:26Z</time></trkpt><trkpt lat="42.44106987874035" lon="14.142794545619482"><ele>133.0</ele><time>2026-05-03T11:17:27Z</time></trkpt><trkpt lat="42.44117513197474" lon="14.14281320335286"><ele>133.0</ele><time>2026-05-03T11:17:28Z</time></trkpt><trkpt lat="42.44127927449126" lon="14.142840896482596"><ele>133.0</ele><time>2026-05-03T11:17:29Z</time></trkpt><trkpt lat="42.441385192610035" lon="14.142887830162397"><ele>133.0</ele><time>2026-05-03T11:17:30Z</time></trkpt><trkpt lat="42.44148239125834" lon="14.142959147469716"><ele>133.0</ele><time>2026-05-03T11:17:31Z</time></trkpt><trkpt lat="42.4415803711392" lon="14.143036180923678"><ele>134.5</ele><time>2026-05-03T11:17:32Z</time></trkpt><trkpt lat="42.44168409762094" lon="14.143109980715098"><ele>136.0</ele><time>2026-05-03T11:17:33Z</time></trkpt><trkpt lat="42.441794540743" lon="14.143171130604642"><ele>137.5</ele><time>2026-05-03T11:17:34Z</time></trkpt><trkpt lat="42.441905489567596" lon="14.14322457958639"><ele>139.0</ele><time>2026-05-03T11:17:35Z</time></trkpt><trkpt lat="42.44201944816166" lon="14.14327737791023"><ele>137.25</ele><time>2026-05-03T11:17:36Z</time></trkpt><trkpt lat="42.442129316439214" lon="14.143319909554853"><ele>135.5</ele><time>2026-05-03T11:17:37Z</time></trkpt><trkpt lat="42.442242119576385" lon="14.14336652701969"><ele>133.75</ele><time>2026-05-03T11:17:38Z</time></trkpt><trkpt lat="42.44234907444014" lon="14.143420549147358"><ele>132.0</ele><time>2026-05-03T11:17:39Z</time></trkpt><trkpt lat="42.44245626114337" lon="14.143485180830826"><ele>132.0</ele><time>2026-05-03T11:17:40Z</time></trkpt><trkpt lat="42.44255871734753" lon="14.143564922408753"><ele>132.0</ele><time>2026-05-03T11:17:41Z</time></trkpt><trkpt lat="42.4426306923575" lon="14.14367927590215"><ele>132.0</ele><time>2026-05-03T11:17:42Z</time></trkpt><trkpt lat="42.44266579381676" lon="14.143821431020879"><ele>132.0</ele><time>2026-05-03T11:17:42.999Z</time></trkpt><trkpt lat="42.44267628943931" lon="14.144002116859289"><ele>129.0</ele><time>2026-05-03T11:17:43.999Z</time></trkpt><trkpt lat="42.44268061330673" lon="14.144206580536705"><ele>126.0</ele><time>2026-05-03T11:17:44.999Z</time></trkpt><trkpt lat="42.44268123590232" lon="14.14441262823145"><ele>123.0</ele><time>2026-05-03T11:17:45.999Z</time></trkpt><trkpt lat="42.442683744038675" lon="14.144591874569167"><ele>120.0</ele><time>2026-05-03T11:17:46.999Z</time></trkpt><trkpt lat="42.442683675533665" lon="14.144755482024133"><ele>118.75</ele><time>2026-05-03T11:17:47.999Z</time></trkpt><trkpt lat="42.44269450893077" lon="14.1449209617414"><ele>117.5</ele><time>2026-05-03T11:17:48.999Z</time></trkpt><trkpt lat="42.44271256850808" lon="14.145087102780725"><ele>116.25</ele><time>2026-05-03T11:17:49.999Z</time></trkpt><trkpt lat="42.44274939484499" lon="14.145251805972658"><ele>115.0</ele><time>2026-05-03T11:17:50.999Z</time></trkpt><trkpt lat="42.44280300329904" lon="14.145408845222773"><ele>115.0</ele><time>2026-05-03T11:17:51.999Z</time></trkpt><trkpt lat="42.442863899303504" lon="14.145558773611043"><ele>115.0</ele><time>2026-05-03T11:17:52.999Z</time></trkpt><trkpt lat="42.44293104183275" lon="14.145705155056888"><ele>115.0</ele><time>2026-05-03T11:17:53.999Z</time></trkpt><trkpt lat="42.443000827812924" lon="14.145850941272403"><ele>115.0</ele><time>2026-05-03T11:17:54.999Z</time></trkpt><trkpt lat="42.443065033875065" lon="14.145996627249387"><ele>119.0</ele><time>2026-05-03T11:17:55.999Z</time></trkpt><trkpt lat="42.44313117411731" lon="14.146138122890784"><ele>123.0</ele><time>2026-05-03T11:17:56.999Z</time></trkpt><trkpt lat="42.44320108601481" lon="14.146281644799428"><ele>127.0</ele><time>2026-05-03T11:17:57.999Z</time></trkpt><trkpt lat="42.44327650701901" lon="14.146418540273235"><ele>131.0</ele><time>2026-05-03T11:17:58.999Z</time></trkpt><trkpt lat="42.44336455813033" lon="14.146543830529863"><ele>130.0</ele><time>2026-05-03T11:17:59.999Z</time></trkpt><trkpt lat="42.44347801930926" lon="14.14663956764274"><ele>129.0</ele><time>2026-05-03T11:18:00.999Z</time></trkpt><trkpt lat="42.443602248494905" lon="14.146710844884923"><ele>128.0</ele><time>2026-05-03T11:18:01.999Z</time></trkpt><trkpt lat="42.44373558390049" lon="14.146750060835565"><ele>127.0</ele><time>2026-05-03T11:18:02.999Z</time></trkpt><trkpt lat="42.44386628953875" lon="14.14678687499453"><ele>126.25</ele><time>2026-05-03T11:18:03.999Z</time></trkpt><trkpt lat="42.44399505489001" lon="14.146822048564673"><ele>125.5</ele><time>2026-05-03T11:18:04.999Z</time></trkpt><trkpt lat="42.44412175845741" lon="14.146863234160477"><ele>124.75</ele><time>2026-05-03T11:18:05.999Z</time></trkpt><trkpt lat="42.44424647662193" lon="14.146904998625324"><ele>124.0</ele><time>2026-05-03T11:18:06.999Z</time></trkpt><trkpt lat="42.44436871292539" lon="14.146928834260027"><ele>124.0</ele><time>2026-05-03T11:18:07.999Z</time></trkpt><trkpt lat="42.444492606280306" lon="14.146920966653333"><ele>124.0</ele><time>2026-05-03T11:18:08.999Z</time></trkpt><trkpt lat="42.44460783302294" lon="14.146858398267053"><ele>124.0</ele><time>2026-05-03T11:18:09.999Z</time></trkpt><trkpt lat="42.44470904733374" lon="14.14676304541606"><ele>124.0</ele><time>2026-05-03T11:18:10.999Z</time></trkpt><trkpt lat="42.44479937134106" lon="14.146639749604605"><ele>124.5</ele><time>2026-05-03T11:18:11.999Z</time></trkpt><trkpt lat="42.44487352931975" lon="14.146488047358254"><ele>125.0</ele><time>2026-05-03T11:18:12.999Z</time></trkpt><trkpt lat="42.44494821042946" lon="14.14633249815941"><ele>125.5</ele><time>2026-05-03T11:18:13.999Z</time></trkpt><trkpt lat="42.44504349406392" lon="14.146200781010267"><ele>126.0</ele><time>2026-05-03T11:18:14.999Z</time></trkpt><trkpt lat="42.445123817161715" lon="14.146059073023237"><ele>126.0</ele><time>2026-05-03T11:18:15.999Z</time></trkpt><trkpt lat="42.44519155381493" lon="14.145905038216709"><ele>126.0</ele><time>2026-05-03T11:18:16.999Z</time></trkpt><trkpt lat="42.445273311506384" lon="14.14576588677624"><ele>126.0</ele><time>2026-05-03T11:18:17.999Z</time></trkpt><trkpt lat="42.44535306752073" lon="14.145622810597567"><ele>126.0</ele><time>2026-05-03T11:18:18.999Z</time></trkpt><trkpt lat="42.44544794143462" lon="14.145499076614739"><ele>124.5</ele><time>2026-05-03T11:18:19.999Z</time></trkpt><trkpt lat="42.4455385416437" lon="14.145378768119759"><ele>123.0</ele><time>2026-05-03T11:18:20.999Z</time></trkpt><trkpt lat="42.445646401093356" lon="14.145261008673652"><ele>121.5</ele><time>2026-05-03T11:18:21.999Z</time></trkpt><trkpt lat="42.44577160156701" lon="14.145141270370413"><ele>120.0</ele><time>2026-05-03T11:18:22.999Z</time></trkpt><trkpt lat="42.44591124880776" lon="14.145033038244321"><ele>120.0</ele><time>2026-05-03T11:18:23.999Z</time></trkpt><trkpt lat="42.44604003831634" lon="14.144915567696875"><ele>120.0</ele><time>2026-05-03T11:18:24.999Z</time></trkpt><trkpt lat="42.44616609761146" lon="14.144840770938487"><ele>120.0</ele><time>2026-05-03T11:18:25.999Z</time></trkpt><trkpt lat="42.44628823232329" lon="14.144773743592257"><ele>120.0</ele><time>2026-05-03T11:18:26.999Z</time></trkpt><trkpt lat="42.446422833611656" lon="14.144714064079539"><ele>120.33333333333334</ele><time>2026-05-03T11:18:27.999Z</time></trkpt><trkpt lat="42.44657130029301" lon="14.144670202743518"><ele>120.66666666666667</ele><time>2026-05-03T11:18:28.999Z</time></trkpt><trkpt lat="42.44672762283483" lon="14.144635640570382"><ele>121.0</ele><time>2026-05-03T11:18:29.999Z</time></trkpt><trkpt lat="42.44689319843618" lon="14.144598471027713"><ele>121.0</ele><time>2026-05-03T11:18:30.999Z</time></trkpt><trkpt lat="42.44705320172894" lon="14.144550820069725"><ele>121.0</ele><time>2026-05-03T11:18:31.999Z</time></trkpt><trkpt lat="42.447196804062585" lon="14.14451249917367"><ele>121.0</ele><time>2026-05-03T11:18:32.999Z</time></trkpt><trkpt lat="42.44731197739933" lon="14.14450510551075"><ele>121.0</ele><time>2026-05-03T11:18:33.999Z</time></trkpt><trkpt lat="42.44740607617011" lon="14.144535527772659"><ele>122.25</ele><time>2026-05-03T11:18:34.999Z</time></trkpt><trkpt lat="42.44748625964322" lon="14.144615007428394"><ele>123.5</ele><time>2026-05-03T11:18:35.999Z</time></trkpt><trkpt lat="42.44753727279069" lon="14.144741945500346"><ele>124.75</ele><time>2026-05-03T11:18:36.999Z</time></trkpt><trkpt lat="42.44756151702308" lon="14.144900904763373"><ele>126.0</ele><time>2026-05-03T11:18:37.999Z</time></trkpt><trkpt lat="42.44757226968633" lon="14.145088684961085"><ele>126.25</ele><time>2026-05-03T11:18:38.999Z</time></trkpt><trkpt lat="42.44756936607417" lon="14.145284235664997"><ele>126.5</ele><time>2026-05-03T11:18:39.999Z</time></trkpt><trkpt lat="42.44757273779289" lon="14.1454759172518"><ele>126.75</ele><time>2026-05-03T11:18:40.999Z</time></trkpt><trkpt lat="42.44758735682851" lon="14.145659062985382"><ele>127.0</ele><time>2026-05-03T11:18:41.999Z</time></trkpt><trkpt lat="42.44762450812412" lon="14.145807472119357"><ele>127.5</ele><time>2026-05-03T11:18:42.999Z</time></trkpt><trkpt lat="42.44769820683109" lon="14.145944339946594"><ele>128.0</ele><time>2026-05-03T11:18:43.999Z</time></trkpt><trkpt lat="42.44779961860599" lon="14.14607753671426"><ele>128.5</ele><time>2026-05-03T11:18:44.999Z</time></trkpt><trkpt lat="42.44791904865486" lon="14.14619544272016"><ele>129.0</ele><time>2026-05-03T11:18:45.999Z</time></trkpt><trkpt lat="42.448057450478125" lon="14.146291311472645"><ele>133.33333333333334</ele><time>2026-05-03T11:18:46.999Z</time></trkpt><trkpt lat="42.44820740930578" lon="14.14636415887482"><ele>137.66666666666669</ele><time>2026-05-03T11:18:47.999Z</time></trkpt><trkpt lat="42.448364643154" lon="14.146413145852192"><ele>142.0</ele><time>2026-05-03T11:18:48.999Z</time></trkpt><trkpt lat="42.448527211310044" lon="14.146450919235638"><ele>142.0</ele><time>2026-05-03T11:18:49.999Z</time></trkpt><trkpt lat="42.44868335731965" lon="14.146459659553846"><ele>142.0</ele><time>2026-05-03T11:18:50.999Z</time></trkpt><trkpt lat="42.44882513616003" lon="14.14642869197098"><ele>142.0</ele><time>2026-05-03T11:18:51.999Z</time></trkpt><trkpt lat="42.44895542352249" lon="14.146364749745553"><ele>142.0</ele><time>2026-05-03T11:18:52.999Z</time></trkpt><trkpt lat="42.449072660923754" lon="14.146263912751055"><ele>142.5</ele><time>2026-05-03T11:18:53.999Z</time></trkpt><trkpt lat="42.44916641917768" lon="14.146130579178513"><ele>143.0</ele><time>2026-05-03T11:18:54.999Z</time></trkpt><trkpt lat="42.449247944789896" lon="14.145980900153932"><ele>143.5</ele><time>2026-05-03T11:18:55.999Z</time></trkpt><trkpt lat="42.44932551687822" lon="14.145818188913351"><ele>144.0</ele><time>2026-05-03T11:18:56.999Z</time></trkpt><trkpt lat="42.44942502371499" lon="14.145674483871277"><ele>142.0</ele><time>2026-05-03T11:18:57.999Z</time></trkpt><trkpt lat="42.44951537656568" lon="14.145508562107404"><ele>140.0</ele><time>2026-05-03T11:18:58.999Z</time></trkpt><trkpt lat="42.449601118731785" lon="14.145343350992693"><ele>138.0</ele><time>2026-05-03T11:18:59.999Z</time></trkpt><trkpt lat="42.44967257551433" lon="14.145184065988497"><ele>136.0</ele><time>2026-05-03T11:19:00.999Z</time></trkpt><trkpt lat="42.449722542855156" lon="14.145013382371205"><ele>137.5</ele><time>2026-05-03T11:19:01.999Z</time></trkpt><trkpt lat="42.449792999478184" lon="14.144865253719411"><ele>139.0</ele><time>2026-05-03T11:19:02.999Z</time></trkpt><trkpt lat="42.44984704866414" lon="14.14470737824554"><ele>140.5</ele><time>2026-05-03T11:19:04Z</time></trkpt><trkpt lat="42.449894967760315" lon="14.144546561948864"><ele>142.0</ele><time>2026-05-03T11:19:05Z</time></trkpt><trkpt lat="42.4499151388118" lon="14.144374701096998"><ele>142.0</ele><time>2026-05-03T11:19:06Z</time></trkpt><trkpt lat="42.449938315190714" lon="14.144208336976654"><ele>142.0</ele><time>2026-05-03T11:19:07Z</time></trkpt><trkpt lat="42.44994500210112" lon="14.14403973720264"><ele>142.0</ele><time>2026-05-03T11:19:08Z</time></trkpt><trkpt lat="42.44993355540116" lon="14.143875667993308"><ele>142.0</ele><time>2026-05-03T11:19:09Z</time></trkpt><trkpt lat="42.44993745796772" lon="14.14370967094005"><ele>141.2</ele><time>2026-05-03T11:19:10Z</time></trkpt><trkpt lat="42.449924876196484" lon="14.143553630732121"><ele>140.39999999999998</ele><time>2026-05-03T11:19:11Z</time></trkpt><trkpt lat="42.44991358632068" lon="14.143410635619915"><ele>139.60000000000002</ele><time>2026-05-03T11:19:12Z</time></trkpt><trkpt lat="42.449887111586065" lon="14.143282318092197"><ele>138.8</ele><time>2026-05-03T11:19:13Z</time></trkpt><trkpt lat="42.44987750693438" lon="14.14314966549079"><ele>138.0</ele><time>2026-05-03T11:19:14Z</time></trkpt><trkpt lat="42.4498619471017" lon="14.143018258258762"><ele>137.8</ele><time>2026-05-03T11:19:15Z</time></trkpt><trkpt lat="42.449833360774434" lon="14.142889771595168"><ele>137.60000000000002</ele><time>2026-05-03T11:19:16Z</time></trkpt><trkpt lat="42.44979594877161" lon="14.142766289726266"><ele>137.39999999999998</ele><time>2026-05-03T11:19:17Z</time></trkpt><trkpt lat="42.44975504424169" lon="14.142649974697123"><ele>137.2</ele><time>2026-05-03T11:19:18Z</time></trkpt><trkpt lat="42.44970775078354" lon="14.142535068935732"><ele>137.0</ele><time>2026-05-03T11:19:19Z</time></trkpt><trkpt lat="42.449659324557366" lon="14.14242023699063"><ele>137.6</ele><time>2026-05-03T11:19:20Z</time></trkpt><trkpt lat="42.449617603100236" lon="14.1423112522903"><ele>138.2</ele><time>2026-05-03T11:19:21Z</time></trkpt><trkpt lat="42.44961311116606" lon="14.142212362903063"><ele>138.8</ele><time>2026-05-03T11:19:23Z</time></trkpt><trkpt lat="42.44968683744025" lon="14.142221754738536"><ele>139.4</ele><time>2026-05-03T11:19:25Z</time></trkpt><trkpt lat="42.449765975279654" lon="14.142145800835461"><ele>140.0</ele><time>2026-05-03T11:19:27Z</time></trkpt><trkpt lat="42.4498804665354" lon="14.142081174115617"><ele>140.0</ele><time>2026-05-03T11:19:29Z</time></trkpt><trkpt lat="42.44994558268252" lon="14.142051496945756"><ele>140.0</ele><time>2026-05-03T11:19:30Z</time></trkpt><trkpt lat="42.45001551524173" lon="14.142056408022311"><ele>140.0</ele><time>2026-05-03T11:19:31Z</time></trkpt><trkpt lat="42.45011290763193" lon="14.142021601216806"><ele>140.0</ele><time>2026-05-03T11:19:33Z</time></trkpt><trkpt lat="42.45018313920334" lon="14.141971425248183"><ele>140.0</ele><time>2026-05-03T11:19:35Z</time></trkpt><trkpt lat="42.450212663661695" lon="14.141888680158164"><ele>140.0</ele><time>2026-05-03T11:19:36Z</time></trkpt><trkpt lat="42.4503191387482" lon="14.141791054879743"><ele>140.0</ele><time>2026-05-03T11:19:38Z</time></trkpt><trkpt lat="42.450380144918206" lon="14.141739828303463"><ele>140.0</ele><time>2026-05-03T11:19:39Z</time></trkpt><trkpt lat="42.45045403626061" lon="14.141735692464687"><ele>140.0</ele><time>2026-05-03T11:19:40Z</time></trkpt><trkpt lat="42.450529205283885" lon="14.141701027562679"><ele>140.0</ele><time>2026-05-03T11:19:41Z</time></trkpt><trkpt lat="42.45060829112161" lon="14.1416890711011"><ele>140.0</ele><time>2026-05-03T11:19:42Z</time></trkpt><trkpt lat="42.45069256164211" lon="14.141670268348076"><ele>140.0</ele><time>2026-05-03T11:19:43Z</time></trkpt><trkpt lat="42.4507777490519" lon="14.141646726119133"><ele>139.16666666666666</ele><time>2026-05-03T11:19:44Z</time></trkpt><trkpt lat="42.45085782435536" lon="14.141617793340016"><ele>138.33333333333331</ele><time>2026-05-03T11:19:45Z</time></trkpt><trkpt lat="42.45093432719252" lon="14.141584351651343"><ele>137.5</ele><time>2026-05-03T11:19:46Z</time></trkpt><trkpt lat="42.45100883010208" lon="14.141558948197176"><ele>136.66666666666666</ele><time>2026-05-03T11:19:47Z</time></trkpt><trkpt lat="42.45108280262294" lon="14.141542814904769"><ele>135.83333333333334</ele><time>2026-05-03T11:19:48Z</time></trkpt><trkpt lat="42.451151777356564" lon="14.141520209029673"><ele>135.0</ele><time>2026-05-03T11:19:49Z</time></trkpt><trkpt lat="42.45122253941182" lon="14.141505313938678"><ele>137.83333333333334</ele><time>2026-05-03T11:19:50Z</time></trkpt><trkpt lat="42.451291526776885" lon="14.141500452910451"><ele>140.66666666666666</ele><time>2026-05-03T11:19:51Z</time></trkpt><trkpt lat="42.451359878473546" lon="14.141487003737739"><ele>143.5</ele><time>2026-05-03T11:19:52Z</time></trkpt><trkpt lat="42.45142879816508" lon="14.141471670016815"><ele>146.33333333333331</ele><time>2026-05-03T11:19:53Z</time></trkpt><trkpt lat="42.4514987779151" lon="14.141459305757804"><ele>149.16666666666666</ele><time>2026-05-03T11:19:54Z</time></trkpt><trkpt lat="42.45157845804036" lon="14.14145871367616"><ele>152.0</ele><time>2026-05-03T11:19:56Z</time></trkpt><trkpt lat="42.45157530504473" lon="14.141327302938834"><ele>152.0</ele><time>2026-05-03T11:19:58Z</time></trkpt><trkpt lat="42.451580349186045" lon="14.14123684989548"><ele>152.0</ele><time>2026-05-03T11:19:59Z</time></trkpt><trkpt lat="42.4515731959051" lon="14.141129350365873"><ele>152.0</ele><time>2026-05-03T11:20:00Z</time></trkpt><trkpt lat="42.451565995474525" lon="14.141021142312397"><ele>152.0</ele><time>2026-05-03T11:20:01Z</time></trkpt><trkpt lat="42.451543730983694" lon="14.1409375496403"><ele>152.0</ele><time>2026-05-03T11:20:02Z</time></trkpt><trkpt lat="42.45167262334256" lon="14.14090410513744"><ele>152.0</ele><time>2026-05-03T11:20:08Z</time></trkpt><trkpt lat="42.45176869830865" lon="14.14089199232272"><ele>152.0</ele><time>2026-05-03T11:20:09Z</time></trkpt><trkpt lat="42.45187498568674" lon="14.140851181185454"><ele>152.0</ele><time>2026-05-03T11:20:10Z</time></trkpt><trkpt lat="42.4519864986453" lon="14.140828022299246"><ele>152.0</ele><time>2026-05-03T11:20:11Z</time></trkpt><trkpt lat="42.45210649100696" lon="14.140805022905937"><ele>152.0</ele><time>2026-05-03T11:20:12Z</time></trkpt><trkpt lat="42.4522315466105" lon="14.140777563572145"><ele>152.0</ele><time>2026-05-03T11:20:13Z</time></trkpt><trkpt lat="42.45234990021026" lon="14.140755098181234"><ele>152.0</ele><time>2026-05-03T11:20:14Z</time></trkpt><trkpt lat="42.45246447005811" lon="14.140736318293374"><ele>152.0</ele><time>2026-05-03T11:20:15Z</time></trkpt><trkpt lat="42.45257805659607" lon="14.140713747031135"><ele>152.0</ele><time>2026-05-03T11:20:16Z</time></trkpt><trkpt lat="42.45268259338523" lon="14.14069144863771"><ele>152.0</ele><time>2026-05-03T11:20:17Z</time></trkpt><trkpt lat="42.45277750290278" lon="14.140664955100938"><ele>152.0</ele><time>2026-05-03T11:20:17.999Z</time></trkpt><trkpt lat="42.45285833254162" lon="14.140643624290272"><ele>152.0</ele><time>2026-05-03T11:20:18.999Z</time></trkpt><trkpt lat="42.4529205666238" lon="14.140629074071237"><ele>152.0</ele><time>2026-05-03T11:20:19.999Z</time></trkpt><trkpt lat="42.45300416918351" lon="14.140610103331998"><ele>152.0</ele><time>2026-05-03T11:20:21.999Z</time></trkpt><trkpt lat="42.45308999900487" lon="14.1405807227027"><ele>152.0</ele><time>2026-05-03T11:20:23.999Z</time></trkpt><trkpt lat="42.453196119366936" lon="14.140509361624886"><ele>154.83333333333331</ele><time>2026-05-03T11:20:25.999Z</time></trkpt><trkpt lat="42.453261763877805" lon="14.140459873277443"><ele>157.66666666666666</ele><time>2026-05-03T11:20:26.999Z</time></trkpt><trkpt lat="42.453329843690014" lon="14.140416293385194"><ele>160.5</ele><time>2026-05-03T11:20:27.999Z</time></trkpt><trkpt lat="42.45340072063658" lon="14.14037374520308"><ele>163.33333333333334</ele><time>2026-05-03T11:20:28.999Z</time></trkpt><trkpt lat="42.453466136737404" lon="14.140329637567229"><ele>166.16666666666669</ele><time>2026-05-03T11:20:29.999Z</time></trkpt><trkpt lat="42.45353919544504" lon="14.14028840719993"><ele>169.0</ele><time>2026-05-03T11:20:30.999Z</time></trkpt><trkpt lat="42.453609996318264" lon="14.140249991928098"><ele>169.0</ele><time>2026-05-03T11:20:31.999Z</time></trkpt><trkpt lat="42.45368340748245" lon="14.14021147218859"><ele>169.0</ele><time>2026-05-03T11:20:32.999Z</time></trkpt><trkpt lat="42.45375817720147" lon="14.140164865143358"><ele>169.0</ele><time>2026-05-03T11:20:33.999Z</time></trkpt><trkpt lat="42.45382801028037" lon="14.140094136110251"><ele>169.0</ele><time>2026-05-03T11:20:34.999Z</time></trkpt><trkpt lat="42.45390717078792" lon="14.140020551478155"><ele>169.0</ele><time>2026-05-03T11:20:35.999Z</time></trkpt><trkpt lat="42.453968877508785" lon="14.139909035489431"><ele>169.0</ele><time>2026-05-03T11:20:36.999Z</time></trkpt><trkpt lat="42.45402549264253" lon="14.139793046136496"><ele>170.0</ele><time>2026-05-03T11:20:37.999Z</time></trkpt><trkpt lat="42.45408000794626" lon="14.139680811443364"><ele>171.0</ele><time>2026-05-03T11:20:38.999Z</time></trkpt><trkpt lat="42.4541362142688" lon="14.139565095344437"><ele>172.0</ele><time>2026-05-03T11:20:39.999Z</time></trkpt><trkpt lat="42.45419185092376" lon="14.139450552024806"><ele>173.0</ele><time>2026-05-03T11:20:40.999Z</time></trkpt><trkpt lat="42.45424807643485" lon="14.13934034406107"><ele>174.0</ele><time>2026-05-03T11:20:41.999Z</time></trkpt><trkpt lat="42.454298194889866" lon="14.139244130057344"><ele>174.0</ele><time>2026-05-03T11:20:42.999Z</time></trkpt><trkpt lat="42.45432801986785" lon="14.13915448506807"><ele>174.0</ele><time>2026-05-03T11:20:43.999Z</time></trkpt><trkpt lat="42.45439990812422" lon="14.139033750434203"><ele>174.0</ele><time>2026-05-03T11:20:45.999Z</time></trkpt><trkpt lat="42.454438703521724" lon="14.138958277414195"><ele>174.0</ele><time>2026-05-03T11:20:46.999Z</time></trkpt><trkpt lat="42.45447783755941" lon="14.138873499681878"><ele>174.0</ele><time>2026-05-03T11:20:47.999Z</time></trkpt><trkpt lat="42.45454684617946" lon="14.13878974684951"><ele>174.0</ele><time>2026-05-03T11:20:48.999Z</time></trkpt><trkpt lat="42.45461277705329" lon="14.138680047198315"><ele>173.79999999999998</ele><time>2026-05-03T11:20:49.999Z</time></trkpt><trkpt lat="42.454679399413195" lon="14.138569367571547"><ele>173.6</ele><time>2026-05-03T11:20:50.999Z</time></trkpt><trkpt lat="42.45474885454237" lon="14.138454657301704"><ele>173.4</ele><time>2026-05-03T11:20:51.999Z</time></trkpt><trkpt lat="42.45482035564242" lon="14.138336567951253"><ele>173.2</ele><time>2026-05-03T11:20:52.999Z</time></trkpt><trkpt lat="42.45489035431563" lon="14.138213945380485"><ele>173.0</ele><time>2026-05-03T11:20:53.999Z</time></trkpt><trkpt lat="42.45495926640473" lon="14.138085356369581"><ele>172.25</ele><time>2026-05-03T11:20:54.999Z</time></trkpt><trkpt lat="42.45501670924713" lon="14.137943315221268"><ele>171.5</ele><time>2026-05-03T11:20:55.999Z</time></trkpt><trkpt lat="42.45505232685126" lon="14.137778074975307"><ele>170.75</ele><time>2026-05-03T11:20:56.999Z</time></trkpt><trkpt lat="42.455056490484054" lon="14.13759256577646"><ele>170.0</ele><time>2026-05-03T11:20:57.999Z</time></trkpt><trkpt lat="42.455052484420044" lon="14.137400566114328"><ele>170.75</ele><time>2026-05-03T11:20:58.999Z</time></trkpt><trkpt lat="42.455047388698844" lon="14.137207363154172"><ele>171.5</ele><time>2026-05-03T11:20:59.999Z</time></trkpt><trkpt lat="42.455042356175035" lon="14.137024667340574"><ele>172.25</ele><time>2026-05-03T11:21:00.999Z</time></trkpt><trkpt lat="42.45503941229947" lon="14.136857986013304"><ele>173.0</ele><time>2026-05-03T11:21:01.999Z</time></trkpt><trkpt lat="42.455040115838045" lon="14.136705177009635"><ele>173.0</ele><time>2026-05-03T11:21:02.999Z</time></trkpt><trkpt lat="42.45504072015313" lon="14.136573923130856"><ele>173.0</ele><time>2026-05-03T11:21:03.999Z</time></trkpt><trkpt lat="42.45505666803701" lon="14.13648035312864"><ele>173.0</ele><time>2026-05-03T11:21:04.999Z</time></trkpt><trkpt lat="42.455138807812986" lon="14.13638502452941"><ele>173.0</ele><time>2026-05-03T11:21:06.999Z</time></trkpt><trkpt lat="42.45522572135973" lon="14.136392866122685"><ele>173.0</ele><time>2026-05-03T11:21:07.999Z</time></trkpt><trkpt lat="42.455308187122874" lon="14.136347391505158"><ele>174.4</ele><time>2026-05-03T11:21:08.999Z</time></trkpt><trkpt lat="42.45540115551305" lon="14.136304644517889"><ele>175.8</ele><time>2026-05-03T11:21:10Z</time></trkpt><trkpt lat="42.4554924101344" lon="14.136252889357499"><ele>177.2</ele><time>2026-05-03T11:21:11Z</time></trkpt><trkpt lat="42.45558206144178" lon="14.136194439611579"><ele>178.6</ele><time>2026-05-03T11:21:12Z</time></trkpt><trkpt lat="42.45565971506064" lon="14.13613850728854"><ele>180.0</ele><time>2026-05-03T11:21:13Z</time></trkpt><trkpt lat="42.45573867046961" lon="14.136087341903975"><ele>180.0</ele><time>2026-05-03T11:21:14Z</time></trkpt><trkpt lat="42.455818570519185" lon="14.136038139648944"><ele>180.0</ele><time>2026-05-03T11:21:15Z</time></trkpt><trkpt lat="42.45588875245801" lon="14.1359822686561"><ele>180.0</ele><time>2026-05-03T11:21:16Z</time></trkpt><trkpt lat="42.455945982853244" lon="14.135928825230087"><ele>180.0</ele><time>2026-05-03T11:21:17Z</time></trkpt><trkpt lat="42.45604062836687" lon="14.135813024672206"><ele>180.0</ele><time>2026-05-03T11:21:19Z</time></trkpt><trkpt lat="42.456083137140524" lon="14.135736084255502"><ele>180.0</ele><time>2026-05-03T11:21:20Z</time></trkpt><trkpt lat="42.45612142637161" lon="14.135659462057756"><ele>182.8</ele><time>2026-05-03T11:21:21Z</time></trkpt><trkpt lat="42.4561621979441" lon="14.135565851205605"><ele>185.6</ele><time>2026-05-03T11:21:22Z</time></trkpt><trkpt lat="42.45620646245705" lon="14.135447851682775"><ele>188.39999999999998</ele><time>2026-05-03T11:21:23Z</time></trkpt><trkpt lat="42.456249776094204" lon="14.135314103198203"><ele>191.2</ele><time>2026-05-03T11:21:24Z</time></trkpt><trkpt lat="42.45629654289484" lon="14.13516282991564"><ele>194.0</ele><time>2026-05-03T11:21:25Z</time></trkpt><trkpt lat="42.45634162601593" lon="14.135015886655532"><ele>187.5</ele><time>2026-05-03T11:21:26Z</time></trkpt><trkpt lat="42.45638804842251" lon="14.134864578122741"><ele>181.0</ele><time>2026-05-03T11:21:27Z</time></trkpt><trkpt lat="42.456437612505205" lon="14.134704031479888"><ele>174.5</ele><time>2026-05-03T11:21:28Z</time></trkpt><trkpt lat="42.456489609859915" lon="14.13453801343792"><ele>168.0</ele><time>2026-05-03T11:21:29Z</time></trkpt><trkpt lat="42.45654239530925" lon="14.13436990348637"><ele>168.0</ele><time>2026-05-03T11:21:30Z</time></trkpt><trkpt lat="42.45659389949511" lon="14.134203545032001"><ele>168.0</ele><time>2026-05-03T11:21:31Z</time></trkpt><trkpt lat="42.45664243925643" lon="14.134034963748174"><ele>168.0</ele><time>2026-05-03T11:21:32Z</time></trkpt><trkpt lat="42.45668564744579" lon="14.13386953589949"><ele>168.0</ele><time>2026-05-03T11:21:33Z</time></trkpt><trkpt lat="42.45672302118469" lon="14.133703243966645"><ele>168.0</ele><time>2026-05-03T11:21:34Z</time></trkpt><trkpt lat="42.45675531961437" lon="14.133537057263455"><ele>168.0</ele><time>2026-05-03T11:21:35Z</time></trkpt><trkpt lat="42.45678148995296" lon="14.133373556424381"><ele>168.0</ele><time>2026-05-03T11:21:36Z</time></trkpt><trkpt lat="42.456803431743516" lon="14.133210659961208"><ele>168.0</ele><time>2026-05-03T11:21:37Z</time></trkpt><trkpt lat="42.456823697491956" lon="14.13304992474202"><ele>167.5</ele><time>2026-05-03T11:21:38Z</time></trkpt><trkpt lat="42.45684086485755" lon="14.13288853649089"><ele>167.0</ele><time>2026-05-03T11:21:39Z</time></trkpt><trkpt lat="42.45686012783129" lon="14.132732347101216"><ele>166.5</ele><time>2026-05-03T11:21:40Z</time></trkpt><trkpt lat="42.45687917603669" lon="14.132576145464778"><ele>166.0</ele><time>2026-05-03T11:21:41Z</time></trkpt><trkpt lat="42.45692651134353" lon="14.132417869766241"><ele>166.0</ele><time>2026-05-03T11:21:42Z</time></trkpt><trkpt lat="42.45698717610653" lon="14.132251965415291"><ele>166.0</ele><time>2026-05-03T11:21:43Z</time></trkpt><trkpt lat="42.45705325553133" lon="14.132081208135913"><ele>166.0</ele><time>2026-05-03T11:21:44Z</time></trkpt><trkpt lat="42.457125243587946" lon="14.131908987258837"><ele>166.0</ele><time>2026-05-03T11:21:45Z</time></trkpt><trkpt lat="42.45720223251206" lon="14.131732723567177"><ele>164.0</ele><time>2026-05-03T11:21:46Z</time></trkpt><trkpt lat="42.457277875057976" lon="14.131552625789972"><ele>162.0</ele><time>2026-05-03T11:21:47Z</time></trkpt><trkpt lat="42.45735153900451" lon="14.13136509474033"><ele>160.0</ele><time>2026-05-03T11:21:48Z</time></trkpt><trkpt lat="42.457447854374024" lon="14.131188228917088"><ele>160.0</ele><time>2026-05-03T11:21:49Z</time></trkpt><trkpt lat="42.45753208962429" lon="14.130997978066322"><ele>160.0</ele><time>2026-05-03T11:21:50Z</time></trkpt><trkpt lat="42.45761754132368" lon="14.130817674249451"><ele>160.0</ele><time>2026-05-03T11:21:51Z</time></trkpt><trkpt lat="42.45771351325632" lon="14.130655851608198"><ele>160.25</ele><time>2026-05-03T11:21:52Z</time></trkpt><trkpt lat="42.45782608224174" lon="14.130526141759116"><ele>160.5</ele><time>2026-05-03T11:21:53Z</time></trkpt><trkpt lat="42.4579438792263" lon="14.130407821966479"><ele>160.75</ele><time>2026-05-03T11:21:54Z</time></trkpt><trkpt lat="42.458055159470106" lon="14.130276249739351"><ele>161.0</ele><time>2026-05-03T11:21:55Z</time></trkpt><trkpt lat="42.45816880707038" lon="14.130159782285903"><ele>160.75</ele><time>2026-05-03T11:21:56Z</time></trkpt><trkpt lat="42.458275640709246" lon="14.130030902996248"><ele>160.5</ele><time>2026-05-03T11:21:57Z</time></trkpt><trkpt lat="42.458376101469185" lon="14.129892385784265"><ele>160.25</ele><time>2026-05-03T11:21:58Z</time></trkpt><trkpt lat="42.45846240021913" lon="14.129738732246075"><ele>160.0</ele><time>2026-05-03T11:21:59Z</time></trkpt><trkpt lat="42.458536404659746" lon="14.129568382960572"><ele>160.0</ele><time>2026-05-03T11:22:00Z</time></trkpt><trkpt lat="42.458601300165775" lon="14.129392713935061"><ele>160.0</ele><time>2026-05-03T11:22:01Z</time></trkpt><trkpt lat="42.45867139346162" lon="14.12921663699195"><ele>160.0</ele><time>2026-05-03T11:22:02Z</time></trkpt><trkpt lat="42.458711377291166" lon="14.129021157189824"><ele>160.0</ele><time>2026-05-03T11:22:03Z</time></trkpt><trkpt lat="42.45871596087289" lon="14.128812682317896"><ele>161.0</ele><time>2026-05-03T11:22:04Z</time></trkpt><trkpt lat="42.458710180901704" lon="14.128607452239173"><ele>162.0</ele><time>2026-05-03T11:22:05Z</time></trkpt><trkpt lat="42.458670813433834" lon="14.128387946059844"><ele>163.0</ele><time>2026-05-03T11:22:06Z</time></trkpt><trkpt lat="42.458593525712715" lon="14.128140815404077"><ele>163.0</ele><time>2026-05-03T11:22:07Z</time></trkpt><trkpt lat="42.45850514056355" lon="14.127864990668648"><ele>163.0</ele><time>2026-05-03T11:22:07.999Z</time></trkpt><trkpt lat="42.45841271354756" lon="14.127620576707045"><ele>163.0</ele><time>2026-05-03T11:22:08.999Z</time></trkpt><trkpt lat="42.45833625550548" lon="14.127437228565304"><ele>165.66666666666669</ele><time>2026-05-03T11:22:09.999Z</time></trkpt><trkpt lat="42.45824685806937" lon="14.127282308971523"><ele>168.33333333333334</ele><time>2026-05-03T11:22:10.999Z</time></trkpt><trkpt lat="42.45811991104607" lon="14.127162450330502"><ele>171.0</ele><time>2026-05-03T11:22:11.999Z</time></trkpt><trkpt lat="42.45797972260495" lon="14.127037571903314"><ele>169.66666666666666</ele><time>2026-05-03T11:22:12.999Z</time></trkpt><trkpt lat="42.45789053281408" lon="14.1268755006389"><ele>168.33333333333331</ele><time>2026-05-03T11:22:13.999Z</time></trkpt><trkpt lat="42.45780211418228" lon="14.126710992479508"><ele>167.0</ele><time>2026-05-03T11:22:14.999Z</time></trkpt><trkpt lat="42.457696250720595" lon="14.126500802322736"><ele>167.0</ele><time>2026-05-03T11:22:15.999Z</time></trkpt><trkpt lat="42.45757303740538" lon="14.12626651683075"><ele>167.0</ele><time>2026-05-03T11:22:16.999Z</time></trkpt><trkpt lat="42.457461418903044" lon="14.126032307612274"><ele>167.0</ele><time>2026-05-03T11:22:17.999Z</time></trkpt><trkpt lat="42.457380565710665" lon="14.125827451259621"><ele>168.75</ele><time>2026-05-03T11:22:18.999Z</time></trkpt><trkpt lat="42.45732940395692" lon="14.125668368167139"><ele>170.5</ele><time>2026-05-03T11:22:19.999Z</time></trkpt><trkpt lat="42.45728309196623" lon="14.125506694897046"><ele>172.25</ele><time>2026-05-03T11:22:20.999Z</time></trkpt><trkpt lat="42.4572407089712" lon="14.125359216479701"><ele>174.0</ele><time>2026-05-03T11:22:21.999Z</time></trkpt><trkpt lat="42.45722271884433" lon="14.125208490782612"><ele>174.0</ele><time>2026-05-03T11:22:22.999Z</time></trkpt><trkpt lat="42.45721050673123" lon="14.125065851059187"><ele>174.0</ele><time>2026-05-03T11:22:23.999Z</time></trkpt><trkpt lat="42.45721087216147" lon="14.124914925523255"><ele>174.0</ele><time>2026-05-03T11:22:24.999Z</time></trkpt><trkpt lat="42.45721983068868" lon="14.124755080568933"><ele>174.0</ele><time>2026-05-03T11:22:25.999Z</time></trkpt><trkpt lat="42.457239084338916" lon="14.12458413463165"><ele>173.25</ele><time>2026-05-03T11:22:26.999Z</time></trkpt><trkpt lat="42.457263609897346" lon="14.124414044921442"><ele>172.5</ele><time>2026-05-03T11:22:27.999Z</time></trkpt><trkpt lat="42.45729924520984" lon="14.12423756720889"><ele>171.75</ele><time>2026-05-03T11:22:28.999Z</time></trkpt><trkpt lat="42.45734406046347" lon="14.12405729400813"><ele>171.0</ele><time>2026-05-03T11:22:29.999Z</time></trkpt><trkpt lat="42.457395697358216" lon="14.12387186608566"><ele>168.66666666666666</ele><time>2026-05-03T11:22:30.999Z</time></trkpt><trkpt lat="42.45745589628515" lon="14.123680233833"><ele>166.33333333333331</ele><time>2026-05-03T11:22:31.999Z</time></trkpt><trkpt lat="42.45751597923252" lon="14.12347290300921"><ele>164.0</ele><time>2026-05-03T11:22:32.999Z</time></trkpt><trkpt lat="42.4575802410817" lon="14.123257692581513"><ele>163.33333333333331</ele><time>2026-05-03T11:22:33.999Z</time></trkpt><trkpt lat="42.45764443736365" lon="14.123039513586326"><ele>162.66666666666666</ele><time>2026-05-03T11:22:34.999Z</time></trkpt><trkpt lat="42.45770791134638" lon="14.122821403223394"><ele>162.0</ele><time>2026-05-03T11:22:35.999Z</time></trkpt><trkpt lat="42.45777202832951" lon="14.122617961909826"><ele>162.0</ele><time>2026-05-03T11:22:36.999Z</time></trkpt><trkpt lat="42.45783412727753" lon="14.122428872876045"><ele>162.0</ele><time>2026-05-03T11:22:37.999Z</time></trkpt><trkpt lat="42.45791110440714" lon="14.1222404151044"><ele>162.0</ele><time>2026-05-03T11:22:38.999Z</time></trkpt><trkpt lat="42.45800788643504" lon="14.122053592140437"><ele>161.33333333333334</ele><time>2026-05-03T11:22:39.999Z</time></trkpt><trkpt lat="42.45813365619142" lon="14.12190271532398"><ele>160.66666666666669</ele><time>2026-05-03T11:22:40.999Z</time></trkpt><trkpt lat="42.45826180638097" lon="14.121752300059438"><ele>160.0</ele><time>2026-05-03T11:22:41.999Z</time></trkpt><trkpt lat="42.458398052020556" lon="14.12159927218913"><ele>160.0</ele><time>2026-05-03T11:22:42.999Z</time></trkpt><trkpt lat="42.45853199585003" lon="14.12143304395128"><ele>160.0</ele><time>2026-05-03T11:22:43.999Z</time></trkpt><trkpt lat="42.45867973879482" lon="14.121287473555938"><ele>160.0</ele><time>2026-05-03T11:22:44.999Z</time></trkpt><trkpt lat="42.45882161649608" lon="14.121138085992254"><ele>160.0</ele><time>2026-05-03T11:22:45.999Z</time></trkpt><trkpt lat="42.45895737795371" lon="14.120989862855769"><ele>160.0</ele><time>2026-05-03T11:22:46.999Z</time></trkpt><trkpt lat="42.459093834308796" lon="14.120840735606835"><ele>160.0</ele><time>2026-05-03T11:22:47.999Z</time></trkpt><trkpt lat="42.459239379163556" lon="14.120711371359667"><ele>159.66666666666669</ele><time>2026-05-03T11:22:48.999Z</time></trkpt><trkpt lat="42.459361691019986" lon="14.1205562112896"><ele>159.33333333333334</ele><time>2026-05-03T11:22:49.999Z</time></trkpt><trkpt lat="42.459495325764735" lon="14.12044948718787"><ele>159.0</ele><time>2026-05-03T11:22:50.999Z</time></trkpt><trkpt lat="42.459602803551014" lon="14.120313909944958"><ele>159.2</ele><time>2026-05-03T11:22:51.999Z</time></trkpt><trkpt lat="42.45971231467848" lon="14.1202198240801"><ele>159.4</ele><time>2026-05-03T11:22:52.999Z</time></trkpt><trkpt lat="42.4598027343819" lon="14.120132821108418"><ele>159.6</ele><time>2026-05-03T11:22:53.999Z</time></trkpt><trkpt lat="42.45988568104405" lon="14.120079661417046"><ele>159.8</ele><time>2026-05-03T11:22:54.999Z</time></trkpt><trkpt lat="42.45997478556606" lon="14.120054478660263"><ele>160.0</ele><time>2026-05-03T11:22:55.999Z</time></trkpt><trkpt lat="42.46007535475286" lon="14.120033437469758"><ele>160.0</ele><time>2026-05-03T11:22:56.999Z</time></trkpt><trkpt lat="42.46018750016306" lon="14.12000553493553"><ele>160.0</ele><time>2026-05-03T11:22:57.999Z</time></trkpt><trkpt lat="42.460304707141965" lon="14.120005985645465"><ele>160.0</ele><time>2026-05-03T11:22:58.999Z</time></trkpt><trkpt lat="42.460434702984216" lon="14.120054067595904"><ele>160.0</ele><time>2026-05-03T11:22:59.999Z</time></trkpt><trkpt lat="42.46058440781741" lon="14.120134252336365"><ele>160.66666666666669</ele><time>2026-05-03T11:23:00.999Z</time></trkpt><trkpt lat="42.460739857816314" lon="14.120211300216415"><ele>161.33333333333334</ele><time>2026-05-03T11:23:01.999Z</time></trkpt><trkpt lat="42.46091630765097" lon="14.12026592005269"><ele>162.0</ele><time>2026-05-03T11:23:02.999Z</time></trkpt><trkpt lat="42.461098001702425" lon="14.120310614132958"><ele>162.0</ele><time>2026-05-03T11:23:03.999Z</time></trkpt><trkpt lat="42.461264804171165" lon="14.120357944513747"><ele>162.0</ele><time>2026-05-03T11:23:04.999Z</time></trkpt><trkpt lat="42.46141739229741" lon="14.120439029310718"><ele>162.0</ele><time>2026-05-03T11:23:05.999Z</time></trkpt><trkpt lat="42.46156603548525" lon="14.120548751707132"><ele>164.33333333333334</ele><time>2026-05-03T11:23:06.999Z</time></trkpt><trkpt lat="42.46172019166901" lon="14.120682389653808"><ele>166.66666666666669</ele><time>2026-05-03T11:23:07.999Z</time></trkpt><trkpt lat="42.46187745118346" lon="14.120811375063017"><ele>169.0</ele><time>2026-05-03T11:23:08.999Z</time></trkpt><trkpt lat="42.46204223610672" lon="14.120929199936214"><ele>168.0</ele><time>2026-05-03T11:23:09.999Z</time></trkpt><trkpt lat="42.46220486632867" lon="14.121052501083854"><ele>167.0</ele><time>2026-05-03T11:23:10.999Z</time></trkpt><trkpt lat="42.462361033609554" lon="14.121169815093474"><ele>166.0</ele><time>2026-05-03T11:23:11.999Z</time></trkpt><trkpt lat="42.46250884404335" lon="14.121286357290366"><ele>166.0</ele><time>2026-05-03T11:23:12.999Z</time></trkpt><trkpt lat="42.462648001739026" lon="14.121380850019595"><ele>166.0</ele><time>2026-05-03T11:23:13.999Z</time></trkpt><trkpt lat="42.462774529226074" lon="14.121472000391213"><ele>166.0</ele><time>2026-05-03T11:23:14.999Z</time></trkpt><trkpt lat="42.46290151527271" lon="14.121563165030672"><ele>166.0</ele><time>2026-05-03T11:23:16Z</time></trkpt><trkpt lat="42.46302666830963" lon="14.121656060095322"><ele>163.25</ele><time>2026-05-03T11:23:17Z</time></trkpt><trkpt lat="42.46315616521681" lon="14.12174710588085"><ele>160.5</ele><time>2026-05-03T11:23:18Z</time></trkpt><trkpt lat="42.46328809294458" lon="14.121842182825533"><ele>157.75</ele><time>2026-05-03T11:23:19Z</time></trkpt><trkpt lat="42.46342216431819" lon="14.121937444750289"><ele>155.0</ele><time>2026-05-03T11:23:20Z</time></trkpt><trkpt lat="42.46355551210075" lon="14.122038425915356"><ele>155.0</ele><time>2026-05-03T11:23:21Z</time></trkpt><trkpt lat="42.46368338202146" lon="14.122130503445815"><ele>155.0</ele><time>2026-05-03T11:23:22Z</time></trkpt><trkpt lat="42.463793955796426" lon="14.122236818738516"><ele>155.0</ele><time>2026-05-03T11:23:23Z</time></trkpt><trkpt lat="42.46389308872103" lon="14.122356464672961"><ele>155.0</ele><time>2026-05-03T11:23:24Z</time></trkpt><trkpt lat="42.46397794535921" lon="14.122486068845589"><ele>153.5</ele><time>2026-05-03T11:23:25Z</time></trkpt><trkpt lat="42.464043356138625" lon="14.122625083972551"><ele>152.0</ele><time>2026-05-03T11:23:26Z</time></trkpt><trkpt lat="42.46411106950544" lon="14.122779196313097"><ele>150.5</ele><time>2026-05-03T11:23:27Z</time></trkpt><trkpt lat="42.46417106841071" lon="14.12292844113021"><ele>149.0</ele><time>2026-05-03T11:23:28Z</time></trkpt><trkpt lat="42.46423218089582" lon="14.123069390602662"><ele>149.0</ele><time>2026-05-03T11:23:29Z</time></trkpt><trkpt lat="42.46428407480809" lon="14.123216427432194"><ele>149.0</ele><time>2026-05-03T11:23:30Z</time></trkpt><trkpt lat="42.46432131150442" lon="14.123416574603825"><ele>149.0</ele><time>2026-05-03T11:23:31Z</time></trkpt><trkpt lat="42.46438831424471" lon="14.123631302585629"><ele>149.0</ele><time>2026-05-03T11:23:32Z</time></trkpt><trkpt lat="42.46443352396581" lon="14.123828465494821"><ele>149.0</ele><time>2026-05-03T11:23:33Z</time></trkpt><trkpt lat="42.46449125670739" lon="14.124006395571758"><ele>149.0</ele><time>2026-05-03T11:23:34Z</time></trkpt><trkpt lat="42.46456716626608" lon="14.124173620917276"><ele>149.0</ele><time>2026-05-03T11:23:35Z</time></trkpt><trkpt lat="42.4646807184832" lon="14.124335575206805"><ele>146.33333333333331</ele><time>2026-05-03T11:23:36Z</time></trkpt><trkpt lat="42.464813299962934" lon="14.124486175849"><ele>143.66666666666666</ele><time>2026-05-03T11:23:37Z</time></trkpt><trkpt lat="42.46494744719582" lon="14.12463974917781"><ele>141.0</ele><time>2026-05-03T11:23:38Z</time></trkpt><trkpt lat="42.46506506816016" lon="14.124809692117115"><ele>143.33333333333334</ele><time>2026-05-03T11:23:39Z</time></trkpt><trkpt lat="42.46518189755854" lon="14.125017044695106"><ele>145.66666666666669</ele><time>2026-05-03T11:23:40Z</time></trkpt><trkpt lat="42.46530104550334" lon="14.125259987982798"><ele>148.0</ele><time>2026-05-03T11:23:41Z</time></trkpt><trkpt lat="42.46541989556592" lon="14.12546684643981"><ele>146.33333333333334</ele><time>2026-05-03T11:23:42Z</time></trkpt><trkpt lat="42.46555169532837" lon="14.125649157339454"><ele>144.66666666666666</ele><time>2026-05-03T11:23:43Z</time></trkpt><trkpt lat="42.465694371819204" lon="14.125812790374306"><ele>143.0</ele><time>2026-05-03T11:23:44Z</time></trkpt><trkpt lat="42.46583676944852" lon="14.125957100374144"><ele>143.0</ele><time>2026-05-03T11:23:45Z</time></trkpt><trkpt lat="42.46596863110029" lon="14.126061893705783"><ele>143.0</ele><time>2026-05-03T11:23:46Z</time></trkpt><trkpt lat="42.4661087500619" lon="14.126121598315471"><ele>143.0</ele><time>2026-05-03T11:23:47Z</time></trkpt><trkpt lat="42.46626863133558" lon="14.12614310006262"><ele>140.75</ele><time>2026-05-03T11:23:48Z</time></trkpt><trkpt lat="42.46643272073724" lon="14.126158012966412"><ele>138.5</ele><time>2026-05-03T11:23:49Z</time></trkpt><trkpt lat="42.46657426802377" lon="14.126193738148592"><ele>136.25</ele><time>2026-05-03T11:23:50Z</time></trkpt><trkpt lat="42.46668219468062" lon="14.126249667870171"><ele>134.0</ele><time>2026-05-03T11:23:51Z</time></trkpt><trkpt lat="42.46677145168734" lon="14.126331852496195"><ele>134.0</ele><time>2026-05-03T11:23:52Z</time></trkpt><trkpt lat="42.46685569025463" lon="14.126469101311805"><ele>134.0</ele><time>2026-05-03T11:23:53Z</time></trkpt><trkpt lat="42.46694171226677" lon="14.126653093248482"><ele>134.0</ele><time>2026-05-03T11:23:54Z</time></trkpt><trkpt lat="42.467040531438464" lon="14.1268758428899"><ele>134.5</ele><time>2026-05-03T11:23:55Z</time></trkpt><trkpt lat="42.467172452851614" lon="14.127151844592087"><ele>135.0</ele><time>2026-05-03T11:23:55.999Z</time></trkpt><trkpt lat="42.46732184818807" lon="14.12747431412028"><ele>140.0</ele><time>2026-05-03T11:23:56.999Z</time></trkpt><trkpt lat="42.46744918944018" lon="14.127791158908288"><ele>145.0</ele><time>2026-05-03T11:23:57.999Z</time></trkpt><trkpt lat="42.467537806725986" lon="14.128059709392831"><ele>145.66666666666669</ele><time>2026-05-03T11:23:58.999Z</time></trkpt><trkpt lat="42.46761573094234" lon="14.128290941135202"><ele>146.33333333333334</ele><time>2026-05-03T11:23:59.999Z</time></trkpt><trkpt lat="42.46767818871537" lon="14.12847109687899"><ele>147.0</ele><time>2026-05-03T11:24:00.999Z</time></trkpt><trkpt lat="42.46774288523457" lon="14.128623927806673"><ele>147.0</ele><time>2026-05-03T11:24:01.999Z</time></trkpt><trkpt lat="42.46782267641658" lon="14.12872419029938"><ele>147.0</ele><time>2026-05-03T11:24:02.999Z</time></trkpt><trkpt lat="42.4679371791844" lon="14.1288010145947"><ele>147.0</ele><time>2026-05-03T11:24:03.999Z</time></trkpt><trkpt lat="42.468076935953576" lon="14.128860115710989"><ele>147.0</ele><time>2026-05-03T11:24:04.999Z</time></trkpt><trkpt lat="42.46823505507577" lon="14.128894461196142"><ele>147.75</ele><time>2026-05-03T11:24:05.999Z</time></trkpt><trkpt lat="42.46838721874195" lon="14.12893631456061"><ele>148.5</ele><time>2026-05-03T11:24:06.999Z</time></trkpt><trkpt lat="42.46852699964491" lon="14.128977017069806"><ele>149.25</ele><time>2026-05-03T11:24:07.999Z</time></trkpt><trkpt lat="42.468660594755114" lon="14.129016181430535"><ele>150.0</ele><time>2026-05-03T11:24:08.999Z</time></trkpt><trkpt lat="42.46883221773743" lon="14.129067717910992"><ele>150.0</ele><time>2026-05-03T11:24:09.999Z</time></trkpt><trkpt lat="42.46903761450143" lon="14.129146613681767"><ele>150.0</ele><time>2026-05-03T11:24:10.999Z</time></trkpt><trkpt lat="42.46920596705107" lon="14.129231949640698"><ele>150.0</ele><time>2026-05-03T11:24:11.999Z</time></trkpt><trkpt lat="42.46934767046878" lon="14.129324543372997"><ele>150.0</ele><time>2026-05-03T11:24:12.999Z</time></trkpt><trkpt lat="42.46948498396727" lon="14.12944466420554"><ele>150.0</ele><time>2026-05-03T11:24:13.999Z</time></trkpt><trkpt lat="42.46962379385798" lon="14.12960036008531"><ele>150.0</ele><time>2026-05-03T11:24:14.999Z</time></trkpt><trkpt lat="42.469767526517884" lon="14.129766914762053"><ele>150.0</ele><time>2026-05-03T11:24:15.999Z</time></trkpt><trkpt lat="42.46992271190566" lon="14.129950091736365"><ele>150.0</ele><time>2026-05-03T11:24:16.999Z</time></trkpt><trkpt lat="42.470079016479595" lon="14.130141582947921"><ele>150.0</ele><time>2026-05-03T11:24:17.999Z</time></trkpt><trkpt lat="42.47024045755752" lon="14.1303449157602"><ele>150.0</ele><time>2026-05-03T11:24:18.999Z</time></trkpt><trkpt lat="42.47040318906808" lon="14.130546393440554"><ele>150.0</ele><time>2026-05-03T11:24:19.999Z</time></trkpt><trkpt lat="42.47057133001588" lon="14.130745110912292"><ele>150.0</ele><time>2026-05-03T11:24:20.999Z</time></trkpt><trkpt lat="42.47073920339701" lon="14.130949149014752"><ele>148.0</ele><time>2026-05-03T11:24:21.999Z</time></trkpt><trkpt lat="42.47090420639192" lon="14.131152320868706"><ele>146.0</ele><time>2026-05-03T11:24:22.999Z</time></trkpt><trkpt lat="42.471064966491" lon="14.131347002567015"><ele>144.0</ele><time>2026-05-03T11:24:23.999Z</time></trkpt><trkpt lat="42.47120883695725" lon="14.131529527991825"><ele>143.33333333333334</ele><time>2026-05-03T11:24:24.999Z</time></trkpt><trkpt lat="42.47133359338968" lon="14.131694548772842"><ele>142.66666666666669</ele><time>2026-05-03T11:24:25.999Z</time></trkpt><trkpt lat="42.47143612860782" lon="14.131847301422813"><ele>142.0</ele><time>2026-05-03T11:24:26.999Z</time></trkpt><trkpt lat="42.471506348863" lon="14.131996668146156"><ele>142.0</ele><time>2026-05-03T11:24:27.999Z</time></trkpt><trkpt lat="42.47154221649367" lon="14.132160956861417"><ele>142.0</ele><time>2026-05-03T11:24:28.999Z</time></trkpt><trkpt lat="42.47154965766292" lon="14.132374262017315"><ele>142.0</ele><time>2026-05-03T11:24:29.999Z</time></trkpt><trkpt lat="42.47154485888953" lon="14.132607790931667"><ele>144.0</ele><time>2026-05-03T11:24:30.999Z</time></trkpt><trkpt lat="42.47156451272695" lon="14.132832024695151"><ele>146.0</ele><time>2026-05-03T11:24:31.999Z</time></trkpt><trkpt lat="42.47161447199703" lon="14.133028229901825"><ele>148.0</ele><time>2026-05-03T11:24:32.999Z</time></trkpt><trkpt lat="42.47169185939397" lon="14.13318346467578"><ele>148.0</ele><time>2026-05-03T11:24:33.999Z</time></trkpt><trkpt lat="42.47178532194937" lon="14.133313142990708"><ele>148.0</ele><time>2026-05-03T11:24:34.999Z</time></trkpt><trkpt lat="42.471897936832015" lon="14.133386654326577"><ele>148.0</ele><time>2026-05-03T11:24:35.999Z</time></trkpt><trkpt lat="42.4720342623986" lon="14.133400966541037"><ele>148.0</ele><time>2026-05-03T11:24:36.999Z</time></trkpt><trkpt lat="42.47218704457709" lon="14.133377104964081"><ele>150.5</ele><time>2026-05-03T11:24:37.999Z</time></trkpt><trkpt lat="42.4723248681647" lon="14.133374597451452"><ele>153.0</ele><time>2026-05-03T11:24:38.999Z</time></trkpt><trkpt lat="42.47243666373019" lon="14.133396182505997"><ele>155.5</ele><time>2026-05-03T11:24:39.999Z</time></trkpt><trkpt lat="42.47253343296939" lon="14.133472045113065"><ele>158.0</ele><time>2026-05-03T11:24:40.999Z</time></trkpt><trkpt lat="42.472656108416246" lon="14.133615532239808"><ele>158.0</ele><time>2026-05-03T11:24:41.999Z</time></trkpt><trkpt lat="42.47279801148147" lon="14.133774975977985"><ele>158.0</ele><time>2026-05-03T11:24:42.999Z</time></trkpt><trkpt lat="42.47295476206748" lon="14.133917023529786"><ele>158.0</ele><time>2026-05-03T11:24:43.999Z</time></trkpt><trkpt lat="42.473130219491395" lon="14.134042532528568"><ele>160.66666666666666</ele><time>2026-05-03T11:24:44.999Z</time></trkpt><trkpt lat="42.47328018578968" lon="14.134153685739566"><ele>163.33333333333334</ele><time>2026-05-03T11:24:45.999Z</time></trkpt><trkpt lat="42.47340571723599" lon="14.13429363172742"><ele>166.0</ele><time>2026-05-03T11:24:46.999Z</time></trkpt><trkpt lat="42.47350566174163" lon="14.134455877416393"><ele>166.0</ele><time>2026-05-03T11:24:47.999Z</time></trkpt><trkpt lat="42.473568764977664" lon="14.1346120400936"><ele>166.0</ele><time>2026-05-03T11:24:48.999Z</time></trkpt><trkpt lat="42.47359923583336" lon="14.134783623881697"><ele>166.0</ele><time>2026-05-03T11:24:49.999Z</time></trkpt><trkpt lat="42.47361090148811" lon="14.134982256150979"><ele>166.0</ele><time>2026-05-03T11:24:50.999Z</time></trkpt><trkpt lat="42.47364240411273" lon="14.13518007194444"><ele>164.0</ele><time>2026-05-03T11:24:51.999Z</time></trkpt><trkpt lat="42.47369504674632" lon="14.135348288588677"><ele>162.0</ele><time>2026-05-03T11:24:52.999Z</time></trkpt><trkpt lat="42.47376265524337" lon="14.13547223729033"><ele>160.0</ele><time>2026-05-03T11:24:53.999Z</time></trkpt><trkpt lat="42.473864325622785" lon="14.135545307234098"><ele>158.0</ele><time>2026-05-03T11:24:54.999Z</time></trkpt><trkpt lat="42.47398601247564" lon="14.135614911779417"><ele>160.66666666666666</ele><time>2026-05-03T11:24:55.999Z</time></trkpt><trkpt lat="42.47413342226686" lon="14.13565879227781"><ele>163.33333333333334</ele><time>2026-05-03T11:24:56.999Z</time></trkpt><trkpt lat="42.474286573437645" lon="14.135714815700473"><ele>166.0</ele><time>2026-05-03T11:24:57.999Z</time></trkpt><trkpt lat="42.4744204759202" lon="14.135817811714789"><ele>166.0</ele><time>2026-05-03T11:24:58.999Z</time></trkpt><trkpt lat="42.4745408951606" lon="14.135951653604877"><ele>166.0</ele><time>2026-05-03T11:24:59.999Z</time></trkpt><trkpt lat="42.474657464042785" lon="14.136080503399453"><ele>166.0</ele><time>2026-05-03T11:25:00.999Z</time></trkpt><trkpt lat="42.47479538621822" lon="14.136156915630014"><ele>170.25</ele><time>2026-05-03T11:25:01.999Z</time></trkpt><trkpt lat="42.474949511918894" lon="14.136191901500833"><ele>174.5</ele><time>2026-05-03T11:25:02.999Z</time></trkpt><trkpt lat="42.475088642652295" lon="14.136233727923978"><ele>178.75</ele><time>2026-05-03T11:25:03.999Z</time></trkpt><trkpt lat="42.47518968431319" lon="14.136306689516363"><ele>183.0</ele><time>2026-05-03T11:25:04.999Z</time></trkpt><trkpt lat="42.475273529622754" lon="14.136428011595159"><ele>183.0</ele><time>2026-05-03T11:25:05.999Z</time></trkpt><trkpt lat="42.47535231981318" lon="14.136591282162867"><ele>183.0</ele><time>2026-05-03T11:25:06.999Z</time></trkpt><trkpt lat="42.475448509462325" lon="14.136753365169731"><ele>183.0</ele><time>2026-05-03T11:25:07.999Z</time></trkpt><trkpt lat="42.475599555253154" lon="14.13687748934845"><ele>183.0</ele><time>2026-05-03T11:25:08.999Z</time></trkpt><trkpt lat="42.475797875092105" lon="14.136987992955582"><ele>183.0</ele><time>2026-05-03T11:25:09.999Z</time></trkpt><trkpt lat="42.4760330886999" lon="14.137121377581023"><ele>186.5</ele><time>2026-05-03T11:25:10.999Z</time></trkpt><trkpt lat="42.476291380145625" lon="14.137268811463573"><ele>190.0</ele><time>2026-05-03T11:25:11.999Z</time></trkpt><trkpt lat="42.47650086298108" lon="14.137384160788724"><ele>186.33333333333334</ele><time>2026-05-03T11:25:12.999Z</time></trkpt><trkpt lat="42.47667418432609" lon="14.137447608010476"><ele>182.66666666666666</ele><time>2026-05-03T11:25:13.999Z</time></trkpt><trkpt lat="42.4768470663212" lon="14.137478096395634"><ele>179.0</ele><time>2026-05-03T11:25:14.999Z</time></trkpt><trkpt lat="42.47702328543098" lon="14.137485719602246"><ele>180.0</ele><time>2026-05-03T11:25:15.999Z</time></trkpt><trkpt lat="42.477193938935564" lon="14.137481181611939"><ele>181.0</ele><time>2026-05-03T11:25:16.999Z</time></trkpt><trkpt lat="42.47736265946221" lon="14.13746500014156"><ele>182.0</ele><time>2026-05-03T11:25:17.999Z</time></trkpt><trkpt lat="42.477538446883486" lon="14.137421493715358"><ele>179.33333333333331</ele><time>2026-05-03T11:25:18.999Z</time></trkpt><trkpt lat="42.477712419051024" lon="14.137350963447211"><ele>176.66666666666666</ele><time>2026-05-03T11:25:19.999Z</time></trkpt><trkpt lat="42.47789081852606" lon="14.137265784644304"><ele>174.0</ele><time>2026-05-03T11:25:20.999Z</time></trkpt><trkpt lat="42.47803717582847" lon="14.137207690136897"><ele>172.5</ele><time>2026-05-03T11:25:21.999Z</time></trkpt><trkpt lat="42.47815767173803" lon="14.137177923275118"><ele>171.0</ele><time>2026-05-03T11:25:22.999Z</time></trkpt><trkpt lat="42.47827616160815" lon="14.13719204402449"><ele>169.5</ele><time>2026-05-03T11:25:23.999Z</time></trkpt><trkpt lat="42.478408083252006" lon="14.137244632416591"><ele>168.0</ele><time>2026-05-03T11:25:24.999Z</time></trkpt><trkpt lat="42.47854838732175" lon="14.137312871829868"><ele>168.0</ele><time>2026-05-03T11:25:25.999Z</time></trkpt><trkpt lat="42.478685602909465" lon="14.13734306461134"><ele>168.0</ele><time>2026-05-03T11:25:26.999Z</time></trkpt><trkpt lat="42.478829124400065" lon="14.137308540294352"><ele>168.0</ele><time>2026-05-03T11:25:27.999Z</time></trkpt><trkpt lat="42.47897809469209" lon="14.137229149484769"><ele>168.0</ele><time>2026-05-03T11:25:28.999Z</time></trkpt><trkpt lat="42.47912036389976" lon="14.137122216490878"><ele>167.75</ele><time>2026-05-03T11:25:29.999Z</time></trkpt><trkpt lat="42.47922937706224" lon="14.137002097620888"><ele>167.5</ele><time>2026-05-03T11:25:30.999Z</time></trkpt><trkpt lat="42.47933434898039" lon="14.136856590253243"><ele>167.25</ele><time>2026-05-03T11:25:31.999Z</time></trkpt><trkpt lat="42.479418405880715" lon="14.136676734677309"><ele>167.0</ele><time>2026-05-03T11:25:32.999Z</time></trkpt><trkpt lat="42.47952606024761" lon="14.136514647567152"><ele>166.33333333333331</ele><time>2026-05-03T11:25:33.999Z</time></trkpt><trkpt lat="42.479628674407394" lon="14.136364020997336"><ele>165.66666666666666</ele><time>2026-05-03T11:25:34.999Z</time></trkpt><trkpt lat="42.4797467985699" lon="14.136225063143874"><ele>165.0</ele><time>2026-05-03T11:25:35.999Z</time></trkpt><trkpt lat="42.47985523346443" lon="14.13606542504977"><ele>165.0</ele><time>2026-05-03T11:25:36.999Z</time></trkpt><trkpt lat="42.47993867348448" lon="14.13586648034919"><ele>165.0</ele><time>2026-05-03T11:25:37.999Z</time></trkpt><trkpt lat="42.47998482213426" lon="14.13564571202"><ele>165.0</ele><time>2026-05-03T11:25:38.999Z</time></trkpt><trkpt lat="42.480036293858234" lon="14.135448818529202"><ele>163.0</ele><time>2026-05-03T11:25:39.999Z</time></trkpt><trkpt lat="42.48009122766038" lon="14.135287584914513"><ele>161.0</ele><time>2026-05-03T11:25:40.999Z</time></trkpt><trkpt lat="42.480162371635686" lon="14.135160776308854"><ele>159.0</ele><time>2026-05-03T11:25:41.999Z</time></trkpt><trkpt lat="42.48025635930798" lon="14.13505571185777"><ele>157.0</ele><time>2026-05-03T11:25:42.999Z</time></trkpt><trkpt lat="42.48035033231431" lon="14.134947134637889"><ele>155.0</ele><time>2026-05-03T11:25:43.999Z</time></trkpt><trkpt lat="42.4804706474913" lon="14.134845399874672"><ele>153.0</ele><time>2026-05-03T11:25:44.999Z</time></trkpt><trkpt lat="42.48058552316474" lon="14.134781579252111"><ele>151.0</ele><time>2026-05-03T11:25:45.999Z</time></trkpt><trkpt lat="42.480693705132715" lon="14.1347708374556"><ele>149.0</ele><time>2026-05-03T11:25:46.999Z</time></trkpt><trkpt lat="42.480792808393325" lon="14.134806969283506"><ele>149.0</ele><time>2026-05-03T11:25:47.999Z</time></trkpt><trkpt lat="42.48088577543269" lon="14.134881886423308"><ele>149.0</ele><time>2026-05-03T11:25:48.999Z</time></trkpt><trkpt lat="42.480981574912626" lon="14.135006134700065"><ele>149.0</ele><time>2026-05-03T11:25:49.999Z</time></trkpt><trkpt lat="42.48106979771171" lon="14.135140739521438"><ele>149.0</ele><time>2026-05-03T11:25:50.999Z</time></trkpt><trkpt lat="42.48113503862281" lon="14.135298085097114"><ele>148.33333333333331</ele><time>2026-05-03T11:25:51.999Z</time></trkpt><trkpt lat="42.48119521244647" lon="14.13550259572633"><ele>147.66666666666666</ele><time>2026-05-03T11:25:52.999Z</time></trkpt><trkpt lat="42.481279199500165" lon="14.135771344997547"><ele>147.0</ele><time>2026-05-03T11:25:53.999Z</time></trkpt><trkpt lat="42.48137145392632" lon="14.136047146859745"><ele>147.0</ele><time>2026-05-03T11:25:54.999Z</time></trkpt><trkpt lat="42.481444635048724" lon="14.136252733599909"><ele>147.0</ele><time>2026-05-03T11:25:55.999Z</time></trkpt><trkpt lat="42.481508006673074" lon="14.13641291306419"><ele>147.0</ele><time>2026-05-03T11:25:56.999Z</time></trkpt><trkpt lat="42.48158181201398" lon="14.13653157565126"><ele>147.0</ele><time>2026-05-03T11:25:57.999Z</time></trkpt><trkpt lat="42.48167829309245" lon="14.1366003721799"><ele>147.0</ele><time>2026-05-03T11:25:58.999Z</time></trkpt><trkpt lat="42.481798572068904" lon="14.136600378317889"><ele>147.0</ele><time>2026-05-03T11:25:59.999Z</time></trkpt><trkpt lat="42.4819199155185" lon="14.136554900183468"><ele>147.0</ele><time>2026-05-03T11:26:00.999Z</time></trkpt><trkpt lat="42.482028232783364" lon="14.136443891644726"><ele>147.0</ele><time>2026-05-03T11:26:01.999Z</time></trkpt><trkpt lat="42.48210805280801" lon="14.136292787185226"><ele>145.33333333333334</ele><time>2026-05-03T11:26:02.999Z</time></trkpt><trkpt lat="42.48216192037985" lon="14.136096354690373"><ele>143.66666666666669</ele><time>2026-05-03T11:26:03.999Z</time></trkpt><trkpt lat="42.48219848299068" lon="14.1358716605976"><ele>142.0</ele><time>2026-05-03T11:26:04.999Z</time></trkpt><trkpt lat="42.482244413971074" lon="14.135613727672801"><ele>141.0</ele><time>2026-05-03T11:26:05.999Z</time></trkpt><trkpt lat="42.482314664448694" lon="14.135361026016628"><ele>140.0</ele><time>2026-05-03T11:26:06.999Z</time></trkpt><trkpt lat="42.48237128725614" lon="14.135093178993108"><ele>139.0</ele><time>2026-05-03T11:26:07.999Z</time></trkpt><trkpt lat="42.48243004102659" lon="14.134821968488595"><ele>138.33333333333334</ele><time>2026-05-03T11:26:08.999Z</time></trkpt><trkpt lat="42.48248943104351" lon="14.134548468970005"><ele>137.66666666666666</ele><time>2026-05-03T11:26:09.999Z</time></trkpt><trkpt lat="42.482541994297534" lon="14.13430326116327"><ele>137.0</ele><time>2026-05-03T11:26:10.999Z</time></trkpt><trkpt lat="42.48259219203364" lon="14.134067426467546"><ele>135.66666666666666</ele><time>2026-05-03T11:26:11.999Z</time></trkpt><trkpt lat="42.48263741376416" lon="14.133847548576046"><ele>134.33333333333334</ele><time>2026-05-03T11:26:12.999Z</time></trkpt><trkpt lat="42.48268808983794" lon="14.133650634526182"><ele>133.0</ele><time>2026-05-03T11:26:13.999Z</time></trkpt><trkpt lat="42.482747075089364" lon="14.133474059405891"><ele>133.0</ele><time>2026-05-03T11:26:14.999Z</time></trkpt><trkpt lat="42.482822840924676" lon="14.133328468224333"><ele>133.0</ele><time>2026-05-03T11:26:15.999Z</time></trkpt><trkpt lat="42.482923198877344" lon="14.133252787363821"><ele>133.0</ele><time>2026-05-03T11:26:16.999Z</time></trkpt><trkpt lat="42.48303941946076" lon="14.133199741930264"><ele>133.0</ele><time>2026-05-03T11:26:17.999Z</time></trkpt><trkpt lat="42.48318466816861" lon="14.133130332964"><ele>131.66666666666669</ele><time>2026-05-03T11:26:18.999Z</time></trkpt><trkpt lat="42.48334571946883" lon="14.133034552819302"><ele>130.33333333333334</ele><time>2026-05-03T11:26:19.999Z</time></trkpt><trkpt lat="42.48351021245084" lon="14.132951426128862"><ele>129.0</ele><time>2026-05-03T11:26:20.999Z</time></trkpt><trkpt lat="42.48368662395903" lon="14.132864528587492"><ele>127.66666666666666</ele><time>2026-05-03T11:26:21.999Z</time></trkpt><trkpt lat="42.48386903627354" lon="14.132772258372349"><ele>126.33333333333333</ele><time>2026-05-03T11:26:22.999Z</time></trkpt><trkpt lat="42.48404991244068" lon="14.13268598172818"><ele>125.0</ele><time>2026-05-03T11:26:23.999Z</time></trkpt><trkpt lat="42.48421887442897" lon="14.132608483425608"><ele>125.0</ele><time>2026-05-03T11:26:24.999Z</time></trkpt><trkpt lat="42.4843791051542" lon="14.132534047428887"><ele>125.0</ele><time>2026-05-03T11:26:25.999Z</time></trkpt><trkpt lat="42.484544210807805" lon="14.13245393567793"><ele>125.0</ele><time>2026-05-03T11:26:26.999Z</time></trkpt><trkpt lat="42.4846998243893" lon="14.13238032965597"><ele>123.5</ele><time>2026-05-03T11:26:27.999Z</time></trkpt><trkpt lat="42.48484218360282" lon="14.132323811285755"><ele>122.0</ele><time>2026-05-03T11:26:28.999Z</time></trkpt><trkpt lat="42.484976456447264" lon="14.132290001987524"><ele>120.5</ele><time>2026-05-03T11:26:29.999Z</time></trkpt><trkpt lat="42.485109874628485" lon="14.132309281273487"><ele>119.0</ele><time>2026-05-03T11:26:30.999Z</time></trkpt><trkpt lat="42.48524030931425" lon="14.132364447869666"><ele>119.33333333333333</ele><time>2026-05-03T11:26:31.999Z</time></trkpt><trkpt lat="42.48536547950411" lon="14.132454495211872"><ele>119.66666666666666</ele><time>2026-05-03T11:26:32.999Z</time></trkpt><trkpt lat="42.48548555289663" lon="14.132590041372607"><ele>120.0</ele><time>2026-05-03T11:26:33.999Z</time></trkpt><trkpt lat="42.48560604300208" lon="14.132746323319665"><ele>119.33333333333334</ele><time>2026-05-03T11:26:34.999Z</time></trkpt><trkpt lat="42.485736887015804" lon="14.132917183664743"><ele>118.66666666666667</ele><time>2026-05-03T11:26:35.999Z</time></trkpt><trkpt lat="42.48588428371424" lon="14.133091173227943"><ele>118.0</ele><time>2026-05-03T11:26:36.999Z</time></trkpt><trkpt lat="42.486039572122685" lon="14.13327460311773"><ele>117.66666666666667</ele><time>2026-05-03T11:26:37.999Z</time></trkpt><trkpt lat="42.486196364773335" lon="14.13346296538599"><ele>117.33333333333334</ele><time>2026-05-03T11:26:38.999Z</time></trkpt><trkpt lat="42.486332941815704" lon="14.133625763083073"><ele>117.0</ele><time>2026-05-03T11:26:39.999Z</time></trkpt><trkpt lat="42.486452468662215" lon="14.133770081005753"><ele>117.0</ele><time>2026-05-03T11:26:40.999Z</time></trkpt><trkpt lat="42.48655408704169" lon="14.133897735736529"><ele>117.0</ele><time>2026-05-03T11:26:41.999Z</time></trkpt><trkpt lat="42.48662740965012" lon="14.134023043861529"><ele>117.0</ele><time>2026-05-03T11:26:42.999Z</time></trkpt><trkpt lat="42.486673531037006" lon="14.13415896427381"><ele>117.0</ele><time>2026-05-03T11:26:43.999Z</time></trkpt><trkpt lat="42.486698925153874" lon="14.134329445730845"><ele>117.0</ele><time>2026-05-03T11:26:44.999Z</time></trkpt><trkpt lat="42.48672019650174" lon="14.134545945189886"><ele>117.0</ele><time>2026-05-03T11:26:45.999Z</time></trkpt><trkpt lat="42.486752458773864" lon="14.134771430924278"><ele>117.0</ele><time>2026-05-03T11:26:46.999Z</time></trkpt><trkpt lat="42.48679496556422" lon="14.13500104688366"><ele>117.0</ele><time>2026-05-03T11:26:47.999Z</time></trkpt><trkpt lat="42.4868417142789" lon="14.135234196931501"><ele>117.0</ele><time>2026-05-03T11:26:48.999Z</time></trkpt><trkpt lat="42.48689269631232" lon="14.135475187224987"><ele>117.0</ele><time>2026-05-03T11:26:49.999Z</time></trkpt><trkpt lat="42.486944522809786" lon="14.13571509105579"><ele>116.66666666666666</ele><time>2026-05-03T11:26:50.999Z</time></trkpt><trkpt lat="42.48700221515552" lon="14.13594874496652"><ele>116.33333333333333</ele><time>2026-05-03T11:26:51.999Z</time></trkpt><trkpt lat="42.487077359517635" lon="14.136168385932061"><ele>116.0</ele><time>2026-05-03T11:26:52.999Z</time></trkpt><trkpt lat="42.48716604987699" lon="14.136383715319157"><ele>118.66666666666666</ele><time>2026-05-03T11:26:53.999Z</time></trkpt><trkpt lat="42.48726012275089" lon="14.136611018784745"><ele>121.33333333333334</ele><time>2026-05-03T11:26:54.999Z</time></trkpt><trkpt lat="42.48735012026301" lon="14.136845114454546"><ele>124.0</ele><time>2026-05-03T11:26:55.999Z</time></trkpt><trkpt lat="42.48743155015463" lon="14.137069208304109"><ele>124.0</ele><time>2026-05-03T11:26:56.999Z</time></trkpt><trkpt lat="42.487505333292546" lon="14.137296923847936"><ele>124.0</ele><time>2026-05-03T11:26:57.999Z</time></trkpt><trkpt lat="42.48756356821358" lon="14.137486241655047"><ele>124.0</ele><time>2026-05-03T11:26:58.999Z</time></trkpt><trkpt lat="42.48760042056753" lon="14.137634242061875"><ele>124.0</ele><time>2026-05-03T11:26:59.999Z</time></trkpt><trkpt lat="42.4876360031833" lon="14.137824849308547"><ele>124.0</ele><time>2026-05-03T11:27:00.999Z</time></trkpt><trkpt lat="42.48764365287273" lon="14.13804748925219"><ele>124.0</ele><time>2026-05-03T11:27:01.999Z</time></trkpt><trkpt lat="42.487625495802476" lon="14.138295288650683"><ele>124.33333333333334</ele><time>2026-05-03T11:27:02.999Z</time></trkpt><trkpt lat="42.487614131379196" lon="14.138508013816374"><ele>124.66666666666666</ele><time>2026-05-03T11:27:03.999Z</time></trkpt><trkpt lat="42.48763758663757" lon="14.138701366529062"><ele>125.0</ele><time>2026-05-03T11:27:04.999Z</time></trkpt><trkpt lat="42.48770033204318" lon="14.138890312579388"><ele>125.33333333333333</ele><time>2026-05-03T11:27:05.999Z</time></trkpt><trkpt lat="42.48779960638233" lon="14.139074079882365"><ele>125.66666666666666</ele><time>2026-05-03T11:27:06.999Z</time></trkpt><trkpt lat="42.48792312650476" lon="14.139220260891852"><ele>126.0</ele><time>2026-05-03T11:27:07.999Z</time></trkpt><trkpt lat="42.48806409752776" lon="14.139324260197283"><ele>128.66666666666666</ele><time>2026-05-03T11:27:08.999Z</time></trkpt><trkpt lat="42.48821604245401" lon="14.13937769135891"><ele>131.33333333333331</ele><time>2026-05-03T11:27:09.999Z</time></trkpt><trkpt lat="42.48837773306632" lon="14.139396295653677"><ele>134.0</ele><time>2026-05-03T11:27:10.999Z</time></trkpt><trkpt lat="42.48856063712701" lon="14.139384492800087"><ele>134.0</ele><time>2026-05-03T11:27:11.999Z</time></trkpt><trkpt lat="42.48872447303432" lon="14.13937835109505"><ele>134.0</ele><time>2026-05-03T11:27:12.999Z</time></trkpt><trkpt lat="42.48885757234439" lon="14.139392805432877"><ele>134.0</ele><time>2026-05-03T11:27:13.999Z</time></trkpt><trkpt lat="42.488965182848645" lon="14.139428461204906"><ele>134.0</ele><time>2026-05-03T11:27:14.999Z</time></trkpt><trkpt lat="42.48905139159609" lon="14.139471258721068"><ele>134.5</ele><time>2026-05-03T11:27:15.999Z</time></trkpt><trkpt lat="42.48911844946676" lon="14.139535981324777"><ele>135.0</ele><time>2026-05-03T11:27:16.999Z</time></trkpt><trkpt lat="42.489179085537835" lon="14.139609173481784"><ele>135.5</ele><time>2026-05-03T11:27:17.999Z</time></trkpt><trkpt lat="42.48924734050936" lon="14.139648143968003"><ele>136.0</ele><time>2026-05-03T11:27:18.999Z</time></trkpt><trkpt lat="42.48932508420784" lon="14.1396479012382"><ele>136.5</ele><time>2026-05-03T11:27:19.999Z</time></trkpt><trkpt lat="42.489392044960105" lon="14.139591142421384"><ele>137.0</ele><time>2026-05-03T11:27:20.999Z</time></trkpt><trkpt lat="42.4894556295992" lon="14.139498053396661"><ele>137.0</ele><time>2026-05-03T11:27:21.999Z</time></trkpt><trkpt lat="42.48955184150684" lon="14.139442864750091"><ele>137.0</ele><time>2026-05-03T11:27:22.999Z</time></trkpt><trkpt lat="42.489680220407365" lon="14.13943629928167"><ele>137.0</ele><time>2026-05-03T11:27:23.999Z</time></trkpt><trkpt lat="42.48982882514175" lon="14.139439394485297"><ele>137.0</ele><time>2026-05-03T11:27:24.999Z</time></trkpt><trkpt lat="42.4899821019186" lon="14.139454736047112"><ele>138.33333333333331</ele><time>2026-05-03T11:27:25.999Z</time></trkpt><trkpt lat="42.49015240835456" lon="14.139475177445409"><ele>139.66666666666666</ele><time>2026-05-03T11:27:26.999Z</time></trkpt><trkpt lat="42.49032000795329" lon="14.13948465363243"><ele>141.0</ele><time>2026-05-03T11:27:27.999Z</time></trkpt><trkpt lat="42.490486446002784" lon="14.139503177886366"><ele>143.5</ele><time>2026-05-03T11:27:28.999Z</time></trkpt><trkpt lat="42.4906300274119" lon="14.139517376202408"><ele>146.0</ele><time>2026-05-03T11:27:29.999Z</time></trkpt><trkpt lat="42.49074001215476" lon="14.139532014843413"><ele>148.5</ele><time>2026-05-03T11:27:30.999Z</time></trkpt><trkpt lat="42.49081568681612" lon="14.139560528910291"><ele>151.0</ele><time>2026-05-03T11:27:31.999Z</time></trkpt><trkpt lat="42.49087951388815" lon="14.139693415081998"><ele>151.0</ele><time>2026-05-03T11:27:33.999Z</time></trkpt><trkpt lat="42.49088429150476" lon="14.139795597214226"><ele>151.0</ele><time>2026-05-03T11:27:34.999Z</time></trkpt><trkpt lat="42.490878018848214" lon="14.13992987868927"><ele>151.0</ele><time>2026-05-03T11:27:35.999Z</time></trkpt><trkpt lat="42.49086663121745" lon="14.140110424179435"><ele>151.0</ele><time>2026-05-03T11:27:36.999Z</time></trkpt><trkpt lat="42.490860345907805" lon="14.140336318089163"><ele>152.0</ele><time>2026-05-03T11:27:37.999Z</time></trkpt><trkpt lat="42.49086230956375" lon="14.14057071540873"><ele>153.0</ele><time>2026-05-03T11:27:38.999Z</time></trkpt><trkpt lat="42.49086564306382" lon="14.140742197853685"><ele>154.0</ele><time>2026-05-03T11:27:39.999Z</time></trkpt><trkpt lat="42.49088874072151" lon="14.140851326357936"><ele>155.0</ele><time>2026-05-03T11:27:40.999Z</time></trkpt><trkpt lat="42.490974992279874" lon="14.140925829233039"><ele>155.0</ele><time>2026-05-03T11:27:42.999Z</time></trkpt><trkpt lat="42.491045338422644" lon="14.140915281820144"><ele>155.0</ele><time>2026-05-03T11:27:43.999Z</time></trkpt><trkpt lat="42.49111474431935" lon="14.140858218343032"><ele>155.0</ele><time>2026-05-03T11:27:44.999Z</time></trkpt><trkpt lat="42.49116600643463" lon="14.140763446339397"><ele>155.0</ele><time>2026-05-03T11:27:45.999Z</time></trkpt><trkpt lat="42.49122710808002" lon="14.140662084344383"><ele>155.0</ele><time>2026-05-03T11:27:46.999Z</time></trkpt><trkpt lat="42.49129466836219" lon="14.140549714186275"><ele>155.0</ele><time>2026-05-03T11:27:47.999Z</time></trkpt><trkpt lat="42.49136043825838" lon="14.140448230360816"><ele>156.0</ele><time>2026-05-03T11:27:48.999Z</time></trkpt><trkpt lat="42.491411687200916" lon="14.140369156022329"><ele>157.0</ele><time>2026-05-03T11:27:49.999Z</time></trkpt><trkpt lat="42.49148104346628" lon="14.140320993832463"><ele>158.0</ele><time>2026-05-03T11:27:51.999Z</time></trkpt><trkpt lat="42.49153883218665" lon="14.140370022473608"><ele>159.0</ele><time>2026-05-03T11:27:52.999Z</time></trkpt><trkpt lat="42.4915882182863" lon="14.14046965881252"><ele>160.0</ele><time>2026-05-03T11:27:53.999Z</time></trkpt><trkpt lat="42.491625107701985" lon="14.140616382299138"><ele>161.0</ele><time>2026-05-03T11:27:54.999Z</time></trkpt><trkpt lat="42.49165976176928" lon="14.140788484499446"><ele>161.0</ele><time>2026-05-03T11:27:55.999Z</time></trkpt><trkpt lat="42.491703728422166" lon="14.14096474872686"><ele>161.0</ele><time>2026-05-03T11:27:56.999Z</time></trkpt><trkpt lat="42.491743205281765" lon="14.141153122130108"><ele>161.0</ele><time>2026-05-03T11:27:57.999Z</time></trkpt><trkpt lat="42.49176896053654" lon="14.141325939203774"><ele>161.0</ele><time>2026-05-03T11:27:58.999Z</time></trkpt><trkpt lat="42.49177725890729" lon="14.141486923352995"><ele>161.0</ele><time>2026-05-03T11:27:59.999Z</time></trkpt><trkpt lat="42.49175554133223" lon="14.14164708659259"><ele>161.0</ele><time>2026-05-03T11:28:00.999Z</time></trkpt><trkpt lat="42.49170309130673" lon="14.141807833341867"><ele>161.0</ele><time>2026-05-03T11:28:01.999Z</time></trkpt><trkpt lat="42.49163296363809" lon="14.14196446616715"><ele>161.0</ele><time>2026-05-03T11:28:02.999Z</time></trkpt><trkpt lat="42.491586319387594" lon="14.142116235695788"><ele>161.0</ele><time>2026-05-03T11:28:03.999Z</time></trkpt><trkpt lat="42.49156728968544" lon="14.142274507478726"><ele>161.0</ele><time>2026-05-03T11:28:04.999Z</time></trkpt><trkpt lat="42.4915835196733" lon="14.142405959720799"><ele>161.0</ele><time>2026-05-03T11:28:05.999Z</time></trkpt><trkpt lat="42.491666945703074" lon="14.142496194567325"><ele>161.0</ele><time>2026-05-03T11:28:06.999Z</time></trkpt><trkpt lat="42.49172252441289" lon="14.142623829019689"><ele>161.0</ele><time>2026-05-03T11:28:07.999Z</time></trkpt><trkpt lat="42.49179296330431" lon="14.142737521061303"><ele>160.20000000000002</ele><time>2026-05-03T11:28:08.999Z</time></trkpt><trkpt lat="42.49181256232599" lon="14.142861043766302"><ele>159.4</ele><time>2026-05-03T11:28:09.999Z</time></trkpt><trkpt lat="42.491797759829815" lon="14.14298511480178"><ele>158.6</ele><time>2026-05-03T11:28:10.999Z</time></trkpt><trkpt lat="42.49175040794697" lon="14.1430784318696"><ele>157.8</ele><time>2026-05-03T11:28:11.999Z</time></trkpt><trkpt lat="42.491660828580564" lon="14.143176500271982"><ele>157.0</ele><time>2026-05-03T11:28:12.999Z</time></trkpt><trkpt lat="42.4915769506821" lon="14.143264944972069"><ele>156.0</ele><time>2026-05-03T11:28:13.999Z</time></trkpt><trkpt lat="42.49150487488763" lon="14.14335559166486"><ele>155.0</ele><time>2026-05-03T11:28:14.999Z</time></trkpt><trkpt lat="42.491513925195775" lon="14.143523572226902"><ele>154.0</ele><time>2026-05-03T11:28:15.999Z</time></trkpt><trkpt lat="42.49154220643173" lon="14.14366776612706"><ele>153.0</ele><time>2026-05-03T11:28:16.999Z</time></trkpt><trkpt lat="42.491615480698805" lon="14.14381144959801"><ele>153.0</ele><time>2026-05-03T11:28:17.999Z</time></trkpt><trkpt lat="42.49170322498534" lon="14.143953336163332"><ele>153.0</ele><time>2026-05-03T11:28:18.999Z</time></trkpt><trkpt lat="42.4918051328903" lon="14.144085376671617"><ele>153.0</ele><time>2026-05-03T11:28:19.999Z</time></trkpt><trkpt lat="42.491912896416146" lon="14.14419203775864"><ele>153.0</ele><time>2026-05-03T11:28:20.999Z</time></trkpt><trkpt lat="42.49206647365113" lon="14.14427151020746"><ele>146.0</ele><time>2026-05-03T11:28:21.999Z</time></trkpt><trkpt lat="42.49225325743843" lon="14.144325507688372"><ele>139.0</ele><time>2026-05-03T11:28:22.999Z</time></trkpt><trkpt lat="42.49242155647926" lon="14.144418800573973"><ele>132.0</ele><time>2026-05-03T11:28:23.999Z</time></trkpt><trkpt lat="42.49257146889194" lon="14.144500580804554"><ele>132.0</ele><time>2026-05-03T11:28:24.999Z</time></trkpt><trkpt lat="42.4927102175436" lon="14.14455363516654"><ele>132.0</ele><time>2026-05-03T11:28:25.999Z</time></trkpt><trkpt lat="42.49282690742188" lon="14.14462477223661"><ele>132.0</ele><time>2026-05-03T11:28:26.999Z</time></trkpt><trkpt lat="42.49292802751581" lon="14.144700125238206"><ele>132.0</ele><time>2026-05-03T11:28:27.999Z</time></trkpt><trkpt lat="42.493001081991736" lon="14.144825088384993"><ele>133.25</ele><time>2026-05-03T11:28:28.999Z</time></trkpt><trkpt lat="42.49307119025663" lon="14.14496039707098"><ele>134.5</ele><time>2026-05-03T11:28:29.999Z</time></trkpt><trkpt lat="42.493160655088886" lon="14.145093727751346"><ele>135.75</ele><time>2026-05-03T11:28:30.999Z</time></trkpt><trkpt lat="42.493268963940466" lon="14.145206463134496"><ele>137.0</ele><time>2026-05-03T11:28:31.999Z</time></trkpt><trkpt lat="42.493383117464944" lon="14.145280613192465"><ele>137.0</ele><time>2026-05-03T11:28:32.999Z</time></trkpt><trkpt lat="42.493483857773356" lon="14.145320146053683"><ele>137.0</ele><time>2026-05-03T11:28:33.999Z</time></trkpt><trkpt lat="42.49357810066179" lon="14.14532008777656"><ele>137.0</ele><time>2026-05-03T11:28:34.999Z</time></trkpt><trkpt lat="42.49366599792828" lon="14.145272013765112"><ele>137.0</ele><time>2026-05-03T11:28:35.999Z</time></trkpt><trkpt lat="42.493765470616346" lon="14.145192307713758"><ele>137.0</ele><time>2026-05-03T11:28:36.999Z</time></trkpt><trkpt lat="42.493842608792896" lon="14.145054877064144"><ele>135.5</ele><time>2026-05-03T11:28:37.999Z</time></trkpt><trkpt lat="42.49389735572429" lon="14.144912919310633"><ele>134.0</ele><time>2026-05-03T11:28:38.999Z</time></trkpt><trkpt lat="42.49393793707761" lon="14.144724212798689"><ele>132.5</ele><time>2026-05-03T11:28:39.999Z</time></trkpt><trkpt lat="42.49399091222201" lon="14.144549145801061"><ele>131.0</ele><time>2026-05-03T11:28:40.999Z</time></trkpt><trkpt lat="42.49402417487544" lon="14.144384068895592"><ele>127.75</ele><time>2026-05-03T11:28:41.999Z</time></trkpt><trkpt lat="42.494073590653905" lon="14.144241910280693"><ele>124.5</ele><time>2026-05-03T11:28:42.999Z</time></trkpt><trkpt lat="42.49413203309528" lon="14.144129514114121"><ele>121.25</ele><time>2026-05-03T11:28:43.999Z</time></trkpt><trkpt lat="42.49421438072623" lon="14.14403783782347"><ele>118.0</ele><time>2026-05-03T11:28:44.999Z</time></trkpt><trkpt lat="42.49432276213316" lon="14.143945836787811"><ele>114.5</ele><time>2026-05-03T11:28:45.999Z</time></trkpt><trkpt lat="42.49444364790604" lon="14.143889531865165"><ele>111.0</ele><time>2026-05-03T11:28:46.999Z</time></trkpt><trkpt lat="42.49456126161573" lon="14.14383974298325"><ele>107.5</ele><time>2026-05-03T11:28:47.999Z</time></trkpt><trkpt lat="42.49470371522212" lon="14.143839193084931"><ele>104.0</ele><time>2026-05-03T11:28:48.999Z</time></trkpt><trkpt lat="42.494871216732044" lon="14.143859501850919"><ele>104.0</ele><time>2026-05-03T11:28:49.999Z</time></trkpt><trkpt lat="42.49504145241626" lon="14.143842587632593"><ele>104.0</ele><time>2026-05-03T11:28:50.999Z</time></trkpt><trkpt lat="42.495202383154854" lon="14.143792083121996"><ele>104.0</ele><time>2026-05-03T11:28:51.999Z</time></trkpt><trkpt lat="42.49535111649069" lon="14.143739827707885"><ele>106.33333333333333</ele><time>2026-05-03T11:28:52.999Z</time></trkpt><trkpt lat="42.49548854860558" lon="14.143694251486385"><ele>108.66666666666666</ele><time>2026-05-03T11:28:53.999Z</time></trkpt><trkpt lat="42.49562460257891" lon="14.143620815060626"><ele>111.0</ele><time>2026-05-03T11:28:54.999Z</time></trkpt><trkpt lat="42.49576901572129" lon="14.143509639189016"><ele>111.0</ele><time>2026-05-03T11:28:55.999Z</time></trkpt><trkpt lat="42.495939618092876" lon="14.143349664365276"><ele>111.0</ele><time>2026-05-03T11:28:56.999Z</time></trkpt><trkpt lat="42.496121429528834" lon="14.143184325897527"><ele>111.0</ele><time>2026-05-03T11:28:57.999Z</time></trkpt><trkpt lat="42.49631762514558" lon="14.143013160238747"><ele>107.33333333333334</ele><time>2026-05-03T11:28:58.999Z</time></trkpt><trkpt lat="42.496505363991396" lon="14.142852129726155"><ele>103.66666666666667</ele><time>2026-05-03T11:28:59.999Z</time></trkpt><trkpt lat="42.49668166003887" lon="14.142701591553124"><ele>100.0</ele><time>2026-05-03T11:29:00.999Z</time></trkpt><trkpt lat="42.496854009403506" lon="14.142580299072534"><ele>100.0</ele><time>2026-05-03T11:29:01.999Z</time></trkpt><trkpt lat="42.4970096477176" lon="14.1424299365317"><ele>100.0</ele><time>2026-05-03T11:29:02.999Z</time></trkpt><trkpt lat="42.4971421309784" lon="14.142275851522353"><ele>100.0</ele><time>2026-05-03T11:29:03.999Z</time></trkpt><trkpt lat="42.4972539726908" lon="14.142143562323673"><ele>97.0</ele><time>2026-05-03T11:29:04.999Z</time></trkpt><trkpt lat="42.497349388232166" lon="14.142038263341469"><ele>94.0</ele><time>2026-05-03T11:29:05.999Z</time></trkpt><trkpt lat="42.497415428196554" lon="14.141932754195821"><ele>91.0</ele><time>2026-05-03T11:29:06.999Z</time></trkpt><trkpt lat="42.49747753127307" lon="14.141907901093877"><ele>88.0</ele><time>2026-05-03T11:29:07.999Z</time></trkpt><trkpt lat="42.497575658182626" lon="14.141987172662523"><ele>85.0</ele><time>2026-05-03T11:29:09.999Z</time></trkpt><trkpt lat="42.49759100695259" lon="14.142197629169083"><ele>85.0</ele><time>2026-05-03T11:29:11.999Z</time></trkpt><trkpt lat="42.49754868167686" lon="14.142335656934803"><ele>85.0</ele><time>2026-05-03T11:29:12.999Z</time></trkpt><trkpt lat="42.49746282066375" lon="14.142506114312614"><ele>85.0</ele><time>2026-05-03T11:29:13.999Z</time></trkpt><trkpt lat="42.49733099532914" lon="14.142714774670194"><ele>85.5</ele><time>2026-05-03T11:29:14.999Z</time></trkpt><trkpt lat="42.49716576162409" lon="14.142980874400761"><ele>86.0</ele><time>2026-05-03T11:29:15.999Z</time></trkpt><trkpt lat="42.49701582601295" lon="14.143253446000289"><ele>89.33333333333334</ele><time>2026-05-03T11:29:16.999Z</time></trkpt><trkpt lat="42.49688827062726" lon="14.143476233615013"><ele>92.66666666666667</ele><time>2026-05-03T11:29:17.999Z</time></trkpt><trkpt lat="42.49677317696904" lon="14.143656187860957"><ele>96.0</ele><time>2026-05-03T11:29:18.999Z</time></trkpt><trkpt lat="42.496660552980785" lon="14.143814873846633"><ele>96.0</ele><time>2026-05-03T11:29:19.999Z</time></trkpt><trkpt lat="42.49656200648031" lon="14.143955691636592"><ele>96.0</ele><time>2026-05-03T11:29:20.999Z</time></trkpt><trkpt lat="42.49648430631307" lon="14.144074530919285"><ele>96.0</ele><time>2026-05-03T11:29:21.999Z</time></trkpt><trkpt lat="42.49641934799058" lon="14.14421107171956"><ele>96.0</ele><time>2026-05-03T11:29:22.999Z</time></trkpt><trkpt lat="42.49637816945144" lon="14.144375819640535"><ele>92.5</ele><time>2026-05-03T11:29:23.999Z</time></trkpt><trkpt lat="42.496366583069765" lon="14.144557886536345"><ele>89.0</ele><time>2026-05-03T11:29:24.999Z</time></trkpt><trkpt lat="42.4963853900409" lon="14.14474784287111"><ele>85.5</ele><time>2026-05-03T11:29:25.999Z</time></trkpt><trkpt lat="42.49639928602029" lon="14.144919830887407"><ele>82.0</ele><time>2026-05-03T11:29:26.999Z</time></trkpt><trkpt lat="42.496385524658926" lon="14.145074136199634"><ele>84.5</ele><time>2026-05-03T11:29:27.999Z</time></trkpt><trkpt lat="42.496331041875685" lon="14.145207139750115"><ele>87.0</ele><time>2026-05-03T11:29:28.999Z</time></trkpt><trkpt lat="42.496248708111786" lon="14.145349905983242"><ele>89.5</ele><time>2026-05-03T11:29:29.999Z</time></trkpt><trkpt lat="42.496171447429" lon="14.145488382946183"><ele>92.0</ele><time>2026-05-03T11:29:30.999Z</time></trkpt><trkpt lat="42.49612896568703" lon="14.145629011380747"><ele>90.0</ele><time>2026-05-03T11:29:31.999Z</time></trkpt><trkpt lat="42.49613464094493" lon="14.145765275568529"><ele>88.0</ele><time>2026-05-03T11:29:32.999Z</time></trkpt><trkpt lat="42.49617955035509" lon="14.145887728582018"><ele>86.0</ele><time>2026-05-03T11:29:33.999Z</time></trkpt><trkpt lat="42.496256214078244" lon="14.145980057140505"><ele>84.0</ele><time>2026-05-03T11:29:34.999Z</time></trkpt><trkpt lat="42.49636006681191" lon="14.146035064724222"><ele>82.0</ele><time>2026-05-03T11:29:35.999Z</time></trkpt><trkpt lat="42.49647711529064" lon="14.146040969585458"><ele>79.5</ele><time>2026-05-03T11:29:36.999Z</time></trkpt><trkpt lat="42.496587058653205" lon="14.145986526741027"><ele>77.0</ele><time>2026-05-03T11:29:37.999Z</time></trkpt><trkpt lat="42.496668912441876" lon="14.145881426002196"><ele>74.5</ele><time>2026-05-03T11:29:38.999Z</time></trkpt><trkpt lat="42.49671591365711" lon="14.145731405714491"><ele>72.0</ele><time>2026-05-03T11:29:39.999Z</time></trkpt><trkpt lat="42.49672804390128" lon="14.145531029894622"><ele>71.5</ele><time>2026-05-03T11:29:40.999Z</time></trkpt><trkpt lat="42.49673196809659" lon="14.145309495130768"><ele>71.0</ele><time>2026-05-03T11:29:41.999Z</time></trkpt><trkpt lat="42.496770197070035" lon="14.145135028111183"><ele>70.5</ele><time>2026-05-03T11:29:42.999Z</time></trkpt><trkpt lat="42.49683429558171" lon="14.144970951814955"><ele>70.0</ele><time>2026-05-03T11:29:43.999Z</time></trkpt><trkpt lat="42.49692328556966" lon="14.144815853205106"><ele>67.5</ele><time>2026-05-03T11:29:44.999Z</time></trkpt><trkpt lat="42.49702823835823" lon="14.144678829927637"><ele>65.0</ele><time>2026-05-03T11:29:45.999Z</time></trkpt><trkpt lat="42.4971470345827" lon="14.144583103996126"><ele>62.5</ele><time>2026-05-03T11:29:46.999Z</time></trkpt><trkpt lat="42.4972717046727" lon="14.144507085372407"><ele>60.0</ele><time>2026-05-03T11:29:47.999Z</time></trkpt><trkpt lat="42.497405098281554" lon="14.144411478043722"><ele>60.0</ele><time>2026-05-03T11:29:48.999Z</time></trkpt><trkpt lat="42.49754738071505" lon="14.144317924961687"><ele>60.0</ele><time>2026-05-03T11:29:49.999Z</time></trkpt><trkpt lat="42.497653201280244" lon="14.144169405988078"><ele>60.0</ele><time>2026-05-03T11:29:50.999Z</time></trkpt><trkpt lat="42.49776682554035" lon="14.14400322201684"><ele>57.0</ele><time>2026-05-03T11:29:51.999Z</time></trkpt><trkpt lat="42.497909306493284" lon="14.143784378736832"><ele>54.0</ele><time>2026-05-03T11:29:52.999Z</time></trkpt><trkpt lat="42.49805682101631" lon="14.143603848793038"><ele>51.0</ele><time>2026-05-03T11:29:53.999Z</time></trkpt><trkpt lat="42.49816851376742" lon="14.143433024685484"><ele>51.0</ele><time>2026-05-03T11:29:54.999Z</time></trkpt><trkpt lat="42.49826861619013" lon="14.143269783064493"><ele>51.0</ele><time>2026-05-03T11:29:55.999Z</time></trkpt><trkpt lat="42.49835424356587" lon="14.14312524469302"><ele>51.0</ele><time>2026-05-03T11:29:56.999Z</time></trkpt><trkpt lat="42.49842379357647" lon="14.143003771773499"><ele>51.0</ele><time>2026-05-03T11:29:57.999Z</time></trkpt><trkpt lat="42.498478788320035" lon="14.142908393439477"><ele>48.599999999999994</ele><time>2026-05-03T11:29:58.999Z</time></trkpt><trkpt lat="42.49852100670051" lon="14.142838594670046"><ele>46.199999999999996</ele><time>2026-05-03T11:29:59.999Z</time></trkpt><trkpt lat="42.498587048380045" lon="14.142714432524777"><ele>43.8</ele><time>2026-05-03T11:30:01.999Z</time></trkpt><trkpt lat="42.498646916783386" lon="14.14267654526306"><ele>41.4</ele><time>2026-05-03T11:30:03.999Z</time></trkpt><trkpt lat="42.498753930379415" lon="14.142630378471084"><ele>39.0</ele><time>2026-05-03T11:30:09.999Z</time></trkpt><trkpt lat="42.4987665983726" lon="14.142401043063638"><ele>40.333333333333336</ele><time>2026-05-03T11:30:10.999Z</time></trkpt><trkpt lat="42.49881013784347" lon="14.142229228646286"><ele>41.66666666666667</ele><time>2026-05-03T11:30:11.999Z</time></trkpt><trkpt lat="42.49888310267375" lon="14.142041318119706"><ele>43.0</ele><time>2026-05-03T11:30:12.999Z</time></trkpt><trkpt lat="42.49896669572248" lon="14.141847982316328"><ele>43.0</ele><time>2026-05-03T11:30:13.999Z</time></trkpt><trkpt lat="42.4990552960109" lon="14.141667596640183"><ele>43.0</ele><time>2026-05-03T11:30:14.999Z</time></trkpt><trkpt lat="42.49916111229896" lon="14.141520478430575"><ele>43.0</ele><time>2026-05-03T11:30:15.999Z</time></trkpt><trkpt lat="42.499261174846744" lon="14.141380183498061"><ele>45.25</ele><time>2026-05-03T11:30:16.999Z</time></trkpt><trkpt lat="42.499361660262" lon="14.141249315352699"><ele>47.5</ele><time>2026-05-03T11:30:17.999Z</time></trkpt><trkpt lat="42.49945021480156" lon="14.141119439028444"><ele>49.75</ele><time>2026-05-03T11:30:18.999Z</time></trkpt><trkpt lat="42.49955538309544" lon="14.141040769759481"><ele>52.0</ele><time>2026-05-03T11:30:19.999Z</time></trkpt><trkpt lat="42.49963428890876" lon="14.140936390913046"><ele>49.4</ele><time>2026-05-03T11:30:20.999Z</time></trkpt><trkpt lat="42.49972569595069" lon="14.140851068798705"><ele>46.800000000000004</ele><time>2026-05-03T11:30:21.999Z</time></trkpt><trkpt lat="42.4998072887491" lon="14.140769629167835"><ele>44.2</ele><time>2026-05-03T11:30:22.999Z</time></trkpt><trkpt lat="42.4998754408915" lon="14.140689575452742"><ele>41.6</ele><time>2026-05-03T11:30:23.999Z</time></trkpt><trkpt lat="42.499929925645915" lon="14.140597830489456"><ele>39.0</ele><time>2026-05-03T11:30:24.999Z</time></trkpt><trkpt lat="42.499987641697466" lon="14.140511041694593"><ele>39.0</ele><time>2026-05-03T11:30:25.999Z</time></trkpt><trkpt lat="42.500050497627115" lon="14.140421623506457"><ele>39.0</ele><time>2026-05-03T11:30:26.999Z</time></trkpt><trkpt lat="42.50011356023848" lon="14.140324186394038"><ele>39.0</ele><time>2026-05-03T11:30:27.999Z</time></trkpt><trkpt lat="42.50157445539264" lon="14.139011292598347"><ele>32.666666666666664</ele><time>2026-05-03T11:30:54.999Z</time></trkpt><trkpt lat="42.50167998100499" lon="14.139122273882887"><ele>26.333333333333336</ele><time>2026-05-03T11:30:55.999Z</time></trkpt><trkpt lat="42.50181217067004" lon="14.139212546966926"><ele>20.0</ele><time>2026-05-03T11:30:56.999Z</time></trkpt><trkpt lat="42.501972967051145" lon="14.13929055116773"><ele>18.666666666666668</ele><time>2026-05-03T11:30:57.999Z</time></trkpt><trkpt lat="42.502162582181526" lon="14.139371040953213"><ele>17.333333333333332</ele><time>2026-05-03T11:30:58.999Z</time></trkpt><trkpt lat="42.50232754713582" lon="14.13944476533287"><ele>16.0</ele><time>2026-05-03T11:30:59.999Z</time></trkpt><trkpt lat="42.50247664485681" lon="14.139524424999362"><ele>16.0</ele><time>2026-05-03T11:31:00.999Z</time></trkpt><trkpt lat="42.50262346277777" lon="14.139611223067998"><ele>16.0</ele><time>2026-05-03T11:31:01.999Z</time></trkpt><trkpt lat="42.50273526806868" lon="14.139693896804125"><ele>16.0</ele><time>2026-05-03T11:31:02.999Z</time></trkpt><trkpt lat="42.502822090117" lon="14.139777262767781"><ele>16.0</ele><time>2026-05-03T11:31:03.999Z</time></trkpt><trkpt lat="42.502881736760564" lon="14.13983711906656"><ele>15.75</ele><time>2026-05-03T11:31:04.999Z</time></trkpt><trkpt lat="42.50294926392931" lon="14.139895451796969"><ele>15.5</ele><time>2026-05-03T11:31:06.999Z</time></trkpt><trkpt lat="42.5030013041816" lon="14.139731561053711"><ele>15.25</ele><time>2026-05-03T11:31:12.999Z</time></trkpt><trkpt lat="42.503066731099935" lon="14.139620237662438"><ele>15.0</ele><time>2026-05-03T11:31:13.999Z</time></trkpt><trkpt lat="42.50316329154025" lon="14.139463429511835"><ele>14.0</ele><time>2026-05-03T11:31:14.999Z</time></trkpt><trkpt lat="42.50331306997978" lon="14.139223723078743"><ele>13.0</ele><time>2026-05-03T11:31:15.999Z</time></trkpt><trkpt lat="42.503495228978586" lon="14.138932942808754"><ele>13.0</ele><time>2026-05-03T11:31:16.999Z</time></trkpt><trkpt lat="42.50366449386802" lon="14.13867049408886"><ele>13.0</ele><time>2026-05-03T11:31:17.999Z</time></trkpt><trkpt lat="42.503846794276235" lon="14.138398989320953"><ele>13.333333333333332</ele><time>2026-05-03T11:31:18.999Z</time></trkpt><trkpt lat="42.50396328612193" lon="14.138155762315655"><ele>13.666666666666668</ele><time>2026-05-03T11:31:19.999Z</time></trkpt><trkpt lat="42.5040840082592" lon="14.138007435068923"><ele>14.0</ele><time>2026-05-03T11:31:20.999Z</time></trkpt><trkpt lat="42.504217604564126" lon="14.137836841260755"><ele>14.0</ele><time>2026-05-03T11:31:21.999Z</time></trkpt><trkpt lat="42.504324742865606" lon="14.137685636988062"><ele>14.0</ele><time>2026-05-03T11:31:22.999Z</time></trkpt><trkpt lat="42.50442412400299" lon="14.13754330280458"><ele>14.0</ele><time>2026-05-03T11:31:23.999Z</time></trkpt><trkpt lat="42.504511251615135" lon="14.137411866112771"><ele>14.0</ele><time>2026-05-03T11:31:24.999Z</time></trkpt><trkpt lat="42.504591153540005" lon="14.137301915178051"><ele>13.799999999999999</ele><time>2026-05-03T11:31:25.999Z</time></trkpt><trkpt lat="42.50468565995306" lon="14.137223624692792"><ele>13.599999999999998</ele><time>2026-05-03T11:31:26.999Z</time></trkpt><trkpt lat="42.50479744541702" lon="14.137250520340048"><ele>13.4</ele><time>2026-05-03T11:31:30.999Z</time></trkpt><trkpt lat="42.50488088784606" lon="14.137340632387016"><ele>13.2</ele><time>2026-05-03T11:31:31.999Z</time></trkpt><trkpt lat="42.50496193427064" lon="14.137441254762058"><ele>13.0</ele><time>2026-05-03T11:31:32.999Z</time></trkpt><trkpt lat="42.50508229328011" lon="14.137581918988948"><ele>13.0</ele><time>2026-05-03T11:31:33.999Z</time></trkpt><trkpt lat="42.505225807856185" lon="14.137729232425425"><ele>13.0</ele><time>2026-05-03T11:31:34.999Z</time></trkpt><trkpt lat="42.505369076808094" lon="14.137884208272268"><ele>13.0</ele><time>2026-05-03T11:31:35.999Z</time></trkpt><trkpt lat="42.50551737593415" lon="14.138023532962345"><ele>12.666666666666666</ele><time>2026-05-03T11:31:36.999Z</time></trkpt><trkpt lat="42.50565550887944" lon="14.138173246340424"><ele>12.333333333333332</ele><time>2026-05-03T11:31:37.999Z</time></trkpt><trkpt lat="42.505781230492644" lon="14.138311195146096"><ele>12.0</ele><time>2026-05-03T11:31:38.999Z</time></trkpt><trkpt lat="42.505903019036474" lon="14.138449564713328"><ele>11.75</ele><time>2026-05-03T11:31:39.999Z</time></trkpt><trkpt lat="42.50601759182744" lon="14.138580638536506"><ele>11.5</ele><time>2026-05-03T11:31:40.999Z</time></trkpt><trkpt lat="42.50613642134361" lon="14.138710695630625"><ele>11.25</ele><time>2026-05-03T11:31:41.999Z</time></trkpt><trkpt lat="42.50624908969288" lon="14.138838114939361"><ele>11.0</ele><time>2026-05-03T11:31:42.999Z</time></trkpt><trkpt lat="42.50636015923955" lon="14.138961656512437"><ele>10.5</ele><time>2026-05-03T11:31:43.999Z</time></trkpt><trkpt lat="42.506468508970336" lon="14.139072842144826"><ele>10.0</ele><time>2026-05-03T11:31:44.999Z</time></trkpt><trkpt lat="42.50656793160378" lon="14.139174590268766"><ele>9.5</ele><time>2026-05-03T11:31:45.999Z</time></trkpt><trkpt lat="42.506659852339126" lon="14.139272771175055"><ele>9.0</ele><time>2026-05-03T11:31:46.999Z</time></trkpt><trkpt lat="42.50674989380209" lon="14.139365337605561"><ele>9.0</ele><time>2026-05-03T11:31:47.999Z</time></trkpt><trkpt lat="42.50683421315898" lon="14.139453083431079"><ele>9.0</ele><time>2026-05-03T11:31:48.999Z</time></trkpt><trkpt lat="42.50691556622482" lon="14.139545570532244"><ele>9.0</ele><time>2026-05-03T11:31:49.999Z</time></trkpt><trkpt lat="42.50699645634183" lon="14.13962184014795"><ele>9.0</ele><time>2026-05-03T11:31:50.999Z</time></trkpt><trkpt lat="42.507054644172484" lon="14.139706155760223"><ele>9.0</ele><time>2026-05-03T11:31:51.999Z</time></trkpt><trkpt lat="42.507144773223544" lon="14.139796284923627"><ele>9.0</ele><time>2026-05-03T11:31:52.999Z</time></trkpt><trkpt lat="42.50723248716087" lon="14.139907751894487"><ele>9.0</ele><time>2026-05-03T11:31:53.999Z</time></trkpt><trkpt lat="42.50733994470532" lon="14.14002202510211"><ele>9.0</ele><time>2026-05-03T11:31:54.999Z</time></trkpt><trkpt lat="42.50745301030382" lon="14.140143246068408"><ele>9.0</ele><time>2026-05-03T11:31:55.999Z</time></trkpt><trkpt lat="42.50757672322096" lon="14.140269352200233"><ele>9.0</ele><time>2026-05-03T11:31:56.999Z</time></trkpt><trkpt lat="42.50770420018859" lon="14.140421178836151"><ele>9.0</ele><time>2026-05-03T11:31:57.999Z</time></trkpt><trkpt lat="42.507837230617426" lon="14.140567425856826"><ele>9.0</ele><time>2026-05-03T11:31:58.999Z</time></trkpt><trkpt lat="42.50797342321488" lon="14.140716018206662"><ele>9.25</ele><time>2026-05-03T11:31:59.999Z</time></trkpt><trkpt lat="42.50809729711457" lon="14.14084592118007"><ele>9.5</ele><time>2026-05-03T11:32:00.999Z</time></trkpt><trkpt lat="42.508209016061365" lon="14.140963445481693"><ele>9.75</ele><time>2026-05-03T11:32:01.999Z</time></trkpt><trkpt lat="42.50831225633676" lon="14.141072172221163"><ele>10.0</ele><time>2026-05-03T11:32:02.999Z</time></trkpt><trkpt lat="42.50842125253561" lon="14.141179904525595"><ele>10.0</ele><time>2026-05-03T11:32:03.999Z</time></trkpt><trkpt lat="42.50854164124529" lon="14.141304890201047"><ele>10.0</ele><time>2026-05-03T11:32:04.999Z</time></trkpt><trkpt lat="42.50866509421953" lon="14.141442195112035"><ele>10.0</ele><time>2026-05-03T11:32:05.999Z</time></trkpt><trkpt lat="42.508808393278514" lon="14.141596665831289"><ele>9.25</ele><time>2026-05-03T11:32:06.999Z</time></trkpt><trkpt lat="42.508931930650945" lon="14.14173719565558"><ele>8.5</ele><time>2026-05-03T11:32:07.999Z</time></trkpt><trkpt lat="42.50902236505986" lon="14.141846264269933"><ele>7.75</ele><time>2026-05-03T11:32:08.999Z</time></trkpt><trkpt lat="42.509097337057426" lon="14.141930241721026"><ele>7.0</ele><time>2026-05-03T11:32:09.999Z</time></trkpt><trkpt lat="42.50915775118877" lon="14.141995078732709"><ele>7.0</ele><time>2026-05-03T11:32:10.999Z</time></trkpt><trkpt lat="42.50921158622389" lon="14.142059422109675"><ele>6.999999999999999</ele><time>2026-05-03T11:32:11.999Z</time></trkpt><trkpt lat="42.50929832291631" lon="14.142156510120538"><ele>6.999999999999999</ele><time>2026-05-03T11:32:13.999Z</time></trkpt><trkpt lat="42.50937153595419" lon="14.142234772319897"><ele>7.0</ele><time>2026-05-03T11:32:15.999Z</time></trkpt><trkpt lat="42.50947935123112" lon="14.142334857689422"><ele>7.0</ele><time>2026-05-03T11:32:17.999Z</time></trkpt><trkpt lat="42.50953661523516" lon="14.142385240092418"><ele>6.833333333333334</ele><time>2026-05-03T11:32:18.999Z</time></trkpt><trkpt lat="42.50960074443854" lon="14.142481463577383"><ele>6.666666666666667</ele><time>2026-05-03T11:32:20.999Z</time></trkpt><trkpt lat="42.509672259484255" lon="14.142534737904281"><ele>6.5</ele><time>2026-05-03T11:32:23.999Z</time></trkpt><trkpt lat="42.50975628297941" lon="14.142653964963474"><ele>6.333333333333334</ele><time>2026-05-03T11:33:51Z</time></trkpt><trkpt lat="42.50980840370805" lon="14.142711768559277"><ele>6.166666666666667</ele><time>2026-05-03T11:33:52Z</time></trkpt><trkpt lat="42.50985960985361" lon="14.14276843485773"><ele>6.0</ele><time>2026-05-03T11:33:53Z</time></trkpt><trkpt lat="42.51001719875804" lon="14.142668478009469"><ele>6.0</ele><time>2026-05-03T11:33:55Z</time></trkpt><trkpt lat="42.51008382155693" lon="14.142601267649981"><ele>6.0</ele><time>2026-05-03T11:33:56Z</time></trkpt><trkpt lat="42.51016492850522" lon="14.142551374894134"><ele>6.0</ele><time>2026-05-03T11:33:57Z</time></trkpt><trkpt lat="42.51026167358937" lon="14.14251461189055"><ele>6.0</ele><time>2026-05-03T11:33:58Z</time></trkpt><trkpt lat="42.51037593487964" lon="14.14247726675029"><ele>6.0</ele><time>2026-05-03T11:33:59Z</time></trkpt><trkpt lat="42.51050439957953" lon="14.142438160820575"><ele>6.0</ele><time>2026-05-03T11:34:00Z</time></trkpt><trkpt lat="42.5106420964612" lon="14.142389719159038"><ele>6.0</ele><time>2026-05-03T11:34:01Z</time></trkpt><trkpt lat="42.510790061781194" lon="14.1423318987284"><ele>6.0</ele><time>2026-05-03T11:34:02Z</time></trkpt><trkpt lat="42.51094624942003" lon="14.142265366668669"><ele>6.333333333333334</ele><time>2026-05-03T11:34:03Z</time></trkpt><trkpt lat="42.51111708066839" lon="14.142191292650425"><ele>6.666666666666667</ele><time>2026-05-03T11:34:04Z</time></trkpt><trkpt lat="42.511304032622355" lon="14.142120002121809"><ele>7.0</ele><time>2026-05-03T11:34:05Z</time></trkpt><trkpt lat="42.5114962245678" lon="14.142044802019123"><ele>6.333333333333334</ele><time>2026-05-03T11:34:06Z</time></trkpt><trkpt lat="42.51167750690443" lon="14.141971660943712"><ele>5.666666666666667</ele><time>2026-05-03T11:34:07Z</time></trkpt><trkpt lat="42.511828395179236" lon="14.141907971493994"><ele>5.0</ele><time>2026-05-03T11:34:08Z</time></trkpt><trkpt lat="42.51197385666031" lon="14.141845764275935"><ele>5.5</ele><time>2026-05-03T11:34:09Z</time></trkpt><trkpt lat="42.51211349658072" lon="14.141774505475368"><ele>6.0</ele><time>2026-05-03T11:34:10Z</time></trkpt><trkpt lat="42.51224079640833" lon="14.141701184407138"><ele>6.5</ele><time>2026-05-03T11:34:11Z</time></trkpt><trkpt lat="42.51236337007181" lon="14.141641919452635"><ele>7.0</ele><time>2026-05-03T11:34:12Z</time></trkpt><trkpt lat="42.51248764867677" lon="14.141593835903912"><ele>7.199999999999999</ele><time>2026-05-03T11:34:13Z</time></trkpt><trkpt lat="42.51261060542532" lon="14.141547766895561"><ele>7.3999999999999995</ele><time>2026-05-03T11:34:14Z</time></trkpt><trkpt lat="42.51272750776966" lon="14.14150723804337"><ele>7.6000000000000005</ele><time>2026-05-03T11:34:15Z</time></trkpt><trkpt lat="42.51282101199933" lon="14.141471532631577"><ele>7.800000000000001</ele><time>2026-05-03T11:34:16Z</time></trkpt><trkpt lat="42.51291472005209" lon="14.14144017010981"><ele>8.0</ele><time>2026-05-03T11:34:17Z</time></trkpt><trkpt lat="42.51301226260546" lon="14.14142080192743"><ele>7.5</ele><time>2026-05-03T11:34:18Z</time></trkpt><trkpt lat="42.513133269664586" lon="14.141396303151062"><ele>7.0</ele><time>2026-05-03T11:34:19Z</time></trkpt><trkpt lat="42.513244834034616" lon="14.141438935512703"><ele>6.5</ele><time>2026-05-03T11:34:20Z</time></trkpt><trkpt lat="42.51342367984287" lon="14.141504574118194"><ele>6.0</ele><time>2026-05-03T11:34:21Z</time></trkpt><trkpt lat="42.5135894470163" lon="14.14160108916578"><ele>5.0</ele><time>2026-05-03T11:34:22Z</time></trkpt><trkpt lat="42.51375047979309" lon="14.141711913794607"><ele>4.0</ele><time>2026-05-03T11:34:23Z</time></trkpt><trkpt lat="42.51389176921046" lon="14.141819292287446"><ele>3.0</ele><time>2026-05-03T11:34:24Z</time></trkpt><trkpt lat="42.51401815885913" lon="14.141918201890414"><ele>3.0</ele><time>2026-05-03T11:34:25Z</time></trkpt><trkpt lat="42.5141285125701" lon="14.14200217294454"><ele>3.0</ele><time>2026-05-03T11:34:26Z</time></trkpt><trkpt lat="42.51421405640416" lon="14.142077144928104"><ele>3.0</ele><time>2026-05-03T11:34:27Z</time></trkpt><trkpt lat="42.51426919858772" lon="14.142145037547714"><ele>3.0</ele><time>2026-05-03T11:34:28Z</time></trkpt><trkpt lat="42.51429631147879" lon="14.142227993825381"><ele>3.0</ele><time>2026-05-03T11:34:30Z</time></trkpt><trkpt lat="42.514304836040516" lon="14.142373156038428"><ele>2.8</ele><time>2026-05-03T11:34:35Z</time></trkpt><trkpt lat="42.5143396411859" lon="14.142479600529995"><ele>2.5999999999999996</ele><time>2026-05-03T11:34:36Z</time></trkpt><trkpt lat="42.51444515555212" lon="14.142519311226307"><ele>2.4000000000000004</ele><time>2026-05-03T11:34:38Z</time></trkpt><trkpt lat="42.51451368489722" lon="14.142486399762461"><ele>2.2</ele><time>2026-05-03T11:34:39Z</time></trkpt><trkpt lat="42.514619729974854" lon="14.142428054275086"><ele>2.0</ele><time>2026-05-03T11:34:40Z</time></trkpt><trkpt lat="42.51472311139962" lon="14.142415778897204"><ele>2.0</ele><time>2026-05-03T11:34:41Z</time></trkpt><trkpt lat="42.514811759526005" lon="14.142399922519118"><ele>2.0</ele><time>2026-05-03T11:34:42Z</time></trkpt><trkpt lat="42.51495463989289" lon="14.142583540619496"><ele>2.0</ele><time>2026-05-03T11:34:43Z</time></trkpt><trkpt lat="42.51509797233038" lon="14.14268503735725"><ele>2.0</ele><time>2026-05-03T11:34:44Z</time></trkpt><trkpt lat="42.5152512565169" lon="14.142797674231666"><ele>2.0</ele><time>2026-05-03T11:34:45Z</time></trkpt><trkpt lat="42.51538681116567" lon="14.142911075131792"><ele>2.0</ele><time>2026-05-03T11:34:46Z</time></trkpt><trkpt lat="42.51551415000734" lon="14.143015127923972"><ele>2.0</ele><time>2026-05-03T11:34:47Z</time></trkpt><trkpt lat="42.51563569465038" lon="14.143101016745137"><ele>2.0</ele><time>2026-05-03T11:34:48Z</time></trkpt><trkpt lat="42.515751699704005" lon="14.143177367678561"><ele>2.5</ele><time>2026-05-03T11:34:49Z</time></trkpt><trkpt lat="42.51586070316049" lon="14.143251811425623"><ele>3.0</ele><time>2026-05-03T11:34:50Z</time></trkpt><trkpt lat="42.51596270063452" lon="14.143329981287703"><ele>3.5</ele><time>2026-05-03T11:34:51Z</time></trkpt><trkpt lat="42.5160641046623" lon="14.143407522400349"><ele>4.0</ele><time>2026-05-03T11:34:52Z</time></trkpt><trkpt lat="42.516175580166255" lon="14.143481548078528"><ele>4.5</ele><time>2026-05-03T11:34:53Z</time></trkpt><trkpt lat="42.51629108128923" lon="14.143563039525997"><ele>5.0</ele><time>2026-05-03T11:34:54Z</time></trkpt><trkpt lat="42.516408389034204" lon="14.143645233004182"><ele>5.5</ele><time>2026-05-03T11:34:55Z</time></trkpt><trkpt lat="42.51652674707123" lon="14.14372906262032"><ele>6.0</ele><time>2026-05-03T11:34:56Z</time></trkpt><trkpt lat="42.51664338826407" lon="14.14381397931472"><ele>6.0</ele><time>2026-05-03T11:34:57Z</time></trkpt><trkpt lat="42.516763752685165" lon="14.143904149760044"><ele>6.0</ele><time>2026-05-03T11:34:58Z</time></trkpt><trkpt lat="42.51688748508675" lon="14.143995935215344"><ele>6.0</ele><time>2026-05-03T11:34:59Z</time></trkpt><trkpt lat="42.51703249347483" lon="14.144091511864918"><ele>6.0</ele><time>2026-05-03T11:35:00Z</time></trkpt><trkpt lat="42.517201892672865" lon="14.144195440047403"><ele>5.0</ele><time>2026-05-03T11:35:01Z</time></trkpt><trkpt lat="42.51739666795245" lon="14.144332913612608"><ele>4.0</ele><time>2026-05-03T11:35:02Z</time></trkpt><trkpt lat="42.51758925428494" lon="14.1444877170065"><ele>3.0</ele><time>2026-05-03T11:35:03Z</time></trkpt><trkpt lat="42.51776510569466" lon="14.144633868984291"><ele>3.0</ele><time>2026-05-03T11:35:04Z</time></trkpt><trkpt lat="42.517941586035825" lon="14.144764904654505"><ele>3.0</ele><time>2026-05-03T11:35:05Z</time></trkpt><trkpt lat="42.51811815346384" lon="14.144887507728855"><ele>3.0</ele><time>2026-05-03T11:35:06Z</time></trkpt><trkpt lat="42.518293831606506" lon="14.145010011560084"><ele>3.0</ele><time>2026-05-03T11:35:07Z</time></trkpt><trkpt lat="42.51846501147846" lon="14.145133844675806"><ele>3.0</ele><time>2026-05-03T11:35:08Z</time></trkpt><trkpt lat="42.518629251334715" lon="14.145253076207556"><ele>3.0</ele><time>2026-05-03T11:35:09Z</time></trkpt><trkpt lat="42.518781742469514" lon="14.145361092731086"><ele>3.0</ele><time>2026-05-03T11:35:10Z</time></trkpt><trkpt lat="42.51891848425492" lon="14.145460949932133"><ele>3.0</ele><time>2026-05-03T11:35:11Z</time></trkpt><trkpt lat="42.51904909572845" lon="14.145550870128675"><ele>3.0</ele><time>2026-05-03T11:35:12Z</time></trkpt><trkpt lat="42.51917307815526" lon="14.145633317520938"><ele>3.0</ele><time>2026-05-03T11:35:13Z</time></trkpt><trkpt lat="42.51928693706214" lon="14.14571165812702"><ele>3.0</ele><time>2026-05-03T11:35:14Z</time></trkpt><trkpt lat="42.51938729250323" lon="14.145786431308174"><ele>3.0</ele><time>2026-05-03T11:35:15Z</time></trkpt><trkpt lat="42.5194676915425" lon="14.145864711375964"><ele>3.0</ele><time>2026-05-03T11:35:16Z</time></trkpt><trkpt lat="42.519523338282575" lon="14.145942827432261"><ele>3.0</ele><time>2026-05-03T11:35:17Z</time></trkpt><trkpt lat="42.519576681895" lon="14.146086416330967"><ele>3.0</ele><time>2026-05-03T11:35:19Z</time></trkpt><trkpt lat="42.51950283193167" lon="14.146253171357"><ele>3.0</ele><time>2026-05-03T11:35:20.999Z</time></trkpt><trkpt lat="42.51941055748483" lon="14.146369017844313"><ele>3.0</ele><time>2026-05-03T11:35:21.999Z</time></trkpt><trkpt lat="42.51929737094172" lon="14.146502065232365"><ele>3.0</ele><time>2026-05-03T11:35:22.999Z</time></trkpt><trkpt lat="42.519195262985214" lon="14.146629841051151"><ele>3.0</ele><time>2026-05-03T11:35:23.999Z</time></trkpt><trkpt lat="42.51912456505448" lon="14.14673598925207"><ele>3.0</ele><time>2026-05-03T11:35:24.999Z</time></trkpt><trkpt lat="42.51907649063633" lon="14.146798872178401"><ele>3.0</ele><time>2026-05-03T11:35:25.999Z</time></trkpt><trkpt lat="42.51901690621635" lon="14.14688135658209"><ele>3.0</ele><time>2026-05-03T11:35:27.999Z</time></trkpt><trkpt lat="42.519037752822676" lon="14.147021416112143"><ele>3.0</ele><time>2026-05-03T11:35:29.999Z</time></trkpt><trkpt lat="42.51907605646467" lon="14.147118598344523"><ele>3.0</ele><time>2026-05-03T11:35:30.999Z</time></trkpt><trkpt lat="42.51913837784614" lon="14.147200291371718"><ele>3.0</ele><time>2026-05-03T11:35:31.999Z</time></trkpt><trkpt lat="42.51923288534298" lon="14.147267501082782"><ele>3.0</ele><time>2026-05-03T11:35:32.999Z</time></trkpt><trkpt lat="42.51932809182081" lon="14.147297756305333"><ele>3.0</ele><time>2026-05-03T11:35:33.999Z</time></trkpt><trkpt lat="42.519450903416654" lon="14.14733871175176"><ele>3.0</ele><time>2026-05-03T11:35:34.999Z</time></trkpt><trkpt lat="42.519546593284076" lon="14.147469662294712"><ele>3.0</ele><time>2026-05-03T11:35:35.999Z</time></trkpt><trkpt lat="42.519640956353115" lon="14.147611120723848"><ele>2.75</ele><time>2026-05-03T11:35:36.999Z</time></trkpt><trkpt lat="42.51972526083391" lon="14.147772727905428"><ele>2.5</ele><time>2026-05-03T11:35:37.999Z</time></trkpt><trkpt lat="42.519812452470305" lon="14.147930411286232"><ele>2.25</ele><time>2026-05-03T11:35:38.999Z</time></trkpt><trkpt lat="42.51989998083453" lon="14.14809084592512"><ele>2.0</ele><time>2026-05-03T11:35:39.999Z</time></trkpt><trkpt lat="42.519978479199814" lon="14.148253082176034"><ele>2.0</ele><time>2026-05-03T11:35:40.999Z</time></trkpt><trkpt lat="42.52004559328731" lon="14.148423512308941"><ele>2.0</ele><time>2026-05-03T11:35:41.999Z</time></trkpt><trkpt lat="42.52010793080248" lon="14.148604798320063"><ele>2.0</ele><time>2026-05-03T11:35:42.999Z</time></trkpt><trkpt lat="42.520169329872" lon="14.148786579707497"><ele>2.0</ele><time>2026-05-03T11:35:43.999Z</time></trkpt><trkpt lat="42.52023108542816" lon="14.14897616360386"><ele>2.0</ele><time>2026-05-03T11:35:44.999Z</time></trkpt><trkpt lat="42.52029387032799" lon="14.149169664797666"><ele>2.0</ele><time>2026-05-03T11:35:45.999Z</time></trkpt><trkpt lat="42.52036088612774" lon="14.14936586256108"><ele>2.0</ele><time>2026-05-03T11:35:46.999Z</time></trkpt><trkpt lat="42.52042908999143" lon="14.149556393375732"><ele>2.0</ele><time>2026-05-03T11:35:47.999Z</time></trkpt><trkpt lat="42.520502483629" lon="14.149751354591839"><ele>2.0</ele><time>2026-05-03T11:35:48.999Z</time></trkpt><trkpt lat="42.52056761401828" lon="14.149945219610174"><ele>2.0</ele><time>2026-05-03T11:35:49.999Z</time></trkpt><trkpt lat="42.52063153018865" lon="14.15013476540868"><ele>2.333333333333333</ele><time>2026-05-03T11:35:51Z</time></trkpt><trkpt lat="42.520695094371" lon="14.150323922912179"><ele>2.6666666666666665</ele><time>2026-05-03T11:35:52Z</time></trkpt><trkpt lat="42.520759065061505" lon="14.150508765974635"><ele>3.0</ele><time>2026-05-03T11:35:53Z</time></trkpt><trkpt lat="42.52081697361913" lon="14.150690580486613"><ele>2.75</ele><time>2026-05-03T11:35:54Z</time></trkpt><trkpt lat="42.52088117292702" lon="14.150869144152619"><ele>2.5</ele><time>2026-05-03T11:35:55Z</time></trkpt><trkpt lat="42.52094303616041" lon="14.151045099328488"><ele>2.25</ele><time>2026-05-03T11:35:56Z</time></trkpt><trkpt lat="42.52099671555948" lon="14.151208823046323"><ele>2.0</ele><time>2026-05-03T11:35:57Z</time></trkpt><trkpt lat="42.52104755693369" lon="14.151364522064808"><ele>2.0</ele><time>2026-05-03T11:35:58Z</time></trkpt><trkpt lat="42.52109839019244" lon="14.151508002392994"><ele>2.0</ele><time>2026-05-03T11:35:59Z</time></trkpt><trkpt lat="42.521146327322626" lon="14.151647104063233"><ele>2.0</ele><time>2026-05-03T11:36:00Z</time></trkpt><trkpt lat="42.5211892620567" lon="14.151773557044915"><ele>2.0</ele><time>2026-05-03T11:36:01Z</time></trkpt><trkpt lat="42.52123252489738" lon="14.15189161428329"><ele>2.0</ele><time>2026-05-03T11:36:02Z</time></trkpt><trkpt lat="42.52126887663952" lon="14.15200234957074"><ele>1.6666666666666665</ele><time>2026-05-03T11:36:03Z</time></trkpt><trkpt lat="42.52130103873379" lon="14.152102205054097"><ele>1.3333333333333333</ele><time>2026-05-03T11:36:04Z</time></trkpt><trkpt lat="42.52133427521429" lon="14.152200842565044"><ele>1.0</ele><time>2026-05-03T11:36:05Z</time></trkpt><trkpt lat="42.521371700860755" lon="14.152306061416308"><ele>0.6666666666666666</ele><time>2026-05-03T11:36:06Z</time></trkpt><trkpt lat="42.521412074249504" lon="14.152419831213022"><ele>0.3333333333333333</ele><time>2026-05-03T11:36:07Z</time></trkpt><trkpt lat="42.521452738004605" lon="14.15253729624367"><ele>0.0</ele><time>2026-05-03T11:36:08Z</time></trkpt><trkpt lat="42.52149634984588" lon="14.15265692995338"><ele>0.0</ele><time>2026-05-03T11:36:09Z</time></trkpt><trkpt lat="42.52153499595421" lon="14.15277632097585"><ele>0.0</ele><time>2026-05-03T11:36:10Z</time></trkpt><trkpt lat="42.521575752770694" lon="14.152895373854136"><ele>0.0</ele><time>2026-05-03T11:36:11Z</time></trkpt><trkpt lat="42.52161421957061" lon="14.153017987416836"><ele>0.0</ele><time>2026-05-03T11:36:12Z</time></trkpt><trkpt lat="42.521656310347105" lon="14.153141238600945"><ele>0.0</ele><time>2026-05-03T11:36:13Z</time></trkpt><trkpt lat="42.52169899454668" lon="14.15325655979456"><ele>0.0</ele><time>2026-05-03T11:36:14Z</time></trkpt><trkpt lat="42.52173865039843" lon="14.153370528459162"><ele>0.0</ele><time>2026-05-03T11:36:15Z</time></trkpt><trkpt lat="42.52177650053296" lon="14.15347749696825"><ele>0.0</ele><time>2026-05-03T11:36:16Z</time></trkpt><trkpt lat="42.52181117784561" lon="14.153572029020161"><ele>0.0</ele><time>2026-05-03T11:36:17Z</time></trkpt><trkpt lat="42.521851242057465" lon="14.153653571392214"><ele>0.0</ele><time>2026-05-03T11:36:18Z</time></trkpt><trkpt lat="42.521884143880584" lon="14.153755395189036"><ele>0.0</ele><time>2026-05-03T11:36:20Z</time></trkpt><trkpt lat="42.5219723921029" lon="14.153686927139324"><ele>0.0</ele><time>2026-05-03T11:36:21Z</time></trkpt><trkpt lat="42.52167028400022" lon="14.153670758009676"><ele>0.0</ele><time>2026-05-03T11:36:27Z</time></trkpt><trkpt lat="42.52163269524859" lon="14.153588589016808"><ele>0.0</ele><time>2026-05-03T11:36:28Z</time></trkpt><trkpt lat="42.52158902620349" lon="14.153493128380704"><ele>0.0</ele><time>2026-05-03T11:36:29Z</time></trkpt><trkpt lat="42.52154369613741" lon="14.15339403656"><ele>0.0</ele><time>2026-05-03T11:36:30Z</time></trkpt><trkpt lat="42.521494124181295" lon="14.153283548412485"><ele>0.0</ele><time>2026-05-03T11:36:31Z</time></trkpt><trkpt lat="42.52144067115803" lon="14.153166341837263"><ele>0.0</ele><time>2026-05-03T11:36:32Z</time></trkpt><trkpt lat="42.52138132791023" lon="14.153036378379202"><ele>0.0</ele><time>2026-05-03T11:36:33Z</time></trkpt><trkpt lat="42.52132095086885" lon="14.152904149808254"><ele>-0.2</ele><time>2026-05-03T11:36:34Z</time></trkpt><trkpt lat="42.52126466702072" lon="14.1527791147139"><ele>-0.4</ele><time>2026-05-03T11:36:35Z</time></trkpt><trkpt lat="42.521213688964465" lon="14.152668221189947"><ele>-0.6000000000000001</ele><time>2026-05-03T11:36:36Z</time></trkpt><trkpt lat="42.52116826500916" lon="14.152568876963764"><ele>-0.8</ele><time>2026-05-03T11:36:37Z</time></trkpt><trkpt lat="42.5211315751325" lon="14.152488633856944"><ele>-1.0</ele><time>2026-05-03T11:36:38Z</time></trkpt><trkpt lat="42.521072092222234" lon="14.152358540138481"><ele>-0.5</ele><time>2026-05-03T11:36:40Z</time></trkpt><trkpt lat="42.521004692625034" lon="14.152211132032555"><ele>0.0</ele><time>2026-05-03T11:36:42Z</time></trkpt><trkpt lat="42.52127568001131" lon="14.151889402514431"><ele>0.0</ele><time>2026-05-03T11:36:43Z</time></trkpt><trkpt lat="42.52129673900315" lon="14.151739515352524"><ele>0.0</ele><time>2026-05-03T11:36:45Z</time></trkpt><trkpt lat="42.52134530478468" lon="14.151679380168238"><ele>0.0</ele><time>2026-05-03T11:36:46Z</time></trkpt><trkpt lat="42.521425259190536" lon="14.151633160586984"><ele>0.0</ele><time>2026-05-03T11:36:47Z</time></trkpt><trkpt lat="42.521520418194065" lon="14.151581996127833"><ele>0.0</ele><time>2026-05-03T11:36:48Z</time></trkpt><trkpt lat="42.521616655151405" lon="14.15151453114148"><ele>1.0</ele><time>2026-05-03T11:36:49Z</time></trkpt><trkpt lat="42.52170491112957" lon="14.151434182448142"><ele>2.0</ele><time>2026-05-03T11:36:50Z</time></trkpt><trkpt lat="42.52180696007514" lon="14.15134423656911"><ele>3.0</ele><time>2026-05-03T11:36:51Z</time></trkpt><trkpt lat="42.52191661695249" lon="14.151254180999636"><ele>4.0</ele><time>2026-05-03T11:36:52Z</time></trkpt><trkpt lat="42.52203478528171" lon="14.151156950085918"><ele>4.0</ele><time>2026-05-03T11:36:53Z</time></trkpt><trkpt lat="42.52214819700061" lon="14.15106063755267"><ele>4.0</ele><time>2026-05-03T11:36:54Z</time></trkpt><trkpt lat="42.52224666186698" lon="14.15097126201468"><ele>4.0</ele><time>2026-05-03T11:36:55Z</time></trkpt><trkpt lat="42.522335593333466" lon="14.150893350773178"><ele>4.0</ele><time>2026-05-03T11:36:56Z</time></trkpt><trkpt lat="42.52241118637241" lon="14.150825381746397"><ele>4.0</ele><time>2026-05-03T11:36:57Z</time></trkpt><trkpt lat="42.52247786746903" lon="14.150783260895585"><ele>4.0</ele><time>2026-05-03T11:36:58Z</time></trkpt><trkpt lat="42.52257798454205" lon="14.150843138149718"><ele>4.0</ele><time>2026-05-03T11:36:59.999Z</time></trkpt><trkpt lat="42.52261451238987" lon="14.150935244026494"><ele>4.0</ele><time>2026-05-03T11:37:00.999Z</time></trkpt><trkpt lat="42.52264534205815" lon="14.151051639609395"><ele>4.0</ele><time>2026-05-03T11:37:01.999Z</time></trkpt><trkpt lat="42.52263372794333" lon="14.15113672672439"><ele>4.0</ele><time>2026-05-03T11:37:02.999Z</time></trkpt><trkpt lat="42.522523112477714" lon="14.151229132087433"><ele>4.0</ele><time>2026-05-03T11:37:04.999Z</time></trkpt><trkpt lat="42.52245173870223" lon="14.151301119172699"><ele>4.0</ele><time>2026-05-03T11:37:05.999Z</time></trkpt><trkpt lat="42.52235768359932" lon="14.151354411196408"><ele>4.0</ele><time>2026-05-03T11:37:06.999Z</time></trkpt><trkpt lat="42.52226445091675" lon="14.151430161316112"><ele>4.0</ele><time>2026-05-03T11:37:07.999Z</time></trkpt><trkpt lat="42.522175460598525" lon="14.15150918441765"><ele>4.0</ele><time>2026-05-03T11:37:08.999Z</time></trkpt><trkpt lat="42.522092549238536" lon="14.151573056280565"><ele>3.333333333333333</ele><time>2026-05-03T11:37:09.999Z</time></trkpt><trkpt lat="42.52201492960235" lon="14.15163483674446"><ele>2.6666666666666665</ele><time>2026-05-03T11:37:11Z</time></trkpt><trkpt lat="42.52194615718219" lon="14.151695015791942"><ele>2.0</ele><time>2026-05-03T11:37:11.999Z</time></trkpt><trkpt lat="42.521875804025505" lon="14.151758515486298"><ele>1.3333333333333333</ele><time>2026-05-03T11:37:12.999Z</time></trkpt><trkpt lat="42.52180653128821" lon="14.151817526391428"><ele>0.6666666666666666</ele><time>2026-05-03T11:37:13.999Z</time></trkpt><trkpt lat="42.52174673912891" lon="14.151866093586436"><ele>0.0</ele><time>2026-05-03T11:37:14.999Z</time></trkpt><trkpt lat="42.52168857454832" lon="14.151948523100836"><ele>0.0</ele><time>2026-05-03T11:37:16.999Z</time></trkpt><trkpt lat="42.52170380472968" lon="14.15204011560105"><ele>0.0</ele><time>2026-05-03T11:37:19.999Z</time></trkpt><trkpt lat="42.52168545834089" lon="14.151956509843263"><ele>0.0</ele><time>2026-05-03T11:37:20.999Z</time></trkpt><trkpt lat="42.521732744399294" lon="14.152083622776471"><ele>0.0</ele><time>2026-05-03T11:37:21.999Z</time></trkpt><trkpt lat="42.52184164462962" lon="14.151993778474422"><ele>0.0</ele><time>2026-05-03T11:37:23.999Z</time></trkpt><trkpt lat="42.521901823502176" lon="14.152019067326197"><ele>0.0</ele><time>2026-05-03T11:37:25.999Z</time></trkpt><trkpt lat="42.5219365731599" lon="14.15211256444544"><ele>0.0</ele><time>2026-05-03T11:37:27.999Z</time></trkpt><trkpt lat="42.521960102088414" lon="14.152201296552308"><ele>0.0</ele><time>2026-05-03T11:37:30.999Z</time></trkpt><trkpt lat="42.52199596780806" lon="14.152285070887418"><ele>0.0</ele><time>2026-05-03T11:37:35.999Z</time></trkpt><trkpt lat="42.52192903844596" lon="14.152266345132949"><ele>0.0</ele><time>2026-05-03T11:38:00Z</time></trkpt><trkpt lat="42.521868761960825" lon="14.152300130580103"><ele>0.0</ele><time>2026-05-03T11:38:03Z</time></trkpt><trkpt lat="42.52182620601942" lon="14.152421171095217"><ele>0.0</ele><time>2026-05-03T11:38:15Z</time></trkpt><trkpt lat="42.52184630347935" lon="14.152332318062495"><ele>0.0</ele><time>2026-05-03T11:38:20Z</time></trkpt><trkpt lat="42.521913873790844" lon="14.152240890511028"><ele>0.0</ele><time>2026-05-03T11:38:25Z</time></trkpt><trkpt lat="42.52183253454128" lon="14.152302170186985"><ele>0.0</ele><time>2026-05-03T11:38:38Z</time></trkpt><trkpt lat="42.52191178562748" lon="14.152236121850962"><ele>0.0</ele><time>2026-05-03T11:38:43Z</time></trkpt><trkpt lat="42.52183256673201" lon="14.152302240668643"><ele>0.0</ele><time>2026-05-03T11:38:46Z</time></trkpt></trkseg></trk></gpx>